<?xml version="1.0" encoding="UTF-8" standalone="no" ?>
<gpx xmlns="http://www.topografix.com/GPX/1/1" xmlns:xsi="http://www.w3.org/2001/XMLSchema-instance" xsi:schemaLocation="http://www.topografix.com/GPX/1/1 http://www.topografix.com/GPX/1/1/gpx.xsd" version="1.1" creator="VisuGPX - https://www.visugpx.com">
  <metadata>
    <name>2015-12-11 Pic de la Sauge et pointe de la Galoppaz</name>
    <desc><![CDATA[Sortie CAF Chambéry dans le cadre du tour des sommets de Chambéry (étape 4/7)]]></desc>
  </metadata>
  <trk>
    <name><![CDATA[2015-12-11 Pointe de la Sauge et Galloppaz]]></name>
    <trkseg>
      <trkpt lat="45.54291" lon="6.04354">
        <ele>877</ele>
        <time>2015-12-11T08:28:16Z</time>
      </trkpt>
      <trkpt lat="45.54292" lon="6.0435">
        <ele>877</ele>
        <time>2015-12-11T08:28:22Z</time>
      </trkpt>
      <trkpt lat="45.54315" lon="6.0438">
        <ele>885.017906928</ele>
        <time>2015-12-11T08:28:36Z</time>
      </trkpt>
      <trkpt lat="45.54321" lon="6.04386">
        <ele>885.017906928</ele>
        <time>2015-12-11T08:28:41Z</time>
      </trkpt>
      <trkpt lat="45.54325" lon="6.0439">
        <ele>889.498741271</ele>
        <time>2015-12-11T08:28:47Z</time>
      </trkpt>
      <trkpt lat="45.54328" lon="6.04395">
        <ele>889.498741271</ele>
        <time>2015-12-11T08:28:51Z</time>
      </trkpt>
      <trkpt lat="45.54334" lon="6.044">
        <ele>891.602861466</ele>
        <time>2015-12-11T08:28:56Z</time>
      </trkpt>
      <trkpt lat="45.54341" lon="6.0441">
        <ele>894.215093639</ele>
        <time>2015-12-11T08:29:06Z</time>
      </trkpt>
      <trkpt lat="45.54344" lon="6.04421">
        <ele>894.215093639</ele>
        <time>2015-12-11T08:29:11Z</time>
      </trkpt>
      <trkpt lat="45.54349" lon="6.04435">
        <ele>898.538784515</ele>
        <time>2015-12-11T08:29:22Z</time>
      </trkpt>
      <trkpt lat="45.5435" lon="6.04438">
        <ele>898.538784515</ele>
        <time>2015-12-11T08:29:27Z</time>
      </trkpt>
      <trkpt lat="45.54359" lon="6.04449">
        <ele>901.506696272</ele>
        <time>2015-12-11T08:29:36Z</time>
      </trkpt>
      <trkpt lat="45.54361" lon="6.04455">
        <ele>901.506696272</ele>
        <time>2015-12-11T08:29:41Z</time>
      </trkpt>
      <trkpt lat="45.54366" lon="6.04469">
        <ele>905.42345888</ele>
        <time>2015-12-11T08:29:51Z</time>
      </trkpt>
      <trkpt lat="45.54367" lon="6.04475">
        <ele>905.42345888</ele>
        <time>2015-12-11T08:29:56Z</time>
      </trkpt>
      <trkpt lat="45.54374" lon="6.04487">
        <ele>908.161144537</ele>
        <time>2015-12-11T08:30:07Z</time>
      </trkpt>
      <trkpt lat="45.54379" lon="6.04496">
        <ele>908.161144537</ele>
        <time>2015-12-11T08:30:12Z</time>
      </trkpt>
      <trkpt lat="45.54389" lon="6.04504">
        <ele>910.932182525</ele>
        <time>2015-12-11T08:30:22Z</time>
      </trkpt>
      <trkpt lat="45.54391" lon="6.04511">
        <ele>910.932182525</ele>
        <time>2015-12-11T08:30:26Z</time>
      </trkpt>
      <trkpt lat="45.54403" lon="6.04532">
        <ele>912.480117887</ele>
        <time>2015-12-11T08:30:42Z</time>
      </trkpt>
      <trkpt lat="45.54402" lon="6.04551">
        <ele>914.221093667</ele>
        <time>2015-12-11T08:30:56Z</time>
      </trkpt>
      <trkpt lat="45.54398" lon="6.04557">
        <ele>914.221093667</ele>
        <time>2015-12-11T08:31:01Z</time>
      </trkpt>
      <trkpt lat="45.54394" lon="6.04571">
        <ele>916.150175603</ele>
        <time>2015-12-11T08:31:12Z</time>
      </trkpt>
      <trkpt lat="45.54393" lon="6.04574">
        <ele>916.150175603</ele>
        <time>2015-12-11T08:31:16Z</time>
      </trkpt>
      <trkpt lat="45.54389" lon="6.0458">
        <ele>916.150175603</ele>
        <time>2015-12-11T08:31:21Z</time>
      </trkpt>
      <trkpt lat="45.54388" lon="6.04581">
        <ele>917.282860334</ele>
        <time>2015-12-11T08:31:26Z</time>
      </trkpt>
      <trkpt lat="45.54389" lon="6.0458">
        <ele>917.282860334</ele>
        <time>2015-12-11T08:31:31Z</time>
      </trkpt>
      <trkpt lat="45.54388" lon="6.04581">
        <ele>917.282860334</ele>
        <time>2015-12-11T08:31:36Z</time>
      </trkpt>
      <trkpt lat="45.54388" lon="6.04582">
        <ele>917.282860334</ele>
        <time>2015-12-11T08:31:41Z</time>
      </trkpt>
      <trkpt lat="45.54387" lon="6.04585">
        <ele>917.282860334</ele>
        <time>2015-12-11T08:31:46Z</time>
      </trkpt>
      <trkpt lat="45.54386" lon="6.04587">
        <ele>917.282860334</ele>
        <time>2015-12-11T08:31:51Z</time>
      </trkpt>
      <trkpt lat="45.54385" lon="6.0459">
        <ele>917.282860334</ele>
        <time>2015-12-11T08:31:56Z</time>
      </trkpt>
      <trkpt lat="45.54383" lon="6.0459">
        <ele>918.732927002</ele>
        <time>2015-12-11T08:32:01Z</time>
      </trkpt>
      <trkpt lat="45.54382" lon="6.04595">
        <ele>918.732927002</ele>
        <time>2015-12-11T08:32:11Z</time>
      </trkpt>
      <trkpt lat="45.54378" lon="6.04603">
        <ele>919.851870326</ele>
        <time>2015-12-11T08:32:17Z</time>
      </trkpt>
      <trkpt lat="45.54374" lon="6.04611">
        <ele>919.851870326</ele>
        <time>2015-12-11T08:32:26Z</time>
      </trkpt>
      <trkpt lat="45.54373" lon="6.04614">
        <ele>921.208202769</ele>
        <time>2015-12-11T08:32:32Z</time>
      </trkpt>
      <trkpt lat="45.54371" lon="6.0462">
        <ele>921.208202769</ele>
        <time>2015-12-11T08:32:41Z</time>
      </trkpt>
      <trkpt lat="45.54369" lon="6.04627">
        <ele>922.484797851</ele>
        <time>2015-12-11T08:32:47Z</time>
      </trkpt>
      <trkpt lat="45.54364" lon="6.04637">
        <ele>922.484797851</ele>
        <time>2015-12-11T08:32:56Z</time>
      </trkpt>
      <trkpt lat="45.54364" lon="6.04638">
        <ele>924.040738</ele>
        <time>2015-12-11T08:33:01Z</time>
      </trkpt>
      <trkpt lat="45.54359" lon="6.04642">
        <ele>924.040738</ele>
        <time>2015-12-11T08:33:12Z</time>
      </trkpt>
      <trkpt lat="45.54356" lon="6.04646">
        <ele>924.909903209</ele>
        <time>2015-12-11T08:33:16Z</time>
      </trkpt>
      <trkpt lat="45.54354" lon="6.04652">
        <ele>924.909903209</ele>
        <time>2015-12-11T08:33:21Z</time>
      </trkpt>
      <trkpt lat="45.5435" lon="6.04658">
        <ele>926.130726775</ele>
        <time>2015-12-11T08:33:33Z</time>
      </trkpt>
      <trkpt lat="45.54349" lon="6.04661">
        <ele>926.130726775</ele>
        <time>2015-12-11T08:33:36Z</time>
      </trkpt>
      <trkpt lat="45.54345" lon="6.0467">
        <ele>927.057704156</ele>
        <time>2015-12-11T08:33:46Z</time>
      </trkpt>
      <trkpt lat="45.54343" lon="6.04674">
        <ele>927.057704156</ele>
        <time>2015-12-11T08:33:51Z</time>
      </trkpt>
      <trkpt lat="45.54341" lon="6.04678">
        <ele>927.057704156</ele>
        <time>2015-12-11T08:34:01Z</time>
      </trkpt>
      <trkpt lat="45.54338" lon="6.04682">
        <ele>927.126207153</ele>
        <time>2015-12-11T08:34:07Z</time>
      </trkpt>
      <trkpt lat="45.54332" lon="6.04695">
        <ele>927.941592928</ele>
        <time>2015-12-11T08:34:17Z</time>
      </trkpt>
      <trkpt lat="45.54331" lon="6.04699">
        <ele>927.941592928</ele>
        <time>2015-12-11T08:34:21Z</time>
      </trkpt>
      <trkpt lat="45.54327" lon="6.04711">
        <ele>929.277271145</ele>
        <time>2015-12-11T08:34:31Z</time>
      </trkpt>
      <trkpt lat="45.54324" lon="6.04714">
        <ele>929.277271145</ele>
        <time>2015-12-11T08:34:37Z</time>
      </trkpt>
      <trkpt lat="45.54323" lon="6.04716">
        <ele>929.277271145</ele>
        <time>2015-12-11T08:34:46Z</time>
      </trkpt>
      <trkpt lat="45.54319" lon="6.04727">
        <ele>930.640985327</ele>
        <time>2015-12-11T08:34:52Z</time>
      </trkpt>
      <trkpt lat="45.54312" lon="6.04741">
        <ele>932.461714632</ele>
        <time>2015-12-11T08:35:06Z</time>
      </trkpt>
      <trkpt lat="45.54307" lon="6.0475">
        <ele>932.461714632</ele>
        <time>2015-12-11T08:35:11Z</time>
      </trkpt>
      <trkpt lat="45.54301" lon="6.04761">
        <ele>934.122325392</ele>
        <time>2015-12-11T08:35:21Z</time>
      </trkpt>
      <trkpt lat="45.54296" lon="6.04764">
        <ele>934.122325392</ele>
        <time>2015-12-11T08:35:26Z</time>
      </trkpt>
      <trkpt lat="45.54292" lon="6.04772">
        <ele>935.77774467</ele>
        <time>2015-12-11T08:35:32Z</time>
      </trkpt>
      <trkpt lat="45.54291" lon="6.04772">
        <ele>935.77774467</ele>
        <time>2015-12-11T08:35:36Z</time>
      </trkpt>
      <trkpt lat="45.54288" lon="6.04776">
        <ele>935.77774467</ele>
        <time>2015-12-11T08:35:41Z</time>
      </trkpt>
      <trkpt lat="45.54277" lon="6.04802">
        <ele>937.846835012</ele>
        <time>2015-12-11T08:35:52Z</time>
      </trkpt>
      <trkpt lat="45.54274" lon="6.0481">
        <ele>937.846835012</ele>
        <time>2015-12-11T08:35:56Z</time>
      </trkpt>
      <trkpt lat="45.54271" lon="6.04816">
        <ele>939.873097276</ele>
        <time>2015-12-11T08:36:07Z</time>
      </trkpt>
      <trkpt lat="45.5427" lon="6.04818">
        <ele>939.873097276</ele>
        <time>2015-12-11T08:36:11Z</time>
      </trkpt>
      <trkpt lat="45.54266" lon="6.04833">
        <ele>941.579947898</ele>
        <time>2015-12-11T08:36:21Z</time>
      </trkpt>
      <trkpt lat="45.54264" lon="6.04837">
        <ele>941.579947898</ele>
        <time>2015-12-11T08:36:26Z</time>
      </trkpt>
      <trkpt lat="45.54266" lon="6.04849">
        <ele>943.1288561</ele>
        <time>2015-12-11T08:36:37Z</time>
      </trkpt>
      <trkpt lat="45.54264" lon="6.04859">
        <ele>943.1288561</ele>
        <time>2015-12-11T08:36:41Z</time>
      </trkpt>
      <trkpt lat="45.54264" lon="6.04872">
        <ele>944.390924506</ele>
        <time>2015-12-11T08:36:51Z</time>
      </trkpt>
      <trkpt lat="45.54263" lon="6.04879">
        <ele>944.390924506</ele>
        <time>2015-12-11T08:36:57Z</time>
      </trkpt>
      <trkpt lat="45.54263" lon="6.04896">
        <ele>946.080324825</ele>
        <time>2015-12-11T08:37:06Z</time>
      </trkpt>
      <trkpt lat="45.54263" lon="6.04902">
        <ele>946.080324825</ele>
        <time>2015-12-11T08:37:12Z</time>
      </trkpt>
      <trkpt lat="45.5426" lon="6.04912">
        <ele>947.471127868</ele>
        <time>2015-12-11T08:37:26Z</time>
      </trkpt>
      <trkpt lat="45.54257" lon="6.04924">
        <ele>947.471127868</ele>
        <time>2015-12-11T08:37:37Z</time>
      </trkpt>
      <trkpt lat="45.54256" lon="6.04928">
        <ele>949.002904174</ele>
        <time>2015-12-11T08:37:41Z</time>
      </trkpt>
      <trkpt lat="45.54254" lon="6.04936">
        <ele>949.002904174</ele>
        <time>2015-12-11T08:37:53Z</time>
      </trkpt>
      <trkpt lat="45.54254" lon="6.04936">
        <ele>949.002904174</ele>
        <time>2015-12-11T08:37:56Z</time>
      </trkpt>
      <trkpt lat="45.54254" lon="6.04946">
        <ele>951.232017454</ele>
        <time>2015-12-11T08:38:13Z</time>
      </trkpt>
      <trkpt lat="45.54254" lon="6.04947">
        <ele>951.232017454</ele>
        <time>2015-12-11T08:38:26Z</time>
      </trkpt>
      <trkpt lat="45.54253" lon="6.04953">
        <ele>951.232017454</ele>
        <time>2015-12-11T08:38:31Z</time>
      </trkpt>
      <trkpt lat="45.5425" lon="6.0496">
        <ele>953.551028955</ele>
        <time>2015-12-11T08:38:41Z</time>
      </trkpt>
      <trkpt lat="45.5425" lon="6.04968">
        <ele>953.551028955</ele>
        <time>2015-12-11T08:38:46Z</time>
      </trkpt>
      <trkpt lat="45.54248" lon="6.04978">
        <ele>956.097596276</ele>
        <time>2015-12-11T08:38:57Z</time>
      </trkpt>
      <trkpt lat="45.54249" lon="6.04983">
        <ele>956.097596276</ele>
        <time>2015-12-11T08:39:01Z</time>
      </trkpt>
      <trkpt lat="45.54242" lon="6.05">
        <ele>958.427136124</ele>
        <time>2015-12-11T08:39:12Z</time>
      </trkpt>
      <trkpt lat="45.54241" lon="6.05005">
        <ele>958.427136124</ele>
        <time>2015-12-11T08:39:16Z</time>
      </trkpt>
      <trkpt lat="45.54238" lon="6.05013">
        <ele>960.552072914</ele>
        <time>2015-12-11T08:39:26Z</time>
      </trkpt>
      <trkpt lat="45.54234" lon="6.05021">
        <ele>960.552072914</ele>
        <time>2015-12-11T08:39:31Z</time>
      </trkpt>
      <trkpt lat="45.54231" lon="6.05033">
        <ele>962.922291354</ele>
        <time>2015-12-11T08:39:41Z</time>
      </trkpt>
      <trkpt lat="45.54233" lon="6.05039">
        <ele>962.922291354</ele>
        <time>2015-12-11T08:39:46Z</time>
      </trkpt>
      <trkpt lat="45.54229" lon="6.0505">
        <ele>965.230519416</ele>
        <time>2015-12-11T08:39:56Z</time>
      </trkpt>
      <trkpt lat="45.54228" lon="6.05056">
        <ele>965.230519416</ele>
        <time>2015-12-11T08:40:01Z</time>
      </trkpt>
      <trkpt lat="45.54226" lon="6.0506">
        <ele>965.230519416</ele>
        <time>2015-12-11T08:40:12Z</time>
      </trkpt>
      <trkpt lat="45.54224" lon="6.05063">
        <ele>967.775970153</ele>
        <time>2015-12-11T08:40:16Z</time>
      </trkpt>
      <trkpt lat="45.54209" lon="6.05084">
        <ele>970.247043483</ele>
        <time>2015-12-11T08:40:31Z</time>
      </trkpt>
      <trkpt lat="45.54205" lon="6.0509">
        <ele>970.247043483</ele>
        <time>2015-12-11T08:40:42Z</time>
      </trkpt>
      <trkpt lat="45.54205" lon="6.05093">
        <ele>970.247043483</ele>
        <time>2015-12-11T08:40:46Z</time>
      </trkpt>
      <trkpt lat="45.54199" lon="6.051">
        <ele>973.840122765</ele>
        <time>2015-12-11T08:40:56Z</time>
      </trkpt>
      <trkpt lat="45.54197" lon="6.05105">
        <ele>973.840122765</ele>
        <time>2015-12-11T08:41:02Z</time>
      </trkpt>
      <trkpt lat="45.54194" lon="6.05107">
        <ele>973.840122765</ele>
        <time>2015-12-11T08:41:06Z</time>
      </trkpt>
      <trkpt lat="45.5419" lon="6.05118">
        <ele>978.476902685</ele>
        <time>2015-12-11T08:41:17Z</time>
      </trkpt>
      <trkpt lat="45.54188" lon="6.05126">
        <ele>978.476902685</ele>
        <time>2015-12-11T08:41:22Z</time>
      </trkpt>
      <trkpt lat="45.54185" lon="6.05134">
        <ele>983.176965488</ele>
        <time>2015-12-11T08:41:31Z</time>
      </trkpt>
      <trkpt lat="45.54184" lon="6.05135">
        <ele>983.176965488</ele>
        <time>2015-12-11T08:41:37Z</time>
      </trkpt>
      <trkpt lat="45.54181" lon="6.05143">
        <ele>983.176965488</ele>
        <time>2015-12-11T08:41:46Z</time>
      </trkpt>
      <trkpt lat="45.54183" lon="6.05162">
        <ele>986.571997106</ele>
        <time>2015-12-11T08:42:02Z</time>
      </trkpt>
      <trkpt lat="45.54183" lon="6.05166">
        <ele>986.571997106</ele>
        <time>2015-12-11T08:42:06Z</time>
      </trkpt>
      <trkpt lat="45.54178" lon="6.05175">
        <ele>989.806008695</ele>
        <time>2015-12-11T08:42:16Z</time>
      </trkpt>
      <trkpt lat="45.54177" lon="6.05183">
        <ele>989.806008695</ele>
        <time>2015-12-11T08:42:22Z</time>
      </trkpt>
      <trkpt lat="45.54178" lon="6.05191">
        <ele>993.642501378</ele>
        <time>2015-12-11T08:42:37Z</time>
      </trkpt>
      <trkpt lat="45.54176" lon="6.05199">
        <ele>993.642501378</ele>
        <time>2015-12-11T08:42:41Z</time>
      </trkpt>
      <trkpt lat="45.54175" lon="6.0521">
        <ele>998.182527679</ele>
        <time>2015-12-11T08:42:51Z</time>
      </trkpt>
      <trkpt lat="45.54175" lon="6.05221">
        <ele>998.182527679</ele>
        <time>2015-12-11T08:42:56Z</time>
      </trkpt>
      <trkpt lat="45.54172" lon="6.05232">
        <ele>1002.912121109</ele>
        <time>2015-12-11T08:43:06Z</time>
      </trkpt>
      <trkpt lat="45.5417" lon="6.05233">
        <ele>1002.912121109</ele>
        <time>2015-12-11T08:43:11Z</time>
      </trkpt>
      <trkpt lat="45.54168" lon="6.05247">
        <ele>1007.959642987</ele>
        <time>2015-12-11T08:43:22Z</time>
      </trkpt>
      <trkpt lat="45.54166" lon="6.05249">
        <ele>1007.959642987</ele>
        <time>2015-12-11T08:43:26Z</time>
      </trkpt>
      <trkpt lat="45.54167" lon="6.05259">
        <ele>1012.387165592</ele>
        <time>2015-12-11T08:43:37Z</time>
      </trkpt>
      <trkpt lat="45.54165" lon="6.05267">
        <ele>1012.387165592</ele>
        <time>2015-12-11T08:43:41Z</time>
      </trkpt>
      <trkpt lat="45.54162" lon="6.05277">
        <ele>1016.388730188</ele>
        <time>2015-12-11T08:43:51Z</time>
      </trkpt>
      <trkpt lat="45.54158" lon="6.05294">
        <ele>1020.445407578</ele>
        <time>2015-12-11T08:44:06Z</time>
      </trkpt>
      <trkpt lat="45.54157" lon="6.05298">
        <ele>1020.445407578</ele>
        <time>2015-12-11T08:44:11Z</time>
      </trkpt>
      <trkpt lat="45.54148" lon="6.05311">
        <ele>1024.69881807</ele>
        <time>2015-12-11T08:44:22Z</time>
      </trkpt>
      <trkpt lat="45.54145" lon="6.05317">
        <ele>1024.69881807</ele>
        <time>2015-12-11T08:44:26Z</time>
      </trkpt>
      <trkpt lat="45.54142" lon="6.05321">
        <ele>1029.577594273</ele>
        <time>2015-12-11T08:44:36Z</time>
      </trkpt>
      <trkpt lat="45.5414" lon="6.05325">
        <ele>1029.577594273</ele>
        <time>2015-12-11T08:44:41Z</time>
      </trkpt>
      <trkpt lat="45.54138" lon="6.05331">
        <ele>1029.577594273</ele>
        <time>2015-12-11T08:44:51Z</time>
      </trkpt>
      <trkpt lat="45.54131" lon="6.0534">
        <ele>1033.531640121</ele>
        <time>2015-12-11T08:44:58Z</time>
      </trkpt>
      <trkpt lat="45.54126" lon="6.05355">
        <ele>1037.08050701</ele>
        <time>2015-12-11T08:45:06Z</time>
      </trkpt>
      <trkpt lat="45.54125" lon="6.0536">
        <ele>1037.08050701</ele>
        <time>2015-12-11T08:45:11Z</time>
      </trkpt>
      <trkpt lat="45.54123" lon="6.05365">
        <ele>1037.08050701</ele>
        <time>2015-12-11T08:45:22Z</time>
      </trkpt>
      <trkpt lat="45.54125" lon="6.05373">
        <ele>1040.552868479</ele>
        <time>2015-12-11T08:45:26Z</time>
      </trkpt>
      <trkpt lat="45.54126" lon="6.0538">
        <ele>1040.552868479</ele>
        <time>2015-12-11T08:45:36Z</time>
      </trkpt>
      <trkpt lat="45.54128" lon="6.05383">
        <ele>1040.552868479</ele>
        <time>2015-12-11T08:45:41Z</time>
      </trkpt>
      <trkpt lat="45.54127" lon="6.05397">
        <ele>1043.805449346</ele>
        <time>2015-12-11T08:45:57Z</time>
      </trkpt>
      <trkpt lat="45.54126" lon="6.05408">
        <ele>1043.805449346</ele>
        <time>2015-12-11T08:46:07Z</time>
      </trkpt>
      <trkpt lat="45.54126" lon="6.05411">
        <ele>1046.8555284</ele>
        <time>2015-12-11T08:46:11Z</time>
      </trkpt>
      <trkpt lat="45.54127" lon="6.05427">
        <ele>1049.277118044</ele>
        <time>2015-12-11T08:46:26Z</time>
      </trkpt>
      <trkpt lat="45.54126" lon="6.05435">
        <ele>1049.277118044</ele>
        <time>2015-12-11T08:46:31Z</time>
      </trkpt>
      <trkpt lat="45.54122" lon="6.05458">
        <ele>1052.299722614</ele>
        <time>2015-12-11T08:46:41Z</time>
      </trkpt>
      <trkpt lat="45.5412" lon="6.05466">
        <ele>1052.299722614</ele>
        <time>2015-12-11T08:46:47Z</time>
      </trkpt>
      <trkpt lat="45.54117" lon="6.05468">
        <ele>1055.141009671</ele>
        <time>2015-12-11T08:46:56Z</time>
      </trkpt>
      <trkpt lat="45.54117" lon="6.05471">
        <ele>1055.141009671</ele>
        <time>2015-12-11T08:47:02Z</time>
      </trkpt>
      <trkpt lat="45.54109" lon="6.05478">
        <ele>1057.816130149</ele>
        <time>2015-12-11T08:47:17Z</time>
      </trkpt>
      <trkpt lat="45.54105" lon="6.05481">
        <ele>1057.816130149</ele>
        <time>2015-12-11T08:47:27Z</time>
      </trkpt>
      <trkpt lat="45.54105" lon="6.05483">
        <ele>1057.816130149</ele>
        <time>2015-12-11T08:47:31Z</time>
      </trkpt>
      <trkpt lat="45.54096" lon="6.05499">
        <ele>1061.070286544</ele>
        <time>2015-12-11T08:47:42Z</time>
      </trkpt>
      <trkpt lat="45.54096" lon="6.05502">
        <ele>1061.070286544</ele>
        <time>2015-12-11T08:47:46Z</time>
      </trkpt>
      <trkpt lat="45.54095" lon="6.05505">
        <ele>1061.070286544</ele>
        <time>2015-12-11T08:47:51Z</time>
      </trkpt>
      <trkpt lat="45.54095" lon="6.05507">
        <ele>1061.070286544</ele>
        <time>2015-12-11T08:47:56Z</time>
      </trkpt>
      <trkpt lat="45.54095" lon="6.05507">
        <ele>1061.070286544</ele>
        <time>2015-12-11T08:48:01Z</time>
      </trkpt>
      <trkpt lat="45.54094" lon="6.05508">
        <ele>1061.070286544</ele>
        <time>2015-12-11T08:48:06Z</time>
      </trkpt>
      <trkpt lat="45.54092" lon="6.05508">
        <ele>1064.565407875</ele>
        <time>2015-12-11T08:48:11Z</time>
      </trkpt>
      <trkpt lat="45.54093" lon="6.0551">
        <ele>1064.565407875</ele>
        <time>2015-12-11T08:48:22Z</time>
      </trkpt>
      <trkpt lat="45.54092" lon="6.05511">
        <ele>1064.565407875</ele>
        <time>2015-12-11T08:48:26Z</time>
      </trkpt>
      <trkpt lat="45.54092" lon="6.05511">
        <ele>1064.565407875</ele>
        <time>2015-12-11T08:48:42Z</time>
      </trkpt>
      <trkpt lat="45.54092" lon="6.05511">
        <ele>1064.565407875</ele>
        <time>2015-12-11T08:48:56Z</time>
      </trkpt>
      <trkpt lat="45.54096" lon="6.05511">
        <ele>1064.565407875</ele>
        <time>2015-12-11T08:49:11Z</time>
      </trkpt>
      <trkpt lat="45.54096" lon="6.05517">
        <ele>1068.572930533</ele>
        <time>2015-12-11T08:49:16Z</time>
      </trkpt>
      <trkpt lat="45.54094" lon="6.05515">
        <ele>1068.572930533</ele>
        <time>2015-12-11T08:49:27Z</time>
      </trkpt>
      <trkpt lat="45.54094" lon="6.05515">
        <ele>1068.572930533</ele>
        <time>2015-12-11T08:49:31Z</time>
      </trkpt>
      <trkpt lat="45.54094" lon="6.05515">
        <ele>1068.572930533</ele>
        <time>2015-12-11T08:49:41Z</time>
      </trkpt>
      <trkpt lat="45.54094" lon="6.05515">
        <ele>1068.572930533</ele>
        <time>2015-12-11T08:49:46Z</time>
      </trkpt>
      <trkpt lat="45.54094" lon="6.05515">
        <ele>1068.572930533</ele>
        <time>2015-12-11T08:49:56Z</time>
      </trkpt>
      <trkpt lat="45.54094" lon="6.05515">
        <ele>1068.572930533</ele>
        <time>2015-12-11T08:50:01Z</time>
      </trkpt>
      <trkpt lat="45.54094" lon="6.05515">
        <ele>1068.572930533</ele>
        <time>2015-12-11T08:50:11Z</time>
      </trkpt>
      <trkpt lat="45.54094" lon="6.05515">
        <ele>1068.572930533</ele>
        <time>2015-12-11T08:50:16Z</time>
      </trkpt>
      <trkpt lat="45.54094" lon="6.05515">
        <ele>1068.572930533</ele>
        <time>2015-12-11T08:50:31Z</time>
      </trkpt>
      <trkpt lat="45.54094" lon="6.05515">
        <ele>1068.572930533</ele>
        <time>2015-12-11T08:50:36Z</time>
      </trkpt>
      <trkpt lat="45.54094" lon="6.05515">
        <ele>1068.572930533</ele>
        <time>2015-12-11T08:50:42Z</time>
      </trkpt>
      <trkpt lat="45.54094" lon="6.05515">
        <ele>1068.572930533</ele>
        <time>2015-12-11T08:50:47Z</time>
      </trkpt>
      <trkpt lat="45.54091" lon="6.05516">
        <ele>1068.572930533</ele>
        <time>2015-12-11T08:50:51Z</time>
      </trkpt>
      <trkpt lat="45.54095" lon="6.05518">
        <ele>1071.887231462</ele>
        <time>2015-12-11T08:51:01Z</time>
      </trkpt>
      <trkpt lat="45.54095" lon="6.05518">
        <ele>1071.887231462</ele>
        <time>2015-12-11T08:51:07Z</time>
      </trkpt>
      <trkpt lat="45.54095" lon="6.05518">
        <ele>1071.887231462</ele>
        <time>2015-12-11T08:51:16Z</time>
      </trkpt>
      <trkpt lat="45.54095" lon="6.05518">
        <ele>1071.887231462</ele>
        <time>2015-12-11T08:51:21Z</time>
      </trkpt>
      <trkpt lat="45.54096" lon="6.05515">
        <ele>1071.887231462</ele>
        <time>2015-12-11T08:51:31Z</time>
      </trkpt>
      <trkpt lat="45.54097" lon="6.05514">
        <ele>1071.887231462</ele>
        <time>2015-12-11T08:51:36Z</time>
      </trkpt>
      <trkpt lat="45.54098" lon="6.05514">
        <ele>1071.887231462</ele>
        <time>2015-12-11T08:51:46Z</time>
      </trkpt>
      <trkpt lat="45.54098" lon="6.05514">
        <ele>1071.887231462</ele>
        <time>2015-12-11T08:51:51Z</time>
      </trkpt>
      <trkpt lat="45.54098" lon="6.05514">
        <ele>1071.887231462</ele>
        <time>2015-12-11T08:52:01Z</time>
      </trkpt>
      <trkpt lat="45.54098" lon="6.05514">
        <ele>1071.887231462</ele>
        <time>2015-12-11T08:52:07Z</time>
      </trkpt>
      <trkpt lat="45.54098" lon="6.05514">
        <ele>1071.887231462</ele>
        <time>2015-12-11T08:52:16Z</time>
      </trkpt>
      <trkpt lat="45.54098" lon="6.05514">
        <ele>1071.887231462</ele>
        <time>2015-12-11T08:52:21Z</time>
      </trkpt>
      <trkpt lat="45.54098" lon="6.05514">
        <ele>1071.887231462</ele>
        <time>2015-12-11T08:52:31Z</time>
      </trkpt>
      <trkpt lat="45.54098" lon="6.05514">
        <ele>1071.887231462</ele>
        <time>2015-12-11T08:52:36Z</time>
      </trkpt>
      <trkpt lat="45.541" lon="6.05515">
        <ele>1071.887231462</ele>
        <time>2015-12-11T08:52:47Z</time>
      </trkpt>
      <trkpt lat="45.54104" lon="6.05516">
        <ele>1074.852393275</ele>
        <time>2015-12-11T08:52:51Z</time>
      </trkpt>
      <trkpt lat="45.54105" lon="6.05522">
        <ele>1074.852393275</ele>
        <time>2015-12-11T08:53:01Z</time>
      </trkpt>
      <trkpt lat="45.54105" lon="6.05528">
        <ele>1074.852393275</ele>
        <time>2015-12-11T08:53:06Z</time>
      </trkpt>
      <trkpt lat="45.54107" lon="6.05538">
        <ele>1077.786097941</ele>
        <time>2015-12-11T08:53:22Z</time>
      </trkpt>
      <trkpt lat="45.5411" lon="6.05564">
        <ele>1081.995377129</ele>
        <time>2015-12-11T08:53:36Z</time>
      </trkpt>
      <trkpt lat="45.54112" lon="6.05567">
        <ele>1081.995377129</ele>
        <time>2015-12-11T08:53:41Z</time>
      </trkpt>
      <trkpt lat="45.5412" lon="6.05572">
        <ele>1085.498732902</ele>
        <time>2015-12-11T08:53:51Z</time>
      </trkpt>
      <trkpt lat="45.54123" lon="6.05573">
        <ele>1085.498732902</ele>
        <time>2015-12-11T08:53:56Z</time>
      </trkpt>
      <trkpt lat="45.54125" lon="6.05574">
        <ele>1085.498732902</ele>
        <time>2015-12-11T08:54:06Z</time>
      </trkpt>
      <trkpt lat="45.54128" lon="6.05576">
        <ele>1085.498732902</ele>
        <time>2015-12-11T08:54:11Z</time>
      </trkpt>
      <trkpt lat="45.54131" lon="6.05573">
        <ele>1089.506177475</ele>
        <time>2015-12-11T08:54:25Z</time>
      </trkpt>
      <trkpt lat="45.54132" lon="6.05573">
        <ele>1089.506177475</ele>
        <time>2015-12-11T08:54:26Z</time>
      </trkpt>
      <trkpt lat="45.54137" lon="6.05575">
        <ele>1089.506177475</ele>
        <time>2015-12-11T08:54:36Z</time>
      </trkpt>
      <trkpt lat="45.5414" lon="6.05574">
        <ele>1089.506177475</ele>
        <time>2015-12-11T08:54:41Z</time>
      </trkpt>
      <trkpt lat="45.54144" lon="6.05576">
        <ele>1093.688713547</ele>
        <time>2015-12-11T08:54:52Z</time>
      </trkpt>
      <trkpt lat="45.54146" lon="6.05576">
        <ele>1093.688713547</ele>
        <time>2015-12-11T08:54:56Z</time>
      </trkpt>
      <trkpt lat="45.54155" lon="6.05569">
        <ele>1097.308774573</ele>
        <time>2015-12-11T08:55:12Z</time>
      </trkpt>
      <trkpt lat="45.54158" lon="6.0557">
        <ele>1097.308774573</ele>
        <time>2015-12-11T08:55:16Z</time>
      </trkpt>
      <trkpt lat="45.54162" lon="6.05571">
        <ele>1097.308774573</ele>
        <time>2015-12-11T08:55:27Z</time>
      </trkpt>
      <trkpt lat="45.54164" lon="6.05569">
        <ele>1100.696500114</ele>
        <time>2015-12-11T08:55:31Z</time>
      </trkpt>
      <trkpt lat="45.54167" lon="6.05568">
        <ele>1100.696500114</ele>
        <time>2015-12-11T08:55:42Z</time>
      </trkpt>
      <trkpt lat="45.54167" lon="6.05568">
        <ele>1100.696500114</ele>
        <time>2015-12-11T08:55:47Z</time>
      </trkpt>
      <trkpt lat="45.5418" lon="6.05568">
        <ele>1104.157751231</ele>
        <time>2015-12-11T08:55:56Z</time>
      </trkpt>
      <trkpt lat="45.54183" lon="6.05568">
        <ele>1104.157751231</ele>
        <time>2015-12-11T08:56:01Z</time>
      </trkpt>
      <trkpt lat="45.54186" lon="6.05569">
        <ele>1104.157751231</ele>
        <time>2015-12-11T08:56:12Z</time>
      </trkpt>
      <trkpt lat="45.54192" lon="6.05568">
        <ele>1107.542560161</ele>
        <time>2015-12-11T08:56:16Z</time>
      </trkpt>
      <trkpt lat="45.54199" lon="6.0557">
        <ele>1107.542560161</ele>
        <time>2015-12-11T08:56:28Z</time>
      </trkpt>
      <trkpt lat="45.54201" lon="6.05572">
        <ele>1110.279715352</ele>
        <time>2015-12-11T08:56:31Z</time>
      </trkpt>
      <trkpt lat="45.54208" lon="6.05587">
        <ele>1113.428384562</ele>
        <time>2015-12-11T08:56:42Z</time>
      </trkpt>
      <trkpt lat="45.5421" lon="6.05588">
        <ele>1113.428384562</ele>
        <time>2015-12-11T08:56:46Z</time>
      </trkpt>
      <trkpt lat="45.54219" lon="6.056">
        <ele>1117.103110168</ele>
        <time>2015-12-11T08:57:01Z</time>
      </trkpt>
      <trkpt lat="45.54222" lon="6.05607">
        <ele>1117.103110168</ele>
        <time>2015-12-11T08:57:12Z</time>
      </trkpt>
      <trkpt lat="45.54222" lon="6.05608">
        <ele>1117.103110168</ele>
        <time>2015-12-11T08:57:16Z</time>
      </trkpt>
      <trkpt lat="45.54223" lon="6.05609">
        <ele>1117.103110168</ele>
        <time>2015-12-11T08:57:21Z</time>
      </trkpt>
      <trkpt lat="45.54224" lon="6.0561">
        <ele>1117.103110168</ele>
        <time>2015-12-11T08:57:27Z</time>
      </trkpt>
      <trkpt lat="45.54228" lon="6.05614">
        <ele>1121.408644788</ele>
        <time>2015-12-11T08:57:31Z</time>
      </trkpt>
      <trkpt lat="45.5423" lon="6.05618">
        <ele>1121.408644788</ele>
        <time>2015-12-11T08:57:36Z</time>
      </trkpt>
      <trkpt lat="45.54236" lon="6.05633">
        <ele>1125.431151779</ele>
        <time>2015-12-11T08:57:47Z</time>
      </trkpt>
      <trkpt lat="45.54236" lon="6.05636">
        <ele>1125.431151779</ele>
        <time>2015-12-11T08:57:52Z</time>
      </trkpt>
      <trkpt lat="45.54239" lon="6.05638">
        <ele>1125.431151779</ele>
        <time>2015-12-11T08:58:01Z</time>
      </trkpt>
      <trkpt lat="45.54239" lon="6.0564">
        <ele>1125.431151779</ele>
        <time>2015-12-11T08:58:06Z</time>
      </trkpt>
      <trkpt lat="45.54245" lon="6.05649">
        <ele>1129.766603642</ele>
        <time>2015-12-11T08:58:16Z</time>
      </trkpt>
      <trkpt lat="45.54251" lon="6.05653">
        <ele>1129.766603642</ele>
        <time>2015-12-11T08:58:21Z</time>
      </trkpt>
      <trkpt lat="45.54255" lon="6.05653">
        <ele>1133.957085336</ele>
        <time>2015-12-11T08:58:26Z</time>
      </trkpt>
      <trkpt lat="45.54257" lon="6.05656">
        <ele>1133.957085336</ele>
        <time>2015-12-11T08:58:31Z</time>
      </trkpt>
      <trkpt lat="45.54257" lon="6.05664">
        <ele>1133.957085336</ele>
        <time>2015-12-11T08:58:41Z</time>
      </trkpt>
      <trkpt lat="45.54261" lon="6.05675">
        <ele>1138.732225292</ele>
        <time>2015-12-11T08:58:56Z</time>
      </trkpt>
      <trkpt lat="45.54264" lon="6.05677">
        <ele>1138.732225292</ele>
        <time>2015-12-11T08:59:01Z</time>
      </trkpt>
      <trkpt lat="45.54268" lon="6.05682">
        <ele>1138.732225292</ele>
        <time>2015-12-11T08:59:11Z</time>
      </trkpt>
      <trkpt lat="45.54273" lon="6.05684">
        <ele>1142.892017853</ele>
        <time>2015-12-11T08:59:16Z</time>
      </trkpt>
      <trkpt lat="45.5428" lon="6.05696">
        <ele>1146.768237062</ele>
        <time>2015-12-11T08:59:27Z</time>
      </trkpt>
      <trkpt lat="45.54283" lon="6.05702">
        <ele>1146.768237062</ele>
        <time>2015-12-11T08:59:32Z</time>
      </trkpt>
      <trkpt lat="45.54287" lon="6.05708">
        <ele>1150.669175855</ele>
        <time>2015-12-11T08:59:41Z</time>
      </trkpt>
      <trkpt lat="45.54289" lon="6.05711">
        <ele>1150.669175855</ele>
        <time>2015-12-11T08:59:47Z</time>
      </trkpt>
      <trkpt lat="45.54295" lon="6.05717">
        <ele>1154.15941148</ele>
        <time>2015-12-11T08:59:56Z</time>
      </trkpt>
      <trkpt lat="45.54298" lon="6.05723">
        <ele>1154.15941148</ele>
        <time>2015-12-11T09:00:01Z</time>
      </trkpt>
      <trkpt lat="45.54307" lon="6.0573">
        <ele>1157.125111077</ele>
        <time>2015-12-11T09:00:12Z</time>
      </trkpt>
      <trkpt lat="45.54309" lon="6.05731">
        <ele>1157.125111077</ele>
        <time>2015-12-11T09:00:16Z</time>
      </trkpt>
      <trkpt lat="45.54319" lon="6.05741">
        <ele>1159.750788671</ele>
        <time>2015-12-11T09:00:26Z</time>
      </trkpt>
      <trkpt lat="45.54323" lon="6.05742">
        <ele>1159.750788671</ele>
        <time>2015-12-11T09:00:32Z</time>
      </trkpt>
      <trkpt lat="45.54326" lon="6.05744">
        <ele>1159.750788671</ele>
        <time>2015-12-11T09:00:36Z</time>
      </trkpt>
      <trkpt lat="45.54334" lon="6.05749">
        <ele>1162.208424129</ele>
        <time>2015-12-11T09:00:47Z</time>
      </trkpt>
      <trkpt lat="45.54341" lon="6.05759">
        <ele>1164.65787726</ele>
        <time>2015-12-11T09:01:01Z</time>
      </trkpt>
      <trkpt lat="45.54353" lon="6.05767">
        <ele>1166.814574207</ele>
        <time>2015-12-11T09:01:16Z</time>
      </trkpt>
      <trkpt lat="45.54356" lon="6.0577">
        <ele>1166.814574207</ele>
        <time>2015-12-11T09:01:21Z</time>
      </trkpt>
      <trkpt lat="45.54366" lon="6.05782">
        <ele>1168.848412723</ele>
        <time>2015-12-11T09:01:36Z</time>
      </trkpt>
      <trkpt lat="45.54369" lon="6.05785">
        <ele>1168.848412723</ele>
        <time>2015-12-11T09:01:41Z</time>
      </trkpt>
      <trkpt lat="45.54376" lon="6.05794">
        <ele>1170.051676934</ele>
        <time>2015-12-11T09:01:51Z</time>
      </trkpt>
      <trkpt lat="45.5438" lon="6.05801">
        <ele>1170.051676934</ele>
        <time>2015-12-11T09:01:56Z</time>
      </trkpt>
      <trkpt lat="45.54386" lon="6.05812">
        <ele>1172.078891045</ele>
        <time>2015-12-11T09:02:06Z</time>
      </trkpt>
      <trkpt lat="45.54387" lon="6.05815">
        <ele>1172.078891045</ele>
        <time>2015-12-11T09:02:11Z</time>
      </trkpt>
      <trkpt lat="45.54393" lon="6.0582">
        <ele>1173.719947311</ele>
        <time>2015-12-11T09:02:21Z</time>
      </trkpt>
      <trkpt lat="45.54399" lon="6.05825">
        <ele>1173.719947311</ele>
        <time>2015-12-11T09:02:26Z</time>
      </trkpt>
      <trkpt lat="45.54403" lon="6.05832">
        <ele>1175.297172541</ele>
        <time>2015-12-11T09:02:37Z</time>
      </trkpt>
      <trkpt lat="45.54404" lon="6.05836">
        <ele>1175.297172541</ele>
        <time>2015-12-11T09:02:41Z</time>
      </trkpt>
      <trkpt lat="45.54412" lon="6.05846">
        <ele>1176.53235904</ele>
        <time>2015-12-11T09:02:52Z</time>
      </trkpt>
      <trkpt lat="45.54415" lon="6.0585">
        <ele>1176.53235904</ele>
        <time>2015-12-11T09:02:56Z</time>
      </trkpt>
      <trkpt lat="45.54418" lon="6.05853">
        <ele>1176.53235904</ele>
        <time>2015-12-11T09:03:06Z</time>
      </trkpt>
      <trkpt lat="45.54422" lon="6.05857">
        <ele>1178.466682992</ele>
        <time>2015-12-11T09:03:12Z</time>
      </trkpt>
      <trkpt lat="45.54432" lon="6.05862">
        <ele>1180.187748053</ele>
        <time>2015-12-11T09:03:26Z</time>
      </trkpt>
      <trkpt lat="45.54433" lon="6.05863">
        <ele>1180.187748053</ele>
        <time>2015-12-11T09:03:37Z</time>
      </trkpt>
      <trkpt lat="45.54433" lon="6.05864">
        <ele>1180.187748053</ele>
        <time>2015-12-11T09:03:41Z</time>
      </trkpt>
      <trkpt lat="45.54433" lon="6.05863">
        <ele>1180.187748053</ele>
        <time>2015-12-11T09:03:52Z</time>
      </trkpt>
      <trkpt lat="45.54433" lon="6.05863">
        <ele>1180.187748053</ele>
        <time>2015-12-11T09:03:56Z</time>
      </trkpt>
      <trkpt lat="45.54433" lon="6.05863">
        <ele>1180.187748053</ele>
        <time>2015-12-11T09:04:01Z</time>
      </trkpt>
      <trkpt lat="45.54433" lon="6.05863">
        <ele>1180.187748053</ele>
        <time>2015-12-11T09:04:11Z</time>
      </trkpt>
      <trkpt lat="45.54433" lon="6.05863">
        <ele>1180.187748053</ele>
        <time>2015-12-11T09:04:16Z</time>
      </trkpt>
      <trkpt lat="45.54443" lon="6.05853">
        <ele>1180.995078774</ele>
        <time>2015-12-11T09:04:27Z</time>
      </trkpt>
      <trkpt lat="45.54447" lon="6.05855">
        <ele>1180.995078774</ele>
        <time>2015-12-11T09:04:31Z</time>
      </trkpt>
      <trkpt lat="45.5445" lon="6.05856">
        <ele>1180.995078774</ele>
        <time>2015-12-11T09:04:41Z</time>
      </trkpt>
      <trkpt lat="45.54454" lon="6.05858">
        <ele>1183.270531355</ele>
        <time>2015-12-11T09:04:46Z</time>
      </trkpt>
      <trkpt lat="45.54454" lon="6.05859">
        <ele>1183.270531355</ele>
        <time>2015-12-11T09:04:57Z</time>
      </trkpt>
      <trkpt lat="45.54457" lon="6.0586">
        <ele>1183.270531355</ele>
        <time>2015-12-11T09:05:01Z</time>
      </trkpt>
      <trkpt lat="45.54467" lon="6.05866">
        <ele>1185.467149443</ele>
        <time>2015-12-11T09:05:12Z</time>
      </trkpt>
      <trkpt lat="45.5447" lon="6.05865">
        <ele>1185.467149443</ele>
        <time>2015-12-11T09:05:17Z</time>
      </trkpt>
      <trkpt lat="45.54471" lon="6.05865">
        <ele>1185.467149443</ele>
        <time>2015-12-11T09:05:26Z</time>
      </trkpt>
      <trkpt lat="45.54474" lon="6.05867">
        <ele>1185.467149443</ele>
        <time>2015-12-11T09:05:31Z</time>
      </trkpt>
      <trkpt lat="45.54486" lon="6.05877">
        <ele>1187.593937491</ele>
        <time>2015-12-11T09:05:46Z</time>
      </trkpt>
      <trkpt lat="45.54487" lon="6.05881">
        <ele>1187.593937491</ele>
        <time>2015-12-11T09:05:57Z</time>
      </trkpt>
      <trkpt lat="45.54492" lon="6.05882">
        <ele>1187.593937491</ele>
        <time>2015-12-11T09:06:01Z</time>
      </trkpt>
      <trkpt lat="45.54493" lon="6.05888">
        <ele>1190.236036703</ele>
        <time>2015-12-11T09:06:06Z</time>
      </trkpt>
      <trkpt lat="45.545" lon="6.05897">
        <ele>1192.348011054</ele>
        <time>2015-12-11T09:06:12Z</time>
      </trkpt>
      <trkpt lat="45.54505" lon="6.05899">
        <ele>1192.348011054</ele>
        <time>2015-12-11T09:06:17Z</time>
      </trkpt>
      <trkpt lat="45.54506" lon="6.05901">
        <ele>1192.348011054</ele>
        <time>2015-12-11T09:06:21Z</time>
      </trkpt>
      <trkpt lat="45.54506" lon="6.05904">
        <ele>1194.116133085</ele>
        <time>2015-12-11T09:06:31Z</time>
      </trkpt>
      <trkpt lat="45.54509" lon="6.05908">
        <ele>1194.116133085</ele>
        <time>2015-12-11T09:06:36Z</time>
      </trkpt>
      <trkpt lat="45.54517" lon="6.05926">
        <ele>1195.569637864</ele>
        <time>2015-12-11T09:06:47Z</time>
      </trkpt>
      <trkpt lat="45.54522" lon="6.05931">
        <ele>1195.569637864</ele>
        <time>2015-12-11T09:06:51Z</time>
      </trkpt>
      <trkpt lat="45.54528" lon="6.05952">
        <ele>1198.177903827</ele>
        <time>2015-12-11T09:07:01Z</time>
      </trkpt>
      <trkpt lat="45.5453" lon="6.05955">
        <ele>1198.177903827</ele>
        <time>2015-12-11T09:07:06Z</time>
      </trkpt>
      <trkpt lat="45.54539" lon="6.05969">
        <ele>1199.983372377</ele>
        <time>2015-12-11T09:07:16Z</time>
      </trkpt>
      <trkpt lat="45.54539" lon="6.05974">
        <ele>1199.983372377</ele>
        <time>2015-12-11T09:07:21Z</time>
      </trkpt>
      <trkpt lat="45.54541" lon="6.05977">
        <ele>1199.983372377</ele>
        <time>2015-12-11T09:07:26Z</time>
      </trkpt>
      <trkpt lat="45.54546" lon="6.05979">
        <ele>1201.048569491</ele>
        <time>2015-12-11T09:07:32Z</time>
      </trkpt>
      <trkpt lat="45.54546" lon="6.05981">
        <ele>1201.048569491</ele>
        <time>2015-12-11T09:07:36Z</time>
      </trkpt>
      <trkpt lat="45.54544" lon="6.05983">
        <ele>1201.048569491</ele>
        <time>2015-12-11T09:07:41Z</time>
      </trkpt>
      <trkpt lat="45.54544" lon="6.05983">
        <ele>1201.048569491</ele>
        <time>2015-12-11T09:07:52Z</time>
      </trkpt>
      <trkpt lat="45.54544" lon="6.05983">
        <ele>1201.048569491</ele>
        <time>2015-12-11T09:07:56Z</time>
      </trkpt>
      <trkpt lat="45.54549" lon="6.05992">
        <ele>1201.000945149</ele>
        <time>2015-12-11T09:08:07Z</time>
      </trkpt>
      <trkpt lat="45.54549" lon="6.05994">
        <ele>1201.000945149</ele>
        <time>2015-12-11T09:08:11Z</time>
      </trkpt>
      <trkpt lat="45.54549" lon="6.05995">
        <ele>1201.000945149</ele>
        <time>2015-12-11T09:08:21Z</time>
      </trkpt>
      <trkpt lat="45.54549" lon="6.05995">
        <ele>1201.000945149</ele>
        <time>2015-12-11T09:08:28Z</time>
      </trkpt>
      <trkpt lat="45.5456" lon="6.06007">
        <ele>1200.363136314</ele>
        <time>2015-12-11T09:08:37Z</time>
      </trkpt>
      <trkpt lat="45.54565" lon="6.06005">
        <ele>1200.363136314</ele>
        <time>2015-12-11T09:08:41Z</time>
      </trkpt>
      <trkpt lat="45.54568" lon="6.06005">
        <ele>1200.363136314</ele>
        <time>2015-12-11T09:08:52Z</time>
      </trkpt>
      <trkpt lat="45.54567" lon="6.06006">
        <ele>1200.363136314</ele>
        <time>2015-12-11T09:08:57Z</time>
      </trkpt>
      <trkpt lat="45.54567" lon="6.06006">
        <ele>1200.363136314</ele>
        <time>2015-12-11T09:09:01Z</time>
      </trkpt>
      <trkpt lat="45.54567" lon="6.06004">
        <ele>1200.341474679</ele>
        <time>2015-12-11T09:09:12Z</time>
      </trkpt>
      <trkpt lat="45.54569" lon="6.06002">
        <ele>1200.341474679</ele>
        <time>2015-12-11T09:09:21Z</time>
      </trkpt>
      <trkpt lat="45.5457" lon="6.06002">
        <ele>1200.341474679</ele>
        <time>2015-12-11T09:09:26Z</time>
      </trkpt>
      <trkpt lat="45.54579" lon="6.06002">
        <ele>1199.745656611</ele>
        <time>2015-12-11T09:09:36Z</time>
      </trkpt>
      <trkpt lat="45.54581" lon="6.06002">
        <ele>1199.745656611</ele>
        <time>2015-12-11T09:09:41Z</time>
      </trkpt>
      <trkpt lat="45.54581" lon="6.06002">
        <ele>1199.745656611</ele>
        <time>2015-12-11T09:09:46Z</time>
      </trkpt>
      <trkpt lat="45.5458" lon="6.06">
        <ele>1199.745656611</ele>
        <time>2015-12-11T09:09:56Z</time>
      </trkpt>
      <trkpt lat="45.5458" lon="6.05998">
        <ele>1199.745656611</ele>
        <time>2015-12-11T09:10:01Z</time>
      </trkpt>
      <trkpt lat="45.54586" lon="6.0599">
        <ele>1201.077434839</ele>
        <time>2015-12-11T09:10:11Z</time>
      </trkpt>
      <trkpt lat="45.54591" lon="6.05986">
        <ele>1201.077434839</ele>
        <time>2015-12-11T09:10:16Z</time>
      </trkpt>
      <trkpt lat="45.54593" lon="6.05986">
        <ele>1201.077434839</ele>
        <time>2015-12-11T09:10:21Z</time>
      </trkpt>
      <trkpt lat="45.54594" lon="6.05986">
        <ele>1201.077434839</ele>
        <time>2015-12-11T09:10:27Z</time>
      </trkpt>
      <trkpt lat="45.54594" lon="6.05985">
        <ele>1202.03717054</ele>
        <time>2015-12-11T09:10:32Z</time>
      </trkpt>
      <trkpt lat="45.54595" lon="6.05985">
        <ele>1202.03717054</ele>
        <time>2015-12-11T09:11:01Z</time>
      </trkpt>
      <trkpt lat="45.54601" lon="6.05989">
        <ele>1202.03717054</ele>
        <time>2015-12-11T09:11:16Z</time>
      </trkpt>
      <trkpt lat="45.54605" lon="6.05991">
        <ele>1202.080464765</ele>
        <time>2015-12-11T09:11:21Z</time>
      </trkpt>
      <trkpt lat="45.54618" lon="6.05994">
        <ele>1202.578828107</ele>
        <time>2015-12-11T09:11:32Z</time>
      </trkpt>
      <trkpt lat="45.54624" lon="6.05992">
        <ele>1202.578828107</ele>
        <time>2015-12-11T09:11:36Z</time>
      </trkpt>
      <trkpt lat="45.54636" lon="6.05996">
        <ele>1203.79268816</ele>
        <time>2015-12-11T09:11:47Z</time>
      </trkpt>
      <trkpt lat="45.54642" lon="6.06">
        <ele>1203.79268816</ele>
        <time>2015-12-11T09:11:51Z</time>
      </trkpt>
      <trkpt lat="45.54649" lon="6.06004">
        <ele>1204.808225551</ele>
        <time>2015-12-11T09:12:01Z</time>
      </trkpt>
      <trkpt lat="45.54657" lon="6.06009">
        <ele>1204.808225551</ele>
        <time>2015-12-11T09:12:06Z</time>
      </trkpt>
      <trkpt lat="45.54666" lon="6.06021">
        <ele>1206.220275422</ele>
        <time>2015-12-11T09:12:16Z</time>
      </trkpt>
      <trkpt lat="45.54672" lon="6.06024">
        <ele>1206.220275422</ele>
        <time>2015-12-11T09:12:21Z</time>
      </trkpt>
      <trkpt lat="45.54684" lon="6.06034">
        <ele>1206.993422932</ele>
        <time>2015-12-11T09:12:31Z</time>
      </trkpt>
      <trkpt lat="45.54684" lon="6.06037">
        <ele>1206.993422932</ele>
        <time>2015-12-11T09:12:36Z</time>
      </trkpt>
      <trkpt lat="45.54684" lon="6.06037">
        <ele>1206.993422932</ele>
        <time>2015-12-11T09:12:41Z</time>
      </trkpt>
      <trkpt lat="45.54684" lon="6.06039">
        <ele>1206.993422932</ele>
        <time>2015-12-11T09:12:52Z</time>
      </trkpt>
      <trkpt lat="45.54684" lon="6.06039">
        <ele>1206.993422932</ele>
        <time>2015-12-11T09:12:56Z</time>
      </trkpt>
      <trkpt lat="45.54695" lon="6.0605">
        <ele>1206.45815702</ele>
        <time>2015-12-11T09:13:08Z</time>
      </trkpt>
      <trkpt lat="45.54699" lon="6.06056">
        <ele>1206.45815702</ele>
        <time>2015-12-11T09:13:11Z</time>
      </trkpt>
      <trkpt lat="45.54708" lon="6.06063">
        <ele>1206.159320406</ele>
        <time>2015-12-11T09:13:21Z</time>
      </trkpt>
      <trkpt lat="45.54712" lon="6.06064">
        <ele>1206.159320406</ele>
        <time>2015-12-11T09:13:26Z</time>
      </trkpt>
      <trkpt lat="45.54712" lon="6.06069">
        <ele>1206.159320406</ele>
        <time>2015-12-11T09:13:37Z</time>
      </trkpt>
      <trkpt lat="45.54712" lon="6.06069">
        <ele>1206.159320406</ele>
        <time>2015-12-11T09:13:41Z</time>
      </trkpt>
      <trkpt lat="45.54712" lon="6.0607">
        <ele>1206.159320406</ele>
        <time>2015-12-11T09:13:51Z</time>
      </trkpt>
      <trkpt lat="45.54712" lon="6.0607">
        <ele>1206.159320406</ele>
        <time>2015-12-11T09:13:56Z</time>
      </trkpt>
      <trkpt lat="45.54712" lon="6.06071">
        <ele>1206.159320406</ele>
        <time>2015-12-11T09:14:06Z</time>
      </trkpt>
      <trkpt lat="45.54722" lon="6.06072">
        <ele>1206.230400288</ele>
        <time>2015-12-11T09:14:11Z</time>
      </trkpt>
      <trkpt lat="45.54734" lon="6.06078">
        <ele>1206.505623917</ele>
        <time>2015-12-11T09:14:21Z</time>
      </trkpt>
      <trkpt lat="45.54739" lon="6.06081">
        <ele>1206.505623917</ele>
        <time>2015-12-11T09:14:28Z</time>
      </trkpt>
      <trkpt lat="45.54744" lon="6.06085">
        <ele>1207.551193642</ele>
        <time>2015-12-11T09:14:36Z</time>
      </trkpt>
      <trkpt lat="45.54744" lon="6.06085">
        <ele>1207.551193642</ele>
        <time>2015-12-11T09:14:41Z</time>
      </trkpt>
      <trkpt lat="45.54747" lon="6.06084">
        <ele>1207.551193642</ele>
        <time>2015-12-11T09:14:52Z</time>
      </trkpt>
      <trkpt lat="45.54749" lon="6.06085">
        <ele>1207.551193642</ele>
        <time>2015-12-11T09:14:57Z</time>
      </trkpt>
      <trkpt lat="45.54756" lon="6.06088">
        <ele>1209.024690955</ele>
        <time>2015-12-11T09:15:11Z</time>
      </trkpt>
      <trkpt lat="45.54763" lon="6.0609">
        <ele>1209.024690955</ele>
        <time>2015-12-11T09:15:17Z</time>
      </trkpt>
      <trkpt lat="45.54775" lon="6.06102">
        <ele>1210.463350463</ele>
        <time>2015-12-11T09:15:26Z</time>
      </trkpt>
      <trkpt lat="45.54777" lon="6.0611">
        <ele>1210.463350463</ele>
        <time>2015-12-11T09:15:33Z</time>
      </trkpt>
      <trkpt lat="45.5478" lon="6.06112">
        <ele>1212.014773137</ele>
        <time>2015-12-11T09:15:42Z</time>
      </trkpt>
      <trkpt lat="45.54786" lon="6.06112">
        <ele>1212.014773137</ele>
        <time>2015-12-11T09:15:46Z</time>
      </trkpt>
      <trkpt lat="45.54797" lon="6.0612">
        <ele>1213.238779238</ele>
        <time>2015-12-11T09:15:57Z</time>
      </trkpt>
      <trkpt lat="45.54801" lon="6.06126">
        <ele>1213.238779238</ele>
        <time>2015-12-11T09:16:01Z</time>
      </trkpt>
      <trkpt lat="45.54803" lon="6.06127">
        <ele>1213.238779238</ele>
        <time>2015-12-11T09:16:06Z</time>
      </trkpt>
      <trkpt lat="45.54808" lon="6.06137">
        <ele>1215.457652922</ele>
        <time>2015-12-11T09:16:17Z</time>
      </trkpt>
      <trkpt lat="45.54811" lon="6.06139">
        <ele>1215.457652922</ele>
        <time>2015-12-11T09:16:21Z</time>
      </trkpt>
      <trkpt lat="45.54821" lon="6.06148">
        <ele>1217.299558707</ele>
        <time>2015-12-11T09:16:32Z</time>
      </trkpt>
      <trkpt lat="45.54828" lon="6.06148">
        <ele>1217.299558707</ele>
        <time>2015-12-11T09:16:37Z</time>
      </trkpt>
      <trkpt lat="45.54831" lon="6.0615">
        <ele>1219.223728847</ele>
        <time>2015-12-11T09:16:41Z</time>
      </trkpt>
      <trkpt lat="45.54833" lon="6.06159">
        <ele>1219.223728847</ele>
        <time>2015-12-11T09:16:51Z</time>
      </trkpt>
      <trkpt lat="45.54833" lon="6.0616">
        <ele>1219.223728847</ele>
        <time>2015-12-11T09:16:57Z</time>
      </trkpt>
      <trkpt lat="45.54833" lon="6.0616">
        <ele>1219.223728847</ele>
        <time>2015-12-11T09:17:06Z</time>
      </trkpt>
      <trkpt lat="45.54835" lon="6.06164">
        <ele>1220.646509351</ele>
        <time>2015-12-11T09:17:11Z</time>
      </trkpt>
      <trkpt lat="45.54842" lon="6.06179">
        <ele>1223.334255751</ele>
        <time>2015-12-11T09:17:22Z</time>
      </trkpt>
      <trkpt lat="45.54844" lon="6.06178">
        <ele>1223.334255751</ele>
        <time>2015-12-11T09:17:26Z</time>
      </trkpt>
      <trkpt lat="45.54846" lon="6.06187">
        <ele>1223.334255751</ele>
        <time>2015-12-11T09:17:36Z</time>
      </trkpt>
      <trkpt lat="45.54846" lon="6.06188">
        <ele>1225.172941169</ele>
        <time>2015-12-11T09:17:42Z</time>
      </trkpt>
      <trkpt lat="45.54862" lon="6.06197">
        <ele>1226.511969442</ele>
        <time>2015-12-11T09:17:56Z</time>
      </trkpt>
      <trkpt lat="45.54868" lon="6.062">
        <ele>1226.511969442</ele>
        <time>2015-12-11T09:18:01Z</time>
      </trkpt>
      <trkpt lat="45.54869" lon="6.06203">
        <ele>1227.8205201</ele>
        <time>2015-12-11T09:18:11Z</time>
      </trkpt>
      <trkpt lat="45.54869" lon="6.06204">
        <ele>1227.8205201</ele>
        <time>2015-12-11T09:18:17Z</time>
      </trkpt>
      <trkpt lat="45.5487" lon="6.06204">
        <ele>1227.8205201</ele>
        <time>2015-12-11T09:18:21Z</time>
      </trkpt>
      <trkpt lat="45.54871" lon="6.06207">
        <ele>1227.8205201</ele>
        <time>2015-12-11T09:18:26Z</time>
      </trkpt>
      <trkpt lat="45.54872" lon="6.06206">
        <ele>1227.8205201</ele>
        <time>2015-12-11T09:18:31Z</time>
      </trkpt>
      <trkpt lat="45.54873" lon="6.06205">
        <ele>1227.8205201</ele>
        <time>2015-12-11T09:18:36Z</time>
      </trkpt>
      <trkpt lat="45.54873" lon="6.06205">
        <ele>1227.8205201</ele>
        <time>2015-12-11T09:18:41Z</time>
      </trkpt>
      <trkpt lat="45.54873" lon="6.06205">
        <ele>1227.8205201</ele>
        <time>2015-12-11T09:18:46Z</time>
      </trkpt>
      <trkpt lat="45.54873" lon="6.06205">
        <ele>1227.8205201</ele>
        <time>2015-12-11T09:18:51Z</time>
      </trkpt>
      <trkpt lat="45.54873" lon="6.06205">
        <ele>1227.8205201</ele>
        <time>2015-12-11T09:18:56Z</time>
      </trkpt>
      <trkpt lat="45.54873" lon="6.06205">
        <ele>1227.8205201</ele>
        <time>2015-12-11T09:19:02Z</time>
      </trkpt>
      <trkpt lat="45.54873" lon="6.06205">
        <ele>1227.8205201</ele>
        <time>2015-12-11T09:19:06Z</time>
      </trkpt>
      <trkpt lat="45.54881" lon="6.06221">
        <ele>1228.524520818</ele>
        <time>2015-12-11T09:19:17Z</time>
      </trkpt>
      <trkpt lat="45.54884" lon="6.06223">
        <ele>1228.524520818</ele>
        <time>2015-12-11T09:19:31Z</time>
      </trkpt>
      <trkpt lat="45.54887" lon="6.0624">
        <ele>1229.678967441</ele>
        <time>2015-12-11T09:19:42Z</time>
      </trkpt>
      <trkpt lat="45.54891" lon="6.06246">
        <ele>1229.678967441</ele>
        <time>2015-12-11T09:19:46Z</time>
      </trkpt>
      <trkpt lat="45.54896" lon="6.06253">
        <ele>1230.242422761</ele>
        <time>2015-12-11T09:19:51Z</time>
      </trkpt>
      <trkpt lat="45.549" lon="6.06258">
        <ele>1230.242422761</ele>
        <time>2015-12-11T09:20:02Z</time>
      </trkpt>
      <trkpt lat="45.549" lon="6.06259">
        <ele>1230.242422761</ele>
        <time>2015-12-11T09:20:06Z</time>
      </trkpt>
      <trkpt lat="45.54902" lon="6.0627">
        <ele>1231.701503394</ele>
        <time>2015-12-11T09:20:17Z</time>
      </trkpt>
      <trkpt lat="45.54907" lon="6.06273">
        <ele>1231.701503394</ele>
        <time>2015-12-11T09:20:21Z</time>
      </trkpt>
      <trkpt lat="45.54908" lon="6.06275">
        <ele>1231.701503394</ele>
        <time>2015-12-11T09:20:36Z</time>
      </trkpt>
      <trkpt lat="45.54908" lon="6.06275">
        <ele>1231.701503394</ele>
        <time>2015-12-11T09:20:42Z</time>
      </trkpt>
      <trkpt lat="45.54911" lon="6.06276">
        <ele>1232.83698439</ele>
        <time>2015-12-11T09:20:57Z</time>
      </trkpt>
      <trkpt lat="45.54919" lon="6.06282">
        <ele>1233.672977288</ele>
        <time>2015-12-11T09:21:01Z</time>
      </trkpt>
      <trkpt lat="45.54929" lon="6.06297">
        <ele>1235.385523499</ele>
        <time>2015-12-11T09:21:17Z</time>
      </trkpt>
      <trkpt lat="45.54931" lon="6.06298">
        <ele>1235.385523499</ele>
        <time>2015-12-11T09:21:22Z</time>
      </trkpt>
      <trkpt lat="45.54931" lon="6.06298">
        <ele>1235.385523499</ele>
        <time>2015-12-11T09:21:32Z</time>
      </trkpt>
      <trkpt lat="45.54931" lon="6.06299">
        <ele>1235.385523499</ele>
        <time>2015-12-11T09:21:37Z</time>
      </trkpt>
      <trkpt lat="45.5493" lon="6.063">
        <ele>1235.385523499</ele>
        <time>2015-12-11T09:21:47Z</time>
      </trkpt>
      <trkpt lat="45.5493" lon="6.063">
        <ele>1235.385523499</ele>
        <time>2015-12-11T09:21:51Z</time>
      </trkpt>
      <trkpt lat="45.5493" lon="6.06301">
        <ele>1235.385523499</ele>
        <time>2015-12-11T09:22:01Z</time>
      </trkpt>
      <trkpt lat="45.5493" lon="6.06301">
        <ele>1235.385523499</ele>
        <time>2015-12-11T09:22:06Z</time>
      </trkpt>
      <trkpt lat="45.5493" lon="6.063">
        <ele>1235.385523499</ele>
        <time>2015-12-11T09:22:11Z</time>
      </trkpt>
      <trkpt lat="45.54929" lon="6.06301">
        <ele>1235.385523499</ele>
        <time>2015-12-11T09:22:16Z</time>
      </trkpt>
      <trkpt lat="45.54931" lon="6.06302">
        <ele>1235.385523499</ele>
        <time>2015-12-11T09:22:27Z</time>
      </trkpt>
      <trkpt lat="45.54933" lon="6.06302">
        <ele>1237.476509149</ele>
        <time>2015-12-11T09:22:31Z</time>
      </trkpt>
      <trkpt lat="45.54936" lon="6.06304">
        <ele>1237.476509149</ele>
        <time>2015-12-11T09:22:42Z</time>
      </trkpt>
      <trkpt lat="45.54938" lon="6.06303">
        <ele>1237.476509149</ele>
        <time>2015-12-11T09:22:46Z</time>
      </trkpt>
      <trkpt lat="45.54938" lon="6.06304">
        <ele>1237.476509149</ele>
        <time>2015-12-11T09:22:59Z</time>
      </trkpt>
      <trkpt lat="45.5494" lon="6.06303">
        <ele>1237.476509149</ele>
        <time>2015-12-11T09:23:01Z</time>
      </trkpt>
      <trkpt lat="45.5494" lon="6.06303">
        <ele>1237.476509149</ele>
        <time>2015-12-11T09:23:06Z</time>
      </trkpt>
      <trkpt lat="45.54941" lon="6.06303">
        <ele>1237.476509149</ele>
        <time>2015-12-11T09:23:17Z</time>
      </trkpt>
      <trkpt lat="45.54942" lon="6.06304">
        <ele>1240.059768512</ele>
        <time>2015-12-11T09:23:31Z</time>
      </trkpt>
      <trkpt lat="45.54943" lon="6.06306">
        <ele>1240.059768512</ele>
        <time>2015-12-11T09:23:46Z</time>
      </trkpt>
      <trkpt lat="45.54943" lon="6.06306">
        <ele>1240.059768512</ele>
        <time>2015-12-11T09:23:51Z</time>
      </trkpt>
      <trkpt lat="45.54949" lon="6.0631">
        <ele>1240.059768512</ele>
        <time>2015-12-11T09:24:02Z</time>
      </trkpt>
      <trkpt lat="45.5495" lon="6.06309">
        <ele>1242.230568185</ele>
        <time>2015-12-11T09:24:06Z</time>
      </trkpt>
      <trkpt lat="45.54957" lon="6.06313">
        <ele>1242.230568185</ele>
        <time>2015-12-11T09:24:27Z</time>
      </trkpt>
      <trkpt lat="45.54957" lon="6.06313">
        <ele>1242.230568185</ele>
        <time>2015-12-11T09:24:31Z</time>
      </trkpt>
      <trkpt lat="45.54957" lon="6.06313">
        <ele>1242.230568185</ele>
        <time>2015-12-11T09:24:42Z</time>
      </trkpt>
      <trkpt lat="45.54957" lon="6.06313">
        <ele>1242.230568185</ele>
        <time>2015-12-11T09:24:47Z</time>
      </trkpt>
      <trkpt lat="45.54957" lon="6.06313">
        <ele>1242.230568185</ele>
        <time>2015-12-11T09:24:57Z</time>
      </trkpt>
      <trkpt lat="45.54957" lon="6.06313">
        <ele>1242.230568185</ele>
        <time>2015-12-11T09:25:02Z</time>
      </trkpt>
      <trkpt lat="45.54957" lon="6.06314">
        <ele>1242.230568185</ele>
        <time>2015-12-11T09:25:11Z</time>
      </trkpt>
      <trkpt lat="45.54956" lon="6.06315">
        <ele>1244.448798131</ele>
        <time>2015-12-11T09:25:16Z</time>
      </trkpt>
      <trkpt lat="45.54956" lon="6.06315">
        <ele>1244.448798131</ele>
        <time>2015-12-11T09:25:26Z</time>
      </trkpt>
      <trkpt lat="45.54956" lon="6.06315">
        <ele>1244.448798131</ele>
        <time>2015-12-11T09:25:31Z</time>
      </trkpt>
      <trkpt lat="45.54956" lon="6.06315">
        <ele>1244.448798131</ele>
        <time>2015-12-11T09:25:42Z</time>
      </trkpt>
      <trkpt lat="45.54954" lon="6.06313">
        <ele>1244.448798131</ele>
        <time>2015-12-11T09:25:47Z</time>
      </trkpt>
      <trkpt lat="45.54951" lon="6.06306">
        <ele>1244.448798131</ele>
        <time>2015-12-11T09:26:01Z</time>
      </trkpt>
      <trkpt lat="45.54951" lon="6.06302">
        <ele>1247.284534806</ele>
        <time>2015-12-11T09:26:12Z</time>
      </trkpt>
      <trkpt lat="45.54951" lon="6.06301">
        <ele>1247.284534806</ele>
        <time>2015-12-11T09:26:16Z</time>
      </trkpt>
      <trkpt lat="45.54953" lon="6.06296">
        <ele>1247.284534806</ele>
        <time>2015-12-11T09:26:27Z</time>
      </trkpt>
      <trkpt lat="45.54953" lon="6.06294">
        <ele>1247.284534806</ele>
        <time>2015-12-11T09:26:31Z</time>
      </trkpt>
      <trkpt lat="45.54953" lon="6.06293">
        <ele>1247.284534806</ele>
        <time>2015-12-11T09:26:36Z</time>
      </trkpt>
      <trkpt lat="45.54949" lon="6.06287">
        <ele>1250.111343378</ele>
        <time>2015-12-11T09:26:47Z</time>
      </trkpt>
      <trkpt lat="45.5495" lon="6.06284">
        <ele>1250.111343378</ele>
        <time>2015-12-11T09:27:03Z</time>
      </trkpt>
      <trkpt lat="45.5495" lon="6.06279">
        <ele>1250.111343378</ele>
        <time>2015-12-11T09:27:06Z</time>
      </trkpt>
      <trkpt lat="45.5495" lon="6.06275">
        <ele>1250.111343378</ele>
        <time>2015-12-11T09:27:16Z</time>
      </trkpt>
      <trkpt lat="45.54949" lon="6.06274">
        <ele>1252.781188271</ele>
        <time>2015-12-11T09:27:22Z</time>
      </trkpt>
      <trkpt lat="45.54947" lon="6.06262">
        <ele>1255.157375794</ele>
        <time>2015-12-11T09:27:36Z</time>
      </trkpt>
      <trkpt lat="45.54946" lon="6.06261">
        <ele>1255.157375794</ele>
        <time>2015-12-11T09:27:47Z</time>
      </trkpt>
      <trkpt lat="45.54946" lon="6.06261">
        <ele>1255.157375794</ele>
        <time>2015-12-11T09:27:52Z</time>
      </trkpt>
      <trkpt lat="45.54946" lon="6.0626">
        <ele>1255.157375794</ele>
        <time>2015-12-11T09:27:56Z</time>
      </trkpt>
      <trkpt lat="45.54946" lon="6.06255">
        <ele>1255.157375794</ele>
        <time>2015-12-11T09:28:07Z</time>
      </trkpt>
      <trkpt lat="45.54945" lon="6.06256">
        <ele>1255.157375794</ele>
        <time>2015-12-11T09:28:12Z</time>
      </trkpt>
      <trkpt lat="45.54945" lon="6.06255">
        <ele>1255.157375794</ele>
        <time>2015-12-11T09:28:24Z</time>
      </trkpt>
      <trkpt lat="45.54945" lon="6.06254">
        <ele>1255.157375794</ele>
        <time>2015-12-11T09:28:26Z</time>
      </trkpt>
      <trkpt lat="45.54948" lon="6.06246">
        <ele>1257.834676243</ele>
        <time>2015-12-11T09:28:36Z</time>
      </trkpt>
      <trkpt lat="45.54949" lon="6.06246">
        <ele>1257.834676243</ele>
        <time>2015-12-11T09:28:41Z</time>
      </trkpt>
      <trkpt lat="45.5495" lon="6.06245">
        <ele>1257.834676243</ele>
        <time>2015-12-11T09:28:51Z</time>
      </trkpt>
      <trkpt lat="45.54951" lon="6.06242">
        <ele>1257.834676243</ele>
        <time>2015-12-11T09:28:56Z</time>
      </trkpt>
      <trkpt lat="45.54954" lon="6.0624">
        <ele>1257.834676243</ele>
        <time>2015-12-11T09:29:06Z</time>
      </trkpt>
      <trkpt lat="45.54959" lon="6.06235">
        <ele>1260.931031427</ele>
        <time>2015-12-11T09:29:12Z</time>
      </trkpt>
      <trkpt lat="45.54967" lon="6.06238">
        <ele>1260.931031427</ele>
        <time>2015-12-11T09:29:36Z</time>
      </trkpt>
      <trkpt lat="45.54967" lon="6.06238">
        <ele>1260.931031427</ele>
        <time>2015-12-11T09:29:41Z</time>
      </trkpt>
      <trkpt lat="45.54968" lon="6.06241">
        <ele>1265.131049206</ele>
        <time>2015-12-11T09:29:52Z</time>
      </trkpt>
      <trkpt lat="45.54966" lon="6.06241">
        <ele>1265.131049206</ele>
        <time>2015-12-11T09:29:56Z</time>
      </trkpt>
      <trkpt lat="45.54965" lon="6.06242">
        <ele>1265.131049206</ele>
        <time>2015-12-11T09:30:01Z</time>
      </trkpt>
      <trkpt lat="45.54969" lon="6.06238">
        <ele>1265.131049206</ele>
        <time>2015-12-11T09:30:12Z</time>
      </trkpt>
      <trkpt lat="45.54973" lon="6.06236">
        <ele>1269.336676849</ele>
        <time>2015-12-11T09:30:16Z</time>
      </trkpt>
      <trkpt lat="45.54975" lon="6.06235">
        <ele>1269.336676849</ele>
        <time>2015-12-11T09:30:27Z</time>
      </trkpt>
      <trkpt lat="45.54975" lon="6.06235">
        <ele>1269.336676849</ele>
        <time>2015-12-11T09:30:31Z</time>
      </trkpt>
      <trkpt lat="45.54972" lon="6.06239">
        <ele>1269.336676849</ele>
        <time>2015-12-11T09:30:41Z</time>
      </trkpt>
      <trkpt lat="45.54976" lon="6.06235">
        <ele>1273.539380076</ele>
        <time>2015-12-11T09:30:47Z</time>
      </trkpt>
      <trkpt lat="45.54976" lon="6.06235">
        <ele>1273.539380076</ele>
        <time>2015-12-11T09:30:56Z</time>
      </trkpt>
      <trkpt lat="45.54976" lon="6.06235">
        <ele>1273.539380076</ele>
        <time>2015-12-11T09:31:01Z</time>
      </trkpt>
      <trkpt lat="45.54976" lon="6.06235">
        <ele>1273.539380076</ele>
        <time>2015-12-11T09:31:12Z</time>
      </trkpt>
      <trkpt lat="45.54976" lon="6.06235">
        <ele>1273.539380076</ele>
        <time>2015-12-11T09:31:16Z</time>
      </trkpt>
      <trkpt lat="45.54976" lon="6.06235">
        <ele>1273.539380076</ele>
        <time>2015-12-11T09:31:21Z</time>
      </trkpt>
      <trkpt lat="45.5498" lon="6.06239">
        <ele>1273.539380076</ele>
        <time>2015-12-11T09:31:27Z</time>
      </trkpt>
      <trkpt lat="45.54985" lon="6.0624">
        <ele>1277.587250242</ele>
        <time>2015-12-11T09:31:31Z</time>
      </trkpt>
      <trkpt lat="45.54991" lon="6.06248">
        <ele>1277.587250242</ele>
        <time>2015-12-11T09:31:47Z</time>
      </trkpt>
      <trkpt lat="45.54992" lon="6.06249">
        <ele>1282.060649089</ele>
        <time>2015-12-11T09:31:51Z</time>
      </trkpt>
      <trkpt lat="45.54997" lon="6.06252">
        <ele>1282.060649089</ele>
        <time>2015-12-11T09:32:01Z</time>
      </trkpt>
      <trkpt lat="45.55002" lon="6.06253">
        <ele>1287.352134506</ele>
        <time>2015-12-11T09:32:06Z</time>
      </trkpt>
      <trkpt lat="45.55002" lon="6.06254">
        <ele>1287.352134506</ele>
        <time>2015-12-11T09:32:16Z</time>
      </trkpt>
      <trkpt lat="45.55002" lon="6.06254">
        <ele>1287.352134506</ele>
        <time>2015-12-11T09:32:21Z</time>
      </trkpt>
      <trkpt lat="45.55002" lon="6.06254">
        <ele>1287.352134506</ele>
        <time>2015-12-11T09:32:32Z</time>
      </trkpt>
      <trkpt lat="45.55008" lon="6.06261">
        <ele>1287.352134506</ele>
        <time>2015-12-11T09:32:36Z</time>
      </trkpt>
      <trkpt lat="45.55013" lon="6.06264">
        <ele>1292.382169657</ele>
        <time>2015-12-11T09:32:48Z</time>
      </trkpt>
      <trkpt lat="45.55019" lon="6.06271">
        <ele>1292.382169657</ele>
        <time>2015-12-11T09:32:51Z</time>
      </trkpt>
      <trkpt lat="45.55025" lon="6.06276">
        <ele>1295.863198077</ele>
        <time>2015-12-11T09:33:09Z</time>
      </trkpt>
      <trkpt lat="45.5503" lon="6.06281">
        <ele>1295.863198077</ele>
        <time>2015-12-11T09:33:11Z</time>
      </trkpt>
      <trkpt lat="45.55033" lon="6.06282">
        <ele>1298.912551025</ele>
        <time>2015-12-11T09:33:17Z</time>
      </trkpt>
      <trkpt lat="45.55033" lon="6.06282">
        <ele>1298.912551025</ele>
        <time>2015-12-11T09:33:21Z</time>
      </trkpt>
      <trkpt lat="45.55035" lon="6.06285">
        <ele>1298.912551025</ele>
        <time>2015-12-11T09:33:32Z</time>
      </trkpt>
      <trkpt lat="45.55036" lon="6.06287">
        <ele>1298.912551025</ele>
        <time>2015-12-11T09:33:37Z</time>
      </trkpt>
      <trkpt lat="45.55037" lon="6.06288">
        <ele>1298.912551025</ele>
        <time>2015-12-11T09:33:41Z</time>
      </trkpt>
      <trkpt lat="45.55035" lon="6.06296">
        <ele>1301.990429231</ele>
        <time>2015-12-11T09:33:52Z</time>
      </trkpt>
      <trkpt lat="45.55038" lon="6.06303">
        <ele>1301.990429231</ele>
        <time>2015-12-11T09:33:56Z</time>
      </trkpt>
      <trkpt lat="45.55039" lon="6.06302">
        <ele>1301.990429231</ele>
        <time>2015-12-11T09:34:06Z</time>
      </trkpt>
      <trkpt lat="45.55041" lon="6.06302">
        <ele>1301.990429231</ele>
        <time>2015-12-11T09:34:12Z</time>
      </trkpt>
      <trkpt lat="45.55042" lon="6.06303">
        <ele>1305.523332519</ele>
        <time>2015-12-11T09:34:21Z</time>
      </trkpt>
      <trkpt lat="45.55043" lon="6.06302">
        <ele>1305.523332519</ele>
        <time>2015-12-11T09:34:29Z</time>
      </trkpt>
      <trkpt lat="45.55045" lon="6.06302">
        <ele>1305.523332519</ele>
        <time>2015-12-11T09:34:37Z</time>
      </trkpt>
      <trkpt lat="45.55045" lon="6.06302">
        <ele>1305.523332519</ele>
        <time>2015-12-11T09:34:41Z</time>
      </trkpt>
      <trkpt lat="45.55046" lon="6.06302">
        <ele>1305.523332519</ele>
        <time>2015-12-11T09:34:52Z</time>
      </trkpt>
      <trkpt lat="45.55052" lon="6.06301">
        <ele>1309.905339739</ele>
        <time>2015-12-11T09:34:56Z</time>
      </trkpt>
      <trkpt lat="45.55054" lon="6.06302">
        <ele>1309.905339739</ele>
        <time>2015-12-11T09:35:01Z</time>
      </trkpt>
      <trkpt lat="45.55056" lon="6.06301">
        <ele>1309.905339739</ele>
        <time>2015-12-11T09:35:11Z</time>
      </trkpt>
      <trkpt lat="45.55057" lon="6.06301">
        <ele>1309.905339739</ele>
        <time>2015-12-11T09:35:17Z</time>
      </trkpt>
      <trkpt lat="45.55058" lon="6.06301">
        <ele>1309.905339739</ele>
        <time>2015-12-11T09:35:27Z</time>
      </trkpt>
      <trkpt lat="45.55059" lon="6.06302">
        <ele>1309.905339739</ele>
        <time>2015-12-11T09:35:32Z</time>
      </trkpt>
      <trkpt lat="45.55059" lon="6.06302">
        <ele>1309.905339739</ele>
        <time>2015-12-11T09:35:41Z</time>
      </trkpt>
      <trkpt lat="45.55061" lon="6.06303">
        <ele>1314.202385412</ele>
        <time>2015-12-11T09:35:46Z</time>
      </trkpt>
      <trkpt lat="45.55067" lon="6.06302">
        <ele>1314.202385412</ele>
        <time>2015-12-11T09:35:57Z</time>
      </trkpt>
      <trkpt lat="45.55068" lon="6.06302">
        <ele>1314.202385412</ele>
        <time>2015-12-11T09:36:01Z</time>
      </trkpt>
      <trkpt lat="45.55074" lon="6.06305">
        <ele>1318.270004968</ele>
        <time>2015-12-11T09:36:12Z</time>
      </trkpt>
      <trkpt lat="45.55074" lon="6.06305">
        <ele>1318.270004968</ele>
        <time>2015-12-11T09:36:17Z</time>
      </trkpt>
      <trkpt lat="45.55076" lon="6.06304">
        <ele>1318.270004968</ele>
        <time>2015-12-11T09:36:21Z</time>
      </trkpt>
      <trkpt lat="45.55078" lon="6.06302">
        <ele>1318.270004968</ele>
        <time>2015-12-11T09:36:27Z</time>
      </trkpt>
      <trkpt lat="45.5508" lon="6.06307">
        <ele>1318.270004968</ele>
        <time>2015-12-11T09:36:32Z</time>
      </trkpt>
      <trkpt lat="45.55082" lon="6.063">
        <ele>1323.416297804</ele>
        <time>2015-12-11T09:36:48Z</time>
      </trkpt>
      <trkpt lat="45.55083" lon="6.06298">
        <ele>1323.416297804</ele>
        <time>2015-12-11T09:36:51Z</time>
      </trkpt>
      <trkpt lat="45.55086" lon="6.06294">
        <ele>1323.416297804</ele>
        <time>2015-12-11T09:37:01Z</time>
      </trkpt>
      <trkpt lat="45.55087" lon="6.06294">
        <ele>1323.416297804</ele>
        <time>2015-12-11T09:37:06Z</time>
      </trkpt>
      <trkpt lat="45.55094" lon="6.06299">
        <ele>1326.382996629</ele>
        <time>2015-12-11T09:37:16Z</time>
      </trkpt>
      <trkpt lat="45.55095" lon="6.06301">
        <ele>1326.382996629</ele>
        <time>2015-12-11T09:37:21Z</time>
      </trkpt>
      <trkpt lat="45.55098" lon="6.06301">
        <ele>1326.382996629</ele>
        <time>2015-12-11T09:37:32Z</time>
      </trkpt>
      <trkpt lat="45.55098" lon="6.063">
        <ele>1326.382996629</ele>
        <time>2015-12-11T09:37:36Z</time>
      </trkpt>
      <trkpt lat="45.55105" lon="6.06308">
        <ele>1331.074839566</ele>
        <time>2015-12-11T09:37:52Z</time>
      </trkpt>
      <trkpt lat="45.5511" lon="6.06314">
        <ele>1331.074839566</ele>
        <time>2015-12-11T09:38:01Z</time>
      </trkpt>
      <trkpt lat="45.5511" lon="6.06315">
        <ele>1331.074839566</ele>
        <time>2015-12-11T09:38:06Z</time>
      </trkpt>
      <trkpt lat="45.5511" lon="6.06316">
        <ele>1331.074839566</ele>
        <time>2015-12-11T09:38:21Z</time>
      </trkpt>
      <trkpt lat="45.5511" lon="6.06316">
        <ele>1331.074839566</ele>
        <time>2015-12-11T09:38:26Z</time>
      </trkpt>
      <trkpt lat="45.55105" lon="6.06316">
        <ele>1329.720294672</ele>
        <time>2015-12-11T09:38:31Z</time>
      </trkpt>
      <trkpt lat="45.55107" lon="6.0632">
        <ele>1329.720294672</ele>
        <time>2015-12-11T09:38:36Z</time>
      </trkpt>
      <trkpt lat="45.55116" lon="6.0632">
        <ele>1334.734999267</ele>
        <time>2015-12-11T09:38:51Z</time>
      </trkpt>
      <trkpt lat="45.55116" lon="6.0632">
        <ele>1334.734999267</ele>
        <time>2015-12-11T09:38:56Z</time>
      </trkpt>
      <trkpt lat="45.55116" lon="6.06321">
        <ele>1334.734999267</ele>
        <time>2015-12-11T09:39:06Z</time>
      </trkpt>
      <trkpt lat="45.55116" lon="6.06321">
        <ele>1334.734999267</ele>
        <time>2015-12-11T09:39:11Z</time>
      </trkpt>
      <trkpt lat="45.55116" lon="6.06321">
        <ele>1334.734999267</ele>
        <time>2015-12-11T09:39:22Z</time>
      </trkpt>
      <trkpt lat="45.55116" lon="6.06321">
        <ele>1334.734999267</ele>
        <time>2015-12-11T09:39:26Z</time>
      </trkpt>
      <trkpt lat="45.55116" lon="6.06321">
        <ele>1334.734999267</ele>
        <time>2015-12-11T09:39:31Z</time>
      </trkpt>
      <trkpt lat="45.55116" lon="6.06321">
        <ele>1334.734999267</ele>
        <time>2015-12-11T09:39:37Z</time>
      </trkpt>
      <trkpt lat="45.55116" lon="6.06321">
        <ele>1334.734999267</ele>
        <time>2015-12-11T09:39:41Z</time>
      </trkpt>
      <trkpt lat="45.55112" lon="6.06323">
        <ele>1334.734999267</ele>
        <time>2015-12-11T09:39:57Z</time>
      </trkpt>
      <trkpt lat="45.55112" lon="6.06324">
        <ele>1334.734999267</ele>
        <time>2015-12-11T09:40:01Z</time>
      </trkpt>
      <trkpt lat="45.55112" lon="6.06325">
        <ele>1334.734999267</ele>
        <time>2015-12-11T09:40:11Z</time>
      </trkpt>
      <trkpt lat="45.55112" lon="6.06325">
        <ele>1334.734999267</ele>
        <time>2015-12-11T09:40:26Z</time>
      </trkpt>
      <trkpt lat="45.55112" lon="6.06325">
        <ele>1334.734999267</ele>
        <time>2015-12-11T09:40:31Z</time>
      </trkpt>
      <trkpt lat="45.55112" lon="6.06325">
        <ele>1334.734999267</ele>
        <time>2015-12-11T09:40:42Z</time>
      </trkpt>
      <trkpt lat="45.55112" lon="6.06325">
        <ele>1334.734999267</ele>
        <time>2015-12-11T09:40:46Z</time>
      </trkpt>
      <trkpt lat="45.55112" lon="6.06325">
        <ele>1334.734999267</ele>
        <time>2015-12-11T09:40:56Z</time>
      </trkpt>
      <trkpt lat="45.55112" lon="6.06325">
        <ele>1334.734999267</ele>
        <time>2015-12-11T09:41:02Z</time>
      </trkpt>
      <trkpt lat="45.55112" lon="6.06325">
        <ele>1334.734999267</ele>
        <time>2015-12-11T09:41:11Z</time>
      </trkpt>
      <trkpt lat="45.55112" lon="6.06325">
        <ele>1334.734999267</ele>
        <time>2015-12-11T09:41:16Z</time>
      </trkpt>
      <trkpt lat="45.55112" lon="6.06326">
        <ele>1334.734999267</ele>
        <time>2015-12-11T09:41:32Z</time>
      </trkpt>
      <trkpt lat="45.55112" lon="6.06326">
        <ele>1334.734999267</ele>
        <time>2015-12-11T09:41:36Z</time>
      </trkpt>
      <trkpt lat="45.55112" lon="6.06326">
        <ele>1334.734999267</ele>
        <time>2015-12-11T09:41:47Z</time>
      </trkpt>
      <trkpt lat="45.55112" lon="6.06326">
        <ele>1334.734999267</ele>
        <time>2015-12-11T09:41:51Z</time>
      </trkpt>
      <trkpt lat="45.55112" lon="6.06326">
        <ele>1334.734999267</ele>
        <time>2015-12-11T09:42:02Z</time>
      </trkpt>
      <trkpt lat="45.55112" lon="6.06326">
        <ele>1334.734999267</ele>
        <time>2015-12-11T09:42:06Z</time>
      </trkpt>
      <trkpt lat="45.55112" lon="6.06326">
        <ele>1334.734999267</ele>
        <time>2015-12-11T09:42:16Z</time>
      </trkpt>
      <trkpt lat="45.55112" lon="6.06326">
        <ele>1334.734999267</ele>
        <time>2015-12-11T09:42:22Z</time>
      </trkpt>
      <trkpt lat="45.55112" lon="6.06326">
        <ele>1334.734999267</ele>
        <time>2015-12-11T09:42:31Z</time>
      </trkpt>
      <trkpt lat="45.55112" lon="6.06326">
        <ele>1334.734999267</ele>
        <time>2015-12-11T09:42:36Z</time>
      </trkpt>
      <trkpt lat="45.55113" lon="6.06331">
        <ele>1337.141063229</ele>
        <time>2015-12-11T09:42:50Z</time>
      </trkpt>
      <trkpt lat="45.55114" lon="6.06327">
        <ele>1337.141063229</ele>
        <time>2015-12-11T09:43:36Z</time>
      </trkpt>
      <trkpt lat="45.55114" lon="6.06328">
        <ele>1337.141063229</ele>
        <time>2015-12-11T09:43:53Z</time>
      </trkpt>
      <trkpt lat="45.55114" lon="6.06328">
        <ele>1337.141063229</ele>
        <time>2015-12-11T09:43:56Z</time>
      </trkpt>
      <trkpt lat="45.55114" lon="6.06328">
        <ele>1337.141063229</ele>
        <time>2015-12-11T09:44:12Z</time>
      </trkpt>
      <trkpt lat="45.55114" lon="6.06328">
        <ele>1337.141063229</ele>
        <time>2015-12-11T09:44:16Z</time>
      </trkpt>
      <trkpt lat="45.55114" lon="6.06328">
        <ele>1337.141063229</ele>
        <time>2015-12-11T09:44:32Z</time>
      </trkpt>
      <trkpt lat="45.55114" lon="6.06328">
        <ele>1337.141063229</ele>
        <time>2015-12-11T09:45:16Z</time>
      </trkpt>
      <trkpt lat="45.55114" lon="6.06328">
        <ele>1337.141063229</ele>
        <time>2015-12-11T09:45:34Z</time>
      </trkpt>
      <trkpt lat="45.55114" lon="6.06328">
        <ele>1337.141063229</ele>
        <time>2015-12-11T09:45:34Z</time>
      </trkpt>
      <trkpt lat="45.55114" lon="6.06328">
        <ele>1337.141063229</ele>
        <time>2015-12-11T09:45:36Z</time>
      </trkpt>
      <trkpt lat="45.55114" lon="6.06328">
        <ele>1337.141063229</ele>
        <time>2015-12-11T09:45:51Z</time>
      </trkpt>
      <trkpt lat="45.55114" lon="6.06328">
        <ele>1337.141063229</ele>
        <time>2015-12-11T09:46:31Z</time>
      </trkpt>
      <trkpt lat="45.55114" lon="6.06328">
        <ele>1337.141063229</ele>
        <time>2015-12-11T09:46:32Z</time>
      </trkpt>
      <trkpt lat="45.55114" lon="6.06328">
        <ele>1337.141063229</ele>
        <time>2015-12-11T09:46:36Z</time>
      </trkpt>
      <trkpt lat="45.55114" lon="6.06328">
        <ele>1337.141063229</ele>
        <time>2015-12-11T09:46:51Z</time>
      </trkpt>
      <trkpt lat="45.55114" lon="6.06328">
        <ele>1337.141063229</ele>
        <time>2015-12-11T09:46:56Z</time>
      </trkpt>
      <trkpt lat="45.55114" lon="6.06328">
        <ele>1337.141063229</ele>
        <time>2015-12-11T09:47:11Z</time>
      </trkpt>
      <trkpt lat="45.55114" lon="6.06328">
        <ele>1337.141063229</ele>
        <time>2015-12-11T09:47:29Z</time>
      </trkpt>
      <trkpt lat="45.55114" lon="6.06328">
        <ele>1337.141063229</ele>
        <time>2015-12-11T09:47:30Z</time>
      </trkpt>
      <trkpt lat="45.55114" lon="6.06328">
        <ele>1337.141063229</ele>
        <time>2015-12-11T09:47:56Z</time>
      </trkpt>
      <trkpt lat="45.55114" lon="6.06328">
        <ele>1337.141063229</ele>
        <time>2015-12-11T09:48:11Z</time>
      </trkpt>
      <trkpt lat="45.55114" lon="6.06328">
        <ele>1337.141063229</ele>
        <time>2015-12-11T09:48:16Z</time>
      </trkpt>
      <trkpt lat="45.55114" lon="6.06328">
        <ele>1337.141063229</ele>
        <time>2015-12-11T09:48:24Z</time>
      </trkpt>
      <trkpt lat="45.55114" lon="6.06328">
        <ele>1337.141063229</ele>
        <time>2015-12-11T09:48:31Z</time>
      </trkpt>
      <trkpt lat="45.55114" lon="6.06328">
        <ele>1337.141063229</ele>
        <time>2015-12-11T09:49:12Z</time>
      </trkpt>
      <trkpt lat="45.55114" lon="6.06328">
        <ele>1337.141063229</ele>
        <time>2015-12-11T09:49:16Z</time>
      </trkpt>
      <trkpt lat="45.55114" lon="6.06328">
        <ele>1337.141063229</ele>
        <time>2015-12-11T09:49:29Z</time>
      </trkpt>
      <trkpt lat="45.55114" lon="6.06328">
        <ele>1337.141063229</ele>
        <time>2015-12-11T09:49:31Z</time>
      </trkpt>
      <trkpt lat="45.55114" lon="6.06328">
        <ele>1337.141063229</ele>
        <time>2015-12-11T09:49:36Z</time>
      </trkpt>
      <trkpt lat="45.55114" lon="6.06328">
        <ele>1337.141063229</ele>
        <time>2015-12-11T09:49:41Z</time>
      </trkpt>
      <trkpt lat="45.55114" lon="6.06328">
        <ele>1337.141063229</ele>
        <time>2015-12-11T09:49:46Z</time>
      </trkpt>
      <trkpt lat="45.55114" lon="6.06328">
        <ele>1337.141063229</ele>
        <time>2015-12-11T09:49:51Z</time>
      </trkpt>
      <trkpt lat="45.55114" lon="6.06328">
        <ele>1337.141063229</ele>
        <time>2015-12-11T09:49:56Z</time>
      </trkpt>
      <trkpt lat="45.55114" lon="6.06328">
        <ele>1337.141063229</ele>
        <time>2015-12-11T09:50:01Z</time>
      </trkpt>
      <trkpt lat="45.55114" lon="6.06328">
        <ele>1337.141063229</ele>
        <time>2015-12-11T09:50:06Z</time>
      </trkpt>
      <trkpt lat="45.55114" lon="6.06328">
        <ele>1337.141063229</ele>
        <time>2015-12-11T09:50:11Z</time>
      </trkpt>
      <trkpt lat="45.55115" lon="6.06327">
        <ele>1337.141063229</ele>
        <time>2015-12-11T09:50:16Z</time>
      </trkpt>
      <trkpt lat="45.55115" lon="6.06327">
        <ele>1337.141063229</ele>
        <time>2015-12-11T09:50:21Z</time>
      </trkpt>
      <trkpt lat="45.55116" lon="6.06326">
        <ele>1337.141063229</ele>
        <time>2015-12-11T09:50:26Z</time>
      </trkpt>
      <trkpt lat="45.55116" lon="6.06326">
        <ele>1337.141063229</ele>
        <time>2015-12-11T09:50:31Z</time>
      </trkpt>
      <trkpt lat="45.55116" lon="6.06326">
        <ele>1337.141063229</ele>
        <time>2015-12-11T09:50:36Z</time>
      </trkpt>
      <trkpt lat="45.55116" lon="6.06326">
        <ele>1337.141063229</ele>
        <time>2015-12-11T09:50:41Z</time>
      </trkpt>
      <trkpt lat="45.55116" lon="6.06326">
        <ele>1337.141063229</ele>
        <time>2015-12-11T09:50:46Z</time>
      </trkpt>
      <trkpt lat="45.55116" lon="6.06327">
        <ele>1337.141063229</ele>
        <time>2015-12-11T09:50:51Z</time>
      </trkpt>
      <trkpt lat="45.55116" lon="6.06327">
        <ele>1337.141063229</ele>
        <time>2015-12-11T09:50:56Z</time>
      </trkpt>
      <trkpt lat="45.55117" lon="6.06328">
        <ele>1337.141063229</ele>
        <time>2015-12-11T09:51:01Z</time>
      </trkpt>
      <trkpt lat="45.55117" lon="6.06327">
        <ele>1337.141063229</ele>
        <time>2015-12-11T09:51:06Z</time>
      </trkpt>
      <trkpt lat="45.55117" lon="6.06327">
        <ele>1337.141063229</ele>
        <time>2015-12-11T09:51:11Z</time>
      </trkpt>
      <trkpt lat="45.55117" lon="6.06325">
        <ele>1340.588823543</ele>
        <time>2015-12-11T09:51:16Z</time>
      </trkpt>
      <trkpt lat="45.55117" lon="6.06326">
        <ele>1340.588823543</ele>
        <time>2015-12-11T09:51:21Z</time>
      </trkpt>
      <trkpt lat="45.55118" lon="6.06326">
        <ele>1340.588823543</ele>
        <time>2015-12-11T09:51:26Z</time>
      </trkpt>
      <trkpt lat="45.55118" lon="6.06326">
        <ele>1340.588823543</ele>
        <time>2015-12-11T09:51:31Z</time>
      </trkpt>
      <trkpt lat="45.55118" lon="6.06326">
        <ele>1340.588823543</ele>
        <time>2015-12-11T09:51:36Z</time>
      </trkpt>
      <trkpt lat="45.55117" lon="6.06326">
        <ele>1340.588823543</ele>
        <time>2015-12-11T09:51:46Z</time>
      </trkpt>
      <trkpt lat="45.55117" lon="6.06326">
        <ele>1340.588823543</ele>
        <time>2015-12-11T09:51:51Z</time>
      </trkpt>
      <trkpt lat="45.55117" lon="6.06326">
        <ele>1340.588823543</ele>
        <time>2015-12-11T09:52:01Z</time>
      </trkpt>
      <trkpt lat="45.55117" lon="6.06326">
        <ele>1340.588823543</ele>
        <time>2015-12-11T09:52:06Z</time>
      </trkpt>
      <trkpt lat="45.55117" lon="6.06326">
        <ele>1340.588823543</ele>
        <time>2015-12-11T09:52:16Z</time>
      </trkpt>
      <trkpt lat="45.55117" lon="6.06326">
        <ele>1340.588823543</ele>
        <time>2015-12-11T09:52:22Z</time>
      </trkpt>
      <trkpt lat="45.55117" lon="6.06326">
        <ele>1340.588823543</ele>
        <time>2015-12-11T09:52:36Z</time>
      </trkpt>
      <trkpt lat="45.55117" lon="6.06326">
        <ele>1340.588823543</ele>
        <time>2015-12-11T09:52:41Z</time>
      </trkpt>
      <trkpt lat="45.55117" lon="6.06326">
        <ele>1340.588823543</ele>
        <time>2015-12-11T09:52:52Z</time>
      </trkpt>
      <trkpt lat="45.55117" lon="6.06326">
        <ele>1340.588823543</ele>
        <time>2015-12-11T09:52:56Z</time>
      </trkpt>
      <trkpt lat="45.55117" lon="6.06326">
        <ele>1340.588823543</ele>
        <time>2015-12-11T09:53:07Z</time>
      </trkpt>
      <trkpt lat="45.55117" lon="6.06326">
        <ele>1340.588823543</ele>
        <time>2015-12-11T09:53:11Z</time>
      </trkpt>
      <trkpt lat="45.55117" lon="6.06326">
        <ele>1340.588823543</ele>
        <time>2015-12-11T09:53:21Z</time>
      </trkpt>
      <trkpt lat="45.55117" lon="6.06326">
        <ele>1340.588823543</ele>
        <time>2015-12-11T09:53:26Z</time>
      </trkpt>
      <trkpt lat="45.55117" lon="6.06326">
        <ele>1340.588823543</ele>
        <time>2015-12-11T09:53:36Z</time>
      </trkpt>
      <trkpt lat="45.55117" lon="6.06326">
        <ele>1340.588823543</ele>
        <time>2015-12-11T09:53:41Z</time>
      </trkpt>
      <trkpt lat="45.55117" lon="6.06326">
        <ele>1340.588823543</ele>
        <time>2015-12-11T09:53:52Z</time>
      </trkpt>
      <trkpt lat="45.55117" lon="6.06326">
        <ele>1340.588823543</ele>
        <time>2015-12-11T09:53:56Z</time>
      </trkpt>
      <trkpt lat="45.55117" lon="6.06326">
        <ele>1340.588823543</ele>
        <time>2015-12-11T09:54:06Z</time>
      </trkpt>
      <trkpt lat="45.55117" lon="6.06326">
        <ele>1340.588823543</ele>
        <time>2015-12-11T09:54:12Z</time>
      </trkpt>
      <trkpt lat="45.55117" lon="6.06326">
        <ele>1340.588823543</ele>
        <time>2015-12-11T09:54:26Z</time>
      </trkpt>
      <trkpt lat="45.55117" lon="6.06326">
        <ele>1340.588823543</ele>
        <time>2015-12-11T09:54:41Z</time>
      </trkpt>
      <trkpt lat="45.55117" lon="6.06326">
        <ele>1340.588823543</ele>
        <time>2015-12-11T09:54:47Z</time>
      </trkpt>
      <trkpt lat="45.55117" lon="6.06326">
        <ele>1340.588823543</ele>
        <time>2015-12-11T09:54:57Z</time>
      </trkpt>
      <trkpt lat="45.55117" lon="6.06326">
        <ele>1340.588823543</ele>
        <time>2015-12-11T09:55:01Z</time>
      </trkpt>
      <trkpt lat="45.55117" lon="6.06326">
        <ele>1340.588823543</ele>
        <time>2015-12-11T09:55:12Z</time>
      </trkpt>
      <trkpt lat="45.55117" lon="6.06326">
        <ele>1340.588823543</ele>
        <time>2015-12-11T09:55:17Z</time>
      </trkpt>
      <trkpt lat="45.55115" lon="6.06325">
        <ele>1340.588823543</ele>
        <time>2015-12-11T09:55:26Z</time>
      </trkpt>
      <trkpt lat="45.55115" lon="6.06326">
        <ele>1340.588823543</ele>
        <time>2015-12-11T09:55:31Z</time>
      </trkpt>
      <trkpt lat="45.55115" lon="6.06325">
        <ele>1340.588823543</ele>
        <time>2015-12-11T09:55:41Z</time>
      </trkpt>
      <trkpt lat="45.55114" lon="6.06326">
        <ele>1340.588823543</ele>
        <time>2015-12-11T09:55:46Z</time>
      </trkpt>
      <trkpt lat="45.55114" lon="6.06326">
        <ele>1340.588823543</ele>
        <time>2015-12-11T09:55:56Z</time>
      </trkpt>
      <trkpt lat="45.55116" lon="6.06325">
        <ele>1340.588823543</ele>
        <time>2015-12-11T09:56:01Z</time>
      </trkpt>
      <trkpt lat="45.55117" lon="6.06323">
        <ele>1344.566699245</ele>
        <time>2015-12-11T09:56:11Z</time>
      </trkpt>
      <trkpt lat="45.55116" lon="6.06322">
        <ele>1344.566699245</ele>
        <time>2015-12-11T09:56:16Z</time>
      </trkpt>
      <trkpt lat="45.55116" lon="6.06322">
        <ele>1344.566699245</ele>
        <time>2015-12-11T09:56:30Z</time>
      </trkpt>
      <trkpt lat="45.55116" lon="6.06322">
        <ele>1344.566699245</ele>
        <time>2015-12-11T09:56:31Z</time>
      </trkpt>
      <trkpt lat="45.55115" lon="6.06321">
        <ele>1344.566699245</ele>
        <time>2015-12-11T09:56:42Z</time>
      </trkpt>
      <trkpt lat="45.55115" lon="6.06321">
        <ele>1344.566699245</ele>
        <time>2015-12-11T09:56:47Z</time>
      </trkpt>
      <trkpt lat="45.55117" lon="6.06319">
        <ele>1344.566699245</ele>
        <time>2015-12-11T09:56:56Z</time>
      </trkpt>
      <trkpt lat="45.55117" lon="6.06319">
        <ele>1344.566699245</ele>
        <time>2015-12-11T09:57:01Z</time>
      </trkpt>
      <trkpt lat="45.55118" lon="6.06321">
        <ele>1344.566699245</ele>
        <time>2015-12-11T09:57:12Z</time>
      </trkpt>
      <trkpt lat="45.55119" lon="6.06321">
        <ele>1344.566699245</ele>
        <time>2015-12-11T09:57:16Z</time>
      </trkpt>
      <trkpt lat="45.55119" lon="6.06321">
        <ele>1344.566699245</ele>
        <time>2015-12-11T09:57:27Z</time>
      </trkpt>
      <trkpt lat="45.55119" lon="6.06321">
        <ele>1344.566699245</ele>
        <time>2015-12-11T09:57:31Z</time>
      </trkpt>
      <trkpt lat="45.55119" lon="6.06321">
        <ele>1344.566699245</ele>
        <time>2015-12-11T09:57:36Z</time>
      </trkpt>
      <trkpt lat="45.55119" lon="6.06321">
        <ele>1344.566699245</ele>
        <time>2015-12-11T09:57:42Z</time>
      </trkpt>
      <trkpt lat="45.55119" lon="6.06321">
        <ele>1344.566699245</ele>
        <time>2015-12-11T09:57:47Z</time>
      </trkpt>
      <trkpt lat="45.55119" lon="6.06321">
        <ele>1344.566699245</ele>
        <time>2015-12-11T09:57:52Z</time>
      </trkpt>
      <trkpt lat="45.55119" lon="6.06321">
        <ele>1344.566699245</ele>
        <time>2015-12-11T09:58:01Z</time>
      </trkpt>
      <trkpt lat="45.55119" lon="6.06321">
        <ele>1344.566699245</ele>
        <time>2015-12-11T09:58:07Z</time>
      </trkpt>
      <trkpt lat="45.55119" lon="6.06321">
        <ele>1344.566699245</ele>
        <time>2015-12-11T09:58:16Z</time>
      </trkpt>
      <trkpt lat="45.55119" lon="6.06321">
        <ele>1344.566699245</ele>
        <time>2015-12-11T09:58:21Z</time>
      </trkpt>
      <trkpt lat="45.55119" lon="6.06321">
        <ele>1344.566699245</ele>
        <time>2015-12-11T09:58:31Z</time>
      </trkpt>
      <trkpt lat="45.55119" lon="6.06321">
        <ele>1344.566699245</ele>
        <time>2015-12-11T09:58:36Z</time>
      </trkpt>
      <trkpt lat="45.55119" lon="6.06321">
        <ele>1344.566699245</ele>
        <time>2015-12-11T09:58:46Z</time>
      </trkpt>
      <trkpt lat="45.55119" lon="6.06321">
        <ele>1344.566699245</ele>
        <time>2015-12-11T09:58:52Z</time>
      </trkpt>
      <trkpt lat="45.55119" lon="6.06321">
        <ele>1344.566699245</ele>
        <time>2015-12-11T09:59:07Z</time>
      </trkpt>
      <trkpt lat="45.55119" lon="6.06321">
        <ele>1344.566699245</ele>
        <time>2015-12-11T09:59:23Z</time>
      </trkpt>
      <trkpt lat="45.55119" lon="6.06321">
        <ele>1344.566699245</ele>
        <time>2015-12-11T09:59:26Z</time>
      </trkpt>
      <trkpt lat="45.55119" lon="6.06321">
        <ele>1344.566699245</ele>
        <time>2015-12-11T09:59:36Z</time>
      </trkpt>
      <trkpt lat="45.55119" lon="6.06321">
        <ele>1344.566699245</ele>
        <time>2015-12-11T09:59:52Z</time>
      </trkpt>
      <trkpt lat="45.55119" lon="6.06321">
        <ele>1344.566699245</ele>
        <time>2015-12-11T09:59:56Z</time>
      </trkpt>
      <trkpt lat="45.55119" lon="6.06321">
        <ele>1344.566699245</ele>
        <time>2015-12-11T10:00:07Z</time>
      </trkpt>
      <trkpt lat="45.55119" lon="6.06321">
        <ele>1344.566699245</ele>
        <time>2015-12-11T10:00:12Z</time>
      </trkpt>
      <trkpt lat="45.55119" lon="6.06321">
        <ele>1344.566699245</ele>
        <time>2015-12-11T10:00:22Z</time>
      </trkpt>
      <trkpt lat="45.55119" lon="6.06321">
        <ele>1344.566699245</ele>
        <time>2015-12-11T10:00:26Z</time>
      </trkpt>
      <trkpt lat="45.55119" lon="6.06321">
        <ele>1344.566699245</ele>
        <time>2015-12-11T10:00:41Z</time>
      </trkpt>
      <trkpt lat="45.55119" lon="6.06321">
        <ele>1344.566699245</ele>
        <time>2015-12-11T10:00:56Z</time>
      </trkpt>
      <trkpt lat="45.55119" lon="6.06321">
        <ele>1344.566699245</ele>
        <time>2015-12-11T10:01:01Z</time>
      </trkpt>
      <trkpt lat="45.55119" lon="6.06321">
        <ele>1344.566699245</ele>
        <time>2015-12-11T10:01:12Z</time>
      </trkpt>
      <trkpt lat="45.55119" lon="6.06321">
        <ele>1344.566699245</ele>
        <time>2015-12-11T10:01:16Z</time>
      </trkpt>
      <trkpt lat="45.55119" lon="6.06321">
        <ele>1344.566699245</ele>
        <time>2015-12-11T10:01:26Z</time>
      </trkpt>
      <trkpt lat="45.55119" lon="6.06321">
        <ele>1344.566699245</ele>
        <time>2015-12-11T10:01:32Z</time>
      </trkpt>
      <trkpt lat="45.55119" lon="6.06321">
        <ele>1344.566699245</ele>
        <time>2015-12-11T10:01:43Z</time>
      </trkpt>
      <trkpt lat="45.55119" lon="6.06321">
        <ele>1344.566699245</ele>
        <time>2015-12-11T10:01:46Z</time>
      </trkpt>
      <trkpt lat="45.55119" lon="6.06321">
        <ele>1344.566699245</ele>
        <time>2015-12-11T10:01:56Z</time>
      </trkpt>
      <trkpt lat="45.55119" lon="6.06321">
        <ele>1344.566699245</ele>
        <time>2015-12-11T10:02:04Z</time>
      </trkpt>
      <trkpt lat="45.55118" lon="6.06321">
        <ele>1344.566699245</ele>
        <time>2015-12-11T10:02:15Z</time>
      </trkpt>
      <trkpt lat="45.55118" lon="6.06321">
        <ele>1344.566699245</ele>
        <time>2015-12-11T10:02:44Z</time>
      </trkpt>
      <trkpt lat="45.55118" lon="6.06321">
        <ele>1344.566699245</ele>
        <time>2015-12-11T10:02:52Z</time>
      </trkpt>
      <trkpt lat="45.55118" lon="6.06321">
        <ele>1344.566699245</ele>
        <time>2015-12-11T10:02:52Z</time>
      </trkpt>
      <trkpt lat="45.55118" lon="6.06321">
        <ele>1344.566699245</ele>
        <time>2015-12-11T10:02:58Z</time>
      </trkpt>
      <trkpt lat="45.55118" lon="6.06321">
        <ele>1344.566699245</ele>
        <time>2015-12-11T10:03:01Z</time>
      </trkpt>
      <trkpt lat="45.55118" lon="6.06321">
        <ele>1344.566699245</ele>
        <time>2015-12-11T10:03:16Z</time>
      </trkpt>
      <trkpt lat="45.55118" lon="6.06321">
        <ele>1344.566699245</ele>
        <time>2015-12-11T10:03:21Z</time>
      </trkpt>
      <trkpt lat="45.55118" lon="6.06321">
        <ele>1344.566699245</ele>
        <time>2015-12-11T10:03:36Z</time>
      </trkpt>
      <trkpt lat="45.55118" lon="6.06322">
        <ele>1344.566699245</ele>
        <time>2015-12-11T10:04:01Z</time>
      </trkpt>
      <trkpt lat="45.55118" lon="6.06322">
        <ele>1344.566699245</ele>
        <time>2015-12-11T10:04:06Z</time>
      </trkpt>
      <trkpt lat="45.55117" lon="6.06323">
        <ele>1348.311136402</ele>
        <time>2015-12-11T10:04:17Z</time>
      </trkpt>
      <trkpt lat="45.55117" lon="6.06323">
        <ele>1348.311136402</ele>
        <time>2015-12-11T10:04:21Z</time>
      </trkpt>
      <trkpt lat="45.55116" lon="6.06324">
        <ele>1348.311136402</ele>
        <time>2015-12-11T10:04:32Z</time>
      </trkpt>
      <trkpt lat="45.55116" lon="6.06324">
        <ele>1348.311136402</ele>
        <time>2015-12-11T10:04:37Z</time>
      </trkpt>
      <trkpt lat="45.55116" lon="6.06324">
        <ele>1348.311136402</ele>
        <time>2015-12-11T10:04:41Z</time>
      </trkpt>
      <trkpt lat="45.55116" lon="6.06324">
        <ele>1348.311136402</ele>
        <time>2015-12-11T10:04:48Z</time>
      </trkpt>
      <trkpt lat="45.55116" lon="6.06322">
        <ele>1348.311136402</ele>
        <time>2015-12-11T10:04:51Z</time>
      </trkpt>
      <trkpt lat="45.55115" lon="6.06321">
        <ele>1348.311136402</ele>
        <time>2015-12-11T10:04:56Z</time>
      </trkpt>
      <trkpt lat="45.55117" lon="6.06318">
        <ele>1348.311136402</ele>
        <time>2015-12-11T10:05:06Z</time>
      </trkpt>
      <trkpt lat="45.55117" lon="6.06317">
        <ele>1348.311136402</ele>
        <time>2015-12-11T10:05:11Z</time>
      </trkpt>
      <trkpt lat="45.5512" lon="6.06318">
        <ele>1351.11547718</ele>
        <time>2015-12-11T10:05:21Z</time>
      </trkpt>
      <trkpt lat="45.55123" lon="6.06316">
        <ele>1351.11547718</ele>
        <time>2015-12-11T10:05:26Z</time>
      </trkpt>
      <trkpt lat="45.55126" lon="6.06319">
        <ele>1351.11547718</ele>
        <time>2015-12-11T10:05:37Z</time>
      </trkpt>
      <trkpt lat="45.55126" lon="6.0632">
        <ele>1351.11547718</ele>
        <time>2015-12-11T10:05:41Z</time>
      </trkpt>
      <trkpt lat="45.5513" lon="6.06324">
        <ele>1353.480647462</ele>
        <time>2015-12-11T10:05:52Z</time>
      </trkpt>
      <trkpt lat="45.55131" lon="6.06326">
        <ele>1353.480647462</ele>
        <time>2015-12-11T10:05:57Z</time>
      </trkpt>
      <trkpt lat="45.55133" lon="6.06328">
        <ele>1353.480647462</ele>
        <time>2015-12-11T10:06:06Z</time>
      </trkpt>
      <trkpt lat="45.55135" lon="6.0633">
        <ele>1353.480647462</ele>
        <time>2015-12-11T10:06:12Z</time>
      </trkpt>
      <trkpt lat="45.55137" lon="6.06329">
        <ele>1353.480647462</ele>
        <time>2015-12-11T10:06:21Z</time>
      </trkpt>
      <trkpt lat="45.5514" lon="6.06332">
        <ele>1356.448591768</ele>
        <time>2015-12-11T10:06:26Z</time>
      </trkpt>
      <trkpt lat="45.55143" lon="6.06331">
        <ele>1356.448591768</ele>
        <time>2015-12-11T10:06:37Z</time>
      </trkpt>
      <trkpt lat="45.55144" lon="6.06331">
        <ele>1356.448591768</ele>
        <time>2015-12-11T10:06:41Z</time>
      </trkpt>
      <trkpt lat="45.55147" lon="6.06333">
        <ele>1356.448591768</ele>
        <time>2015-12-11T10:06:46Z</time>
      </trkpt>
      <trkpt lat="45.55148" lon="6.06329">
        <ele>1360.550821762</ele>
        <time>2015-12-11T10:06:57Z</time>
      </trkpt>
      <trkpt lat="45.55149" lon="6.06329">
        <ele>1360.550821762</ele>
        <time>2015-12-11T10:07:01Z</time>
      </trkpt>
      <trkpt lat="45.55151" lon="6.06323">
        <ele>1360.550821762</ele>
        <time>2015-12-11T10:07:12Z</time>
      </trkpt>
      <trkpt lat="45.5515" lon="6.0632">
        <ele>1360.550821762</ele>
        <time>2015-12-11T10:07:17Z</time>
      </trkpt>
      <trkpt lat="45.55152" lon="6.06316">
        <ele>1365.412082717</ele>
        <time>2015-12-11T10:07:26Z</time>
      </trkpt>
      <trkpt lat="45.55153" lon="6.06313">
        <ele>1365.412082717</ele>
        <time>2015-12-11T10:07:32Z</time>
      </trkpt>
      <trkpt lat="45.55156" lon="6.06309">
        <ele>1365.412082717</ele>
        <time>2015-12-11T10:07:41Z</time>
      </trkpt>
      <trkpt lat="45.55156" lon="6.06308">
        <ele>1365.412082717</ele>
        <time>2015-12-11T10:07:46Z</time>
      </trkpt>
      <trkpt lat="45.55157" lon="6.063">
        <ele>1370.538572711</ele>
        <time>2015-12-11T10:07:57Z</time>
      </trkpt>
      <trkpt lat="45.55157" lon="6.06299">
        <ele>1370.538572711</ele>
        <time>2015-12-11T10:08:01Z</time>
      </trkpt>
      <trkpt lat="45.55161" lon="6.06295">
        <ele>1370.538572711</ele>
        <time>2015-12-11T10:08:11Z</time>
      </trkpt>
      <trkpt lat="45.55163" lon="6.06291">
        <ele>1375.039817013</ele>
        <time>2015-12-11T10:08:17Z</time>
      </trkpt>
      <trkpt lat="45.55163" lon="6.06287">
        <ele>1375.039817013</ele>
        <time>2015-12-11T10:08:32Z</time>
      </trkpt>
      <trkpt lat="45.55168" lon="6.06289">
        <ele>1375.039817013</ele>
        <time>2015-12-11T10:08:46Z</time>
      </trkpt>
      <trkpt lat="45.55172" lon="6.06285">
        <ele>1380.254314836</ele>
        <time>2015-12-11T10:09:01Z</time>
      </trkpt>
      <trkpt lat="45.55173" lon="6.06285">
        <ele>1380.254314836</ele>
        <time>2015-12-11T10:09:06Z</time>
      </trkpt>
      <trkpt lat="45.55174" lon="6.06284">
        <ele>1380.254314836</ele>
        <time>2015-12-11T10:09:17Z</time>
      </trkpt>
      <trkpt lat="45.55173" lon="6.06284">
        <ele>1380.254314836</ele>
        <time>2015-12-11T10:09:21Z</time>
      </trkpt>
      <trkpt lat="45.55178" lon="6.06282">
        <ele>1380.254314836</ele>
        <time>2015-12-11T10:09:32Z</time>
      </trkpt>
      <trkpt lat="45.55177" lon="6.06282">
        <ele>1380.254314836</ele>
        <time>2015-12-11T10:09:36Z</time>
      </trkpt>
      <trkpt lat="45.55177" lon="6.0628">
        <ele>1385.835159871</ele>
        <time>2015-12-11T10:09:46Z</time>
      </trkpt>
      <trkpt lat="45.55178" lon="6.06281">
        <ele>1385.835159871</ele>
        <time>2015-12-11T10:09:51Z</time>
      </trkpt>
      <trkpt lat="45.55178" lon="6.06281">
        <ele>1385.835159871</ele>
        <time>2015-12-11T10:10:02Z</time>
      </trkpt>
      <trkpt lat="45.55178" lon="6.06281">
        <ele>1385.835159871</ele>
        <time>2015-12-11T10:10:06Z</time>
      </trkpt>
      <trkpt lat="45.55179" lon="6.06281">
        <ele>1385.835159871</ele>
        <time>2015-12-11T10:10:17Z</time>
      </trkpt>
      <trkpt lat="45.55181" lon="6.06281">
        <ele>1385.835159871</ele>
        <time>2015-12-11T10:10:21Z</time>
      </trkpt>
      <trkpt lat="45.55185" lon="6.06276">
        <ele>1392.468834588</ele>
        <time>2015-12-11T10:10:31Z</time>
      </trkpt>
      <trkpt lat="45.55184" lon="6.06273">
        <ele>1392.468834588</ele>
        <time>2015-12-11T10:10:36Z</time>
      </trkpt>
      <trkpt lat="45.55187" lon="6.06272">
        <ele>1392.468834588</ele>
        <time>2015-12-11T10:10:51Z</time>
      </trkpt>
      <trkpt lat="45.55193" lon="6.06274">
        <ele>1399.203380739</ele>
        <time>2015-12-11T10:11:06Z</time>
      </trkpt>
      <trkpt lat="45.55192" lon="6.06274">
        <ele>1399.203380739</ele>
        <time>2015-12-11T10:11:11Z</time>
      </trkpt>
      <trkpt lat="45.55195" lon="6.06273">
        <ele>1399.203380739</ele>
        <time>2015-12-11T10:11:21Z</time>
      </trkpt>
      <trkpt lat="45.55196" lon="6.06271">
        <ele>1399.203380739</ele>
        <time>2015-12-11T10:11:26Z</time>
      </trkpt>
      <trkpt lat="45.55199" lon="6.06272">
        <ele>1399.203380739</ele>
        <time>2015-12-11T10:11:37Z</time>
      </trkpt>
      <trkpt lat="45.55199" lon="6.06271">
        <ele>1405.877222721</ele>
        <time>2015-12-11T10:11:41Z</time>
      </trkpt>
      <trkpt lat="45.55203" lon="6.06272">
        <ele>1405.877222721</ele>
        <time>2015-12-11T10:11:52Z</time>
      </trkpt>
      <trkpt lat="45.55205" lon="6.06272">
        <ele>1405.877222721</ele>
        <time>2015-12-11T10:11:57Z</time>
      </trkpt>
      <trkpt lat="45.55205" lon="6.0627">
        <ele>1405.877222721</ele>
        <time>2015-12-11T10:12:06Z</time>
      </trkpt>
      <trkpt lat="45.55206" lon="6.06268">
        <ele>1405.877222721</ele>
        <time>2015-12-11T10:12:11Z</time>
      </trkpt>
      <trkpt lat="45.5521" lon="6.06271">
        <ele>1412.773352408</ele>
        <time>2015-12-11T10:12:21Z</time>
      </trkpt>
      <trkpt lat="45.5521" lon="6.0627">
        <ele>1412.773352408</ele>
        <time>2015-12-11T10:12:26Z</time>
      </trkpt>
      <trkpt lat="45.55212" lon="6.0627">
        <ele>1412.773352408</ele>
        <time>2015-12-11T10:12:37Z</time>
      </trkpt>
      <trkpt lat="45.55215" lon="6.06271">
        <ele>1412.773352408</ele>
        <time>2015-12-11T10:12:41Z</time>
      </trkpt>
      <trkpt lat="45.55216" lon="6.0627">
        <ele>1412.773352408</ele>
        <time>2015-12-11T10:12:46Z</time>
      </trkpt>
      <trkpt lat="45.55223" lon="6.06275">
        <ele>1418.856556494</ele>
        <time>2015-12-11T10:12:56Z</time>
      </trkpt>
      <trkpt lat="45.55224" lon="6.06273">
        <ele>1418.856556494</ele>
        <time>2015-12-11T10:13:02Z</time>
      </trkpt>
      <trkpt lat="45.55224" lon="6.06273">
        <ele>1418.856556494</ele>
        <time>2015-12-11T10:13:13Z</time>
      </trkpt>
      <trkpt lat="45.55225" lon="6.06273">
        <ele>1418.856556494</ele>
        <time>2015-12-11T10:13:16Z</time>
      </trkpt>
      <trkpt lat="45.55229" lon="6.06275">
        <ele>1418.856556494</ele>
        <time>2015-12-11T10:13:26Z</time>
      </trkpt>
      <trkpt lat="45.5523" lon="6.06275">
        <ele>1418.856556494</ele>
        <time>2015-12-11T10:13:31Z</time>
      </trkpt>
      <trkpt lat="45.55234" lon="6.06277">
        <ele>1425.620060254</ele>
        <time>2015-12-11T10:13:42Z</time>
      </trkpt>
      <trkpt lat="45.55234" lon="6.06276">
        <ele>1425.620060254</ele>
        <time>2015-12-11T10:13:46Z</time>
      </trkpt>
      <trkpt lat="45.5524" lon="6.06277">
        <ele>1425.620060254</ele>
        <time>2015-12-11T10:13:58Z</time>
      </trkpt>
      <trkpt lat="45.55242" lon="6.06278">
        <ele>1425.620060254</ele>
        <time>2015-12-11T10:14:01Z</time>
      </trkpt>
      <trkpt lat="45.55245" lon="6.06279">
        <ele>1432.428163148</ele>
        <time>2015-12-11T10:14:18Z</time>
      </trkpt>
      <trkpt lat="45.55247" lon="6.06278">
        <ele>1432.428163148</ele>
        <time>2015-12-11T10:14:21Z</time>
      </trkpt>
      <trkpt lat="45.55248" lon="6.06276">
        <ele>1432.428163148</ele>
        <time>2015-12-11T10:14:31Z</time>
      </trkpt>
      <trkpt lat="45.55249" lon="6.06275">
        <ele>1432.428163148</ele>
        <time>2015-12-11T10:14:46Z</time>
      </trkpt>
      <trkpt lat="45.5525" lon="6.06276">
        <ele>1432.428163148</ele>
        <time>2015-12-11T10:14:51Z</time>
      </trkpt>
      <trkpt lat="45.5525" lon="6.06277">
        <ele>1432.428163148</ele>
        <time>2015-12-11T10:15:01Z</time>
      </trkpt>
      <trkpt lat="45.55251" lon="6.06274">
        <ele>1439.556646642</ele>
        <time>2015-12-11T10:15:06Z</time>
      </trkpt>
      <trkpt lat="45.55255" lon="6.06273">
        <ele>1439.556646642</ele>
        <time>2015-12-11T10:15:17Z</time>
      </trkpt>
      <trkpt lat="45.55256" lon="6.06273">
        <ele>1439.556646642</ele>
        <time>2015-12-11T10:15:22Z</time>
      </trkpt>
      <trkpt lat="45.55256" lon="6.06273">
        <ele>1439.556646642</ele>
        <time>2015-12-11T10:15:26Z</time>
      </trkpt>
      <trkpt lat="45.55255" lon="6.06272">
        <ele>1439.556646642</ele>
        <time>2015-12-11T10:15:35Z</time>
      </trkpt>
      <trkpt lat="45.55255" lon="6.06269">
        <ele>1439.556646642</ele>
        <time>2015-12-11T10:15:37Z</time>
      </trkpt>
      <trkpt lat="45.55257" lon="6.06269">
        <ele>1446.82805196</ele>
        <time>2015-12-11T10:15:42Z</time>
      </trkpt>
      <trkpt lat="45.5526" lon="6.06268">
        <ele>1446.82805196</ele>
        <time>2015-12-11T10:15:52Z</time>
      </trkpt>
      <trkpt lat="45.5526" lon="6.06268">
        <ele>1446.82805196</ele>
        <time>2015-12-11T10:15:56Z</time>
      </trkpt>
      <trkpt lat="45.55261" lon="6.06267">
        <ele>1446.82805196</ele>
        <time>2015-12-11T10:16:06Z</time>
      </trkpt>
      <trkpt lat="45.55264" lon="6.06267">
        <ele>1446.82805196</ele>
        <time>2015-12-11T10:16:14Z</time>
      </trkpt>
      <trkpt lat="45.55264" lon="6.06264">
        <ele>1453.357258904</ele>
        <time>2015-12-11T10:16:21Z</time>
      </trkpt>
      <trkpt lat="45.55264" lon="6.06262">
        <ele>1453.357258904</ele>
        <time>2015-12-11T10:16:26Z</time>
      </trkpt>
      <trkpt lat="45.55264" lon="6.0626">
        <ele>1453.357258904</ele>
        <time>2015-12-11T10:16:37Z</time>
      </trkpt>
      <trkpt lat="45.55264" lon="6.06258">
        <ele>1453.357258904</ele>
        <time>2015-12-11T10:16:41Z</time>
      </trkpt>
      <trkpt lat="45.55266" lon="6.06254">
        <ele>1453.357258904</ele>
        <time>2015-12-11T10:16:52Z</time>
      </trkpt>
      <trkpt lat="45.55266" lon="6.06253">
        <ele>1453.357258904</ele>
        <time>2015-12-11T10:16:57Z</time>
      </trkpt>
      <trkpt lat="45.55267" lon="6.06252">
        <ele>1460.344074279</ele>
        <time>2015-12-11T10:17:06Z</time>
      </trkpt>
      <trkpt lat="45.55267" lon="6.06252">
        <ele>1460.344074279</ele>
        <time>2015-12-11T10:17:11Z</time>
      </trkpt>
      <trkpt lat="45.55274" lon="6.06252">
        <ele>1460.344074279</ele>
        <time>2015-12-11T10:17:22Z</time>
      </trkpt>
      <trkpt lat="45.55274" lon="6.0625">
        <ele>1460.344074279</ele>
        <time>2015-12-11T10:17:26Z</time>
      </trkpt>
      <trkpt lat="45.55274" lon="6.0625">
        <ele>1467.025711503</ele>
        <time>2015-12-11T10:17:31Z</time>
      </trkpt>
      <trkpt lat="45.55274" lon="6.0625">
        <ele>1467.025711503</ele>
        <time>2015-12-11T10:17:41Z</time>
      </trkpt>
      <trkpt lat="45.55274" lon="6.0625">
        <ele>1467.025711503</ele>
        <time>2015-12-11T10:17:46Z</time>
      </trkpt>
      <trkpt lat="45.55274" lon="6.0625">
        <ele>1467.025711503</ele>
        <time>2015-12-11T10:17:57Z</time>
      </trkpt>
      <trkpt lat="45.55274" lon="6.06249">
        <ele>1467.025711503</ele>
        <time>2015-12-11T10:18:02Z</time>
      </trkpt>
      <trkpt lat="45.55273" lon="6.06248">
        <ele>1467.025711503</ele>
        <time>2015-12-11T10:18:11Z</time>
      </trkpt>
      <trkpt lat="45.55273" lon="6.06248">
        <ele>1467.025711503</ele>
        <time>2015-12-11T10:18:17Z</time>
      </trkpt>
      <trkpt lat="45.55273" lon="6.06248">
        <ele>1467.025711503</ele>
        <time>2015-12-11T10:18:26Z</time>
      </trkpt>
      <trkpt lat="45.55273" lon="6.06248">
        <ele>1467.025711503</ele>
        <time>2015-12-11T10:18:31Z</time>
      </trkpt>
      <trkpt lat="45.55273" lon="6.06248">
        <ele>1467.025711503</ele>
        <time>2015-12-11T10:18:42Z</time>
      </trkpt>
      <trkpt lat="45.55273" lon="6.06247">
        <ele>1467.025711503</ele>
        <time>2015-12-11T10:18:46Z</time>
      </trkpt>
      <trkpt lat="45.55272" lon="6.0625">
        <ele>1467.025711503</ele>
        <time>2015-12-11T10:18:58Z</time>
      </trkpt>
      <trkpt lat="45.55271" lon="6.06251">
        <ele>1467.025711503</ele>
        <time>2015-12-11T10:19:02Z</time>
      </trkpt>
      <trkpt lat="45.55272" lon="6.06249">
        <ele>1467.025711503</ele>
        <time>2015-12-11T10:19:17Z</time>
      </trkpt>
      <trkpt lat="45.55273" lon="6.06249">
        <ele>1473.41710657</ele>
        <time>2015-12-11T10:19:22Z</time>
      </trkpt>
      <trkpt lat="45.55274" lon="6.06248">
        <ele>1473.41710657</ele>
        <time>2015-12-11T10:19:31Z</time>
      </trkpt>
      <trkpt lat="45.55274" lon="6.06248">
        <ele>1473.41710657</ele>
        <time>2015-12-11T10:19:36Z</time>
      </trkpt>
      <trkpt lat="45.55273" lon="6.06245">
        <ele>1473.41710657</ele>
        <time>2015-12-11T10:19:47Z</time>
      </trkpt>
      <trkpt lat="45.55275" lon="6.06245">
        <ele>1473.41710657</ele>
        <time>2015-12-11T10:19:51Z</time>
      </trkpt>
      <trkpt lat="45.55276" lon="6.06241">
        <ele>1473.41710657</ele>
        <time>2015-12-11T10:20:01Z</time>
      </trkpt>
      <trkpt lat="45.55277" lon="6.0624">
        <ele>1473.41710657</ele>
        <time>2015-12-11T10:20:06Z</time>
      </trkpt>
      <trkpt lat="45.5528" lon="6.0624">
        <ele>1479.965523933</ele>
        <time>2015-12-11T10:20:16Z</time>
      </trkpt>
      <trkpt lat="45.55282" lon="6.06239">
        <ele>1479.965523933</ele>
        <time>2015-12-11T10:20:22Z</time>
      </trkpt>
      <trkpt lat="45.55283" lon="6.06237">
        <ele>1479.965523933</ele>
        <time>2015-12-11T10:20:31Z</time>
      </trkpt>
      <trkpt lat="45.55284" lon="6.06237">
        <ele>1479.965523933</ele>
        <time>2015-12-11T10:20:36Z</time>
      </trkpt>
      <trkpt lat="45.55291" lon="6.0624">
        <ele>1485.932319058</ele>
        <time>2015-12-11T10:20:51Z</time>
      </trkpt>
      <trkpt lat="45.55297" lon="6.0624">
        <ele>1485.932319058</ele>
        <time>2015-12-11T10:20:56Z</time>
      </trkpt>
      <trkpt lat="45.55302" lon="6.06238">
        <ele>1491.499679583</ele>
        <time>2015-12-11T10:21:06Z</time>
      </trkpt>
      <trkpt lat="45.55301" lon="6.06237">
        <ele>1491.499679583</ele>
        <time>2015-12-11T10:21:11Z</time>
      </trkpt>
      <trkpt lat="45.55302" lon="6.06227">
        <ele>1491.499679583</ele>
        <time>2015-12-11T10:21:22Z</time>
      </trkpt>
      <trkpt lat="45.55302" lon="6.06227">
        <ele>1491.499679583</ele>
        <time>2015-12-11T10:21:27Z</time>
      </trkpt>
      <trkpt lat="45.55302" lon="6.0622">
        <ele>1497.270130893</ele>
        <time>2015-12-11T10:21:36Z</time>
      </trkpt>
      <trkpt lat="45.553" lon="6.06214">
        <ele>1497.270130893</ele>
        <time>2015-12-11T10:21:42Z</time>
      </trkpt>
      <trkpt lat="45.55298" lon="6.06208">
        <ele>1503.65751666</ele>
        <time>2015-12-11T10:21:51Z</time>
      </trkpt>
      <trkpt lat="45.55298" lon="6.06208">
        <ele>1503.65751666</ele>
        <time>2015-12-11T10:21:56Z</time>
      </trkpt>
      <trkpt lat="45.55296" lon="6.06197">
        <ele>1503.65751666</ele>
        <time>2015-12-11T10:22:07Z</time>
      </trkpt>
      <trkpt lat="45.55295" lon="6.06195">
        <ele>1509.60268971</ele>
        <time>2015-12-11T10:22:11Z</time>
      </trkpt>
      <trkpt lat="45.55294" lon="6.06193">
        <ele>1509.60268971</ele>
        <time>2015-12-11T10:22:16Z</time>
      </trkpt>
      <trkpt lat="45.55289" lon="6.06182">
        <ele>1514.846347147</ele>
        <time>2015-12-11T10:22:31Z</time>
      </trkpt>
      <trkpt lat="45.55285" lon="6.0618">
        <ele>1514.846347147</ele>
        <time>2015-12-11T10:22:36Z</time>
      </trkpt>
      <trkpt lat="45.55282" lon="6.06173">
        <ele>1519.150434819</ele>
        <time>2015-12-11T10:22:47Z</time>
      </trkpt>
      <trkpt lat="45.55281" lon="6.06168">
        <ele>1519.150434819</ele>
        <time>2015-12-11T10:22:51Z</time>
      </trkpt>
      <trkpt lat="45.55277" lon="6.06166">
        <ele>1519.150434819</ele>
        <time>2015-12-11T10:23:02Z</time>
      </trkpt>
      <trkpt lat="45.55277" lon="6.06166">
        <ele>1519.150434819</ele>
        <time>2015-12-11T10:23:07Z</time>
      </trkpt>
      <trkpt lat="45.55275" lon="6.06156">
        <ele>1523.738352879</ele>
        <time>2015-12-11T10:23:22Z</time>
      </trkpt>
      <trkpt lat="45.55272" lon="6.06153">
        <ele>1523.738352879</ele>
        <time>2015-12-11T10:23:32Z</time>
      </trkpt>
      <trkpt lat="45.55271" lon="6.06151">
        <ele>1523.738352879</ele>
        <time>2015-12-11T10:23:36Z</time>
      </trkpt>
      <trkpt lat="45.55268" lon="6.06145">
        <ele>1529.022483518</ele>
        <time>2015-12-11T10:23:47Z</time>
      </trkpt>
      <trkpt lat="45.55267" lon="6.06145">
        <ele>1529.022483518</ele>
        <time>2015-12-11T10:23:51Z</time>
      </trkpt>
      <trkpt lat="45.55267" lon="6.06142">
        <ele>1529.022483518</ele>
        <time>2015-12-11T10:23:56Z</time>
      </trkpt>
      <trkpt lat="45.55267" lon="6.06131">
        <ele>1533.22148164</ele>
        <time>2015-12-11T10:24:07Z</time>
      </trkpt>
      <trkpt lat="45.55268" lon="6.0613">
        <ele>1533.22148164</ele>
        <time>2015-12-11T10:24:12Z</time>
      </trkpt>
      <trkpt lat="45.55268" lon="6.0613">
        <ele>1533.22148164</ele>
        <time>2015-12-11T10:24:21Z</time>
      </trkpt>
      <trkpt lat="45.55268" lon="6.0613">
        <ele>1533.22148164</ele>
        <time>2015-12-11T10:24:27Z</time>
      </trkpt>
      <trkpt lat="45.55268" lon="6.0613">
        <ele>1533.22148164</ele>
        <time>2015-12-11T10:24:36Z</time>
      </trkpt>
      <trkpt lat="45.55268" lon="6.0613">
        <ele>1533.22148164</ele>
        <time>2015-12-11T10:24:42Z</time>
      </trkpt>
      <trkpt lat="45.5526" lon="6.06118">
        <ele>1536.993849867</ele>
        <time>2015-12-11T10:24:52Z</time>
      </trkpt>
      <trkpt lat="45.55259" lon="6.06116">
        <ele>1536.993849867</ele>
        <time>2015-12-11T10:24:56Z</time>
      </trkpt>
      <trkpt lat="45.55258" lon="6.06111">
        <ele>1536.993849867</ele>
        <time>2015-12-11T10:25:12Z</time>
      </trkpt>
      <trkpt lat="45.55258" lon="6.06111">
        <ele>1536.993849867</ele>
        <time>2015-12-11T10:25:16Z</time>
      </trkpt>
      <trkpt lat="45.55257" lon="6.06109">
        <ele>1536.993849867</ele>
        <time>2015-12-11T10:25:27Z</time>
      </trkpt>
      <trkpt lat="45.55257" lon="6.06106">
        <ele>1536.993849867</ele>
        <time>2015-12-11T10:25:32Z</time>
      </trkpt>
      <trkpt lat="45.55254" lon="6.06101">
        <ele>1541.383398727</ele>
        <time>2015-12-11T10:25:42Z</time>
      </trkpt>
      <trkpt lat="45.55253" lon="6.061">
        <ele>1541.383398727</ele>
        <time>2015-12-11T10:25:47Z</time>
      </trkpt>
      <trkpt lat="45.55254" lon="6.0609">
        <ele>1541.383398727</ele>
        <time>2015-12-11T10:26:02Z</time>
      </trkpt>
      <trkpt lat="45.55251" lon="6.06069">
        <ele>1545.770439744</ele>
        <time>2015-12-11T10:26:16Z</time>
      </trkpt>
      <trkpt lat="45.55248" lon="6.06067">
        <ele>1545.770439744</ele>
        <time>2015-12-11T10:26:27Z</time>
      </trkpt>
      <trkpt lat="45.55248" lon="6.06067">
        <ele>1545.770439744</ele>
        <time>2015-12-11T10:26:32Z</time>
      </trkpt>
      <trkpt lat="45.55248" lon="6.06067">
        <ele>1545.770439744</ele>
        <time>2015-12-11T10:26:36Z</time>
      </trkpt>
      <trkpt lat="45.55248" lon="6.06067">
        <ele>1545.770439744</ele>
        <time>2015-12-11T10:26:47Z</time>
      </trkpt>
      <trkpt lat="45.55249" lon="6.06062">
        <ele>1545.770439744</ele>
        <time>2015-12-11T10:26:52Z</time>
      </trkpt>
      <trkpt lat="45.5525" lon="6.06053">
        <ele>1550.589707329</ele>
        <time>2015-12-11T10:27:02Z</time>
      </trkpt>
      <trkpt lat="45.5525" lon="6.0605">
        <ele>1550.589707329</ele>
        <time>2015-12-11T10:27:07Z</time>
      </trkpt>
      <trkpt lat="45.55253" lon="6.0605">
        <ele>1550.589707329</ele>
        <time>2015-12-11T10:27:16Z</time>
      </trkpt>
      <trkpt lat="45.55254" lon="6.06049">
        <ele>1550.589707329</ele>
        <time>2015-12-11T10:27:21Z</time>
      </trkpt>
      <trkpt lat="45.55253" lon="6.06046">
        <ele>1550.589707329</ele>
        <time>2015-12-11T10:27:31Z</time>
      </trkpt>
      <trkpt lat="45.55253" lon="6.06046">
        <ele>1550.589707329</ele>
        <time>2015-12-11T10:27:36Z</time>
      </trkpt>
      <trkpt lat="45.55253" lon="6.06046">
        <ele>1550.589707329</ele>
        <time>2015-12-11T10:27:47Z</time>
      </trkpt>
      <trkpt lat="45.55253" lon="6.06046">
        <ele>1550.589707329</ele>
        <time>2015-12-11T10:27:51Z</time>
      </trkpt>
      <trkpt lat="45.55253" lon="6.06046">
        <ele>1550.589707329</ele>
        <time>2015-12-11T10:27:56Z</time>
      </trkpt>
      <trkpt lat="45.55254" lon="6.06042">
        <ele>1555.810555918</ele>
        <time>2015-12-11T10:28:07Z</time>
      </trkpt>
      <trkpt lat="45.55253" lon="6.06042">
        <ele>1555.810555918</ele>
        <time>2015-12-11T10:28:12Z</time>
      </trkpt>
      <trkpt lat="45.55254" lon="6.06038">
        <ele>1555.810555918</ele>
        <time>2015-12-11T10:28:21Z</time>
      </trkpt>
      <trkpt lat="45.55256" lon="6.06035">
        <ele>1555.810555918</ele>
        <time>2015-12-11T10:28:27Z</time>
      </trkpt>
      <trkpt lat="45.55257" lon="6.06032">
        <ele>1555.810555918</ele>
        <time>2015-12-11T10:28:36Z</time>
      </trkpt>
      <trkpt lat="45.55258" lon="6.06033">
        <ele>1561.403555351</ele>
        <time>2015-12-11T10:28:41Z</time>
      </trkpt>
      <trkpt lat="45.55257" lon="6.06029">
        <ele>1561.403555351</ele>
        <time>2015-12-11T10:28:51Z</time>
      </trkpt>
      <trkpt lat="45.55257" lon="6.06026">
        <ele>1561.403555351</ele>
        <time>2015-12-11T10:28:56Z</time>
      </trkpt>
      <trkpt lat="45.55257" lon="6.06022">
        <ele>1561.403555351</ele>
        <time>2015-12-11T10:29:06Z</time>
      </trkpt>
      <trkpt lat="45.55257" lon="6.06021">
        <ele>1561.403555351</ele>
        <time>2015-12-11T10:29:12Z</time>
      </trkpt>
      <trkpt lat="45.55256" lon="6.06019">
        <ele>1567.340476825</ele>
        <time>2015-12-11T10:29:27Z</time>
      </trkpt>
      <trkpt lat="45.55256" lon="6.06012">
        <ele>1567.340476825</ele>
        <time>2015-12-11T10:29:41Z</time>
      </trkpt>
      <trkpt lat="45.55255" lon="6.06011">
        <ele>1567.340476825</ele>
        <time>2015-12-11T10:29:57Z</time>
      </trkpt>
      <trkpt lat="45.55255" lon="6.06011">
        <ele>1567.340476825</ele>
        <time>2015-12-11T10:30:01Z</time>
      </trkpt>
      <trkpt lat="45.55253" lon="6.06006">
        <ele>1572.873722899</ele>
        <time>2015-12-11T10:30:12Z</time>
      </trkpt>
      <trkpt lat="45.55251" lon="6.06006">
        <ele>1572.873722899</ele>
        <time>2015-12-11T10:30:16Z</time>
      </trkpt>
      <trkpt lat="45.5525" lon="6.06001">
        <ele>1572.873722899</ele>
        <time>2015-12-11T10:30:27Z</time>
      </trkpt>
      <trkpt lat="45.55249" lon="6.05998">
        <ele>1572.873722899</ele>
        <time>2015-12-11T10:30:31Z</time>
      </trkpt>
      <trkpt lat="45.55248" lon="6.05991">
        <ele>1578.320599479</ele>
        <time>2015-12-11T10:30:46Z</time>
      </trkpt>
      <trkpt lat="45.55244" lon="6.05987">
        <ele>1578.320599479</ele>
        <time>2015-12-11T10:30:57Z</time>
      </trkpt>
      <trkpt lat="45.55244" lon="6.05987">
        <ele>1578.320599479</ele>
        <time>2015-12-11T10:31:01Z</time>
      </trkpt>
      <trkpt lat="45.55242" lon="6.05976">
        <ele>1584.263640191</ele>
        <time>2015-12-11T10:31:12Z</time>
      </trkpt>
      <trkpt lat="45.55242" lon="6.05972">
        <ele>1584.263640191</ele>
        <time>2015-12-11T10:31:16Z</time>
      </trkpt>
      <trkpt lat="45.55243" lon="6.05971">
        <ele>1584.263640191</ele>
        <time>2015-12-11T10:31:21Z</time>
      </trkpt>
      <trkpt lat="45.55244" lon="6.05969">
        <ele>1584.263640191</ele>
        <time>2015-12-11T10:31:32Z</time>
      </trkpt>
      <trkpt lat="45.5524" lon="6.05966">
        <ele>1590.520708734</ele>
        <time>2015-12-11T10:31:47Z</time>
      </trkpt>
      <trkpt lat="45.55239" lon="6.05966">
        <ele>1590.520708734</ele>
        <time>2015-12-11T10:31:52Z</time>
      </trkpt>
      <trkpt lat="45.55233" lon="6.05962">
        <ele>1590.520708734</ele>
        <time>2015-12-11T10:32:01Z</time>
      </trkpt>
      <trkpt lat="45.5523" lon="6.0596">
        <ele>1596.057568432</ele>
        <time>2015-12-11T10:32:06Z</time>
      </trkpt>
      <trkpt lat="45.55225" lon="6.05955">
        <ele>1596.057568432</ele>
        <time>2015-12-11T10:32:17Z</time>
      </trkpt>
      <trkpt lat="45.55222" lon="6.05956">
        <ele>1596.057568432</ele>
        <time>2015-12-11T10:32:21Z</time>
      </trkpt>
      <trkpt lat="45.55213" lon="6.05954">
        <ele>1601.503266173</ele>
        <time>2015-12-11T10:32:32Z</time>
      </trkpt>
      <trkpt lat="45.5521" lon="6.05951">
        <ele>1601.503266173</ele>
        <time>2015-12-11T10:32:36Z</time>
      </trkpt>
      <trkpt lat="45.55207" lon="6.05947">
        <ele>1601.503266173</ele>
        <time>2015-12-11T10:32:46Z</time>
      </trkpt>
      <trkpt lat="45.55203" lon="6.05947">
        <ele>1606.143956755</ele>
        <time>2015-12-11T10:32:51Z</time>
      </trkpt>
      <trkpt lat="45.55195" lon="6.05944">
        <ele>1606.143956755</ele>
        <time>2015-12-11T10:33:06Z</time>
      </trkpt>
      <trkpt lat="45.55184" lon="6.05939">
        <ele>1610.47343684</ele>
        <time>2015-12-11T10:33:16Z</time>
      </trkpt>
      <trkpt lat="45.55181" lon="6.0594">
        <ele>1610.47343684</ele>
        <time>2015-12-11T10:33:21Z</time>
      </trkpt>
      <trkpt lat="45.55176" lon="6.05935">
        <ele>1610.47343684</ele>
        <time>2015-12-11T10:33:32Z</time>
      </trkpt>
      <trkpt lat="45.55173" lon="6.05932">
        <ele>1614.085480025</ele>
        <time>2015-12-11T10:33:36Z</time>
      </trkpt>
      <trkpt lat="45.55171" lon="6.05931">
        <ele>1614.085480025</ele>
        <time>2015-12-11T10:33:41Z</time>
      </trkpt>
      <trkpt lat="45.55167" lon="6.05927">
        <ele>1614.085480025</ele>
        <time>2015-12-11T10:33:52Z</time>
      </trkpt>
      <trkpt lat="45.55165" lon="6.05925">
        <ele>1617.758634735</ele>
        <time>2015-12-11T10:33:56Z</time>
      </trkpt>
      <trkpt lat="45.55162" lon="6.05922">
        <ele>1617.758634735</ele>
        <time>2015-12-11T10:34:07Z</time>
      </trkpt>
      <trkpt lat="45.5516" lon="6.05917">
        <ele>1617.758634735</ele>
        <time>2015-12-11T10:34:11Z</time>
      </trkpt>
      <trkpt lat="45.55157" lon="6.05915">
        <ele>1621.061212551</ele>
        <time>2015-12-11T10:34:21Z</time>
      </trkpt>
      <trkpt lat="45.55154" lon="6.0591">
        <ele>1621.061212551</ele>
        <time>2015-12-11T10:34:26Z</time>
      </trkpt>
      <trkpt lat="45.55152" lon="6.05908">
        <ele>1621.061212551</ele>
        <time>2015-12-11T10:34:37Z</time>
      </trkpt>
      <trkpt lat="45.55149" lon="6.05905">
        <ele>1624.170719096</ele>
        <time>2015-12-11T10:34:41Z</time>
      </trkpt>
      <trkpt lat="45.55143" lon="6.05901">
        <ele>1624.170719096</ele>
        <time>2015-12-11T10:34:52Z</time>
      </trkpt>
      <trkpt lat="45.55139" lon="6.059">
        <ele>1626.387473823</ele>
        <time>2015-12-11T10:34:56Z</time>
      </trkpt>
      <trkpt lat="45.55132" lon="6.05897">
        <ele>1626.387473823</ele>
        <time>2015-12-11T10:35:07Z</time>
      </trkpt>
      <trkpt lat="45.55132" lon="6.05897">
        <ele>1626.387473823</ele>
        <time>2015-12-11T10:35:12Z</time>
      </trkpt>
      <trkpt lat="45.55127" lon="6.05895">
        <ele>1628.650880137</ele>
        <time>2015-12-11T10:35:27Z</time>
      </trkpt>
      <trkpt lat="45.55127" lon="6.05895">
        <ele>1628.650880137</ele>
        <time>2015-12-11T10:35:31Z</time>
      </trkpt>
      <trkpt lat="45.55126" lon="6.05895">
        <ele>1628.650880137</ele>
        <time>2015-12-11T10:35:41Z</time>
      </trkpt>
      <trkpt lat="45.55126" lon="6.05893">
        <ele>1628.650880137</ele>
        <time>2015-12-11T10:35:46Z</time>
      </trkpt>
      <trkpt lat="45.55126" lon="6.05894">
        <ele>1628.650880137</ele>
        <time>2015-12-11T10:35:51Z</time>
      </trkpt>
      <trkpt lat="45.55126" lon="6.05894">
        <ele>1628.650880137</ele>
        <time>2015-12-11T10:36:01Z</time>
      </trkpt>
      <trkpt lat="45.55126" lon="6.05893">
        <ele>1628.650880137</ele>
        <time>2015-12-11T10:36:11Z</time>
      </trkpt>
      <trkpt lat="45.55126" lon="6.05893">
        <ele>1628.650880137</ele>
        <time>2015-12-11T10:36:16Z</time>
      </trkpt>
      <trkpt lat="45.55126" lon="6.05893">
        <ele>1628.650880137</ele>
        <time>2015-12-11T10:36:27Z</time>
      </trkpt>
      <trkpt lat="45.55126" lon="6.05893">
        <ele>1628.650880137</ele>
        <time>2015-12-11T10:36:31Z</time>
      </trkpt>
      <trkpt lat="45.55126" lon="6.05893">
        <ele>1628.650880137</ele>
        <time>2015-12-11T10:36:47Z</time>
      </trkpt>
      <trkpt lat="45.55126" lon="6.05891">
        <ele>1628.650880137</ele>
        <time>2015-12-11T10:36:51Z</time>
      </trkpt>
      <trkpt lat="45.55126" lon="6.05888">
        <ele>1628.650880137</ele>
        <time>2015-12-11T10:37:01Z</time>
      </trkpt>
      <trkpt lat="45.55126" lon="6.05888">
        <ele>1628.650880137</ele>
        <time>2015-12-11T10:37:06Z</time>
      </trkpt>
      <trkpt lat="45.55126" lon="6.05887">
        <ele>1628.650880137</ele>
        <time>2015-12-11T10:37:16Z</time>
      </trkpt>
      <trkpt lat="45.55126" lon="6.05887">
        <ele>1628.650880137</ele>
        <time>2015-12-11T10:37:21Z</time>
      </trkpt>
      <trkpt lat="45.55126" lon="6.05887">
        <ele>1630.390027339</ele>
        <time>2015-12-11T10:37:31Z</time>
      </trkpt>
      <trkpt lat="45.55126" lon="6.05886">
        <ele>1630.390027339</ele>
        <time>2015-12-11T10:37:36Z</time>
      </trkpt>
      <trkpt lat="45.55126" lon="6.05886">
        <ele>1630.390027339</ele>
        <time>2015-12-11T10:37:46Z</time>
      </trkpt>
      <trkpt lat="45.55126" lon="6.05887">
        <ele>1630.390027339</ele>
        <time>2015-12-11T10:37:52Z</time>
      </trkpt>
      <trkpt lat="45.55126" lon="6.05885">
        <ele>1630.390027339</ele>
        <time>2015-12-11T10:38:07Z</time>
      </trkpt>
      <trkpt lat="45.55126" lon="6.05885">
        <ele>1630.390027339</ele>
        <time>2015-12-11T10:38:17Z</time>
      </trkpt>
      <trkpt lat="45.55126" lon="6.05885">
        <ele>1630.390027339</ele>
        <time>2015-12-11T10:38:21Z</time>
      </trkpt>
      <trkpt lat="45.55126" lon="6.05885">
        <ele>1630.390027339</ele>
        <time>2015-12-11T10:38:36Z</time>
      </trkpt>
      <trkpt lat="45.55126" lon="6.05885">
        <ele>1630.390027339</ele>
        <time>2015-12-11T10:38:41Z</time>
      </trkpt>
      <trkpt lat="45.55126" lon="6.05885">
        <ele>1630.390027339</ele>
        <time>2015-12-11T10:38:52Z</time>
      </trkpt>
      <trkpt lat="45.55126" lon="6.05885">
        <ele>1630.390027339</ele>
        <time>2015-12-11T10:38:57Z</time>
      </trkpt>
      <trkpt lat="45.55126" lon="6.05885">
        <ele>1630.390027339</ele>
        <time>2015-12-11T10:39:01Z</time>
      </trkpt>
      <trkpt lat="45.55126" lon="6.05885">
        <ele>1630.390027339</ele>
        <time>2015-12-11T10:39:06Z</time>
      </trkpt>
      <trkpt lat="45.55126" lon="6.05885">
        <ele>1630.390027339</ele>
        <time>2015-12-11T10:39:12Z</time>
      </trkpt>
      <trkpt lat="45.55126" lon="6.05883">
        <ele>1630.390027339</ele>
        <time>2015-12-11T10:39:26Z</time>
      </trkpt>
      <trkpt lat="45.55126" lon="6.05883">
        <ele>1630.390027339</ele>
        <time>2015-12-11T10:39:31Z</time>
      </trkpt>
      <trkpt lat="45.55126" lon="6.05883">
        <ele>1630.390027339</ele>
        <time>2015-12-11T10:39:42Z</time>
      </trkpt>
      <trkpt lat="45.55126" lon="6.05883">
        <ele>1630.390027339</ele>
        <time>2015-12-11T10:39:46Z</time>
      </trkpt>
      <trkpt lat="45.55126" lon="6.05883">
        <ele>1630.390027339</ele>
        <time>2015-12-11T10:39:56Z</time>
      </trkpt>
      <trkpt lat="45.55126" lon="6.05883">
        <ele>1630.390027339</ele>
        <time>2015-12-11T10:40:01Z</time>
      </trkpt>
      <trkpt lat="45.55126" lon="6.05882">
        <ele>1630.390027339</ele>
        <time>2015-12-11T10:40:12Z</time>
      </trkpt>
      <trkpt lat="45.55126" lon="6.05883">
        <ele>1630.390027339</ele>
        <time>2015-12-11T10:40:17Z</time>
      </trkpt>
      <trkpt lat="45.55126" lon="6.05882">
        <ele>1630.390027339</ele>
        <time>2015-12-11T10:40:32Z</time>
      </trkpt>
      <trkpt lat="45.55126" lon="6.05882">
        <ele>1630.390027339</ele>
        <time>2015-12-11T10:40:46Z</time>
      </trkpt>
      <trkpt lat="45.55126" lon="6.05882">
        <ele>1630.390027339</ele>
        <time>2015-12-11T10:41:01Z</time>
      </trkpt>
      <trkpt lat="45.55126" lon="6.05882">
        <ele>1630.390027339</ele>
        <time>2015-12-11T10:41:06Z</time>
      </trkpt>
      <trkpt lat="45.55126" lon="6.0588">
        <ele>1630.390027339</ele>
        <time>2015-12-11T10:41:17Z</time>
      </trkpt>
      <trkpt lat="45.55126" lon="6.05881">
        <ele>1630.390027339</ele>
        <time>2015-12-11T10:41:21Z</time>
      </trkpt>
      <trkpt lat="45.55126" lon="6.05881">
        <ele>1630.390027339</ele>
        <time>2015-12-11T10:41:31Z</time>
      </trkpt>
      <trkpt lat="45.55126" lon="6.05881">
        <ele>1630.390027339</ele>
        <time>2015-12-11T10:41:36Z</time>
      </trkpt>
      <trkpt lat="45.55126" lon="6.0588">
        <ele>1631.941994532</ele>
        <time>2015-12-11T10:41:46Z</time>
      </trkpt>
      <trkpt lat="45.55126" lon="6.0588">
        <ele>1631.941994532</ele>
        <time>2015-12-11T10:41:51Z</time>
      </trkpt>
      <trkpt lat="45.55126" lon="6.0588">
        <ele>1631.941994532</ele>
        <time>2015-12-11T10:42:01Z</time>
      </trkpt>
      <trkpt lat="45.55126" lon="6.05881">
        <ele>1631.941994532</ele>
        <time>2015-12-11T10:42:06Z</time>
      </trkpt>
      <trkpt lat="45.55125" lon="6.05881">
        <ele>1631.941994532</ele>
        <time>2015-12-11T10:42:17Z</time>
      </trkpt>
      <trkpt lat="45.55125" lon="6.05881">
        <ele>1631.941994532</ele>
        <time>2015-12-11T10:42:21Z</time>
      </trkpt>
      <trkpt lat="45.55125" lon="6.05881">
        <ele>1631.941994532</ele>
        <time>2015-12-11T10:42:32Z</time>
      </trkpt>
      <trkpt lat="45.55125" lon="6.05881">
        <ele>1631.941994532</ele>
        <time>2015-12-11T10:42:36Z</time>
      </trkpt>
      <trkpt lat="45.55125" lon="6.05881">
        <ele>1631.941994532</ele>
        <time>2015-12-11T10:42:51Z</time>
      </trkpt>
      <trkpt lat="45.55125" lon="6.05881">
        <ele>1631.941994532</ele>
        <time>2015-12-11T10:43:07Z</time>
      </trkpt>
      <trkpt lat="45.55125" lon="6.05881">
        <ele>1631.941994532</ele>
        <time>2015-12-11T10:43:12Z</time>
      </trkpt>
      <trkpt lat="45.55125" lon="6.05881">
        <ele>1631.941994532</ele>
        <time>2015-12-11T10:43:22Z</time>
      </trkpt>
      <trkpt lat="45.55125" lon="6.05881">
        <ele>1631.941994532</ele>
        <time>2015-12-11T10:43:27Z</time>
      </trkpt>
      <trkpt lat="45.55126" lon="6.05883">
        <ele>1631.941994532</ele>
        <time>2015-12-11T10:43:37Z</time>
      </trkpt>
      <trkpt lat="45.55126" lon="6.05882">
        <ele>1631.941994532</ele>
        <time>2015-12-11T10:43:42Z</time>
      </trkpt>
      <trkpt lat="45.55126" lon="6.05882">
        <ele>1631.941994532</ele>
        <time>2015-12-11T10:43:51Z</time>
      </trkpt>
      <trkpt lat="45.55127" lon="6.05882">
        <ele>1631.941994532</ele>
        <time>2015-12-11T10:43:57Z</time>
      </trkpt>
      <trkpt lat="45.55127" lon="6.05882">
        <ele>1631.941994532</ele>
        <time>2015-12-11T10:44:06Z</time>
      </trkpt>
      <trkpt lat="45.55127" lon="6.05882">
        <ele>1631.941994532</ele>
        <time>2015-12-11T10:44:11Z</time>
      </trkpt>
      <trkpt lat="45.55127" lon="6.05882">
        <ele>1631.941994532</ele>
        <time>2015-12-11T10:44:26Z</time>
      </trkpt>
      <trkpt lat="45.55127" lon="6.05882">
        <ele>1631.941994532</ele>
        <time>2015-12-11T10:44:31Z</time>
      </trkpt>
      <trkpt lat="45.55127" lon="6.05883">
        <ele>1631.941994532</ele>
        <time>2015-12-11T10:44:37Z</time>
      </trkpt>
      <trkpt lat="45.55128" lon="6.05884">
        <ele>1631.941994532</ele>
        <time>2015-12-11T10:44:42Z</time>
      </trkpt>
      <trkpt lat="45.55128" lon="6.05884">
        <ele>1631.941994532</ele>
        <time>2015-12-11T10:44:56Z</time>
      </trkpt>
      <trkpt lat="45.55127" lon="6.05883">
        <ele>1631.941994532</ele>
        <time>2015-12-11T10:45:12Z</time>
      </trkpt>
      <trkpt lat="45.55127" lon="6.05884">
        <ele>1631.941994532</ele>
        <time>2015-12-11T10:45:26Z</time>
      </trkpt>
      <trkpt lat="45.55127" lon="6.05884">
        <ele>1631.941994532</ele>
        <time>2015-12-11T10:45:32Z</time>
      </trkpt>
      <trkpt lat="45.55127" lon="6.05884">
        <ele>1631.941994532</ele>
        <time>2015-12-11T10:45:42Z</time>
      </trkpt>
      <trkpt lat="45.55127" lon="6.05883">
        <ele>1631.941994532</ele>
        <time>2015-12-11T10:45:46Z</time>
      </trkpt>
      <trkpt lat="45.55127" lon="6.05884">
        <ele>1631.941994532</ele>
        <time>2015-12-11T10:45:56Z</time>
      </trkpt>
      <trkpt lat="45.55127" lon="6.05884">
        <ele>1631.941994532</ele>
        <time>2015-12-11T10:46:02Z</time>
      </trkpt>
      <trkpt lat="45.55127" lon="6.05884">
        <ele>1631.941994532</ele>
        <time>2015-12-11T10:46:12Z</time>
      </trkpt>
      <trkpt lat="45.55127" lon="6.05884">
        <ele>1631.941994532</ele>
        <time>2015-12-11T10:46:17Z</time>
      </trkpt>
      <trkpt lat="45.55127" lon="6.05884">
        <ele>1631.941994532</ele>
        <time>2015-12-11T10:46:26Z</time>
      </trkpt>
      <trkpt lat="45.55127" lon="6.05884">
        <ele>1631.941994532</ele>
        <time>2015-12-11T10:46:31Z</time>
      </trkpt>
      <trkpt lat="45.55128" lon="6.05884">
        <ele>1631.941994532</ele>
        <time>2015-12-11T10:46:41Z</time>
      </trkpt>
      <trkpt lat="45.55128" lon="6.05884">
        <ele>1631.941994532</ele>
        <time>2015-12-11T10:46:46Z</time>
      </trkpt>
      <trkpt lat="45.55128" lon="6.05884">
        <ele>1631.941994532</ele>
        <time>2015-12-11T10:46:56Z</time>
      </trkpt>
      <trkpt lat="45.55128" lon="6.05884">
        <ele>1631.941994532</ele>
        <time>2015-12-11T10:47:02Z</time>
      </trkpt>
      <trkpt lat="45.55128" lon="6.05884">
        <ele>1631.941994532</ele>
        <time>2015-12-11T10:47:12Z</time>
      </trkpt>
      <trkpt lat="45.55128" lon="6.05884">
        <ele>1631.941994532</ele>
        <time>2015-12-11T10:47:17Z</time>
      </trkpt>
      <trkpt lat="45.55128" lon="6.05884">
        <ele>1631.941994532</ele>
        <time>2015-12-11T10:47:32Z</time>
      </trkpt>
      <trkpt lat="45.55128" lon="6.05884">
        <ele>1631.941994532</ele>
        <time>2015-12-11T10:47:37Z</time>
      </trkpt>
      <trkpt lat="45.55128" lon="6.05884">
        <ele>1631.941994532</ele>
        <time>2015-12-11T10:47:47Z</time>
      </trkpt>
      <trkpt lat="45.55128" lon="6.05884">
        <ele>1631.941994532</ele>
        <time>2015-12-11T10:47:51Z</time>
      </trkpt>
      <trkpt lat="45.55128" lon="6.05884">
        <ele>1631.941994532</ele>
        <time>2015-12-11T10:48:02Z</time>
      </trkpt>
      <trkpt lat="45.55128" lon="6.05884">
        <ele>1631.941994532</ele>
        <time>2015-12-11T10:48:07Z</time>
      </trkpt>
      <trkpt lat="45.55128" lon="6.05884">
        <ele>1631.941994532</ele>
        <time>2015-12-11T10:48:17Z</time>
      </trkpt>
      <trkpt lat="45.55128" lon="6.05884">
        <ele>1631.941994532</ele>
        <time>2015-12-11T10:48:22Z</time>
      </trkpt>
      <trkpt lat="45.55128" lon="6.05884">
        <ele>1631.941994532</ele>
        <time>2015-12-11T10:48:32Z</time>
      </trkpt>
      <trkpt lat="45.55128" lon="6.05884">
        <ele>1631.941994532</ele>
        <time>2015-12-11T10:48:37Z</time>
      </trkpt>
      <trkpt lat="45.55128" lon="6.05884">
        <ele>1631.941994532</ele>
        <time>2015-12-11T10:48:47Z</time>
      </trkpt>
      <trkpt lat="45.55128" lon="6.05884">
        <ele>1631.941994532</ele>
        <time>2015-12-11T10:48:52Z</time>
      </trkpt>
      <trkpt lat="45.55128" lon="6.05884">
        <ele>1631.941994532</ele>
        <time>2015-12-11T10:49:01Z</time>
      </trkpt>
      <trkpt lat="45.55128" lon="6.05884">
        <ele>1631.941994532</ele>
        <time>2015-12-11T10:49:06Z</time>
      </trkpt>
      <trkpt lat="45.55129" lon="6.05883">
        <ele>1633.763625661</ele>
        <time>2015-12-11T10:49:21Z</time>
      </trkpt>
      <trkpt lat="45.55129" lon="6.05882">
        <ele>1633.763625661</ele>
        <time>2015-12-11T10:49:26Z</time>
      </trkpt>
      <trkpt lat="45.55129" lon="6.05883">
        <ele>1633.763625661</ele>
        <time>2015-12-11T10:49:37Z</time>
      </trkpt>
      <trkpt lat="45.55129" lon="6.05883">
        <ele>1633.763625661</ele>
        <time>2015-12-11T10:49:51Z</time>
      </trkpt>
      <trkpt lat="45.55129" lon="6.05883">
        <ele>1633.763625661</ele>
        <time>2015-12-11T10:50:17Z</time>
      </trkpt>
      <trkpt lat="45.55129" lon="6.05883">
        <ele>1633.763625661</ele>
        <time>2015-12-11T10:50:18Z</time>
      </trkpt>
      <trkpt lat="45.55129" lon="6.05883">
        <ele>1633.763625661</ele>
        <time>2015-12-11T10:50:20Z</time>
      </trkpt>
      <trkpt lat="45.55129" lon="6.05883">
        <ele>1633.763625661</ele>
        <time>2015-12-11T10:50:21Z</time>
      </trkpt>
      <trkpt lat="45.55129" lon="6.05883">
        <ele>1633.763625661</ele>
        <time>2015-12-11T10:50:49Z</time>
      </trkpt>
      <trkpt lat="45.55129" lon="6.05883">
        <ele>1633.763625661</ele>
        <time>2015-12-11T10:50:51Z</time>
      </trkpt>
      <trkpt lat="45.55128" lon="6.05883">
        <ele>1633.763625661</ele>
        <time>2015-12-11T10:51:17Z</time>
      </trkpt>
      <trkpt lat="45.55128" lon="6.05883">
        <ele>1633.763625661</ele>
        <time>2015-12-11T10:51:21Z</time>
      </trkpt>
      <trkpt lat="45.55127" lon="6.05883">
        <ele>1633.763625661</ele>
        <time>2015-12-11T10:51:32Z</time>
      </trkpt>
      <trkpt lat="45.55127" lon="6.05883">
        <ele>1633.763625661</ele>
        <time>2015-12-11T10:51:37Z</time>
      </trkpt>
      <trkpt lat="45.55127" lon="6.05883">
        <ele>1633.763625661</ele>
        <time>2015-12-11T10:51:47Z</time>
      </trkpt>
      <trkpt lat="45.55127" lon="6.05883">
        <ele>1633.763625661</ele>
        <time>2015-12-11T10:51:52Z</time>
      </trkpt>
      <trkpt lat="45.55127" lon="6.05883">
        <ele>1633.763625661</ele>
        <time>2015-12-11T10:52:02Z</time>
      </trkpt>
      <trkpt lat="45.55128" lon="6.05884">
        <ele>1633.763625661</ele>
        <time>2015-12-11T10:52:06Z</time>
      </trkpt>
      <trkpt lat="45.55128" lon="6.05884">
        <ele>1633.763625661</ele>
        <time>2015-12-11T10:52:11Z</time>
      </trkpt>
      <trkpt lat="45.55128" lon="6.05884">
        <ele>1633.763625661</ele>
        <time>2015-12-11T10:52:17Z</time>
      </trkpt>
      <trkpt lat="45.55128" lon="6.05884">
        <ele>1633.763625661</ele>
        <time>2015-12-11T10:52:21Z</time>
      </trkpt>
      <trkpt lat="45.55128" lon="6.05884">
        <ele>1633.763625661</ele>
        <time>2015-12-11T10:52:37Z</time>
      </trkpt>
      <trkpt lat="45.55128" lon="6.05884">
        <ele>1633.763625661</ele>
        <time>2015-12-11T10:52:42Z</time>
      </trkpt>
      <trkpt lat="45.55128" lon="6.05884">
        <ele>1633.763625661</ele>
        <time>2015-12-11T10:52:52Z</time>
      </trkpt>
      <trkpt lat="45.55128" lon="6.05884">
        <ele>1633.763625661</ele>
        <time>2015-12-11T10:52:57Z</time>
      </trkpt>
      <trkpt lat="45.55128" lon="6.05884">
        <ele>1633.763625661</ele>
        <time>2015-12-11T10:53:07Z</time>
      </trkpt>
      <trkpt lat="45.55128" lon="6.05884">
        <ele>1633.763625661</ele>
        <time>2015-12-11T10:53:11Z</time>
      </trkpt>
      <trkpt lat="45.55129" lon="6.05883">
        <ele>1633.763625661</ele>
        <time>2015-12-11T10:53:21Z</time>
      </trkpt>
      <trkpt lat="45.5513" lon="6.05884">
        <ele>1633.763625661</ele>
        <time>2015-12-11T10:53:26Z</time>
      </trkpt>
      <trkpt lat="45.55128" lon="6.05884">
        <ele>1634.547981055</ele>
        <time>2015-12-11T10:53:36Z</time>
      </trkpt>
      <trkpt lat="45.55128" lon="6.05884">
        <ele>1634.547981055</ele>
        <time>2015-12-11T10:53:42Z</time>
      </trkpt>
      <trkpt lat="45.55128" lon="6.05884">
        <ele>1634.547981055</ele>
        <time>2015-12-11T10:53:52Z</time>
      </trkpt>
      <trkpt lat="45.55128" lon="6.05884">
        <ele>1634.547981055</ele>
        <time>2015-12-11T10:53:57Z</time>
      </trkpt>
      <trkpt lat="45.55128" lon="6.05884">
        <ele>1634.547981055</ele>
        <time>2015-12-11T10:54:06Z</time>
      </trkpt>
      <trkpt lat="45.55128" lon="6.05884">
        <ele>1634.547981055</ele>
        <time>2015-12-11T10:54:12Z</time>
      </trkpt>
      <trkpt lat="45.55128" lon="6.05884">
        <ele>1634.547981055</ele>
        <time>2015-12-11T10:54:26Z</time>
      </trkpt>
      <trkpt lat="45.55128" lon="6.05884">
        <ele>1634.547981055</ele>
        <time>2015-12-11T10:54:31Z</time>
      </trkpt>
      <trkpt lat="45.55128" lon="6.05884">
        <ele>1634.547981055</ele>
        <time>2015-12-11T10:54:42Z</time>
      </trkpt>
      <trkpt lat="45.55128" lon="6.05884">
        <ele>1634.547981055</ele>
        <time>2015-12-11T10:54:47Z</time>
      </trkpt>
      <trkpt lat="45.55128" lon="6.05884">
        <ele>1634.547981055</ele>
        <time>2015-12-11T10:54:57Z</time>
      </trkpt>
      <trkpt lat="45.55128" lon="6.05884">
        <ele>1634.547981055</ele>
        <time>2015-12-11T10:55:01Z</time>
      </trkpt>
      <trkpt lat="45.55128" lon="6.05884">
        <ele>1634.547981055</ele>
        <time>2015-12-11T10:55:12Z</time>
      </trkpt>
      <trkpt lat="45.55128" lon="6.05884">
        <ele>1634.547981055</ele>
        <time>2015-12-11T10:55:17Z</time>
      </trkpt>
      <trkpt lat="45.55128" lon="6.05884">
        <ele>1634.547981055</ele>
        <time>2015-12-11T10:55:26Z</time>
      </trkpt>
      <trkpt lat="45.55128" lon="6.05884">
        <ele>1634.547981055</ele>
        <time>2015-12-11T10:55:31Z</time>
      </trkpt>
      <trkpt lat="45.55127" lon="6.05884">
        <ele>1634.547981055</ele>
        <time>2015-12-11T10:55:42Z</time>
      </trkpt>
      <trkpt lat="45.55127" lon="6.05885">
        <ele>1634.547981055</ele>
        <time>2015-12-11T10:55:46Z</time>
      </trkpt>
      <trkpt lat="45.55127" lon="6.05885">
        <ele>1634.547981055</ele>
        <time>2015-12-11T10:55:57Z</time>
      </trkpt>
      <trkpt lat="45.55128" lon="6.05887">
        <ele>1634.547981055</ele>
        <time>2015-12-11T10:56:01Z</time>
      </trkpt>
      <trkpt lat="45.55129" lon="6.05887">
        <ele>1634.547981055</ele>
        <time>2015-12-11T10:56:12Z</time>
      </trkpt>
      <trkpt lat="45.55132" lon="6.05891">
        <ele>1634.547981055</ele>
        <time>2015-12-11T10:56:17Z</time>
      </trkpt>
      <trkpt lat="45.55143" lon="6.05897">
        <ele>1634.816213924</ele>
        <time>2015-12-11T10:56:31Z</time>
      </trkpt>
      <trkpt lat="45.55144" lon="6.05899">
        <ele>1634.816213924</ele>
        <time>2015-12-11T10:56:36Z</time>
      </trkpt>
      <trkpt lat="45.5515" lon="6.05911">
        <ele>1634.620124767</ele>
        <time>2015-12-11T10:56:46Z</time>
      </trkpt>
      <trkpt lat="45.55157" lon="6.05918">
        <ele>1634.620124767</ele>
        <time>2015-12-11T10:56:52Z</time>
      </trkpt>
      <trkpt lat="45.55164" lon="6.0592">
        <ele>1633.864689478</ele>
        <time>2015-12-11T10:56:57Z</time>
      </trkpt>
      <trkpt lat="45.55164" lon="6.05919">
        <ele>1633.864689478</ele>
        <time>2015-12-11T10:57:01Z</time>
      </trkpt>
      <trkpt lat="45.55167" lon="6.05922">
        <ele>1633.864689478</ele>
        <time>2015-12-11T10:57:12Z</time>
      </trkpt>
      <trkpt lat="45.55169" lon="6.05924">
        <ele>1633.864689478</ele>
        <time>2015-12-11T10:57:16Z</time>
      </trkpt>
      <trkpt lat="45.55173" lon="6.05928">
        <ele>1631.886747212</ele>
        <time>2015-12-11T10:57:21Z</time>
      </trkpt>
      <trkpt lat="45.55182" lon="6.05937">
        <ele>1629.516119232</ele>
        <time>2015-12-11T10:57:32Z</time>
      </trkpt>
      <trkpt lat="45.55187" lon="6.05937">
        <ele>1629.516119232</ele>
        <time>2015-12-11T10:57:37Z</time>
      </trkpt>
      <trkpt lat="45.55192" lon="6.05941">
        <ele>1627.234239245</ele>
        <time>2015-12-11T10:57:47Z</time>
      </trkpt>
      <trkpt lat="45.55196" lon="6.05945">
        <ele>1627.234239245</ele>
        <time>2015-12-11T10:57:51Z</time>
      </trkpt>
      <trkpt lat="45.55205" lon="6.05949">
        <ele>1624.621915432</ele>
        <time>2015-12-11T10:58:01Z</time>
      </trkpt>
      <trkpt lat="45.55209" lon="6.05952">
        <ele>1624.621915432</ele>
        <time>2015-12-11T10:58:07Z</time>
      </trkpt>
      <trkpt lat="45.55221" lon="6.05954">
        <ele>1622.444188861</ele>
        <time>2015-12-11T10:58:17Z</time>
      </trkpt>
      <trkpt lat="45.55222" lon="6.05953">
        <ele>1622.444188861</ele>
        <time>2015-12-11T10:58:22Z</time>
      </trkpt>
      <trkpt lat="45.55232" lon="6.05957">
        <ele>1619.390716973</ele>
        <time>2015-12-11T10:58:31Z</time>
      </trkpt>
      <trkpt lat="45.55237" lon="6.05956">
        <ele>1619.390716973</ele>
        <time>2015-12-11T10:58:37Z</time>
      </trkpt>
      <trkpt lat="45.55238" lon="6.05957">
        <ele>1619.390716973</ele>
        <time>2015-12-11T10:58:46Z</time>
      </trkpt>
      <trkpt lat="45.55238" lon="6.05957">
        <ele>1619.390716973</ele>
        <time>2015-12-11T10:58:51Z</time>
      </trkpt>
      <trkpt lat="45.55239" lon="6.05956">
        <ele>1619.390716973</ele>
        <time>2015-12-11T10:58:56Z</time>
      </trkpt>
      <trkpt lat="45.55239" lon="6.05957">
        <ele>1619.390716973</ele>
        <time>2015-12-11T10:59:01Z</time>
      </trkpt>
      <trkpt lat="45.55239" lon="6.05957">
        <ele>1619.390716973</ele>
        <time>2015-12-11T10:59:06Z</time>
      </trkpt>
      <trkpt lat="45.55242" lon="6.05956">
        <ele>1616.266989731</ele>
        <time>2015-12-11T10:59:12Z</time>
      </trkpt>
      <trkpt lat="45.55246" lon="6.05961">
        <ele>1616.266989731</ele>
        <time>2015-12-11T10:59:22Z</time>
      </trkpt>
      <trkpt lat="45.55248" lon="6.05962">
        <ele>1616.266989731</ele>
        <time>2015-12-11T10:59:26Z</time>
      </trkpt>
      <trkpt lat="45.55247" lon="6.05977">
        <ele>1612.233834547</ele>
        <time>2015-12-11T10:59:42Z</time>
      </trkpt>
      <trkpt lat="45.55244" lon="6.05979">
        <ele>1612.233834547</ele>
        <time>2015-12-11T10:59:46Z</time>
      </trkpt>
      <trkpt lat="45.55247" lon="6.05979">
        <ele>1612.233834547</ele>
        <time>2015-12-11T10:59:57Z</time>
      </trkpt>
      <trkpt lat="45.55248" lon="6.0598">
        <ele>1612.233834547</ele>
        <time>2015-12-11T11:00:01Z</time>
      </trkpt>
      <trkpt lat="45.55248" lon="6.0598">
        <ele>1607.524558811</ele>
        <time>2015-12-11T11:00:11Z</time>
      </trkpt>
      <trkpt lat="45.55252" lon="6.05982">
        <ele>1607.524558811</ele>
        <time>2015-12-11T11:00:17Z</time>
      </trkpt>
      <trkpt lat="45.55264" lon="6.0599">
        <ele>1602.068480859</ele>
        <time>2015-12-11T11:00:27Z</time>
      </trkpt>
      <trkpt lat="45.55268" lon="6.05991">
        <ele>1602.068480859</ele>
        <time>2015-12-11T11:00:32Z</time>
      </trkpt>
      <trkpt lat="45.55272" lon="6.05999">
        <ele>1596.522206435</ele>
        <time>2015-12-11T11:00:46Z</time>
      </trkpt>
      <trkpt lat="45.55273" lon="6.05999">
        <ele>1596.522206435</ele>
        <time>2015-12-11T11:00:51Z</time>
      </trkpt>
      <trkpt lat="45.55283" lon="6.06002">
        <ele>1590.484994703</ele>
        <time>2015-12-11T11:01:01Z</time>
      </trkpt>
      <trkpt lat="45.55285" lon="6.06002">
        <ele>1590.484994703</ele>
        <time>2015-12-11T11:01:06Z</time>
      </trkpt>
      <trkpt lat="45.55292" lon="6.06008">
        <ele>1585.027414405</ele>
        <time>2015-12-11T11:01:17Z</time>
      </trkpt>
      <trkpt lat="45.55296" lon="6.06009">
        <ele>1585.027414405</ele>
        <time>2015-12-11T11:01:21Z</time>
      </trkpt>
      <trkpt lat="45.5531" lon="6.06023">
        <ele>1579.842120147</ele>
        <time>2015-12-11T11:01:32Z</time>
      </trkpt>
      <trkpt lat="45.55309" lon="6.06026">
        <ele>1579.842120147</ele>
        <time>2015-12-11T11:01:37Z</time>
      </trkpt>
      <trkpt lat="45.55315" lon="6.06037">
        <ele>1573.778245041</ele>
        <time>2015-12-11T11:01:47Z</time>
      </trkpt>
      <trkpt lat="45.55322" lon="6.06045">
        <ele>1568.509354253</ele>
        <time>2015-12-11T11:01:51Z</time>
      </trkpt>
      <trkpt lat="45.55328" lon="6.06049">
        <ele>1568.509354253</ele>
        <time>2015-12-11T11:02:01Z</time>
      </trkpt>
      <trkpt lat="45.55328" lon="6.06049">
        <ele>1568.509354253</ele>
        <time>2015-12-11T11:02:07Z</time>
      </trkpt>
      <trkpt lat="45.55336" lon="6.06051">
        <ele>1563.997920721</ele>
        <time>2015-12-11T11:02:17Z</time>
      </trkpt>
      <trkpt lat="45.55341" lon="6.06053">
        <ele>1563.997920721</ele>
        <time>2015-12-11T11:02:22Z</time>
      </trkpt>
      <trkpt lat="45.55354" lon="6.06067">
        <ele>1559.62989576</ele>
        <time>2015-12-11T11:02:32Z</time>
      </trkpt>
      <trkpt lat="45.5536" lon="6.06071">
        <ele>1559.62989576</ele>
        <time>2015-12-11T11:02:37Z</time>
      </trkpt>
      <trkpt lat="45.55368" lon="6.06073">
        <ele>1555.411668468</ele>
        <time>2015-12-11T11:02:47Z</time>
      </trkpt>
      <trkpt lat="45.55374" lon="6.06076">
        <ele>1555.411668468</ele>
        <time>2015-12-11T11:02:52Z</time>
      </trkpt>
      <trkpt lat="45.55379" lon="6.06076">
        <ele>1551.203917041</ele>
        <time>2015-12-11T11:03:01Z</time>
      </trkpt>
      <trkpt lat="45.5538" lon="6.06076">
        <ele>1551.203917041</ele>
        <time>2015-12-11T11:03:06Z</time>
      </trkpt>
      <trkpt lat="45.55395" lon="6.06073">
        <ele>1547.597377183</ele>
        <time>2015-12-11T11:03:17Z</time>
      </trkpt>
      <trkpt lat="45.55398" lon="6.0608">
        <ele>1547.597377183</ele>
        <time>2015-12-11T11:03:22Z</time>
      </trkpt>
      <trkpt lat="45.55407" lon="6.06095">
        <ele>1542.687117075</ele>
        <time>2015-12-11T11:03:37Z</time>
      </trkpt>
      <trkpt lat="45.5541" lon="6.06102">
        <ele>1542.687117075</ele>
        <time>2015-12-11T11:03:41Z</time>
      </trkpt>
      <trkpt lat="45.55421" lon="6.06113">
        <ele>1537.881555878</ele>
        <time>2015-12-11T11:03:52Z</time>
      </trkpt>
      <trkpt lat="45.55422" lon="6.06119">
        <ele>1537.881555878</ele>
        <time>2015-12-11T11:03:57Z</time>
      </trkpt>
      <trkpt lat="45.55427" lon="6.06133">
        <ele>1533.764124504</ele>
        <time>2015-12-11T11:04:07Z</time>
      </trkpt>
      <trkpt lat="45.55428" lon="6.06139">
        <ele>1533.764124504</ele>
        <time>2015-12-11T11:04:12Z</time>
      </trkpt>
      <trkpt lat="45.55437" lon="6.06143">
        <ele>1529.575798039</ele>
        <time>2015-12-11T11:04:22Z</time>
      </trkpt>
      <trkpt lat="45.55442" lon="6.06146">
        <ele>1529.575798039</ele>
        <time>2015-12-11T11:04:27Z</time>
      </trkpt>
      <trkpt lat="45.55447" lon="6.06154">
        <ele>1525.045186042</ele>
        <time>2015-12-11T11:04:37Z</time>
      </trkpt>
      <trkpt lat="45.55448" lon="6.06155">
        <ele>1525.045186042</ele>
        <time>2015-12-11T11:04:41Z</time>
      </trkpt>
      <trkpt lat="45.5546" lon="6.06165">
        <ele>1520.497596719</ele>
        <time>2015-12-11T11:04:52Z</time>
      </trkpt>
      <trkpt lat="45.55467" lon="6.06173">
        <ele>1520.497596719</ele>
        <time>2015-12-11T11:04:56Z</time>
      </trkpt>
      <trkpt lat="45.55472" lon="6.06184">
        <ele>1515.657415408</ele>
        <time>2015-12-11T11:05:07Z</time>
      </trkpt>
      <trkpt lat="45.55474" lon="6.06191">
        <ele>1515.657415408</ele>
        <time>2015-12-11T11:05:11Z</time>
      </trkpt>
      <trkpt lat="45.55481" lon="6.06198">
        <ele>1511.998815114</ele>
        <time>2015-12-11T11:05:22Z</time>
      </trkpt>
      <trkpt lat="45.55485" lon="6.06196">
        <ele>1511.998815114</ele>
        <time>2015-12-11T11:05:27Z</time>
      </trkpt>
      <trkpt lat="45.55495" lon="6.06201">
        <ele>1508.722098241</ele>
        <time>2015-12-11T11:05:37Z</time>
      </trkpt>
      <trkpt lat="45.55498" lon="6.06204">
        <ele>1508.722098241</ele>
        <time>2015-12-11T11:05:42Z</time>
      </trkpt>
      <trkpt lat="45.55501" lon="6.06209">
        <ele>1508.722098241</ele>
        <time>2015-12-11T11:05:47Z</time>
      </trkpt>
      <trkpt lat="45.55512" lon="6.06224">
        <ele>1504.940552563</ele>
        <time>2015-12-11T11:05:57Z</time>
      </trkpt>
      <trkpt lat="45.55515" lon="6.06227">
        <ele>1504.940552563</ele>
        <time>2015-12-11T11:06:02Z</time>
      </trkpt>
      <trkpt lat="45.55524" lon="6.06238">
        <ele>1501.851020873</ele>
        <time>2015-12-11T11:06:12Z</time>
      </trkpt>
      <trkpt lat="45.55529" lon="6.06245">
        <ele>1501.851020873</ele>
        <time>2015-12-11T11:06:16Z</time>
      </trkpt>
      <trkpt lat="45.55537" lon="6.0626">
        <ele>1499.262955628</ele>
        <time>2015-12-11T11:06:27Z</time>
      </trkpt>
      <trkpt lat="45.55542" lon="6.06264">
        <ele>1499.262955628</ele>
        <time>2015-12-11T11:06:31Z</time>
      </trkpt>
      <trkpt lat="45.55555" lon="6.06268">
        <ele>1496.997898385</ele>
        <time>2015-12-11T11:06:42Z</time>
      </trkpt>
      <trkpt lat="45.5556" lon="6.0627">
        <ele>1496.997898385</ele>
        <time>2015-12-11T11:06:47Z</time>
      </trkpt>
      <trkpt lat="45.55574" lon="6.06276">
        <ele>1494.600898893</ele>
        <time>2015-12-11T11:06:57Z</time>
      </trkpt>
      <trkpt lat="45.55579" lon="6.06276">
        <ele>1494.600898893</ele>
        <time>2015-12-11T11:07:01Z</time>
      </trkpt>
      <trkpt lat="45.55592" lon="6.06279">
        <ele>1492.515022689</ele>
        <time>2015-12-11T11:07:12Z</time>
      </trkpt>
      <trkpt lat="45.55595" lon="6.06281">
        <ele>1492.515022689</ele>
        <time>2015-12-11T11:07:16Z</time>
      </trkpt>
      <trkpt lat="45.55606" lon="6.06293">
        <ele>1490.717171949</ele>
        <time>2015-12-11T11:07:27Z</time>
      </trkpt>
      <trkpt lat="45.55611" lon="6.06291">
        <ele>1490.717171949</ele>
        <time>2015-12-11T11:07:31Z</time>
      </trkpt>
      <trkpt lat="45.55614" lon="6.063">
        <ele>1489.040648924</ele>
        <time>2015-12-11T11:07:42Z</time>
      </trkpt>
      <trkpt lat="45.55618" lon="6.06304">
        <ele>1489.040648924</ele>
        <time>2015-12-11T11:07:46Z</time>
      </trkpt>
      <trkpt lat="45.55631" lon="6.06322">
        <ele>1487.042092708</ele>
        <time>2015-12-11T11:08:02Z</time>
      </trkpt>
      <trkpt lat="45.55632" lon="6.06324">
        <ele>1487.042092708</ele>
        <time>2015-12-11T11:08:06Z</time>
      </trkpt>
      <trkpt lat="45.55638" lon="6.06341">
        <ele>1484.45540998</ele>
        <time>2015-12-11T11:08:17Z</time>
      </trkpt>
      <trkpt lat="45.55644" lon="6.06348">
        <ele>1484.45540998</ele>
        <time>2015-12-11T11:08:22Z</time>
      </trkpt>
      <trkpt lat="45.55649" lon="6.06357">
        <ele>1481.900083208</ele>
        <time>2015-12-11T11:08:31Z</time>
      </trkpt>
      <trkpt lat="45.55656" lon="6.06361">
        <ele>1481.900083208</ele>
        <time>2015-12-11T11:08:37Z</time>
      </trkpt>
      <trkpt lat="45.55665" lon="6.0637">
        <ele>1479.229180888</ele>
        <time>2015-12-11T11:08:47Z</time>
      </trkpt>
      <trkpt lat="45.5567" lon="6.06366">
        <ele>1479.229180888</ele>
        <time>2015-12-11T11:08:52Z</time>
      </trkpt>
      <trkpt lat="45.55675" lon="6.06381">
        <ele>1476.306647431</ele>
        <time>2015-12-11T11:09:02Z</time>
      </trkpt>
      <trkpt lat="45.5568" lon="6.06392">
        <ele>1476.306647431</ele>
        <time>2015-12-11T11:09:06Z</time>
      </trkpt>
      <trkpt lat="45.55687" lon="6.06411">
        <ele>1473.727461653</ele>
        <time>2015-12-11T11:09:17Z</time>
      </trkpt>
      <trkpt lat="45.55689" lon="6.06416">
        <ele>1473.727461653</ele>
        <time>2015-12-11T11:09:22Z</time>
      </trkpt>
      <trkpt lat="45.55694" lon="6.06426">
        <ele>1472.329953706</ele>
        <time>2015-12-11T11:09:32Z</time>
      </trkpt>
      <trkpt lat="45.55697" lon="6.06433">
        <ele>1472.329953706</ele>
        <time>2015-12-11T11:09:37Z</time>
      </trkpt>
      <trkpt lat="45.55702" lon="6.06444">
        <ele>1471.302153885</ele>
        <time>2015-12-11T11:09:47Z</time>
      </trkpt>
      <trkpt lat="45.55705" lon="6.06449">
        <ele>1471.302153885</ele>
        <time>2015-12-11T11:09:52Z</time>
      </trkpt>
      <trkpt lat="45.55709" lon="6.06462">
        <ele>1471.043438289</ele>
        <time>2015-12-11T11:10:02Z</time>
      </trkpt>
      <trkpt lat="45.5571" lon="6.06471">
        <ele>1471.043438289</ele>
        <time>2015-12-11T11:10:07Z</time>
      </trkpt>
      <trkpt lat="45.55711" lon="6.06472">
        <ele>1471.043438289</ele>
        <time>2015-12-11T11:10:11Z</time>
      </trkpt>
      <trkpt lat="45.55721" lon="6.06484">
        <ele>1470.912785189</ele>
        <time>2015-12-11T11:10:22Z</time>
      </trkpt>
      <trkpt lat="45.55722" lon="6.06488">
        <ele>1470.912785189</ele>
        <time>2015-12-11T11:10:27Z</time>
      </trkpt>
      <trkpt lat="45.55732" lon="6.06502">
        <ele>1470.892254554</ele>
        <time>2015-12-11T11:10:37Z</time>
      </trkpt>
      <trkpt lat="45.55735" lon="6.06507">
        <ele>1470.892254554</ele>
        <time>2015-12-11T11:10:41Z</time>
      </trkpt>
      <trkpt lat="45.55745" lon="6.06515">
        <ele>1470.820743007</ele>
        <time>2015-12-11T11:10:51Z</time>
      </trkpt>
      <trkpt lat="45.55749" lon="6.0652">
        <ele>1470.820743007</ele>
        <time>2015-12-11T11:10:57Z</time>
      </trkpt>
      <trkpt lat="45.55756" lon="6.06529">
        <ele>1470.981428434</ele>
        <time>2015-12-11T11:11:07Z</time>
      </trkpt>
      <trkpt lat="45.5576" lon="6.06537">
        <ele>1470.981428434</ele>
        <time>2015-12-11T11:11:11Z</time>
      </trkpt>
      <trkpt lat="45.55774" lon="6.06544">
        <ele>1470.771367409</ele>
        <time>2015-12-11T11:11:21Z</time>
      </trkpt>
      <trkpt lat="45.55776" lon="6.06551">
        <ele>1470.771367409</ele>
        <time>2015-12-11T11:11:27Z</time>
      </trkpt>
      <trkpt lat="45.55785" lon="6.06561">
        <ele>1470.353529839</ele>
        <time>2015-12-11T11:11:37Z</time>
      </trkpt>
      <trkpt lat="45.55788" lon="6.06571">
        <ele>1470.353529839</ele>
        <time>2015-12-11T11:11:42Z</time>
      </trkpt>
      <trkpt lat="45.55797" lon="6.06577">
        <ele>1469.591323159</ele>
        <time>2015-12-11T11:11:51Z</time>
      </trkpt>
      <trkpt lat="45.55799" lon="6.06576">
        <ele>1469.591323159</ele>
        <time>2015-12-11T11:11:56Z</time>
      </trkpt>
      <trkpt lat="45.55812" lon="6.06577">
        <ele>1469.368002499</ele>
        <time>2015-12-11T11:12:07Z</time>
      </trkpt>
      <trkpt lat="45.55815" lon="6.0658">
        <ele>1469.368002499</ele>
        <time>2015-12-11T11:12:12Z</time>
      </trkpt>
      <trkpt lat="45.55823" lon="6.06583">
        <ele>1469.203515022</ele>
        <time>2015-12-11T11:12:16Z</time>
      </trkpt>
      <trkpt lat="45.55831" lon="6.06593">
        <ele>1469.085345265</ele>
        <time>2015-12-11T11:12:26Z</time>
      </trkpt>
      <trkpt lat="45.55836" lon="6.06594">
        <ele>1469.085345265</ele>
        <time>2015-12-11T11:12:31Z</time>
      </trkpt>
      <trkpt lat="45.55843" lon="6.06595">
        <ele>1469.578333493</ele>
        <time>2015-12-11T11:12:42Z</time>
      </trkpt>
      <trkpt lat="45.55846" lon="6.06595">
        <ele>1469.578333493</ele>
        <time>2015-12-11T11:12:47Z</time>
      </trkpt>
      <trkpt lat="45.55849" lon="6.06596">
        <ele>1469.578333493</ele>
        <time>2015-12-11T11:12:56Z</time>
      </trkpt>
      <trkpt lat="45.55854" lon="6.06597">
        <ele>1470.339584942</ele>
        <time>2015-12-11T11:13:02Z</time>
      </trkpt>
      <trkpt lat="45.55858" lon="6.06596">
        <ele>1470.339584942</ele>
        <time>2015-12-11T11:13:12Z</time>
      </trkpt>
      <trkpt lat="45.55859" lon="6.06597">
        <ele>1470.339584942</ele>
        <time>2015-12-11T11:13:16Z</time>
      </trkpt>
      <trkpt lat="45.55865" lon="6.06599">
        <ele>1472.059577931</ele>
        <time>2015-12-11T11:13:27Z</time>
      </trkpt>
      <trkpt lat="45.5587" lon="6.06599">
        <ele>1472.059577931</ele>
        <time>2015-12-11T11:13:32Z</time>
      </trkpt>
      <trkpt lat="45.55881" lon="6.06595">
        <ele>1474.510892509</ele>
        <time>2015-12-11T11:13:47Z</time>
      </trkpt>
      <trkpt lat="45.55883" lon="6.06599">
        <ele>1474.510892509</ele>
        <time>2015-12-11T11:13:52Z</time>
      </trkpt>
      <trkpt lat="45.55889" lon="6.066">
        <ele>1474.510892509</ele>
        <time>2015-12-11T11:14:01Z</time>
      </trkpt>
      <trkpt lat="45.55892" lon="6.06602">
        <ele>1477.04863425</ele>
        <time>2015-12-11T11:14:06Z</time>
      </trkpt>
      <trkpt lat="45.55899" lon="6.06605">
        <ele>1477.04863425</ele>
        <time>2015-12-11T11:14:17Z</time>
      </trkpt>
      <trkpt lat="45.55902" lon="6.06605">
        <ele>1479.9399374</ele>
        <time>2015-12-11T11:14:21Z</time>
      </trkpt>
      <trkpt lat="45.55904" lon="6.06605">
        <ele>1479.9399374</ele>
        <time>2015-12-11T11:14:32Z</time>
      </trkpt>
      <trkpt lat="45.55906" lon="6.06607">
        <ele>1479.9399374</ele>
        <time>2015-12-11T11:14:36Z</time>
      </trkpt>
      <trkpt lat="45.55911" lon="6.06611">
        <ele>1483.287467853</ele>
        <time>2015-12-11T11:14:46Z</time>
      </trkpt>
      <trkpt lat="45.55914" lon="6.06614">
        <ele>1483.287467853</ele>
        <time>2015-12-11T11:14:51Z</time>
      </trkpt>
      <trkpt lat="45.55917" lon="6.06615">
        <ele>1483.287467853</ele>
        <time>2015-12-11T11:15:02Z</time>
      </trkpt>
      <trkpt lat="45.55918" lon="6.06615">
        <ele>1483.287467853</ele>
        <time>2015-12-11T11:15:07Z</time>
      </trkpt>
      <trkpt lat="45.55928" lon="6.06621">
        <ele>1487.617690509</ele>
        <time>2015-12-11T11:15:21Z</time>
      </trkpt>
      <trkpt lat="45.55935" lon="6.06628">
        <ele>1487.617690509</ele>
        <time>2015-12-11T11:15:27Z</time>
      </trkpt>
      <trkpt lat="45.5594" lon="6.06631">
        <ele>1491.830732771</ele>
        <time>2015-12-11T11:15:37Z</time>
      </trkpt>
      <trkpt lat="45.55943" lon="6.06635">
        <ele>1491.830732771</ele>
        <time>2015-12-11T11:15:42Z</time>
      </trkpt>
      <trkpt lat="45.5595" lon="6.0664">
        <ele>1495.628746604</ele>
        <time>2015-12-11T11:15:51Z</time>
      </trkpt>
      <trkpt lat="45.5595" lon="6.0664">
        <ele>1495.628746604</ele>
        <time>2015-12-11T11:15:57Z</time>
      </trkpt>
      <trkpt lat="45.55958" lon="6.06646">
        <ele>1499.169631781</ele>
        <time>2015-12-11T11:16:06Z</time>
      </trkpt>
      <trkpt lat="45.55962" lon="6.06653">
        <ele>1499.169631781</ele>
        <time>2015-12-11T11:16:12Z</time>
      </trkpt>
      <trkpt lat="45.55964" lon="6.06658">
        <ele>1502.456691911</ele>
        <time>2015-12-11T11:16:21Z</time>
      </trkpt>
      <trkpt lat="45.55968" lon="6.06663">
        <ele>1502.456691911</ele>
        <time>2015-12-11T11:16:26Z</time>
      </trkpt>
      <trkpt lat="45.55972" lon="6.06677">
        <ele>1505.061776042</ele>
        <time>2015-12-11T11:16:36Z</time>
      </trkpt>
      <trkpt lat="45.55976" lon="6.06688">
        <ele>1505.061776042</ele>
        <time>2015-12-11T11:16:42Z</time>
      </trkpt>
      <trkpt lat="45.55986" lon="6.06701">
        <ele>1507.599297333</ele>
        <time>2015-12-11T11:16:52Z</time>
      </trkpt>
      <trkpt lat="45.55987" lon="6.06704">
        <ele>1507.599297333</ele>
        <time>2015-12-11T11:16:57Z</time>
      </trkpt>
      <trkpt lat="45.56005" lon="6.06711">
        <ele>1511.215598691</ele>
        <time>2015-12-11T11:17:12Z</time>
      </trkpt>
      <trkpt lat="45.56007" lon="6.06719">
        <ele>1511.215598691</ele>
        <time>2015-12-11T11:17:17Z</time>
      </trkpt>
      <trkpt lat="45.56017" lon="6.06726">
        <ele>1515.096778847</ele>
        <time>2015-12-11T11:17:26Z</time>
      </trkpt>
      <trkpt lat="45.56026" lon="6.06733">
        <ele>1518.776647751</ele>
        <time>2015-12-11T11:17:32Z</time>
      </trkpt>
      <trkpt lat="45.5603" lon="6.06737">
        <ele>1518.776647751</ele>
        <time>2015-12-11T11:17:42Z</time>
      </trkpt>
      <trkpt lat="45.56036" lon="6.06745">
        <ele>1521.968386506</ele>
        <time>2015-12-11T11:17:47Z</time>
      </trkpt>
      <trkpt lat="45.56046" lon="6.06749">
        <ele>1525.416847983</ele>
        <time>2015-12-11T11:17:56Z</time>
      </trkpt>
      <trkpt lat="45.56047" lon="6.06757">
        <ele>1525.416847983</ele>
        <time>2015-12-11T11:18:02Z</time>
      </trkpt>
      <trkpt lat="45.56055" lon="6.06773">
        <ele>1527.362013689</ele>
        <time>2015-12-11T11:18:12Z</time>
      </trkpt>
      <trkpt lat="45.56058" lon="6.06774">
        <ele>1527.362013689</ele>
        <time>2015-12-11T11:18:17Z</time>
      </trkpt>
      <trkpt lat="45.56068" lon="6.06783">
        <ele>1528.771823674</ele>
        <time>2015-12-11T11:18:26Z</time>
      </trkpt>
      <trkpt lat="45.56074" lon="6.06789">
        <ele>1528.771823674</ele>
        <time>2015-12-11T11:18:32Z</time>
      </trkpt>
      <trkpt lat="45.56082" lon="6.06804">
        <ele>1529.248054172</ele>
        <time>2015-12-11T11:18:41Z</time>
      </trkpt>
      <trkpt lat="45.56086" lon="6.06806">
        <ele>1529.248054172</ele>
        <time>2015-12-11T11:18:46Z</time>
      </trkpt>
      <trkpt lat="45.56094" lon="6.06819">
        <ele>1529.289442337</ele>
        <time>2015-12-11T11:18:57Z</time>
      </trkpt>
      <trkpt lat="45.56102" lon="6.06823">
        <ele>1529.289442337</ele>
        <time>2015-12-11T11:19:02Z</time>
      </trkpt>
      <trkpt lat="45.56109" lon="6.06829">
        <ele>1529.647929745</ele>
        <time>2015-12-11T11:19:12Z</time>
      </trkpt>
      <trkpt lat="45.5611" lon="6.06835">
        <ele>1529.647929745</ele>
        <time>2015-12-11T11:19:17Z</time>
      </trkpt>
      <trkpt lat="45.5612" lon="6.06838">
        <ele>1529.002147276</ele>
        <time>2015-12-11T11:19:27Z</time>
      </trkpt>
      <trkpt lat="45.56123" lon="6.06838">
        <ele>1529.002147276</ele>
        <time>2015-12-11T11:19:31Z</time>
      </trkpt>
      <trkpt lat="45.56131" lon="6.0684">
        <ele>1529.301401051</ele>
        <time>2015-12-11T11:19:42Z</time>
      </trkpt>
      <trkpt lat="45.56135" lon="6.06841">
        <ele>1529.301401051</ele>
        <time>2015-12-11T11:19:47Z</time>
      </trkpt>
      <trkpt lat="45.56144" lon="6.06847">
        <ele>1530.043691819</ele>
        <time>2015-12-11T11:20:02Z</time>
      </trkpt>
      <trkpt lat="45.56145" lon="6.06846">
        <ele>1530.043691819</ele>
        <time>2015-12-11T11:20:07Z</time>
      </trkpt>
      <trkpt lat="45.56151" lon="6.06854">
        <ele>1530.762949237</ele>
        <time>2015-12-11T11:20:17Z</time>
      </trkpt>
      <trkpt lat="45.56152" lon="6.06856">
        <ele>1530.762949237</ele>
        <time>2015-12-11T11:20:22Z</time>
      </trkpt>
      <trkpt lat="45.56157" lon="6.06864">
        <ele>1530.762949237</ele>
        <time>2015-12-11T11:20:31Z</time>
      </trkpt>
      <trkpt lat="45.5616" lon="6.06867">
        <ele>1532.46879166</ele>
        <time>2015-12-11T11:20:37Z</time>
      </trkpt>
      <trkpt lat="45.56167" lon="6.06867">
        <ele>1532.46879166</ele>
        <time>2015-12-11T11:20:47Z</time>
      </trkpt>
      <trkpt lat="45.56169" lon="6.06873">
        <ele>1532.491380994</ele>
        <time>2015-12-11T11:20:51Z</time>
      </trkpt>
      <trkpt lat="45.56178" lon="6.06882">
        <ele>1532.685299708</ele>
        <time>2015-12-11T11:21:02Z</time>
      </trkpt>
      <trkpt lat="45.56182" lon="6.06883">
        <ele>1532.685299708</ele>
        <time>2015-12-11T11:21:06Z</time>
      </trkpt>
      <trkpt lat="45.56191" lon="6.06886">
        <ele>1532.751077153</ele>
        <time>2015-12-11T11:21:17Z</time>
      </trkpt>
      <trkpt lat="45.56193" lon="6.06887">
        <ele>1532.751077153</ele>
        <time>2015-12-11T11:21:21Z</time>
      </trkpt>
      <trkpt lat="45.562" lon="6.06889">
        <ele>1533.132358309</ele>
        <time>2015-12-11T11:21:31Z</time>
      </trkpt>
      <trkpt lat="45.56205" lon="6.06891">
        <ele>1533.132358309</ele>
        <time>2015-12-11T11:21:37Z</time>
      </trkpt>
      <trkpt lat="45.56214" lon="6.06902">
        <ele>1532.654270308</ele>
        <time>2015-12-11T11:21:47Z</time>
      </trkpt>
      <trkpt lat="45.56218" lon="6.06903">
        <ele>1532.654270308</ele>
        <time>2015-12-11T11:21:52Z</time>
      </trkpt>
      <trkpt lat="45.56225" lon="6.06903">
        <ele>1531.960149258</ele>
        <time>2015-12-11T11:22:02Z</time>
      </trkpt>
      <trkpt lat="45.56231" lon="6.06905">
        <ele>1531.960149258</ele>
        <time>2015-12-11T11:22:07Z</time>
      </trkpt>
      <trkpt lat="45.56237" lon="6.06909">
        <ele>1530.493924553</ele>
        <time>2015-12-11T11:22:16Z</time>
      </trkpt>
      <trkpt lat="45.5624" lon="6.06913">
        <ele>1530.493924553</ele>
        <time>2015-12-11T11:22:22Z</time>
      </trkpt>
      <trkpt lat="45.56253" lon="6.06916">
        <ele>1529.03965192</ele>
        <time>2015-12-11T11:22:36Z</time>
      </trkpt>
      <trkpt lat="45.56262" lon="6.06921">
        <ele>1528.035620882</ele>
        <time>2015-12-11T11:22:47Z</time>
      </trkpt>
      <trkpt lat="45.56265" lon="6.06923">
        <ele>1528.035620882</ele>
        <time>2015-12-11T11:22:51Z</time>
      </trkpt>
      <trkpt lat="45.56268" lon="6.06925">
        <ele>1528.035620882</ele>
        <time>2015-12-11T11:22:56Z</time>
      </trkpt>
      <trkpt lat="45.56275" lon="6.06931">
        <ele>1527.598501153</ele>
        <time>2015-12-11T11:23:07Z</time>
      </trkpt>
      <trkpt lat="45.56278" lon="6.06932">
        <ele>1527.598501153</ele>
        <time>2015-12-11T11:23:11Z</time>
      </trkpt>
      <trkpt lat="45.56282" lon="6.06937">
        <ele>1527.598501153</ele>
        <time>2015-12-11T11:23:22Z</time>
      </trkpt>
      <trkpt lat="45.56285" lon="6.06937">
        <ele>1528.267177548</ele>
        <time>2015-12-11T11:23:26Z</time>
      </trkpt>
      <trkpt lat="45.56291" lon="6.06941">
        <ele>1528.267177548</ele>
        <time>2015-12-11T11:23:37Z</time>
      </trkpt>
      <trkpt lat="45.56294" lon="6.06944">
        <ele>1529.240874405</ele>
        <time>2015-12-11T11:23:42Z</time>
      </trkpt>
      <trkpt lat="45.56299" lon="6.06942">
        <ele>1529.240874405</ele>
        <time>2015-12-11T11:23:51Z</time>
      </trkpt>
      <trkpt lat="45.56301" lon="6.06944">
        <ele>1529.240874405</ele>
        <time>2015-12-11T11:23:57Z</time>
      </trkpt>
      <trkpt lat="45.56306" lon="6.0695">
        <ele>1530.497360736</ele>
        <time>2015-12-11T11:24:07Z</time>
      </trkpt>
      <trkpt lat="45.56305" lon="6.06954">
        <ele>1530.497360736</ele>
        <time>2015-12-11T11:24:12Z</time>
      </trkpt>
      <trkpt lat="45.5631" lon="6.06959">
        <ele>1532.303484908</ele>
        <time>2015-12-11T11:24:27Z</time>
      </trkpt>
      <trkpt lat="45.56314" lon="6.06961">
        <ele>1532.303484908</ele>
        <time>2015-12-11T11:24:37Z</time>
      </trkpt>
      <trkpt lat="45.56316" lon="6.06961">
        <ele>1532.303484908</ele>
        <time>2015-12-11T11:24:42Z</time>
      </trkpt>
      <trkpt lat="45.56324" lon="6.06965">
        <ele>1534.328524663</ele>
        <time>2015-12-11T11:24:56Z</time>
      </trkpt>
      <trkpt lat="45.5633" lon="6.06965">
        <ele>1534.328524663</ele>
        <time>2015-12-11T11:25:07Z</time>
      </trkpt>
      <trkpt lat="45.56332" lon="6.06966">
        <ele>1534.328524663</ele>
        <time>2015-12-11T11:25:12Z</time>
      </trkpt>
      <trkpt lat="45.56334" lon="6.06965">
        <ele>1536.98601715</ele>
        <time>2015-12-11T11:25:16Z</time>
      </trkpt>
      <trkpt lat="45.5634" lon="6.06968">
        <ele>1536.98601715</ele>
        <time>2015-12-11T11:25:27Z</time>
      </trkpt>
      <trkpt lat="45.56342" lon="6.06967">
        <ele>1536.98601715</ele>
        <time>2015-12-11T11:25:32Z</time>
      </trkpt>
      <trkpt lat="45.56346" lon="6.06968">
        <ele>1540.080933155</ele>
        <time>2015-12-11T11:25:42Z</time>
      </trkpt>
      <trkpt lat="45.56351" lon="6.06972">
        <ele>1540.080933155</ele>
        <time>2015-12-11T11:25:46Z</time>
      </trkpt>
      <trkpt lat="45.56359" lon="6.06972">
        <ele>1542.566715837</ele>
        <time>2015-12-11T11:25:57Z</time>
      </trkpt>
      <trkpt lat="45.56361" lon="6.06971">
        <ele>1542.566715837</ele>
        <time>2015-12-11T11:26:02Z</time>
      </trkpt>
      <trkpt lat="45.56368" lon="6.06974">
        <ele>1545.060669044</ele>
        <time>2015-12-11T11:26:12Z</time>
      </trkpt>
      <trkpt lat="45.56371" lon="6.06975">
        <ele>1545.060669044</ele>
        <time>2015-12-11T11:26:17Z</time>
      </trkpt>
      <trkpt lat="45.56378" lon="6.06979">
        <ele>1547.702452741</ele>
        <time>2015-12-11T11:26:27Z</time>
      </trkpt>
      <trkpt lat="45.5638" lon="6.06978">
        <ele>1547.702452741</ele>
        <time>2015-12-11T11:26:32Z</time>
      </trkpt>
      <trkpt lat="45.56387" lon="6.06979">
        <ele>1550.3328982</ele>
        <time>2015-12-11T11:26:42Z</time>
      </trkpt>
      <trkpt lat="45.56389" lon="6.06981">
        <ele>1550.3328982</ele>
        <time>2015-12-11T11:26:46Z</time>
      </trkpt>
      <trkpt lat="45.56397" lon="6.06986">
        <ele>1553.236969603</ele>
        <time>2015-12-11T11:27:02Z</time>
      </trkpt>
      <trkpt lat="45.56399" lon="6.06988">
        <ele>1553.236969603</ele>
        <time>2015-12-11T11:27:06Z</time>
      </trkpt>
      <trkpt lat="45.56403" lon="6.06987">
        <ele>1553.236969603</ele>
        <time>2015-12-11T11:27:17Z</time>
      </trkpt>
      <trkpt lat="45.56407" lon="6.06987">
        <ele>1556.678013651</ele>
        <time>2015-12-11T11:27:22Z</time>
      </trkpt>
      <trkpt lat="45.56415" lon="6.06988">
        <ele>1556.678013651</ele>
        <time>2015-12-11T11:27:32Z</time>
      </trkpt>
      <trkpt lat="45.56417" lon="6.06989">
        <ele>1560.466284758</ele>
        <time>2015-12-11T11:27:37Z</time>
      </trkpt>
      <trkpt lat="45.56422" lon="6.0699">
        <ele>1560.466284758</ele>
        <time>2015-12-11T11:27:47Z</time>
      </trkpt>
      <trkpt lat="45.56423" lon="6.06992">
        <ele>1560.466284758</ele>
        <time>2015-12-11T11:27:52Z</time>
      </trkpt>
      <trkpt lat="45.56427" lon="6.06994">
        <ele>1564.569216988</ele>
        <time>2015-12-11T11:28:02Z</time>
      </trkpt>
      <trkpt lat="45.5643" lon="6.06996">
        <ele>1564.569216988</ele>
        <time>2015-12-11T11:28:06Z</time>
      </trkpt>
      <trkpt lat="45.56434" lon="6.06996">
        <ele>1564.569216988</ele>
        <time>2015-12-11T11:28:17Z</time>
      </trkpt>
      <trkpt lat="45.56437" lon="6.06998">
        <ele>1568.811759511</ele>
        <time>2015-12-11T11:28:22Z</time>
      </trkpt>
      <trkpt lat="45.56446" lon="6.07002">
        <ele>1572.310902252</ele>
        <time>2015-12-11T11:28:36Z</time>
      </trkpt>
      <trkpt lat="45.56448" lon="6.07008">
        <ele>1572.310902252</ele>
        <time>2015-12-11T11:28:52Z</time>
      </trkpt>
      <trkpt lat="45.56449" lon="6.07009">
        <ele>1572.310902252</ele>
        <time>2015-12-11T11:28:57Z</time>
      </trkpt>
      <trkpt lat="45.56454" lon="6.07009">
        <ele>1576.844729337</ele>
        <time>2015-12-11T11:29:06Z</time>
      </trkpt>
      <trkpt lat="45.56454" lon="6.07009">
        <ele>1576.844729337</ele>
        <time>2015-12-11T11:29:12Z</time>
      </trkpt>
      <trkpt lat="45.56459" lon="6.07009">
        <ele>1576.844729337</ele>
        <time>2015-12-11T11:29:22Z</time>
      </trkpt>
      <trkpt lat="45.56458" lon="6.07009">
        <ele>1576.844729337</ele>
        <time>2015-12-11T11:29:27Z</time>
      </trkpt>
      <trkpt lat="45.56462" lon="6.07008">
        <ele>1581.319847734</ele>
        <time>2015-12-11T11:29:37Z</time>
      </trkpt>
      <trkpt lat="45.56466" lon="6.07014">
        <ele>1581.319847734</ele>
        <time>2015-12-11T11:29:42Z</time>
      </trkpt>
      <trkpt lat="45.56469" lon="6.07019">
        <ele>1585.876404816</ele>
        <time>2015-12-11T11:29:52Z</time>
      </trkpt>
      <trkpt lat="45.56471" lon="6.07019">
        <ele>1585.876404816</ele>
        <time>2015-12-11T11:29:56Z</time>
      </trkpt>
      <trkpt lat="45.56474" lon="6.07019">
        <ele>1585.876404816</ele>
        <time>2015-12-11T11:30:01Z</time>
      </trkpt>
      <trkpt lat="45.56478" lon="6.07024">
        <ele>1590.067756832</ele>
        <time>2015-12-11T11:30:06Z</time>
      </trkpt>
      <trkpt lat="45.5648" lon="6.07032">
        <ele>1590.067756832</ele>
        <time>2015-12-11T11:30:11Z</time>
      </trkpt>
      <trkpt lat="45.56486" lon="6.07034">
        <ele>1594.057726555</ele>
        <time>2015-12-11T11:30:16Z</time>
      </trkpt>
      <trkpt lat="45.5649" lon="6.07035">
        <ele>1594.057726555</ele>
        <time>2015-12-11T11:30:22Z</time>
      </trkpt>
      <trkpt lat="45.56495" lon="6.07035">
        <ele>1597.422416539</ele>
        <time>2015-12-11T11:30:26Z</time>
      </trkpt>
      <trkpt lat="45.565" lon="6.07036">
        <ele>1597.422416539</ele>
        <time>2015-12-11T11:30:32Z</time>
      </trkpt>
      <trkpt lat="45.56503" lon="6.07036">
        <ele>1597.422416539</ele>
        <time>2015-12-11T11:30:36Z</time>
      </trkpt>
      <trkpt lat="45.56507" lon="6.07041">
        <ele>1600.923909797</ele>
        <time>2015-12-11T11:30:41Z</time>
      </trkpt>
      <trkpt lat="45.56509" lon="6.07041">
        <ele>1600.923909797</ele>
        <time>2015-12-11T11:30:46Z</time>
      </trkpt>
      <trkpt lat="45.56511" lon="6.07039">
        <ele>1600.923909797</ele>
        <time>2015-12-11T11:30:51Z</time>
      </trkpt>
      <trkpt lat="45.56513" lon="6.07038">
        <ele>1600.923909797</ele>
        <time>2015-12-11T11:30:56Z</time>
      </trkpt>
      <trkpt lat="45.56516" lon="6.07037">
        <ele>1604.691678013</ele>
        <time>2015-12-11T11:31:01Z</time>
      </trkpt>
      <trkpt lat="45.56518" lon="6.07033">
        <ele>1604.691678013</ele>
        <time>2015-12-11T11:31:06Z</time>
      </trkpt>
      <trkpt lat="45.56519" lon="6.07028">
        <ele>1604.691678013</ele>
        <time>2015-12-11T11:31:12Z</time>
      </trkpt>
      <trkpt lat="45.56521" lon="6.07028">
        <ele>1604.691678013</ele>
        <time>2015-12-11T11:31:16Z</time>
      </trkpt>
      <trkpt lat="45.56524" lon="6.07026">
        <ele>1608.701023414</ele>
        <time>2015-12-11T11:31:21Z</time>
      </trkpt>
      <trkpt lat="45.56526" lon="6.07027">
        <ele>1608.701023414</ele>
        <time>2015-12-11T11:31:26Z</time>
      </trkpt>
      <trkpt lat="45.56528" lon="6.07022">
        <ele>1608.701023414</ele>
        <time>2015-12-11T11:31:32Z</time>
      </trkpt>
      <trkpt lat="45.56531" lon="6.0702">
        <ele>1612.64036196</ele>
        <time>2015-12-11T11:31:37Z</time>
      </trkpt>
      <trkpt lat="45.56533" lon="6.0702">
        <ele>1612.64036196</ele>
        <time>2015-12-11T11:31:41Z</time>
      </trkpt>
      <trkpt lat="45.56534" lon="6.07017">
        <ele>1612.64036196</ele>
        <time>2015-12-11T11:31:47Z</time>
      </trkpt>
      <trkpt lat="45.56534" lon="6.07015">
        <ele>1612.64036196</ele>
        <time>2015-12-11T11:31:51Z</time>
      </trkpt>
      <trkpt lat="45.56536" lon="6.07015">
        <ele>1612.64036196</ele>
        <time>2015-12-11T11:31:56Z</time>
      </trkpt>
      <trkpt lat="45.56538" lon="6.07014">
        <ele>1616.509616861</ele>
        <time>2015-12-11T11:32:01Z</time>
      </trkpt>
      <trkpt lat="45.56539" lon="6.07012">
        <ele>1616.509616861</ele>
        <time>2015-12-11T11:32:06Z</time>
      </trkpt>
      <trkpt lat="45.56541" lon="6.0701">
        <ele>1616.509616861</ele>
        <time>2015-12-11T11:32:11Z</time>
      </trkpt>
      <trkpt lat="45.56543" lon="6.0701">
        <ele>1616.509616861</ele>
        <time>2015-12-11T11:32:17Z</time>
      </trkpt>
      <trkpt lat="45.56547" lon="6.07007">
        <ele>1620.453224876</ele>
        <time>2015-12-11T11:32:21Z</time>
      </trkpt>
      <trkpt lat="45.56547" lon="6.07006">
        <ele>1620.453224876</ele>
        <time>2015-12-11T11:32:27Z</time>
      </trkpt>
      <trkpt lat="45.56548" lon="6.07004">
        <ele>1620.453224876</ele>
        <time>2015-12-11T11:32:31Z</time>
      </trkpt>
      <trkpt lat="45.5655" lon="6.07002">
        <ele>1620.453224876</ele>
        <time>2015-12-11T11:32:37Z</time>
      </trkpt>
      <trkpt lat="45.56551" lon="6.07001">
        <ele>1620.453224876</ele>
        <time>2015-12-11T11:32:42Z</time>
      </trkpt>
      <trkpt lat="45.56556" lon="6.07002">
        <ele>1624.316781493</ele>
        <time>2015-12-11T11:32:47Z</time>
      </trkpt>
      <trkpt lat="45.5656" lon="6.07001">
        <ele>1624.316781493</ele>
        <time>2015-12-11T11:32:52Z</time>
      </trkpt>
      <trkpt lat="45.5656" lon="6.06998">
        <ele>1624.316781493</ele>
        <time>2015-12-11T11:32:57Z</time>
      </trkpt>
      <trkpt lat="45.56562" lon="6.06995">
        <ele>1624.316781493</ele>
        <time>2015-12-11T11:33:01Z</time>
      </trkpt>
      <trkpt lat="45.56561" lon="6.06992">
        <ele>1627.95764771</ele>
        <time>2015-12-11T11:33:06Z</time>
      </trkpt>
      <trkpt lat="45.56562" lon="6.06991">
        <ele>1627.95764771</ele>
        <time>2015-12-11T11:33:11Z</time>
      </trkpt>
      <trkpt lat="45.56565" lon="6.06994">
        <ele>1627.95764771</ele>
        <time>2015-12-11T11:33:17Z</time>
      </trkpt>
      <trkpt lat="45.56568" lon="6.06991">
        <ele>1627.95764771</ele>
        <time>2015-12-11T11:33:21Z</time>
      </trkpt>
      <trkpt lat="45.5657" lon="6.06989">
        <ele>1631.532705797</ele>
        <time>2015-12-11T11:33:27Z</time>
      </trkpt>
      <trkpt lat="45.56571" lon="6.06987">
        <ele>1631.532705797</ele>
        <time>2015-12-11T11:33:32Z</time>
      </trkpt>
      <trkpt lat="45.56574" lon="6.06984">
        <ele>1631.532705797</ele>
        <time>2015-12-11T11:33:37Z</time>
      </trkpt>
      <trkpt lat="45.56576" lon="6.06984">
        <ele>1631.532705797</ele>
        <time>2015-12-11T11:33:41Z</time>
      </trkpt>
      <trkpt lat="45.56577" lon="6.06981">
        <ele>1635.764136573</ele>
        <time>2015-12-11T11:33:46Z</time>
      </trkpt>
      <trkpt lat="45.56581" lon="6.06977">
        <ele>1635.764136573</ele>
        <time>2015-12-11T11:33:51Z</time>
      </trkpt>
      <trkpt lat="45.56583" lon="6.06973">
        <ele>1635.764136573</ele>
        <time>2015-12-11T11:33:57Z</time>
      </trkpt>
      <trkpt lat="45.56586" lon="6.06973">
        <ele>1639.013639422</ele>
        <time>2015-12-11T11:34:01Z</time>
      </trkpt>
      <trkpt lat="45.5659" lon="6.06968">
        <ele>1639.013639422</ele>
        <time>2015-12-11T11:34:06Z</time>
      </trkpt>
      <trkpt lat="45.56591" lon="6.06963">
        <ele>1642.216091322</ele>
        <time>2015-12-11T11:34:11Z</time>
      </trkpt>
      <trkpt lat="45.56595" lon="6.0696">
        <ele>1642.216091322</ele>
        <time>2015-12-11T11:34:16Z</time>
      </trkpt>
      <trkpt lat="45.566" lon="6.06958">
        <ele>1644.652780133</ele>
        <time>2015-12-11T11:34:21Z</time>
      </trkpt>
      <trkpt lat="45.56604" lon="6.06951">
        <ele>1644.652780133</ele>
        <time>2015-12-11T11:34:26Z</time>
      </trkpt>
      <trkpt lat="45.56607" lon="6.06947">
        <ele>1647.101217491</ele>
        <time>2015-12-11T11:34:31Z</time>
      </trkpt>
      <trkpt lat="45.56611" lon="6.06945">
        <ele>1647.101217491</ele>
        <time>2015-12-11T11:34:36Z</time>
      </trkpt>
      <trkpt lat="45.56614" lon="6.06944">
        <ele>1647.101217491</ele>
        <time>2015-12-11T11:34:42Z</time>
      </trkpt>
      <trkpt lat="45.56617" lon="6.06941">
        <ele>1649.27314338</ele>
        <time>2015-12-11T11:34:47Z</time>
      </trkpt>
      <trkpt lat="45.5662" lon="6.06936">
        <ele>1649.27314338</ele>
        <time>2015-12-11T11:34:51Z</time>
      </trkpt>
      <trkpt lat="45.56623" lon="6.06931">
        <ele>1651.046500212</ele>
        <time>2015-12-11T11:34:56Z</time>
      </trkpt>
      <trkpt lat="45.56625" lon="6.06926">
        <ele>1651.046500212</ele>
        <time>2015-12-11T11:35:01Z</time>
      </trkpt>
      <trkpt lat="45.56627" lon="6.06921">
        <ele>1651.046500212</ele>
        <time>2015-12-11T11:35:06Z</time>
      </trkpt>
      <trkpt lat="45.56629" lon="6.06916">
        <ele>1652.885883444</ele>
        <time>2015-12-11T11:35:12Z</time>
      </trkpt>
      <trkpt lat="45.56632" lon="6.06911">
        <ele>1652.885883444</ele>
        <time>2015-12-11T11:35:17Z</time>
      </trkpt>
      <trkpt lat="45.56632" lon="6.06907">
        <ele>1652.885883444</ele>
        <time>2015-12-11T11:35:21Z</time>
      </trkpt>
      <trkpt lat="45.56635" lon="6.06901">
        <ele>1654.357014189</ele>
        <time>2015-12-11T11:35:26Z</time>
      </trkpt>
      <trkpt lat="45.56638" lon="6.06897">
        <ele>1654.357014189</ele>
        <time>2015-12-11T11:35:31Z</time>
      </trkpt>
      <trkpt lat="45.56641" lon="6.06896">
        <ele>1654.357014189</ele>
        <time>2015-12-11T11:35:37Z</time>
      </trkpt>
      <trkpt lat="45.56643" lon="6.06891">
        <ele>1655.635081859</ele>
        <time>2015-12-11T11:35:41Z</time>
      </trkpt>
      <trkpt lat="45.56643" lon="6.0689">
        <ele>1655.635081859</ele>
        <time>2015-12-11T11:35:46Z</time>
      </trkpt>
      <trkpt lat="45.56644" lon="6.06886">
        <ele>1655.635081859</ele>
        <time>2015-12-11T11:35:51Z</time>
      </trkpt>
      <trkpt lat="45.56646" lon="6.06884">
        <ele>1655.635081859</ele>
        <time>2015-12-11T11:35:56Z</time>
      </trkpt>
      <trkpt lat="45.56648" lon="6.06875">
        <ele>1657.171241241</ele>
        <time>2015-12-11T11:36:01Z</time>
      </trkpt>
      <trkpt lat="45.56649" lon="6.06867">
        <ele>1657.171241241</ele>
        <time>2015-12-11T11:36:06Z</time>
      </trkpt>
      <trkpt lat="45.5665" lon="6.06864">
        <ele>1657.171241241</ele>
        <time>2015-12-11T11:36:11Z</time>
      </trkpt>
      <trkpt lat="45.56649" lon="6.06861">
        <ele>1658.662278883</ele>
        <time>2015-12-11T11:36:17Z</time>
      </trkpt>
      <trkpt lat="45.56649" lon="6.06859">
        <ele>1658.662278883</ele>
        <time>2015-12-11T11:36:21Z</time>
      </trkpt>
      <trkpt lat="45.56649" lon="6.06856">
        <ele>1658.662278883</ele>
        <time>2015-12-11T11:36:26Z</time>
      </trkpt>
      <trkpt lat="45.56648" lon="6.0685">
        <ele>1658.662278883</ele>
        <time>2015-12-11T11:36:31Z</time>
      </trkpt>
      <trkpt lat="45.56648" lon="6.0685">
        <ele>1658.662278883</ele>
        <time>2015-12-11T11:36:36Z</time>
      </trkpt>
      <trkpt lat="45.5665" lon="6.06848">
        <ele>1660.836197526</ele>
        <time>2015-12-11T11:36:41Z</time>
      </trkpt>
      <trkpt lat="45.5665" lon="6.06847">
        <ele>1660.836197526</ele>
        <time>2015-12-11T11:36:46Z</time>
      </trkpt>
      <trkpt lat="45.5665" lon="6.06846">
        <ele>1660.836197526</ele>
        <time>2015-12-11T11:36:52Z</time>
      </trkpt>
      <trkpt lat="45.5665" lon="6.06845">
        <ele>1660.836197526</ele>
        <time>2015-12-11T11:36:56Z</time>
      </trkpt>
      <trkpt lat="45.5665" lon="6.06838">
        <ele>1660.836197526</ele>
        <time>2015-12-11T11:37:01Z</time>
      </trkpt>
      <trkpt lat="45.56651" lon="6.06832">
        <ele>1663.356852114</ele>
        <time>2015-12-11T11:37:06Z</time>
      </trkpt>
      <trkpt lat="45.56649" lon="6.06829">
        <ele>1663.356852114</ele>
        <time>2015-12-11T11:37:11Z</time>
      </trkpt>
      <trkpt lat="45.56646" lon="6.06826">
        <ele>1663.356852114</ele>
        <time>2015-12-11T11:37:16Z</time>
      </trkpt>
      <trkpt lat="45.56643" lon="6.06824">
        <ele>1666.488278516</ele>
        <time>2015-12-11T11:37:21Z</time>
      </trkpt>
      <trkpt lat="45.56642" lon="6.06819">
        <ele>1666.488278516</ele>
        <time>2015-12-11T11:37:27Z</time>
      </trkpt>
      <trkpt lat="45.56639" lon="6.06815">
        <ele>1666.488278516</ele>
        <time>2015-12-11T11:37:31Z</time>
      </trkpt>
      <trkpt lat="45.56641" lon="6.06809">
        <ele>1669.176412645</ele>
        <time>2015-12-11T11:37:36Z</time>
      </trkpt>
      <trkpt lat="45.56641" lon="6.06804">
        <ele>1669.176412645</ele>
        <time>2015-12-11T11:37:42Z</time>
      </trkpt>
      <trkpt lat="45.56639" lon="6.06802">
        <ele>1669.176412645</ele>
        <time>2015-12-11T11:37:46Z</time>
      </trkpt>
      <trkpt lat="45.56635" lon="6.06799">
        <ele>1671.742871684</ele>
        <time>2015-12-11T11:37:52Z</time>
      </trkpt>
      <trkpt lat="45.56634" lon="6.06799">
        <ele>1671.742871684</ele>
        <time>2015-12-11T11:37:57Z</time>
      </trkpt>
      <trkpt lat="45.56635" lon="6.06799">
        <ele>1671.742871684</ele>
        <time>2015-12-11T11:38:01Z</time>
      </trkpt>
      <trkpt lat="45.56635" lon="6.06798">
        <ele>1671.742871684</ele>
        <time>2015-12-11T11:38:06Z</time>
      </trkpt>
      <trkpt lat="45.56634" lon="6.06799">
        <ele>1671.742871684</ele>
        <time>2015-12-11T11:38:11Z</time>
      </trkpt>
      <trkpt lat="45.56633" lon="6.06799">
        <ele>1671.742871684</ele>
        <time>2015-12-11T11:38:17Z</time>
      </trkpt>
      <trkpt lat="45.56633" lon="6.06799">
        <ele>1671.742871684</ele>
        <time>2015-12-11T11:38:21Z</time>
      </trkpt>
      <trkpt lat="45.56633" lon="6.06797">
        <ele>1671.742871684</ele>
        <time>2015-12-11T11:38:26Z</time>
      </trkpt>
      <trkpt lat="45.56633" lon="6.06796">
        <ele>1671.742871684</ele>
        <time>2015-12-11T11:38:31Z</time>
      </trkpt>
      <trkpt lat="45.56633" lon="6.06796">
        <ele>1671.742871684</ele>
        <time>2015-12-11T11:38:36Z</time>
      </trkpt>
      <trkpt lat="45.56633" lon="6.06796">
        <ele>1671.742871684</ele>
        <time>2015-12-11T11:38:41Z</time>
      </trkpt>
      <trkpt lat="45.56633" lon="6.06796">
        <ele>1671.742871684</ele>
        <time>2015-12-11T11:38:46Z</time>
      </trkpt>
      <trkpt lat="45.56633" lon="6.06796">
        <ele>1671.742871684</ele>
        <time>2015-12-11T11:38:51Z</time>
      </trkpt>
      <trkpt lat="45.56633" lon="6.06796">
        <ele>1671.742871684</ele>
        <time>2015-12-11T11:38:56Z</time>
      </trkpt>
      <trkpt lat="45.56633" lon="6.06796">
        <ele>1671.742871684</ele>
        <time>2015-12-11T11:39:02Z</time>
      </trkpt>
      <trkpt lat="45.56633" lon="6.06796">
        <ele>1671.742871684</ele>
        <time>2015-12-11T11:39:06Z</time>
      </trkpt>
      <trkpt lat="45.56634" lon="6.06799">
        <ele>1673.909546548</ele>
        <time>2015-12-11T11:39:11Z</time>
      </trkpt>
      <trkpt lat="45.56635" lon="6.06798">
        <ele>1673.909546548</ele>
        <time>2015-12-11T11:39:16Z</time>
      </trkpt>
      <trkpt lat="45.56635" lon="6.06799">
        <ele>1673.909546548</ele>
        <time>2015-12-11T11:39:21Z</time>
      </trkpt>
      <trkpt lat="45.56635" lon="6.06799">
        <ele>1673.909546548</ele>
        <time>2015-12-11T11:39:27Z</time>
      </trkpt>
      <trkpt lat="45.56635" lon="6.06799">
        <ele>1673.909546548</ele>
        <time>2015-12-11T11:39:31Z</time>
      </trkpt>
      <trkpt lat="45.56633" lon="6.06799">
        <ele>1673.909546548</ele>
        <time>2015-12-11T11:39:37Z</time>
      </trkpt>
      <trkpt lat="45.56634" lon="6.06799">
        <ele>1673.909546548</ele>
        <time>2015-12-11T11:39:42Z</time>
      </trkpt>
      <trkpt lat="45.56635" lon="6.06799">
        <ele>1673.909546548</ele>
        <time>2015-12-11T11:39:46Z</time>
      </trkpt>
      <trkpt lat="45.56634" lon="6.06799">
        <ele>1673.909546548</ele>
        <time>2015-12-11T11:39:51Z</time>
      </trkpt>
      <trkpt lat="45.56634" lon="6.06799">
        <ele>1673.909546548</ele>
        <time>2015-12-11T11:39:57Z</time>
      </trkpt>
      <trkpt lat="45.56634" lon="6.06798">
        <ele>1673.909546548</ele>
        <time>2015-12-11T11:40:01Z</time>
      </trkpt>
      <trkpt lat="45.56634" lon="6.06799">
        <ele>1673.909546548</ele>
        <time>2015-12-11T11:40:07Z</time>
      </trkpt>
      <trkpt lat="45.56634" lon="6.06799">
        <ele>1673.909546548</ele>
        <time>2015-12-11T11:40:11Z</time>
      </trkpt>
      <trkpt lat="45.56634" lon="6.06799">
        <ele>1673.909546548</ele>
        <time>2015-12-11T11:40:17Z</time>
      </trkpt>
      <trkpt lat="45.56633" lon="6.06797">
        <ele>1673.909546548</ele>
        <time>2015-12-11T11:40:21Z</time>
      </trkpt>
      <trkpt lat="45.56633" lon="6.06796">
        <ele>1673.909546548</ele>
        <time>2015-12-11T11:40:27Z</time>
      </trkpt>
      <trkpt lat="45.56632" lon="6.06796">
        <ele>1674.987542877</ele>
        <time>2015-12-11T11:40:31Z</time>
      </trkpt>
      <trkpt lat="45.56633" lon="6.06797">
        <ele>1674.987542877</ele>
        <time>2015-12-11T11:40:36Z</time>
      </trkpt>
      <trkpt lat="45.56633" lon="6.06797">
        <ele>1674.987542877</ele>
        <time>2015-12-11T11:40:42Z</time>
      </trkpt>
      <trkpt lat="45.56633" lon="6.06797">
        <ele>1674.987542877</ele>
        <time>2015-12-11T11:40:46Z</time>
      </trkpt>
      <trkpt lat="45.56633" lon="6.06797">
        <ele>1674.987542877</ele>
        <time>2015-12-11T11:40:52Z</time>
      </trkpt>
      <trkpt lat="45.56633" lon="6.06797">
        <ele>1674.987542877</ele>
        <time>2015-12-11T11:40:56Z</time>
      </trkpt>
      <trkpt lat="45.56632" lon="6.06796">
        <ele>1674.987542877</ele>
        <time>2015-12-11T11:41:02Z</time>
      </trkpt>
      <trkpt lat="45.56631" lon="6.06796">
        <ele>1674.987542877</ele>
        <time>2015-12-11T11:41:06Z</time>
      </trkpt>
      <trkpt lat="45.56632" lon="6.06797">
        <ele>1674.987542877</ele>
        <time>2015-12-11T11:41:11Z</time>
      </trkpt>
      <trkpt lat="45.56632" lon="6.06797">
        <ele>1674.987542877</ele>
        <time>2015-12-11T11:41:17Z</time>
      </trkpt>
      <trkpt lat="45.56632" lon="6.06797">
        <ele>1674.987542877</ele>
        <time>2015-12-11T11:41:22Z</time>
      </trkpt>
      <trkpt lat="45.56632" lon="6.06797">
        <ele>1674.987542877</ele>
        <time>2015-12-11T11:41:27Z</time>
      </trkpt>
      <trkpt lat="45.56632" lon="6.06797">
        <ele>1674.987542877</ele>
        <time>2015-12-11T11:41:31Z</time>
      </trkpt>
      <trkpt lat="45.56632" lon="6.06797">
        <ele>1674.987542877</ele>
        <time>2015-12-11T11:41:36Z</time>
      </trkpt>
      <trkpt lat="45.56632" lon="6.06797">
        <ele>1674.987542877</ele>
        <time>2015-12-11T11:41:41Z</time>
      </trkpt>
      <trkpt lat="45.56632" lon="6.06797">
        <ele>1674.987542877</ele>
        <time>2015-12-11T11:41:46Z</time>
      </trkpt>
      <trkpt lat="45.56632" lon="6.06797">
        <ele>1674.987542877</ele>
        <time>2015-12-11T11:41:51Z</time>
      </trkpt>
      <trkpt lat="45.56632" lon="6.06797">
        <ele>1674.987542877</ele>
        <time>2015-12-11T11:41:56Z</time>
      </trkpt>
      <trkpt lat="45.56632" lon="6.06797">
        <ele>1674.987542877</ele>
        <time>2015-12-11T11:42:01Z</time>
      </trkpt>
      <trkpt lat="45.56632" lon="6.06797">
        <ele>1674.987542877</ele>
        <time>2015-12-11T11:42:06Z</time>
      </trkpt>
      <trkpt lat="45.56632" lon="6.06797">
        <ele>1674.987542877</ele>
        <time>2015-12-11T11:42:11Z</time>
      </trkpt>
      <trkpt lat="45.56633" lon="6.06798">
        <ele>1674.987542877</ele>
        <time>2015-12-11T11:42:16Z</time>
      </trkpt>
      <trkpt lat="45.56634" lon="6.06797">
        <ele>1674.987542877</ele>
        <time>2015-12-11T11:42:21Z</time>
      </trkpt>
      <trkpt lat="45.56633" lon="6.06797">
        <ele>1674.987542877</ele>
        <time>2015-12-11T11:42:26Z</time>
      </trkpt>
      <trkpt lat="45.56633" lon="6.06797">
        <ele>1674.987542877</ele>
        <time>2015-12-11T11:42:32Z</time>
      </trkpt>
      <trkpt lat="45.56634" lon="6.06796">
        <ele>1674.987542877</ele>
        <time>2015-12-11T11:42:36Z</time>
      </trkpt>
      <trkpt lat="45.56633" lon="6.06796">
        <ele>1674.987542877</ele>
        <time>2015-12-11T11:42:41Z</time>
      </trkpt>
      <trkpt lat="45.56633" lon="6.06795">
        <ele>1674.987542877</ele>
        <time>2015-12-11T11:42:47Z</time>
      </trkpt>
      <trkpt lat="45.56633" lon="6.06796">
        <ele>1677.223839915</ele>
        <time>2015-12-11T11:42:51Z</time>
      </trkpt>
      <trkpt lat="45.56633" lon="6.06796">
        <ele>1677.223839915</ele>
        <time>2015-12-11T11:42:56Z</time>
      </trkpt>
      <trkpt lat="45.56633" lon="6.06796">
        <ele>1677.223839915</ele>
        <time>2015-12-11T11:43:02Z</time>
      </trkpt>
      <trkpt lat="45.56633" lon="6.06796">
        <ele>1677.223839915</ele>
        <time>2015-12-11T11:43:07Z</time>
      </trkpt>
      <trkpt lat="45.56633" lon="6.06796">
        <ele>1677.223839915</ele>
        <time>2015-12-11T11:43:11Z</time>
      </trkpt>
      <trkpt lat="45.56633" lon="6.06796">
        <ele>1677.223839915</ele>
        <time>2015-12-11T11:43:16Z</time>
      </trkpt>
      <trkpt lat="45.56633" lon="6.06796">
        <ele>1677.223839915</ele>
        <time>2015-12-11T11:43:21Z</time>
      </trkpt>
      <trkpt lat="45.56633" lon="6.06796">
        <ele>1677.223839915</ele>
        <time>2015-12-11T11:43:27Z</time>
      </trkpt>
      <trkpt lat="45.56633" lon="6.06796">
        <ele>1677.223839915</ele>
        <time>2015-12-11T11:43:31Z</time>
      </trkpt>
      <trkpt lat="45.56632" lon="6.06796">
        <ele>1677.223839915</ele>
        <time>2015-12-11T11:43:36Z</time>
      </trkpt>
      <trkpt lat="45.56632" lon="6.06796">
        <ele>1677.223839915</ele>
        <time>2015-12-11T11:43:42Z</time>
      </trkpt>
      <trkpt lat="45.56633" lon="6.06796">
        <ele>1677.223839915</ele>
        <time>2015-12-11T11:43:46Z</time>
      </trkpt>
      <trkpt lat="45.56633" lon="6.06796">
        <ele>1677.223839915</ele>
        <time>2015-12-11T11:43:51Z</time>
      </trkpt>
      <trkpt lat="45.56632" lon="6.06797">
        <ele>1677.223839915</ele>
        <time>2015-12-11T11:43:57Z</time>
      </trkpt>
      <trkpt lat="45.56632" lon="6.06797">
        <ele>1677.223839915</ele>
        <time>2015-12-11T11:44:02Z</time>
      </trkpt>
      <trkpt lat="45.56632" lon="6.06797">
        <ele>1677.223839915</ele>
        <time>2015-12-11T11:44:06Z</time>
      </trkpt>
      <trkpt lat="45.56631" lon="6.06794">
        <ele>1677.223839915</ele>
        <time>2015-12-11T11:44:11Z</time>
      </trkpt>
      <trkpt lat="45.56627" lon="6.06791">
        <ele>1677.223839915</ele>
        <time>2015-12-11T11:44:16Z</time>
      </trkpt>
      <trkpt lat="45.56625" lon="6.06785">
        <ele>1679.23842015</ele>
        <time>2015-12-11T11:44:21Z</time>
      </trkpt>
      <trkpt lat="45.56627" lon="6.06778">
        <ele>1679.23842015</ele>
        <time>2015-12-11T11:44:27Z</time>
      </trkpt>
      <trkpt lat="45.56627" lon="6.06774">
        <ele>1679.23842015</ele>
        <time>2015-12-11T11:44:31Z</time>
      </trkpt>
      <trkpt lat="45.56625" lon="6.0677">
        <ele>1680.906126431</ele>
        <time>2015-12-11T11:44:36Z</time>
      </trkpt>
      <trkpt lat="45.56624" lon="6.06763">
        <ele>1680.906126431</ele>
        <time>2015-12-11T11:44:41Z</time>
      </trkpt>
      <trkpt lat="45.56623" lon="6.06757">
        <ele>1682.256045078</ele>
        <time>2015-12-11T11:44:47Z</time>
      </trkpt>
      <trkpt lat="45.56621" lon="6.06756">
        <ele>1682.256045078</ele>
        <time>2015-12-11T11:44:52Z</time>
      </trkpt>
      <trkpt lat="45.56621" lon="6.06755">
        <ele>1682.256045078</ele>
        <time>2015-12-11T11:44:57Z</time>
      </trkpt>
      <trkpt lat="45.56621" lon="6.06753">
        <ele>1682.256045078</ele>
        <time>2015-12-11T11:45:01Z</time>
      </trkpt>
      <trkpt lat="45.56617" lon="6.06749">
        <ele>1683.315974207</ele>
        <time>2015-12-11T11:45:06Z</time>
      </trkpt>
      <trkpt lat="45.56616" lon="6.06743">
        <ele>1683.315974207</ele>
        <time>2015-12-11T11:45:11Z</time>
      </trkpt>
      <trkpt lat="45.56613" lon="6.06736">
        <ele>1684.400653203</ele>
        <time>2015-12-11T11:45:16Z</time>
      </trkpt>
      <trkpt lat="45.56611" lon="6.06729">
        <ele>1684.400653203</ele>
        <time>2015-12-11T11:45:21Z</time>
      </trkpt>
      <trkpt lat="45.56609" lon="6.06722">
        <ele>1684.936900663</ele>
        <time>2015-12-11T11:45:27Z</time>
      </trkpt>
      <trkpt lat="45.56608" lon="6.06715">
        <ele>1684.936900663</ele>
        <time>2015-12-11T11:45:32Z</time>
      </trkpt>
      <trkpt lat="45.56609" lon="6.06711">
        <ele>1684.936900663</ele>
        <time>2015-12-11T11:45:37Z</time>
      </trkpt>
      <trkpt lat="45.56606" lon="6.06713">
        <ele>1685.692104469</ele>
        <time>2015-12-11T11:45:42Z</time>
      </trkpt>
      <trkpt lat="45.56604" lon="6.06708">
        <ele>1685.692104469</ele>
        <time>2015-12-11T11:45:47Z</time>
      </trkpt>
      <trkpt lat="45.56603" lon="6.06706">
        <ele>1685.692104469</ele>
        <time>2015-12-11T11:45:51Z</time>
      </trkpt>
      <trkpt lat="45.566" lon="6.067">
        <ele>1686.367801214</ele>
        <time>2015-12-11T11:45:56Z</time>
      </trkpt>
      <trkpt lat="45.56598" lon="6.06695">
        <ele>1686.367801214</ele>
        <time>2015-12-11T11:46:01Z</time>
      </trkpt>
      <trkpt lat="45.56599" lon="6.06691">
        <ele>1686.367801214</ele>
        <time>2015-12-11T11:46:06Z</time>
      </trkpt>
      <trkpt lat="45.56598" lon="6.06687">
        <ele>1687.408133648</ele>
        <time>2015-12-11T11:46:11Z</time>
      </trkpt>
      <trkpt lat="45.56596" lon="6.06679">
        <ele>1687.408133648</ele>
        <time>2015-12-11T11:46:16Z</time>
      </trkpt>
      <trkpt lat="45.56596" lon="6.06673">
        <ele>1689.079377883</ele>
        <time>2015-12-11T11:46:21Z</time>
      </trkpt>
      <trkpt lat="45.56595" lon="6.06672">
        <ele>1689.079377883</ele>
        <time>2015-12-11T11:46:26Z</time>
      </trkpt>
      <trkpt lat="45.56592" lon="6.06668">
        <ele>1689.079377883</ele>
        <time>2015-12-11T11:46:31Z</time>
      </trkpt>
      <trkpt lat="45.56593" lon="6.06666">
        <ele>1689.079377883</ele>
        <time>2015-12-11T11:46:37Z</time>
      </trkpt>
      <trkpt lat="45.56593" lon="6.06665">
        <ele>1689.079377883</ele>
        <time>2015-12-11T11:46:41Z</time>
      </trkpt>
      <trkpt lat="45.56594" lon="6.06663">
        <ele>1689.752920933</ele>
        <time>2015-12-11T11:46:47Z</time>
      </trkpt>
      <trkpt lat="45.56593" lon="6.06663">
        <ele>1689.752920933</ele>
        <time>2015-12-11T11:46:51Z</time>
      </trkpt>
      <trkpt lat="45.56593" lon="6.06662">
        <ele>1689.752920933</ele>
        <time>2015-12-11T11:46:56Z</time>
      </trkpt>
      <trkpt lat="45.56592" lon="6.06661">
        <ele>1689.752920933</ele>
        <time>2015-12-11T11:47:01Z</time>
      </trkpt>
      <trkpt lat="45.56592" lon="6.06661">
        <ele>1689.752920933</ele>
        <time>2015-12-11T11:47:06Z</time>
      </trkpt>
      <trkpt lat="45.56591" lon="6.06662">
        <ele>1689.752920933</ele>
        <time>2015-12-11T11:47:21Z</time>
      </trkpt>
      <trkpt lat="45.56591" lon="6.06662">
        <ele>1689.752920933</ele>
        <time>2015-12-11T11:47:26Z</time>
      </trkpt>
      <trkpt lat="45.5659" lon="6.06662">
        <ele>1689.752920933</ele>
        <time>2015-12-11T11:47:36Z</time>
      </trkpt>
      <trkpt lat="45.5659" lon="6.06662">
        <ele>1689.752920933</ele>
        <time>2015-12-11T11:47:41Z</time>
      </trkpt>
      <trkpt lat="45.5659" lon="6.06662">
        <ele>1689.752920933</ele>
        <time>2015-12-11T11:47:46Z</time>
      </trkpt>
      <trkpt lat="45.5659" lon="6.06664">
        <ele>1689.752920933</ele>
        <time>2015-12-11T11:47:57Z</time>
      </trkpt>
      <trkpt lat="45.56591" lon="6.06661">
        <ele>1690.51646724</ele>
        <time>2015-12-11T11:48:01Z</time>
      </trkpt>
      <trkpt lat="45.5659" lon="6.0666">
        <ele>1690.51646724</ele>
        <time>2015-12-11T11:48:06Z</time>
      </trkpt>
      <trkpt lat="45.5659" lon="6.0666">
        <ele>1690.51646724</ele>
        <time>2015-12-11T11:48:11Z</time>
      </trkpt>
      <trkpt lat="45.5659" lon="6.0666">
        <ele>1690.51646724</ele>
        <time>2015-12-11T11:48:16Z</time>
      </trkpt>
      <trkpt lat="45.56589" lon="6.0666">
        <ele>1690.51646724</ele>
        <time>2015-12-11T11:48:21Z</time>
      </trkpt>
      <trkpt lat="45.56589" lon="6.06661">
        <ele>1690.51646724</ele>
        <time>2015-12-11T11:48:26Z</time>
      </trkpt>
      <trkpt lat="45.5659" lon="6.06661">
        <ele>1690.51646724</ele>
        <time>2015-12-11T11:48:31Z</time>
      </trkpt>
      <trkpt lat="45.5659" lon="6.06661">
        <ele>1690.51646724</ele>
        <time>2015-12-11T11:48:37Z</time>
      </trkpt>
      <trkpt lat="45.5659" lon="6.06661">
        <ele>1690.51646724</ele>
        <time>2015-12-11T11:48:47Z</time>
      </trkpt>
      <trkpt lat="45.5659" lon="6.06661">
        <ele>1690.51646724</ele>
        <time>2015-12-11T11:48:52Z</time>
      </trkpt>
      <trkpt lat="45.5659" lon="6.06661">
        <ele>1690.51646724</ele>
        <time>2015-12-11T11:49:07Z</time>
      </trkpt>
      <trkpt lat="45.5659" lon="6.06661">
        <ele>1690.51646724</ele>
        <time>2015-12-11T11:49:11Z</time>
      </trkpt>
      <trkpt lat="45.5659" lon="6.06661">
        <ele>1690.51646724</ele>
        <time>2015-12-11T11:49:22Z</time>
      </trkpt>
      <trkpt lat="45.5659" lon="6.06661">
        <ele>1690.51646724</ele>
        <time>2015-12-11T11:49:26Z</time>
      </trkpt>
      <trkpt lat="45.5659" lon="6.06661">
        <ele>1690.51646724</ele>
        <time>2015-12-11T11:49:36Z</time>
      </trkpt>
      <trkpt lat="45.5659" lon="6.06661">
        <ele>1690.51646724</ele>
        <time>2015-12-11T11:49:41Z</time>
      </trkpt>
      <trkpt lat="45.5659" lon="6.06658">
        <ele>1690.51646724</ele>
        <time>2015-12-11T11:49:56Z</time>
      </trkpt>
      <trkpt lat="45.5659" lon="6.06659">
        <ele>1690.51646724</ele>
        <time>2015-12-11T11:50:01Z</time>
      </trkpt>
      <trkpt lat="45.5659" lon="6.06659">
        <ele>1690.51646724</ele>
        <time>2015-12-11T11:50:12Z</time>
      </trkpt>
      <trkpt lat="45.5659" lon="6.06659">
        <ele>1690.51646724</ele>
        <time>2015-12-11T11:50:16Z</time>
      </trkpt>
      <trkpt lat="45.5659" lon="6.0666">
        <ele>1690.51646724</ele>
        <time>2015-12-11T11:50:26Z</time>
      </trkpt>
      <trkpt lat="45.5659" lon="6.0666">
        <ele>1690.51646724</ele>
        <time>2015-12-11T11:50:32Z</time>
      </trkpt>
      <trkpt lat="45.5659" lon="6.0666">
        <ele>1690.51646724</ele>
        <time>2015-12-11T11:50:47Z</time>
      </trkpt>
      <trkpt lat="45.5659" lon="6.0666">
        <ele>1690.51646724</ele>
        <time>2015-12-11T11:50:52Z</time>
      </trkpt>
      <trkpt lat="45.5659" lon="6.0666">
        <ele>1690.51646724</ele>
        <time>2015-12-11T11:51:01Z</time>
      </trkpt>
      <trkpt lat="45.5659" lon="6.0666">
        <ele>1690.51646724</ele>
        <time>2015-12-11T11:51:07Z</time>
      </trkpt>
      <trkpt lat="45.5659" lon="6.0666">
        <ele>1690.51646724</ele>
        <time>2015-12-11T11:51:17Z</time>
      </trkpt>
      <trkpt lat="45.5659" lon="6.0666">
        <ele>1690.51646724</ele>
        <time>2015-12-11T11:51:21Z</time>
      </trkpt>
      <trkpt lat="45.5659" lon="6.0666">
        <ele>1690.51646724</ele>
        <time>2015-12-11T11:51:32Z</time>
      </trkpt>
      <trkpt lat="45.5659" lon="6.0666">
        <ele>1690.51646724</ele>
        <time>2015-12-11T11:51:37Z</time>
      </trkpt>
      <trkpt lat="45.5659" lon="6.0666">
        <ele>1690.51646724</ele>
        <time>2015-12-11T11:51:46Z</time>
      </trkpt>
      <trkpt lat="45.5659" lon="6.0666">
        <ele>1690.51646724</ele>
        <time>2015-12-11T11:51:52Z</time>
      </trkpt>
      <trkpt lat="45.5659" lon="6.0666">
        <ele>1690.51646724</ele>
        <time>2015-12-11T11:52:02Z</time>
      </trkpt>
      <trkpt lat="45.5659" lon="6.0666">
        <ele>1690.51646724</ele>
        <time>2015-12-11T11:52:06Z</time>
      </trkpt>
      <trkpt lat="45.5659" lon="6.0666">
        <ele>1690.51646724</ele>
        <time>2015-12-11T11:52:16Z</time>
      </trkpt>
      <trkpt lat="45.5659" lon="6.0666">
        <ele>1690.51646724</ele>
        <time>2015-12-11T11:52:22Z</time>
      </trkpt>
      <trkpt lat="45.5659" lon="6.0666">
        <ele>1690.51646724</ele>
        <time>2015-12-11T11:52:31Z</time>
      </trkpt>
      <trkpt lat="45.5659" lon="6.06661">
        <ele>1690.51646724</ele>
        <time>2015-12-11T11:52:36Z</time>
      </trkpt>
      <trkpt lat="45.5659" lon="6.06661">
        <ele>1690.51646724</ele>
        <time>2015-12-11T11:52:41Z</time>
      </trkpt>
      <trkpt lat="45.5659" lon="6.06661">
        <ele>1690.51646724</ele>
        <time>2015-12-11T11:52:46Z</time>
      </trkpt>
      <trkpt lat="45.5659" lon="6.06661">
        <ele>1690.51646724</ele>
        <time>2015-12-11T11:52:51Z</time>
      </trkpt>
      <trkpt lat="45.5659" lon="6.06661">
        <ele>1690.51646724</ele>
        <time>2015-12-11T11:52:56Z</time>
      </trkpt>
      <trkpt lat="45.5659" lon="6.06661">
        <ele>1690.51646724</ele>
        <time>2015-12-11T11:53:01Z</time>
      </trkpt>
      <trkpt lat="45.5659" lon="6.06661">
        <ele>1690.51646724</ele>
        <time>2015-12-11T11:53:06Z</time>
      </trkpt>
      <trkpt lat="45.5659" lon="6.06661">
        <ele>1690.51646724</ele>
        <time>2015-12-11T11:53:11Z</time>
      </trkpt>
      <trkpt lat="45.56589" lon="6.06662">
        <ele>1690.51646724</ele>
        <time>2015-12-11T11:53:16Z</time>
      </trkpt>
      <trkpt lat="45.56589" lon="6.06662">
        <ele>1690.51646724</ele>
        <time>2015-12-11T11:53:27Z</time>
      </trkpt>
      <trkpt lat="45.56589" lon="6.06662">
        <ele>1690.51646724</ele>
        <time>2015-12-11T11:53:31Z</time>
      </trkpt>
      <trkpt lat="45.56589" lon="6.06662">
        <ele>1690.51646724</ele>
        <time>2015-12-11T11:53:41Z</time>
      </trkpt>
      <trkpt lat="45.56589" lon="6.06662">
        <ele>1690.51646724</ele>
        <time>2015-12-11T11:53:47Z</time>
      </trkpt>
      <trkpt lat="45.56589" lon="6.06662">
        <ele>1690.51646724</ele>
        <time>2015-12-11T11:53:57Z</time>
      </trkpt>
      <trkpt lat="45.56589" lon="6.06662">
        <ele>1690.51646724</ele>
        <time>2015-12-11T11:54:01Z</time>
      </trkpt>
      <trkpt lat="45.56589" lon="6.06662">
        <ele>1690.51646724</ele>
        <time>2015-12-11T11:54:12Z</time>
      </trkpt>
      <trkpt lat="45.56589" lon="6.06662">
        <ele>1690.51646724</ele>
        <time>2015-12-11T11:54:17Z</time>
      </trkpt>
      <trkpt lat="45.56589" lon="6.06661">
        <ele>1690.51646724</ele>
        <time>2015-12-11T11:54:27Z</time>
      </trkpt>
      <trkpt lat="45.56588" lon="6.06661">
        <ele>1690.51646724</ele>
        <time>2015-12-11T11:54:31Z</time>
      </trkpt>
      <trkpt lat="45.56588" lon="6.06661">
        <ele>1690.648106977</ele>
        <time>2015-12-11T11:54:46Z</time>
      </trkpt>
      <trkpt lat="45.56588" lon="6.06661">
        <ele>1690.648106977</ele>
        <time>2015-12-11T11:54:51Z</time>
      </trkpt>
      <trkpt lat="45.56588" lon="6.06663">
        <ele>1690.648106977</ele>
        <time>2015-12-11T11:55:01Z</time>
      </trkpt>
      <trkpt lat="45.56588" lon="6.06663">
        <ele>1690.648106977</ele>
        <time>2015-12-11T11:55:06Z</time>
      </trkpt>
      <trkpt lat="45.56588" lon="6.06662">
        <ele>1690.648106977</ele>
        <time>2015-12-11T11:55:17Z</time>
      </trkpt>
      <trkpt lat="45.56588" lon="6.06663">
        <ele>1690.648106977</ele>
        <time>2015-12-11T11:55:21Z</time>
      </trkpt>
      <trkpt lat="45.56588" lon="6.06663">
        <ele>1690.648106977</ele>
        <time>2015-12-11T11:55:31Z</time>
      </trkpt>
      <trkpt lat="45.56588" lon="6.06663">
        <ele>1690.648106977</ele>
        <time>2015-12-11T11:55:36Z</time>
      </trkpt>
      <trkpt lat="45.56588" lon="6.06663">
        <ele>1690.648106977</ele>
        <time>2015-12-11T11:55:47Z</time>
      </trkpt>
      <trkpt lat="45.56588" lon="6.06663">
        <ele>1690.648106977</ele>
        <time>2015-12-11T11:55:52Z</time>
      </trkpt>
      <trkpt lat="45.56588" lon="6.06662">
        <ele>1690.648106977</ele>
        <time>2015-12-11T11:56:02Z</time>
      </trkpt>
      <trkpt lat="45.56588" lon="6.06662">
        <ele>1690.648106977</ele>
        <time>2015-12-11T11:56:06Z</time>
      </trkpt>
      <trkpt lat="45.56588" lon="6.06662">
        <ele>1690.648106977</ele>
        <time>2015-12-11T11:56:22Z</time>
      </trkpt>
      <trkpt lat="45.56588" lon="6.06662">
        <ele>1690.648106977</ele>
        <time>2015-12-11T11:56:27Z</time>
      </trkpt>
      <trkpt lat="45.56588" lon="6.06662">
        <ele>1690.648106977</ele>
        <time>2015-12-11T11:56:37Z</time>
      </trkpt>
      <trkpt lat="45.56588" lon="6.06662">
        <ele>1690.648106977</ele>
        <time>2015-12-11T11:56:41Z</time>
      </trkpt>
      <trkpt lat="45.56588" lon="6.06662">
        <ele>1690.648106977</ele>
        <time>2015-12-11T11:56:52Z</time>
      </trkpt>
      <trkpt lat="45.56588" lon="6.06662">
        <ele>1690.648106977</ele>
        <time>2015-12-11T11:56:57Z</time>
      </trkpt>
      <trkpt lat="45.56588" lon="6.06662">
        <ele>1690.648106977</ele>
        <time>2015-12-11T11:57:06Z</time>
      </trkpt>
      <trkpt lat="45.56588" lon="6.06662">
        <ele>1690.648106977</ele>
        <time>2015-12-11T11:57:11Z</time>
      </trkpt>
      <trkpt lat="45.56588" lon="6.06662">
        <ele>1690.648106977</ele>
        <time>2015-12-11T11:57:21Z</time>
      </trkpt>
      <trkpt lat="45.56588" lon="6.06662">
        <ele>1690.648106977</ele>
        <time>2015-12-11T11:57:27Z</time>
      </trkpt>
      <trkpt lat="45.56588" lon="6.06663">
        <ele>1690.648106977</ele>
        <time>2015-12-11T11:57:36Z</time>
      </trkpt>
      <trkpt lat="45.56586" lon="6.06661">
        <ele>1690.648106977</ele>
        <time>2015-12-11T11:57:42Z</time>
      </trkpt>
      <trkpt lat="45.56586" lon="6.06661">
        <ele>1690.648106977</ele>
        <time>2015-12-11T11:57:52Z</time>
      </trkpt>
      <trkpt lat="45.56586" lon="6.06661">
        <ele>1690.648106977</ele>
        <time>2015-12-11T11:57:56Z</time>
      </trkpt>
      <trkpt lat="45.56586" lon="6.06662">
        <ele>1690.648106977</ele>
        <time>2015-12-11T11:58:07Z</time>
      </trkpt>
      <trkpt lat="45.56586" lon="6.06662">
        <ele>1690.648106977</ele>
        <time>2015-12-11T11:58:12Z</time>
      </trkpt>
      <trkpt lat="45.56587" lon="6.06662">
        <ele>1690.648106977</ele>
        <time>2015-12-11T11:58:22Z</time>
      </trkpt>
      <trkpt lat="45.56587" lon="6.06662">
        <ele>1690.648106977</ele>
        <time>2015-12-11T11:58:26Z</time>
      </trkpt>
      <trkpt lat="45.56587" lon="6.06662">
        <ele>1690.648106977</ele>
        <time>2015-12-11T11:58:42Z</time>
      </trkpt>
      <trkpt lat="45.56587" lon="6.06662">
        <ele>1690.648106977</ele>
        <time>2015-12-11T11:58:47Z</time>
      </trkpt>
      <trkpt lat="45.56587" lon="6.06662">
        <ele>1690.648106977</ele>
        <time>2015-12-11T11:58:57Z</time>
      </trkpt>
      <trkpt lat="45.56587" lon="6.06662">
        <ele>1690.648106977</ele>
        <time>2015-12-11T11:59:01Z</time>
      </trkpt>
      <trkpt lat="45.56587" lon="6.06662">
        <ele>1690.648106977</ele>
        <time>2015-12-11T11:59:11Z</time>
      </trkpt>
      <trkpt lat="45.56587" lon="6.06662">
        <ele>1690.648106977</ele>
        <time>2015-12-11T11:59:16Z</time>
      </trkpt>
      <trkpt lat="45.56587" lon="6.06662">
        <ele>1690.648106977</ele>
        <time>2015-12-11T11:59:27Z</time>
      </trkpt>
      <trkpt lat="45.56587" lon="6.06662">
        <ele>1690.648106977</ele>
        <time>2015-12-11T11:59:31Z</time>
      </trkpt>
      <trkpt lat="45.56587" lon="6.06662">
        <ele>1690.648106977</ele>
        <time>2015-12-11T11:59:41Z</time>
      </trkpt>
      <trkpt lat="45.56587" lon="6.06662">
        <ele>1690.648106977</ele>
        <time>2015-12-11T11:59:47Z</time>
      </trkpt>
      <trkpt lat="45.56587" lon="6.06662">
        <ele>1690.648106977</ele>
        <time>2015-12-11T11:59:56Z</time>
      </trkpt>
      <trkpt lat="45.56587" lon="6.06662">
        <ele>1690.648106977</ele>
        <time>2015-12-11T12:00:01Z</time>
      </trkpt>
      <trkpt lat="45.56587" lon="6.06662">
        <ele>1690.648106977</ele>
        <time>2015-12-11T12:00:12Z</time>
      </trkpt>
      <trkpt lat="45.56587" lon="6.06662">
        <ele>1690.648106977</ele>
        <time>2015-12-11T12:00:17Z</time>
      </trkpt>
      <trkpt lat="45.56587" lon="6.06662">
        <ele>1690.648106977</ele>
        <time>2015-12-11T12:00:27Z</time>
      </trkpt>
      <trkpt lat="45.56587" lon="6.06662">
        <ele>1690.648106977</ele>
        <time>2015-12-11T12:00:31Z</time>
      </trkpt>
      <trkpt lat="45.56587" lon="6.0666">
        <ele>1690.201156024</ele>
        <time>2015-12-11T12:00:42Z</time>
      </trkpt>
      <trkpt lat="45.56587" lon="6.0666">
        <ele>1690.201156024</ele>
        <time>2015-12-11T12:00:46Z</time>
      </trkpt>
      <trkpt lat="45.56587" lon="6.0666">
        <ele>1690.201156024</ele>
        <time>2015-12-11T12:00:56Z</time>
      </trkpt>
      <trkpt lat="45.56587" lon="6.0666">
        <ele>1690.201156024</ele>
        <time>2015-12-11T12:01:02Z</time>
      </trkpt>
      <trkpt lat="45.56587" lon="6.0666">
        <ele>1690.201156024</ele>
        <time>2015-12-11T12:01:16Z</time>
      </trkpt>
      <trkpt lat="45.56588" lon="6.0666">
        <ele>1690.201156024</ele>
        <time>2015-12-11T12:01:21Z</time>
      </trkpt>
      <trkpt lat="45.56588" lon="6.06661">
        <ele>1690.201156024</ele>
        <time>2015-12-11T12:01:31Z</time>
      </trkpt>
      <trkpt lat="45.56587" lon="6.06661">
        <ele>1690.201156024</ele>
        <time>2015-12-11T12:01:36Z</time>
      </trkpt>
      <trkpt lat="45.56587" lon="6.06661">
        <ele>1690.201156024</ele>
        <time>2015-12-11T12:01:46Z</time>
      </trkpt>
      <trkpt lat="45.56587" lon="6.06661">
        <ele>1690.201156024</ele>
        <time>2015-12-11T12:01:52Z</time>
      </trkpt>
      <trkpt lat="45.56587" lon="6.06661">
        <ele>1690.201156024</ele>
        <time>2015-12-11T12:02:02Z</time>
      </trkpt>
      <trkpt lat="45.56587" lon="6.06661">
        <ele>1690.201156024</ele>
        <time>2015-12-11T12:02:06Z</time>
      </trkpt>
      <trkpt lat="45.56587" lon="6.06661">
        <ele>1690.201156024</ele>
        <time>2015-12-11T12:02:16Z</time>
      </trkpt>
      <trkpt lat="45.56587" lon="6.06661">
        <ele>1690.201156024</ele>
        <time>2015-12-11T12:02:22Z</time>
      </trkpt>
      <trkpt lat="45.56587" lon="6.06662">
        <ele>1690.201156024</ele>
        <time>2015-12-11T12:02:31Z</time>
      </trkpt>
      <trkpt lat="45.56587" lon="6.06661">
        <ele>1690.201156024</ele>
        <time>2015-12-11T12:02:36Z</time>
      </trkpt>
      <trkpt lat="45.56587" lon="6.06662">
        <ele>1690.201156024</ele>
        <time>2015-12-11T12:02:46Z</time>
      </trkpt>
      <trkpt lat="45.56587" lon="6.06662">
        <ele>1690.201156024</ele>
        <time>2015-12-11T12:02:52Z</time>
      </trkpt>
      <trkpt lat="45.56587" lon="6.06662">
        <ele>1690.201156024</ele>
        <time>2015-12-11T12:03:01Z</time>
      </trkpt>
      <trkpt lat="45.56587" lon="6.06662">
        <ele>1690.201156024</ele>
        <time>2015-12-11T12:03:07Z</time>
      </trkpt>
      <trkpt lat="45.56587" lon="6.06662">
        <ele>1690.201156024</ele>
        <time>2015-12-11T12:03:17Z</time>
      </trkpt>
      <trkpt lat="45.56587" lon="6.06662">
        <ele>1690.201156024</ele>
        <time>2015-12-11T12:03:22Z</time>
      </trkpt>
      <trkpt lat="45.56587" lon="6.06662">
        <ele>1690.201156024</ele>
        <time>2015-12-11T12:03:31Z</time>
      </trkpt>
      <trkpt lat="45.56587" lon="6.06662">
        <ele>1690.201156024</ele>
        <time>2015-12-11T12:03:37Z</time>
      </trkpt>
      <trkpt lat="45.56587" lon="6.06662">
        <ele>1690.201156024</ele>
        <time>2015-12-11T12:03:46Z</time>
      </trkpt>
      <trkpt lat="45.56587" lon="6.06662">
        <ele>1690.201156024</ele>
        <time>2015-12-11T12:03:52Z</time>
      </trkpt>
      <trkpt lat="45.56587" lon="6.06662">
        <ele>1690.201156024</ele>
        <time>2015-12-11T12:04:02Z</time>
      </trkpt>
      <trkpt lat="45.56587" lon="6.06662">
        <ele>1690.201156024</ele>
        <time>2015-12-11T12:04:06Z</time>
      </trkpt>
      <trkpt lat="45.56587" lon="6.06662">
        <ele>1690.201156024</ele>
        <time>2015-12-11T12:04:17Z</time>
      </trkpt>
      <trkpt lat="45.56587" lon="6.06662">
        <ele>1690.201156024</ele>
        <time>2015-12-11T12:04:21Z</time>
      </trkpt>
      <trkpt lat="45.56587" lon="6.06662">
        <ele>1690.201156024</ele>
        <time>2015-12-11T12:04:36Z</time>
      </trkpt>
      <trkpt lat="45.56587" lon="6.06662">
        <ele>1690.201156024</ele>
        <time>2015-12-11T12:04:47Z</time>
      </trkpt>
      <trkpt lat="45.56587" lon="6.06662">
        <ele>1690.201156024</ele>
        <time>2015-12-11T12:04:52Z</time>
      </trkpt>
      <trkpt lat="45.56587" lon="6.06662">
        <ele>1690.201156024</ele>
        <time>2015-12-11T12:04:57Z</time>
      </trkpt>
      <trkpt lat="45.56588" lon="6.06662">
        <ele>1690.201156024</ele>
        <time>2015-12-11T12:05:07Z</time>
      </trkpt>
      <trkpt lat="45.56588" lon="6.06662">
        <ele>1690.201156024</ele>
        <time>2015-12-11T12:05:12Z</time>
      </trkpt>
      <trkpt lat="45.56587" lon="6.0666">
        <ele>1690.201156024</ele>
        <time>2015-12-11T12:05:22Z</time>
      </trkpt>
      <trkpt lat="45.56587" lon="6.0666">
        <ele>1690.201156024</ele>
        <time>2015-12-11T12:05:26Z</time>
      </trkpt>
      <trkpt lat="45.56586" lon="6.06659">
        <ele>1690.201156024</ele>
        <time>2015-12-11T12:05:37Z</time>
      </trkpt>
      <trkpt lat="45.56586" lon="6.06659">
        <ele>1690.201156024</ele>
        <time>2015-12-11T12:05:42Z</time>
      </trkpt>
      <trkpt lat="45.56586" lon="6.06659">
        <ele>1690.201156024</ele>
        <time>2015-12-11T12:05:53Z</time>
      </trkpt>
      <trkpt lat="45.56586" lon="6.06659">
        <ele>1690.201156024</ele>
        <time>2015-12-11T12:05:58Z</time>
      </trkpt>
      <trkpt lat="45.56586" lon="6.06659">
        <ele>1690.201156024</ele>
        <time>2015-12-11T12:06:07Z</time>
      </trkpt>
      <trkpt lat="45.56586" lon="6.06659">
        <ele>1690.201156024</ele>
        <time>2015-12-11T12:06:11Z</time>
      </trkpt>
      <trkpt lat="45.56586" lon="6.06659">
        <ele>1690.201156024</ele>
        <time>2015-12-11T12:06:27Z</time>
      </trkpt>
      <trkpt lat="45.56586" lon="6.06659">
        <ele>1690.201156024</ele>
        <time>2015-12-11T12:06:27Z</time>
      </trkpt>
      <trkpt lat="45.56586" lon="6.0666">
        <ele>1690.201156024</ele>
        <time>2015-12-11T12:06:39Z</time>
      </trkpt>
      <trkpt lat="45.56586" lon="6.0666">
        <ele>1690.201156024</ele>
        <time>2015-12-11T12:06:45Z</time>
      </trkpt>
      <trkpt lat="45.56586" lon="6.0666">
        <ele>1690.201156024</ele>
        <time>2015-12-11T12:07:00Z</time>
      </trkpt>
      <trkpt lat="45.56586" lon="6.0666">
        <ele>1690.201156024</ele>
        <time>2015-12-11T12:07:03Z</time>
      </trkpt>
      <trkpt lat="45.56586" lon="6.0666">
        <ele>1690.201156024</ele>
        <time>2015-12-11T12:07:20Z</time>
      </trkpt>
      <trkpt lat="45.56587" lon="6.0666">
        <ele>1690.201156024</ele>
        <time>2015-12-11T12:07:20Z</time>
      </trkpt>
      <trkpt lat="45.56587" lon="6.0666">
        <ele>1690.201156024</ele>
        <time>2015-12-11T12:07:39Z</time>
      </trkpt>
      <trkpt lat="45.56587" lon="6.0666">
        <ele>1690.201156024</ele>
        <time>2015-12-11T12:08:08Z</time>
      </trkpt>
      <trkpt lat="45.56587" lon="6.0666">
        <ele>1690.201156024</ele>
        <time>2015-12-11T12:08:26Z</time>
      </trkpt>
      <trkpt lat="45.56587" lon="6.0666">
        <ele>1690.201156024</ele>
        <time>2015-12-11T12:08:46Z</time>
      </trkpt>
      <trkpt lat="45.56587" lon="6.0666">
        <ele>1690.201156024</ele>
        <time>2015-12-11T12:09:07Z</time>
      </trkpt>
      <trkpt lat="45.56587" lon="6.0666">
        <ele>1690.201156024</ele>
        <time>2015-12-11T12:09:38Z</time>
      </trkpt>
      <trkpt lat="45.56587" lon="6.0666">
        <ele>1690.201156024</ele>
        <time>2015-12-11T12:09:41Z</time>
      </trkpt>
      <trkpt lat="45.56587" lon="6.0666">
        <ele>1690.201156024</ele>
        <time>2015-12-11T12:09:55Z</time>
      </trkpt>
      <trkpt lat="45.56587" lon="6.0666">
        <ele>1690.201156024</ele>
        <time>2015-12-11T12:10:08Z</time>
      </trkpt>
      <trkpt lat="45.56587" lon="6.0666">
        <ele>1690.201156024</ele>
        <time>2015-12-11T12:10:11Z</time>
      </trkpt>
      <trkpt lat="45.56587" lon="6.0666">
        <ele>1690.201156024</ele>
        <time>2015-12-11T12:10:39Z</time>
      </trkpt>
      <trkpt lat="45.56588" lon="6.06659">
        <ele>1690.201156024</ele>
        <time>2015-12-11T12:10:41Z</time>
      </trkpt>
      <trkpt lat="45.56589" lon="6.06661">
        <ele>1690.201156024</ele>
        <time>2015-12-11T12:10:56Z</time>
      </trkpt>
      <trkpt lat="45.56589" lon="6.06661">
        <ele>1690.201156024</ele>
        <time>2015-12-11T12:11:01Z</time>
      </trkpt>
      <trkpt lat="45.56589" lon="6.06661">
        <ele>1690.201156024</ele>
        <time>2015-12-11T12:11:11Z</time>
      </trkpt>
      <trkpt lat="45.56589" lon="6.06661">
        <ele>1690.201156024</ele>
        <time>2015-12-11T12:11:16Z</time>
      </trkpt>
      <trkpt lat="45.56589" lon="6.06662">
        <ele>1690.201156024</ele>
        <time>2015-12-11T12:11:21Z</time>
      </trkpt>
      <trkpt lat="45.56589" lon="6.06661">
        <ele>1690.201156024</ele>
        <time>2015-12-11T12:11:26Z</time>
      </trkpt>
      <trkpt lat="45.56589" lon="6.06661">
        <ele>1690.201156024</ele>
        <time>2015-12-11T12:11:36Z</time>
      </trkpt>
      <trkpt lat="45.56589" lon="6.06661">
        <ele>1690.201156024</ele>
        <time>2015-12-11T12:11:41Z</time>
      </trkpt>
      <trkpt lat="45.56589" lon="6.06661">
        <ele>1690.201156024</ele>
        <time>2015-12-11T12:11:46Z</time>
      </trkpt>
      <trkpt lat="45.56589" lon="6.06661">
        <ele>1690.201156024</ele>
        <time>2015-12-11T12:11:56Z</time>
      </trkpt>
      <trkpt lat="45.5659" lon="6.0666">
        <ele>1690.091160081</ele>
        <time>2015-12-11T12:12:01Z</time>
      </trkpt>
      <trkpt lat="45.56591" lon="6.06659">
        <ele>1690.091160081</ele>
        <time>2015-12-11T12:12:11Z</time>
      </trkpt>
      <trkpt lat="45.56591" lon="6.06659">
        <ele>1690.091160081</ele>
        <time>2015-12-11T12:12:18Z</time>
      </trkpt>
      <trkpt lat="45.56591" lon="6.06659">
        <ele>1690.091160081</ele>
        <time>2015-12-11T12:12:26Z</time>
      </trkpt>
      <trkpt lat="45.56591" lon="6.06659">
        <ele>1690.091160081</ele>
        <time>2015-12-11T12:12:31Z</time>
      </trkpt>
      <trkpt lat="45.56591" lon="6.0666">
        <ele>1690.091160081</ele>
        <time>2015-12-11T12:12:41Z</time>
      </trkpt>
      <trkpt lat="45.56591" lon="6.0666">
        <ele>1690.091160081</ele>
        <time>2015-12-11T12:12:46Z</time>
      </trkpt>
      <trkpt lat="45.56591" lon="6.0666">
        <ele>1690.091160081</ele>
        <time>2015-12-11T12:13:01Z</time>
      </trkpt>
      <trkpt lat="45.56591" lon="6.0666">
        <ele>1690.091160081</ele>
        <time>2015-12-11T12:13:16Z</time>
      </trkpt>
      <trkpt lat="45.56591" lon="6.0666">
        <ele>1690.091160081</ele>
        <time>2015-12-11T12:13:22Z</time>
      </trkpt>
      <trkpt lat="45.56591" lon="6.0666">
        <ele>1690.091160081</ele>
        <time>2015-12-11T12:13:31Z</time>
      </trkpt>
      <trkpt lat="45.56591" lon="6.0666">
        <ele>1690.091160081</ele>
        <time>2015-12-11T12:13:36Z</time>
      </trkpt>
      <trkpt lat="45.56591" lon="6.0666">
        <ele>1690.091160081</ele>
        <time>2015-12-11T12:13:46Z</time>
      </trkpt>
      <trkpt lat="45.56591" lon="6.0666">
        <ele>1690.091160081</ele>
        <time>2015-12-11T12:13:52Z</time>
      </trkpt>
      <trkpt lat="45.56591" lon="6.0666">
        <ele>1690.091160081</ele>
        <time>2015-12-11T12:14:01Z</time>
      </trkpt>
      <trkpt lat="45.56591" lon="6.0666">
        <ele>1690.091160081</ele>
        <time>2015-12-11T12:14:07Z</time>
      </trkpt>
      <trkpt lat="45.56591" lon="6.06661">
        <ele>1690.091160081</ele>
        <time>2015-12-11T12:14:17Z</time>
      </trkpt>
      <trkpt lat="45.56592" lon="6.06661">
        <ele>1690.091160081</ele>
        <time>2015-12-11T12:14:22Z</time>
      </trkpt>
      <trkpt lat="45.56592" lon="6.06661">
        <ele>1690.091160081</ele>
        <time>2015-12-11T12:14:31Z</time>
      </trkpt>
      <trkpt lat="45.56592" lon="6.06661">
        <ele>1690.091160081</ele>
        <time>2015-12-11T12:14:37Z</time>
      </trkpt>
      <trkpt lat="45.56592" lon="6.06662">
        <ele>1690.091160081</ele>
        <time>2015-12-11T12:14:46Z</time>
      </trkpt>
      <trkpt lat="45.56592" lon="6.06663">
        <ele>1690.091160081</ele>
        <time>2015-12-11T12:14:51Z</time>
      </trkpt>
      <trkpt lat="45.56592" lon="6.06663">
        <ele>1690.091160081</ele>
        <time>2015-12-11T12:15:08Z</time>
      </trkpt>
      <trkpt lat="45.56592" lon="6.06663">
        <ele>1690.091160081</ele>
        <time>2015-12-11T12:15:11Z</time>
      </trkpt>
      <trkpt lat="45.56592" lon="6.06663">
        <ele>1690.091160081</ele>
        <time>2015-12-11T12:15:16Z</time>
      </trkpt>
      <trkpt lat="45.56592" lon="6.06663">
        <ele>1690.091160081</ele>
        <time>2015-12-11T12:15:21Z</time>
      </trkpt>
      <trkpt lat="45.56592" lon="6.06663">
        <ele>1690.091160081</ele>
        <time>2015-12-11T12:15:26Z</time>
      </trkpt>
      <trkpt lat="45.56592" lon="6.06663">
        <ele>1690.091160081</ele>
        <time>2015-12-11T12:15:37Z</time>
      </trkpt>
      <trkpt lat="45.56592" lon="6.06663">
        <ele>1690.091160081</ele>
        <time>2015-12-11T12:15:41Z</time>
      </trkpt>
      <trkpt lat="45.56592" lon="6.06663">
        <ele>1690.091160081</ele>
        <time>2015-12-11T12:15:51Z</time>
      </trkpt>
      <trkpt lat="45.56591" lon="6.06663">
        <ele>1690.091160081</ele>
        <time>2015-12-11T12:15:56Z</time>
      </trkpt>
      <trkpt lat="45.56591" lon="6.06662">
        <ele>1690.091160081</ele>
        <time>2015-12-11T12:16:07Z</time>
      </trkpt>
      <trkpt lat="45.56591" lon="6.06662">
        <ele>1690.091160081</ele>
        <time>2015-12-11T12:16:12Z</time>
      </trkpt>
      <trkpt lat="45.56591" lon="6.06662">
        <ele>1690.091160081</ele>
        <time>2015-12-11T12:16:22Z</time>
      </trkpt>
      <trkpt lat="45.56591" lon="6.06662">
        <ele>1690.091160081</ele>
        <time>2015-12-11T12:16:26Z</time>
      </trkpt>
      <trkpt lat="45.56591" lon="6.06662">
        <ele>1690.091160081</ele>
        <time>2015-12-11T12:16:37Z</time>
      </trkpt>
      <trkpt lat="45.56591" lon="6.06662">
        <ele>1690.091160081</ele>
        <time>2015-12-11T12:16:41Z</time>
      </trkpt>
      <trkpt lat="45.56591" lon="6.06662">
        <ele>1690.091160081</ele>
        <time>2015-12-11T12:16:56Z</time>
      </trkpt>
      <trkpt lat="45.56591" lon="6.06662">
        <ele>1690.091160081</ele>
        <time>2015-12-11T12:17:01Z</time>
      </trkpt>
      <trkpt lat="45.56591" lon="6.06662">
        <ele>1690.091160081</ele>
        <time>2015-12-11T12:17:12Z</time>
      </trkpt>
      <trkpt lat="45.56591" lon="6.06662">
        <ele>1690.091160081</ele>
        <time>2015-12-11T12:17:17Z</time>
      </trkpt>
      <trkpt lat="45.56591" lon="6.06662">
        <ele>1690.091160081</ele>
        <time>2015-12-11T12:17:26Z</time>
      </trkpt>
      <trkpt lat="45.56591" lon="6.06662">
        <ele>1690.091160081</ele>
        <time>2015-12-11T12:17:31Z</time>
      </trkpt>
      <trkpt lat="45.56591" lon="6.06662">
        <ele>1690.091160081</ele>
        <time>2015-12-11T12:17:42Z</time>
      </trkpt>
      <trkpt lat="45.56591" lon="6.06662">
        <ele>1690.091160081</ele>
        <time>2015-12-11T12:17:46Z</time>
      </trkpt>
      <trkpt lat="45.56591" lon="6.06662">
        <ele>1690.091160081</ele>
        <time>2015-12-11T12:18:01Z</time>
      </trkpt>
      <trkpt lat="45.56591" lon="6.06662">
        <ele>1690.091160081</ele>
        <time>2015-12-11T12:18:17Z</time>
      </trkpt>
      <trkpt lat="45.56591" lon="6.06662">
        <ele>1690.091160081</ele>
        <time>2015-12-11T12:18:22Z</time>
      </trkpt>
      <trkpt lat="45.56591" lon="6.06662">
        <ele>1690.091160081</ele>
        <time>2015-12-11T12:18:27Z</time>
      </trkpt>
      <trkpt lat="45.56591" lon="6.06662">
        <ele>1690.091160081</ele>
        <time>2015-12-11T12:18:31Z</time>
      </trkpt>
      <trkpt lat="45.56592" lon="6.06661">
        <ele>1690.091160081</ele>
        <time>2015-12-11T12:18:36Z</time>
      </trkpt>
      <trkpt lat="45.56592" lon="6.06661">
        <ele>1690.091160081</ele>
        <time>2015-12-11T12:18:46Z</time>
      </trkpt>
      <trkpt lat="45.56592" lon="6.06661">
        <ele>1690.091160081</ele>
        <time>2015-12-11T12:18:51Z</time>
      </trkpt>
      <trkpt lat="45.56592" lon="6.06661">
        <ele>1690.091160081</ele>
        <time>2015-12-11T12:18:56Z</time>
      </trkpt>
      <trkpt lat="45.56592" lon="6.06661">
        <ele>1690.091160081</ele>
        <time>2015-12-11T12:19:06Z</time>
      </trkpt>
      <trkpt lat="45.56592" lon="6.06661">
        <ele>1690.091160081</ele>
        <time>2015-12-11T12:19:11Z</time>
      </trkpt>
      <trkpt lat="45.56592" lon="6.06661">
        <ele>1690.091160081</ele>
        <time>2015-12-11T12:19:16Z</time>
      </trkpt>
      <trkpt lat="45.56592" lon="6.06661">
        <ele>1690.091160081</ele>
        <time>2015-12-11T12:19:21Z</time>
      </trkpt>
      <trkpt lat="45.56592" lon="6.06661">
        <ele>1690.091160081</ele>
        <time>2015-12-11T12:19:27Z</time>
      </trkpt>
      <trkpt lat="45.56592" lon="6.06661">
        <ele>1690.091160081</ele>
        <time>2015-12-11T12:19:31Z</time>
      </trkpt>
      <trkpt lat="45.56592" lon="6.06661">
        <ele>1690.091160081</ele>
        <time>2015-12-11T12:19:37Z</time>
      </trkpt>
      <trkpt lat="45.56592" lon="6.06661">
        <ele>1690.091160081</ele>
        <time>2015-12-11T12:19:41Z</time>
      </trkpt>
      <trkpt lat="45.56592" lon="6.06661">
        <ele>1690.091160081</ele>
        <time>2015-12-11T12:19:53Z</time>
      </trkpt>
      <trkpt lat="45.56592" lon="6.06661">
        <ele>1690.091160081</ele>
        <time>2015-12-11T12:19:59Z</time>
      </trkpt>
      <trkpt lat="45.56592" lon="6.06661">
        <ele>1690.091160081</ele>
        <time>2015-12-11T12:20:01Z</time>
      </trkpt>
      <trkpt lat="45.56592" lon="6.06661">
        <ele>1690.091160081</ele>
        <time>2015-12-11T12:20:08Z</time>
      </trkpt>
      <trkpt lat="45.56592" lon="6.06661">
        <ele>1690.091160081</ele>
        <time>2015-12-11T12:20:11Z</time>
      </trkpt>
      <trkpt lat="45.56592" lon="6.06661">
        <ele>1690.091160081</ele>
        <time>2015-12-11T12:20:18Z</time>
      </trkpt>
      <trkpt lat="45.56592" lon="6.06661">
        <ele>1690.091160081</ele>
        <time>2015-12-11T12:20:28Z</time>
      </trkpt>
      <trkpt lat="45.56592" lon="6.06661">
        <ele>1690.091160081</ele>
        <time>2015-12-11T12:20:31Z</time>
      </trkpt>
      <trkpt lat="45.56592" lon="6.06661">
        <ele>1690.091160081</ele>
        <time>2015-12-11T12:20:36Z</time>
      </trkpt>
      <trkpt lat="45.56592" lon="6.06661">
        <ele>1690.091160081</ele>
        <time>2015-12-11T12:20:41Z</time>
      </trkpt>
      <trkpt lat="45.56592" lon="6.06661">
        <ele>1690.091160081</ele>
        <time>2015-12-11T12:20:49Z</time>
      </trkpt>
      <trkpt lat="45.56592" lon="6.06661">
        <ele>1690.091160081</ele>
        <time>2015-12-11T12:20:51Z</time>
      </trkpt>
      <trkpt lat="45.56592" lon="6.06661">
        <ele>1690.091160081</ele>
        <time>2015-12-11T12:20:59Z</time>
      </trkpt>
      <trkpt lat="45.56592" lon="6.06661">
        <ele>1690.091160081</ele>
        <time>2015-12-11T12:21:01Z</time>
      </trkpt>
      <trkpt lat="45.56592" lon="6.06661">
        <ele>1690.091160081</ele>
        <time>2015-12-11T12:21:08Z</time>
      </trkpt>
      <trkpt lat="45.56592" lon="6.06661">
        <ele>1690.091160081</ele>
        <time>2015-12-11T12:21:11Z</time>
      </trkpt>
      <trkpt lat="45.56592" lon="6.06661">
        <ele>1690.091160081</ele>
        <time>2015-12-11T12:21:17Z</time>
      </trkpt>
      <trkpt lat="45.56592" lon="6.06661">
        <ele>1690.091160081</ele>
        <time>2015-12-11T12:21:21Z</time>
      </trkpt>
      <trkpt lat="45.56592" lon="6.06661">
        <ele>1690.091160081</ele>
        <time>2015-12-11T12:21:26Z</time>
      </trkpt>
      <trkpt lat="45.56592" lon="6.06661">
        <ele>1690.091160081</ele>
        <time>2015-12-11T12:21:31Z</time>
      </trkpt>
      <trkpt lat="45.56592" lon="6.06661">
        <ele>1690.091160081</ele>
        <time>2015-12-11T12:21:36Z</time>
      </trkpt>
      <trkpt lat="45.56592" lon="6.06661">
        <ele>1690.091160081</ele>
        <time>2015-12-11T12:21:41Z</time>
      </trkpt>
      <trkpt lat="45.56592" lon="6.06661">
        <ele>1690.091160081</ele>
        <time>2015-12-11T12:21:46Z</time>
      </trkpt>
      <trkpt lat="45.56592" lon="6.06661">
        <ele>1690.091160081</ele>
        <time>2015-12-11T12:21:51Z</time>
      </trkpt>
      <trkpt lat="45.56592" lon="6.06661">
        <ele>1690.091160081</ele>
        <time>2015-12-11T12:21:59Z</time>
      </trkpt>
      <trkpt lat="45.56592" lon="6.06661">
        <ele>1690.091160081</ele>
        <time>2015-12-11T12:22:01Z</time>
      </trkpt>
      <trkpt lat="45.56592" lon="6.06661">
        <ele>1690.091160081</ele>
        <time>2015-12-11T12:22:08Z</time>
      </trkpt>
      <trkpt lat="45.56592" lon="6.06661">
        <ele>1690.091160081</ele>
        <time>2015-12-11T12:22:11Z</time>
      </trkpt>
      <trkpt lat="45.56592" lon="6.06661">
        <ele>1690.091160081</ele>
        <time>2015-12-11T12:22:30Z</time>
      </trkpt>
      <trkpt lat="45.56592" lon="6.06661">
        <ele>1690.091160081</ele>
        <time>2015-12-11T12:22:57Z</time>
      </trkpt>
      <trkpt lat="45.56592" lon="6.06661">
        <ele>1690.091160081</ele>
        <time>2015-12-11T12:23:06Z</time>
      </trkpt>
      <trkpt lat="45.56592" lon="6.06661">
        <ele>1690.091160081</ele>
        <time>2015-12-11T12:23:17Z</time>
      </trkpt>
      <trkpt lat="45.56592" lon="6.06661">
        <ele>1690.091160081</ele>
        <time>2015-12-11T12:23:18Z</time>
      </trkpt>
      <trkpt lat="45.56592" lon="6.06661">
        <ele>1690.091160081</ele>
        <time>2015-12-11T12:23:32Z</time>
      </trkpt>
      <trkpt lat="45.56592" lon="6.06661">
        <ele>1690.091160081</ele>
        <time>2015-12-11T12:23:33Z</time>
      </trkpt>
      <trkpt lat="45.56592" lon="6.06661">
        <ele>1690.091160081</ele>
        <time>2015-12-11T12:23:41Z</time>
      </trkpt>
      <trkpt lat="45.56592" lon="6.06661">
        <ele>1690.091160081</ele>
        <time>2015-12-11T12:24:01Z</time>
      </trkpt>
      <trkpt lat="45.56592" lon="6.06661">
        <ele>1690.091160081</ele>
        <time>2015-12-11T12:24:11Z</time>
      </trkpt>
      <trkpt lat="45.56592" lon="6.06661">
        <ele>1690.091160081</ele>
        <time>2015-12-11T12:24:19Z</time>
      </trkpt>
      <trkpt lat="45.56592" lon="6.06661">
        <ele>1690.091160081</ele>
        <time>2015-12-11T12:24:21Z</time>
      </trkpt>
      <trkpt lat="45.56592" lon="6.06661">
        <ele>1690.091160081</ele>
        <time>2015-12-11T12:24:29Z</time>
      </trkpt>
      <trkpt lat="45.56592" lon="6.06661">
        <ele>1690.091160081</ele>
        <time>2015-12-11T12:24:31Z</time>
      </trkpt>
      <trkpt lat="45.56592" lon="6.06661">
        <ele>1690.091160081</ele>
        <time>2015-12-11T12:24:36Z</time>
      </trkpt>
      <trkpt lat="45.56592" lon="6.06661">
        <ele>1690.091160081</ele>
        <time>2015-12-11T12:24:41Z</time>
      </trkpt>
      <trkpt lat="45.56592" lon="6.06661">
        <ele>1690.091160081</ele>
        <time>2015-12-11T12:24:46Z</time>
      </trkpt>
      <trkpt lat="45.56592" lon="6.06661">
        <ele>1690.091160081</ele>
        <time>2015-12-11T12:24:51Z</time>
      </trkpt>
      <trkpt lat="45.56592" lon="6.06661">
        <ele>1690.091160081</ele>
        <time>2015-12-11T12:24:59Z</time>
      </trkpt>
      <trkpt lat="45.56592" lon="6.06661">
        <ele>1690.091160081</ele>
        <time>2015-12-11T12:25:01Z</time>
      </trkpt>
      <trkpt lat="45.56592" lon="6.06661">
        <ele>1690.091160081</ele>
        <time>2015-12-11T12:25:08Z</time>
      </trkpt>
      <trkpt lat="45.56592" lon="6.06661">
        <ele>1690.091160081</ele>
        <time>2015-12-11T12:25:11Z</time>
      </trkpt>
      <trkpt lat="45.56591" lon="6.06662">
        <ele>1690.091160081</ele>
        <time>2015-12-11T12:25:17Z</time>
      </trkpt>
      <trkpt lat="45.56591" lon="6.06661">
        <ele>1690.091160081</ele>
        <time>2015-12-11T12:25:21Z</time>
      </trkpt>
      <trkpt lat="45.56592" lon="6.06661">
        <ele>1690.091160081</ele>
        <time>2015-12-11T12:25:26Z</time>
      </trkpt>
      <trkpt lat="45.56591" lon="6.06662">
        <ele>1690.091160081</ele>
        <time>2015-12-11T12:25:31Z</time>
      </trkpt>
      <trkpt lat="45.56591" lon="6.06661">
        <ele>1690.091160081</ele>
        <time>2015-12-11T12:25:36Z</time>
      </trkpt>
      <trkpt lat="45.56591" lon="6.06661">
        <ele>1690.091160081</ele>
        <time>2015-12-11T12:25:41Z</time>
      </trkpt>
      <trkpt lat="45.56591" lon="6.06661">
        <ele>1690.091160081</ele>
        <time>2015-12-11T12:25:47Z</time>
      </trkpt>
      <trkpt lat="45.56591" lon="6.06661">
        <ele>1689.86830915</ele>
        <time>2015-12-11T12:25:51Z</time>
      </trkpt>
      <trkpt lat="45.56591" lon="6.0666">
        <ele>1689.86830915</ele>
        <time>2015-12-11T12:25:56Z</time>
      </trkpt>
      <trkpt lat="45.56591" lon="6.06661">
        <ele>1689.86830915</ele>
        <time>2015-12-11T12:26:01Z</time>
      </trkpt>
      <trkpt lat="45.56591" lon="6.0666">
        <ele>1689.86830915</ele>
        <time>2015-12-11T12:26:06Z</time>
      </trkpt>
      <trkpt lat="45.56591" lon="6.0666">
        <ele>1689.86830915</ele>
        <time>2015-12-11T12:26:11Z</time>
      </trkpt>
      <trkpt lat="45.56591" lon="6.0666">
        <ele>1689.86830915</ele>
        <time>2015-12-11T12:26:17Z</time>
      </trkpt>
      <trkpt lat="45.56591" lon="6.0666">
        <ele>1689.86830915</ele>
        <time>2015-12-11T12:26:21Z</time>
      </trkpt>
      <trkpt lat="45.56591" lon="6.0666">
        <ele>1689.86830915</ele>
        <time>2015-12-11T12:26:26Z</time>
      </trkpt>
      <trkpt lat="45.56591" lon="6.06657">
        <ele>1689.86830915</ele>
        <time>2015-12-11T12:26:31Z</time>
      </trkpt>
      <trkpt lat="45.5659" lon="6.06658">
        <ele>1689.86830915</ele>
        <time>2015-12-11T12:26:36Z</time>
      </trkpt>
      <trkpt lat="45.56591" lon="6.06659">
        <ele>1689.86830915</ele>
        <time>2015-12-11T12:26:41Z</time>
      </trkpt>
      <trkpt lat="45.56591" lon="6.06659">
        <ele>1689.86830915</ele>
        <time>2015-12-11T12:26:46Z</time>
      </trkpt>
      <trkpt lat="45.56593" lon="6.06659">
        <ele>1689.86830915</ele>
        <time>2015-12-11T12:26:51Z</time>
      </trkpt>
      <trkpt lat="45.56593" lon="6.0666">
        <ele>1689.86830915</ele>
        <time>2015-12-11T12:26:56Z</time>
      </trkpt>
      <trkpt lat="45.56593" lon="6.0666">
        <ele>1689.86830915</ele>
        <time>2015-12-11T12:27:01Z</time>
      </trkpt>
      <trkpt lat="45.56593" lon="6.0666">
        <ele>1689.692431932</ele>
        <time>2015-12-11T12:27:06Z</time>
      </trkpt>
      <trkpt lat="45.56593" lon="6.0666">
        <ele>1689.692431932</ele>
        <time>2015-12-11T12:27:17Z</time>
      </trkpt>
      <trkpt lat="45.56593" lon="6.0666">
        <ele>1689.692431932</ele>
        <time>2015-12-11T12:27:23Z</time>
      </trkpt>
      <trkpt lat="45.56593" lon="6.0666">
        <ele>1689.692431932</ele>
        <time>2015-12-11T12:27:32Z</time>
      </trkpt>
      <trkpt lat="45.56593" lon="6.0666">
        <ele>1689.692431932</ele>
        <time>2015-12-11T12:27:36Z</time>
      </trkpt>
      <trkpt lat="45.56593" lon="6.0666">
        <ele>1689.692431932</ele>
        <time>2015-12-11T12:27:47Z</time>
      </trkpt>
      <trkpt lat="45.56593" lon="6.0666">
        <ele>1689.692431932</ele>
        <time>2015-12-11T12:27:52Z</time>
      </trkpt>
      <trkpt lat="45.56593" lon="6.0666">
        <ele>1689.692431932</ele>
        <time>2015-12-11T12:28:01Z</time>
      </trkpt>
      <trkpt lat="45.56593" lon="6.0666">
        <ele>1689.692431932</ele>
        <time>2015-12-11T12:28:06Z</time>
      </trkpt>
      <trkpt lat="45.56593" lon="6.0666">
        <ele>1689.692431932</ele>
        <time>2015-12-11T12:28:16Z</time>
      </trkpt>
      <trkpt lat="45.56593" lon="6.0666">
        <ele>1689.692431932</ele>
        <time>2015-12-11T12:28:22Z</time>
      </trkpt>
      <trkpt lat="45.56593" lon="6.0666">
        <ele>1689.692431932</ele>
        <time>2015-12-11T12:28:32Z</time>
      </trkpt>
      <trkpt lat="45.56593" lon="6.0666">
        <ele>1689.692431932</ele>
        <time>2015-12-11T12:28:36Z</time>
      </trkpt>
      <trkpt lat="45.56592" lon="6.0666">
        <ele>1689.692431932</ele>
        <time>2015-12-11T12:28:41Z</time>
      </trkpt>
      <trkpt lat="45.56592" lon="6.0666">
        <ele>1689.692431932</ele>
        <time>2015-12-11T12:28:52Z</time>
      </trkpt>
      <trkpt lat="45.56591" lon="6.06659">
        <ele>1689.692431932</ele>
        <time>2015-12-11T12:28:56Z</time>
      </trkpt>
      <trkpt lat="45.56591" lon="6.0666">
        <ele>1689.692431932</ele>
        <time>2015-12-11T12:29:06Z</time>
      </trkpt>
      <trkpt lat="45.56591" lon="6.06661">
        <ele>1689.692431932</ele>
        <time>2015-12-11T12:29:12Z</time>
      </trkpt>
      <trkpt lat="45.56591" lon="6.06661">
        <ele>1689.692431932</ele>
        <time>2015-12-11T12:29:23Z</time>
      </trkpt>
      <trkpt lat="45.56591" lon="6.06661">
        <ele>1689.692431932</ele>
        <time>2015-12-11T12:29:26Z</time>
      </trkpt>
      <trkpt lat="45.56591" lon="6.06661">
        <ele>1689.692431932</ele>
        <time>2015-12-11T12:29:36Z</time>
      </trkpt>
      <trkpt lat="45.56591" lon="6.06661">
        <ele>1689.692431932</ele>
        <time>2015-12-11T12:29:42Z</time>
      </trkpt>
      <trkpt lat="45.56591" lon="6.06661">
        <ele>1689.692431932</ele>
        <time>2015-12-11T12:29:52Z</time>
      </trkpt>
      <trkpt lat="45.56591" lon="6.06661">
        <ele>1689.692431932</ele>
        <time>2015-12-11T12:29:56Z</time>
      </trkpt>
      <trkpt lat="45.56591" lon="6.06661">
        <ele>1689.692431932</ele>
        <time>2015-12-11T12:30:06Z</time>
      </trkpt>
      <trkpt lat="45.56591" lon="6.06661">
        <ele>1689.692431932</ele>
        <time>2015-12-11T12:30:11Z</time>
      </trkpt>
      <trkpt lat="45.56591" lon="6.06661">
        <ele>1689.692431932</ele>
        <time>2015-12-11T12:30:22Z</time>
      </trkpt>
      <trkpt lat="45.56591" lon="6.06661">
        <ele>1689.692431932</ele>
        <time>2015-12-11T12:30:27Z</time>
      </trkpt>
      <trkpt lat="45.56591" lon="6.06661">
        <ele>1689.692431932</ele>
        <time>2015-12-11T12:30:38Z</time>
      </trkpt>
      <trkpt lat="45.56591" lon="6.06661">
        <ele>1689.692431932</ele>
        <time>2015-12-11T12:30:41Z</time>
      </trkpt>
      <trkpt lat="45.56591" lon="6.0666">
        <ele>1689.692431932</ele>
        <time>2015-12-11T12:30:52Z</time>
      </trkpt>
      <trkpt lat="45.56591" lon="6.0666">
        <ele>1689.692431932</ele>
        <time>2015-12-11T12:30:57Z</time>
      </trkpt>
      <trkpt lat="45.56591" lon="6.0666">
        <ele>1689.692431932</ele>
        <time>2015-12-11T12:31:11Z</time>
      </trkpt>
      <trkpt lat="45.56591" lon="6.0666">
        <ele>1689.692431932</ele>
        <time>2015-12-11T12:31:17Z</time>
      </trkpt>
      <trkpt lat="45.56591" lon="6.0666">
        <ele>1689.692431932</ele>
        <time>2015-12-11T12:31:27Z</time>
      </trkpt>
      <trkpt lat="45.56591" lon="6.0666">
        <ele>1689.692431932</ele>
        <time>2015-12-11T12:31:41Z</time>
      </trkpt>
      <trkpt lat="45.56591" lon="6.0666">
        <ele>1689.692431932</ele>
        <time>2015-12-11T12:31:47Z</time>
      </trkpt>
      <trkpt lat="45.56591" lon="6.0666">
        <ele>1689.692431932</ele>
        <time>2015-12-11T12:31:56Z</time>
      </trkpt>
      <trkpt lat="45.56591" lon="6.06661">
        <ele>1689.692431932</ele>
        <time>2015-12-11T12:32:02Z</time>
      </trkpt>
      <trkpt lat="45.56591" lon="6.06661">
        <ele>1689.692431932</ele>
        <time>2015-12-11T12:32:11Z</time>
      </trkpt>
      <trkpt lat="45.56591" lon="6.06661">
        <ele>1689.692431932</ele>
        <time>2015-12-11T12:32:17Z</time>
      </trkpt>
      <trkpt lat="45.56591" lon="6.06661">
        <ele>1689.692431932</ele>
        <time>2015-12-11T12:32:27Z</time>
      </trkpt>
      <trkpt lat="45.56591" lon="6.06661">
        <ele>1689.692431932</ele>
        <time>2015-12-11T12:32:31Z</time>
      </trkpt>
      <trkpt lat="45.56591" lon="6.06661">
        <ele>1689.692431932</ele>
        <time>2015-12-11T12:32:41Z</time>
      </trkpt>
      <trkpt lat="45.56591" lon="6.06661">
        <ele>1689.692431932</ele>
        <time>2015-12-11T12:32:47Z</time>
      </trkpt>
      <trkpt lat="45.56591" lon="6.06661">
        <ele>1689.692431932</ele>
        <time>2015-12-11T12:32:57Z</time>
      </trkpt>
      <trkpt lat="45.56591" lon="6.06661">
        <ele>1689.692431932</ele>
        <time>2015-12-11T12:33:01Z</time>
      </trkpt>
      <trkpt lat="45.56591" lon="6.06661">
        <ele>1689.692431932</ele>
        <time>2015-12-11T12:33:12Z</time>
      </trkpt>
      <trkpt lat="45.56591" lon="6.06661">
        <ele>1689.692431932</ele>
        <time>2015-12-11T12:33:17Z</time>
      </trkpt>
      <trkpt lat="45.56591" lon="6.06661">
        <ele>1689.692431932</ele>
        <time>2015-12-11T12:33:26Z</time>
      </trkpt>
      <trkpt lat="45.56591" lon="6.06661">
        <ele>1689.692431932</ele>
        <time>2015-12-11T12:33:31Z</time>
      </trkpt>
      <trkpt lat="45.56591" lon="6.06661">
        <ele>1689.692431932</ele>
        <time>2015-12-11T12:33:42Z</time>
      </trkpt>
      <trkpt lat="45.56591" lon="6.06661">
        <ele>1689.692431932</ele>
        <time>2015-12-11T12:33:46Z</time>
      </trkpt>
      <trkpt lat="45.56591" lon="6.06661">
        <ele>1689.692431932</ele>
        <time>2015-12-11T12:33:52Z</time>
      </trkpt>
      <trkpt lat="45.56591" lon="6.06661">
        <ele>1689.692431932</ele>
        <time>2015-12-11T12:34:02Z</time>
      </trkpt>
      <trkpt lat="45.56591" lon="6.0666">
        <ele>1689.692431932</ele>
        <time>2015-12-11T12:34:06Z</time>
      </trkpt>
      <trkpt lat="45.56591" lon="6.0666">
        <ele>1689.692431932</ele>
        <time>2015-12-11T12:34:16Z</time>
      </trkpt>
      <trkpt lat="45.56591" lon="6.0666">
        <ele>1689.692431932</ele>
        <time>2015-12-11T12:34:22Z</time>
      </trkpt>
      <trkpt lat="45.56591" lon="6.0666">
        <ele>1689.692431932</ele>
        <time>2015-12-11T12:34:31Z</time>
      </trkpt>
      <trkpt lat="45.56591" lon="6.0666">
        <ele>1689.692431932</ele>
        <time>2015-12-11T12:34:36Z</time>
      </trkpt>
      <trkpt lat="45.56591" lon="6.0666">
        <ele>1689.692431932</ele>
        <time>2015-12-11T12:34:46Z</time>
      </trkpt>
      <trkpt lat="45.5659" lon="6.0666">
        <ele>1689.692431932</ele>
        <time>2015-12-11T12:34:52Z</time>
      </trkpt>
      <trkpt lat="45.5659" lon="6.0666">
        <ele>1689.692431932</ele>
        <time>2015-12-11T12:35:02Z</time>
      </trkpt>
      <trkpt lat="45.5659" lon="6.0666">
        <ele>1689.692431932</ele>
        <time>2015-12-11T12:35:06Z</time>
      </trkpt>
      <trkpt lat="45.5659" lon="6.06659">
        <ele>1689.692431932</ele>
        <time>2015-12-11T12:35:16Z</time>
      </trkpt>
      <trkpt lat="45.5659" lon="6.06661">
        <ele>1689.692431932</ele>
        <time>2015-12-11T12:35:21Z</time>
      </trkpt>
      <trkpt lat="45.56596" lon="6.06675">
        <ele>1688.70252971</ele>
        <time>2015-12-11T12:35:32Z</time>
      </trkpt>
      <trkpt lat="45.56597" lon="6.0668">
        <ele>1688.70252971</ele>
        <time>2015-12-11T12:35:37Z</time>
      </trkpt>
      <trkpt lat="45.566" lon="6.06694">
        <ele>1687.688171445</ele>
        <time>2015-12-11T12:35:46Z</time>
      </trkpt>
      <trkpt lat="45.56601" lon="6.06699">
        <ele>1687.688171445</ele>
        <time>2015-12-11T12:35:51Z</time>
      </trkpt>
      <trkpt lat="45.56604" lon="6.06712">
        <ele>1686.516127946</ele>
        <time>2015-12-11T12:36:01Z</time>
      </trkpt>
      <trkpt lat="45.56606" lon="6.06716">
        <ele>1686.516127946</ele>
        <time>2015-12-11T12:36:07Z</time>
      </trkpt>
      <trkpt lat="45.5661" lon="6.06732">
        <ele>1684.919077262</ele>
        <time>2015-12-11T12:36:21Z</time>
      </trkpt>
      <trkpt lat="45.56613" lon="6.06739">
        <ele>1684.919077262</ele>
        <time>2015-12-11T12:36:26Z</time>
      </trkpt>
      <trkpt lat="45.56617" lon="6.06747">
        <ele>1683.370859198</ele>
        <time>2015-12-11T12:36:37Z</time>
      </trkpt>
      <trkpt lat="45.56619" lon="6.06748">
        <ele>1683.370859198</ele>
        <time>2015-12-11T12:36:41Z</time>
      </trkpt>
      <trkpt lat="45.56624" lon="6.06756">
        <ele>1681.733687812</ele>
        <time>2015-12-11T12:36:52Z</time>
      </trkpt>
      <trkpt lat="45.56624" lon="6.06763">
        <ele>1681.733687812</ele>
        <time>2015-12-11T12:36:57Z</time>
      </trkpt>
      <trkpt lat="45.56628" lon="6.06776">
        <ele>1679.879900049</ele>
        <time>2015-12-11T12:37:07Z</time>
      </trkpt>
      <trkpt lat="45.5663" lon="6.06782">
        <ele>1679.879900049</ele>
        <time>2015-12-11T12:37:12Z</time>
      </trkpt>
      <trkpt lat="45.56636" lon="6.06793">
        <ele>1678.123892418</ele>
        <time>2015-12-11T12:37:22Z</time>
      </trkpt>
      <trkpt lat="45.56639" lon="6.06798">
        <ele>1678.123892418</ele>
        <time>2015-12-11T12:37:26Z</time>
      </trkpt>
      <trkpt lat="45.56644" lon="6.06806">
        <ele>1676.324088408</ele>
        <time>2015-12-11T12:37:36Z</time>
      </trkpt>
      <trkpt lat="45.56647" lon="6.06809">
        <ele>1676.324088408</ele>
        <time>2015-12-11T12:37:41Z</time>
      </trkpt>
      <trkpt lat="45.56649" lon="6.06818">
        <ele>1674.060932517</ele>
        <time>2015-12-11T12:37:52Z</time>
      </trkpt>
      <trkpt lat="45.56648" lon="6.0682">
        <ele>1674.060932517</ele>
        <time>2015-12-11T12:37:57Z</time>
      </trkpt>
      <trkpt lat="45.56649" lon="6.06822">
        <ele>1674.060932517</ele>
        <time>2015-12-11T12:38:07Z</time>
      </trkpt>
      <trkpt lat="45.5665" lon="6.06822">
        <ele>1674.060932517</ele>
        <time>2015-12-11T12:38:12Z</time>
      </trkpt>
      <trkpt lat="45.5665" lon="6.06824">
        <ele>1674.060932517</ele>
        <time>2015-12-11T12:38:27Z</time>
      </trkpt>
      <trkpt lat="45.56651" lon="6.06824">
        <ele>1674.060932517</ele>
        <time>2015-12-11T12:38:31Z</time>
      </trkpt>
      <trkpt lat="45.56654" lon="6.06827">
        <ele>1671.523144904</ele>
        <time>2015-12-11T12:38:41Z</time>
      </trkpt>
      <trkpt lat="45.56653" lon="6.06827">
        <ele>1671.523144904</ele>
        <time>2015-12-11T12:38:46Z</time>
      </trkpt>
      <trkpt lat="45.56654" lon="6.06827">
        <ele>1671.523144904</ele>
        <time>2015-12-11T12:38:57Z</time>
      </trkpt>
      <trkpt lat="45.56656" lon="6.06831">
        <ele>1671.523144904</ele>
        <time>2015-12-11T12:39:01Z</time>
      </trkpt>
      <trkpt lat="45.5666" lon="6.06845">
        <ele>1668.165497302</ele>
        <time>2015-12-11T12:39:12Z</time>
      </trkpt>
      <trkpt lat="45.56664" lon="6.06852">
        <ele>1668.165497302</ele>
        <time>2015-12-11T12:39:17Z</time>
      </trkpt>
      <trkpt lat="45.56657" lon="6.06858">
        <ele>1664.637691295</ele>
        <time>2015-12-11T12:39:26Z</time>
      </trkpt>
      <trkpt lat="45.56652" lon="6.06864">
        <ele>1664.637691295</ele>
        <time>2015-12-11T12:39:31Z</time>
      </trkpt>
      <trkpt lat="45.56644" lon="6.06877">
        <ele>1660.677186713</ele>
        <time>2015-12-11T12:39:42Z</time>
      </trkpt>
      <trkpt lat="45.56642" lon="6.06884">
        <ele>1660.677186713</ele>
        <time>2015-12-11T12:39:46Z</time>
      </trkpt>
      <trkpt lat="45.56635" lon="6.06896">
        <ele>1656.618047639</ele>
        <time>2015-12-11T12:39:57Z</time>
      </trkpt>
      <trkpt lat="45.56632" lon="6.06902">
        <ele>1656.618047639</ele>
        <time>2015-12-11T12:40:01Z</time>
      </trkpt>
      <trkpt lat="45.56628" lon="6.06913">
        <ele>1652.625608143</ele>
        <time>2015-12-11T12:40:12Z</time>
      </trkpt>
      <trkpt lat="45.56627" lon="6.06914">
        <ele>1652.625608143</ele>
        <time>2015-12-11T12:40:17Z</time>
      </trkpt>
      <trkpt lat="45.56627" lon="6.06917">
        <ele>1652.625608143</ele>
        <time>2015-12-11T12:40:21Z</time>
      </trkpt>
      <trkpt lat="45.56625" lon="6.06922">
        <ele>1652.625608143</ele>
        <time>2015-12-11T12:40:27Z</time>
      </trkpt>
      <trkpt lat="45.56624" lon="6.06924">
        <ele>1652.625608143</ele>
        <time>2015-12-11T12:40:32Z</time>
      </trkpt>
      <trkpt lat="45.56623" lon="6.06924">
        <ele>1649.140723579</ele>
        <time>2015-12-11T12:40:37Z</time>
      </trkpt>
      <trkpt lat="45.56624" lon="6.06923">
        <ele>1649.140723579</ele>
        <time>2015-12-11T12:40:42Z</time>
      </trkpt>
      <trkpt lat="45.56624" lon="6.06923">
        <ele>1649.140723579</ele>
        <time>2015-12-11T12:40:47Z</time>
      </trkpt>
      <trkpt lat="45.56624" lon="6.06923">
        <ele>1649.140723579</ele>
        <time>2015-12-11T12:40:51Z</time>
      </trkpt>
      <trkpt lat="45.56624" lon="6.06923">
        <ele>1649.140723579</ele>
        <time>2015-12-11T12:41:02Z</time>
      </trkpt>
      <trkpt lat="45.56624" lon="6.06923">
        <ele>1649.140723579</ele>
        <time>2015-12-11T12:41:07Z</time>
      </trkpt>
      <trkpt lat="45.56624" lon="6.06923">
        <ele>1649.140723579</ele>
        <time>2015-12-11T12:41:17Z</time>
      </trkpt>
      <trkpt lat="45.56624" lon="6.06923">
        <ele>1649.140723579</ele>
        <time>2015-12-11T12:41:21Z</time>
      </trkpt>
      <trkpt lat="45.56624" lon="6.06925">
        <ele>1649.140723579</ele>
        <time>2015-12-11T12:41:31Z</time>
      </trkpt>
      <trkpt lat="45.56623" lon="6.06926">
        <ele>1649.140723579</ele>
        <time>2015-12-11T12:41:37Z</time>
      </trkpt>
      <trkpt lat="45.56623" lon="6.06926">
        <ele>1649.140723579</ele>
        <time>2015-12-11T12:41:46Z</time>
      </trkpt>
      <trkpt lat="45.56623" lon="6.06929">
        <ele>1649.140723579</ele>
        <time>2015-12-11T12:41:52Z</time>
      </trkpt>
      <trkpt lat="45.5662" lon="6.06934">
        <ele>1645.849505369</ele>
        <time>2015-12-11T12:42:01Z</time>
      </trkpt>
      <trkpt lat="45.56618" lon="6.06939">
        <ele>1645.849505369</ele>
        <time>2015-12-11T12:42:06Z</time>
      </trkpt>
      <trkpt lat="45.56612" lon="6.06952">
        <ele>1643.036638488</ele>
        <time>2015-12-11T12:42:17Z</time>
      </trkpt>
      <trkpt lat="45.5661" lon="6.06957">
        <ele>1643.036638488</ele>
        <time>2015-12-11T12:42:21Z</time>
      </trkpt>
      <trkpt lat="45.56605" lon="6.06969">
        <ele>1640.531831563</ele>
        <time>2015-12-11T12:42:32Z</time>
      </trkpt>
      <trkpt lat="45.56603" lon="6.06976">
        <ele>1640.531831563</ele>
        <time>2015-12-11T12:42:37Z</time>
      </trkpt>
      <trkpt lat="45.56604" lon="6.0698">
        <ele>1640.531831563</ele>
        <time>2015-12-11T12:42:41Z</time>
      </trkpt>
      <trkpt lat="45.56604" lon="6.06978">
        <ele>1640.531831563</ele>
        <time>2015-12-11T12:42:52Z</time>
      </trkpt>
      <trkpt lat="45.56604" lon="6.06979">
        <ele>1638.320163632</ele>
        <time>2015-12-11T12:42:57Z</time>
      </trkpt>
      <trkpt lat="45.56604" lon="6.06977">
        <ele>1638.320163632</ele>
        <time>2015-12-11T12:43:07Z</time>
      </trkpt>
      <trkpt lat="45.56604" lon="6.06978">
        <ele>1638.320163632</ele>
        <time>2015-12-11T12:43:12Z</time>
      </trkpt>
      <trkpt lat="45.56604" lon="6.06978">
        <ele>1638.320163632</ele>
        <time>2015-12-11T12:43:22Z</time>
      </trkpt>
      <trkpt lat="45.56604" lon="6.06978">
        <ele>1638.320163632</ele>
        <time>2015-12-11T12:43:26Z</time>
      </trkpt>
      <trkpt lat="45.56604" lon="6.06978">
        <ele>1638.320163632</ele>
        <time>2015-12-11T12:43:36Z</time>
      </trkpt>
      <trkpt lat="45.56604" lon="6.06978">
        <ele>1638.320163632</ele>
        <time>2015-12-11T12:43:41Z</time>
      </trkpt>
      <trkpt lat="45.56604" lon="6.06978">
        <ele>1638.320163632</ele>
        <time>2015-12-11T12:43:51Z</time>
      </trkpt>
      <trkpt lat="45.56604" lon="6.06978">
        <ele>1638.320163632</ele>
        <time>2015-12-11T12:43:56Z</time>
      </trkpt>
      <trkpt lat="45.56604" lon="6.06978">
        <ele>1638.320163632</ele>
        <time>2015-12-11T12:44:12Z</time>
      </trkpt>
      <trkpt lat="45.56604" lon="6.06978">
        <ele>1638.320163632</ele>
        <time>2015-12-11T12:44:22Z</time>
      </trkpt>
      <trkpt lat="45.56604" lon="6.06978">
        <ele>1638.320163632</ele>
        <time>2015-12-11T12:44:27Z</time>
      </trkpt>
      <trkpt lat="45.56604" lon="6.06978">
        <ele>1638.320163632</ele>
        <time>2015-12-11T12:44:42Z</time>
      </trkpt>
      <trkpt lat="45.56604" lon="6.06978">
        <ele>1638.320163632</ele>
        <time>2015-12-11T12:44:47Z</time>
      </trkpt>
      <trkpt lat="45.56604" lon="6.06978">
        <ele>1638.320163632</ele>
        <time>2015-12-11T12:44:57Z</time>
      </trkpt>
      <trkpt lat="45.56612" lon="6.06985">
        <ele>1636.242495808</ele>
        <time>2015-12-11T12:45:01Z</time>
      </trkpt>
      <trkpt lat="45.56627" lon="6.06998">
        <ele>1634.294742775</ele>
        <time>2015-12-11T12:45:12Z</time>
      </trkpt>
      <trkpt lat="45.56633" lon="6.07003">
        <ele>1634.294742775</ele>
        <time>2015-12-11T12:45:16Z</time>
      </trkpt>
      <trkpt lat="45.56646" lon="6.07013">
        <ele>1632.47239364</ele>
        <time>2015-12-11T12:45:27Z</time>
      </trkpt>
      <trkpt lat="45.5665" lon="6.07017">
        <ele>1632.47239364</ele>
        <time>2015-12-11T12:45:32Z</time>
      </trkpt>
      <trkpt lat="45.56664" lon="6.07032">
        <ele>1630.3382339</ele>
        <time>2015-12-11T12:45:42Z</time>
      </trkpt>
      <trkpt lat="45.56667" lon="6.07036">
        <ele>1630.3382339</ele>
        <time>2015-12-11T12:45:46Z</time>
      </trkpt>
      <trkpt lat="45.56679" lon="6.07049">
        <ele>1628.064148026</ele>
        <time>2015-12-11T12:45:57Z</time>
      </trkpt>
      <trkpt lat="45.56681" lon="6.07052">
        <ele>1628.064148026</ele>
        <time>2015-12-11T12:46:01Z</time>
      </trkpt>
      <trkpt lat="45.56691" lon="6.0706">
        <ele>1625.521237245</ele>
        <time>2015-12-11T12:46:11Z</time>
      </trkpt>
      <trkpt lat="45.56695" lon="6.07065">
        <ele>1625.521237245</ele>
        <time>2015-12-11T12:46:16Z</time>
      </trkpt>
      <trkpt lat="45.56705" lon="6.07067">
        <ele>1623.311065302</ele>
        <time>2015-12-11T12:46:26Z</time>
      </trkpt>
      <trkpt lat="45.56709" lon="6.07066">
        <ele>1623.311065302</ele>
        <time>2015-12-11T12:46:32Z</time>
      </trkpt>
      <trkpt lat="45.56719" lon="6.07066">
        <ele>1621.12509874</ele>
        <time>2015-12-11T12:46:42Z</time>
      </trkpt>
      <trkpt lat="45.56723" lon="6.07065">
        <ele>1621.12509874</ele>
        <time>2015-12-11T12:46:46Z</time>
      </trkpt>
      <trkpt lat="45.56729" lon="6.07065">
        <ele>1619.253550018</ele>
        <time>2015-12-11T12:46:52Z</time>
      </trkpt>
      <trkpt lat="45.56742" lon="6.07062">
        <ele>1617.964147772</ele>
        <time>2015-12-11T12:47:02Z</time>
      </trkpt>
      <trkpt lat="45.5675" lon="6.07062">
        <ele>1617.964147772</ele>
        <time>2015-12-11T12:47:07Z</time>
      </trkpt>
      <trkpt lat="45.56761" lon="6.07065">
        <ele>1616.926607579</ele>
        <time>2015-12-11T12:47:16Z</time>
      </trkpt>
      <trkpt lat="45.56766" lon="6.07066">
        <ele>1616.926607579</ele>
        <time>2015-12-11T12:47:22Z</time>
      </trkpt>
      <trkpt lat="45.56778" lon="6.07063">
        <ele>1615.833949481</ele>
        <time>2015-12-11T12:47:32Z</time>
      </trkpt>
      <trkpt lat="45.56781" lon="6.07064">
        <ele>1615.833949481</ele>
        <time>2015-12-11T12:47:37Z</time>
      </trkpt>
      <trkpt lat="45.56795" lon="6.07062">
        <ele>1614.68988761</ele>
        <time>2015-12-11T12:47:46Z</time>
      </trkpt>
      <trkpt lat="45.568" lon="6.07064">
        <ele>1614.68988761</ele>
        <time>2015-12-11T12:47:52Z</time>
      </trkpt>
      <trkpt lat="45.56811" lon="6.07068">
        <ele>1613.497792444</ele>
        <time>2015-12-11T12:48:02Z</time>
      </trkpt>
      <trkpt lat="45.56816" lon="6.0707">
        <ele>1613.497792444</ele>
        <time>2015-12-11T12:48:07Z</time>
      </trkpt>
      <trkpt lat="45.56833" lon="6.07074">
        <ele>1612.116612828</ele>
        <time>2015-12-11T12:48:21Z</time>
      </trkpt>
      <trkpt lat="45.5685" lon="6.07079">
        <ele>1610.848341786</ele>
        <time>2015-12-11T12:48:37Z</time>
      </trkpt>
      <trkpt lat="45.56856" lon="6.07079">
        <ele>1610.848341786</ele>
        <time>2015-12-11T12:48:42Z</time>
      </trkpt>
      <trkpt lat="45.56866" lon="6.07078">
        <ele>1609.972305991</ele>
        <time>2015-12-11T12:48:51Z</time>
      </trkpt>
      <trkpt lat="45.56872" lon="6.0708">
        <ele>1609.972305991</ele>
        <time>2015-12-11T12:48:57Z</time>
      </trkpt>
      <trkpt lat="45.56882" lon="6.07075">
        <ele>1609.601952461</ele>
        <time>2015-12-11T12:49:07Z</time>
      </trkpt>
      <trkpt lat="45.56885" lon="6.07069">
        <ele>1609.601952461</ele>
        <time>2015-12-11T12:49:11Z</time>
      </trkpt>
      <trkpt lat="45.56891" lon="6.07059">
        <ele>1609.552622171</ele>
        <time>2015-12-11T12:49:22Z</time>
      </trkpt>
      <trkpt lat="45.56894" lon="6.07052">
        <ele>1609.552622171</ele>
        <time>2015-12-11T12:49:26Z</time>
      </trkpt>
      <trkpt lat="45.56901" lon="6.07036">
        <ele>1609.508097013</ele>
        <time>2015-12-11T12:49:36Z</time>
      </trkpt>
      <trkpt lat="45.56903" lon="6.07028">
        <ele>1609.508097013</ele>
        <time>2015-12-11T12:49:42Z</time>
      </trkpt>
      <trkpt lat="45.56911" lon="6.07018">
        <ele>1609.463504804</ele>
        <time>2015-12-11T12:49:51Z</time>
      </trkpt>
      <trkpt lat="45.56916" lon="6.07015">
        <ele>1609.463504804</ele>
        <time>2015-12-11T12:49:57Z</time>
      </trkpt>
      <trkpt lat="45.56928" lon="6.07011">
        <ele>1608.981925326</ele>
        <time>2015-12-11T12:50:07Z</time>
      </trkpt>
      <trkpt lat="45.56933" lon="6.07008">
        <ele>1608.981925326</ele>
        <time>2015-12-11T12:50:11Z</time>
      </trkpt>
      <trkpt lat="45.56948" lon="6.07007">
        <ele>1607.94792696</ele>
        <time>2015-12-11T12:50:27Z</time>
      </trkpt>
      <trkpt lat="45.56951" lon="6.07007">
        <ele>1607.94792696</ele>
        <time>2015-12-11T12:50:32Z</time>
      </trkpt>
      <trkpt lat="45.56952" lon="6.07007">
        <ele>1607.94792696</ele>
        <time>2015-12-11T12:50:42Z</time>
      </trkpt>
      <trkpt lat="45.56953" lon="6.07006">
        <ele>1607.94792696</ele>
        <time>2015-12-11T12:50:47Z</time>
      </trkpt>
      <trkpt lat="45.56953" lon="6.07006">
        <ele>1607.94792696</ele>
        <time>2015-12-11T12:50:57Z</time>
      </trkpt>
      <trkpt lat="45.56954" lon="6.07006">
        <ele>1607.94792696</ele>
        <time>2015-12-11T12:51:02Z</time>
      </trkpt>
      <trkpt lat="45.56959" lon="6.07007">
        <ele>1606.544287849</ele>
        <time>2015-12-11T12:51:11Z</time>
      </trkpt>
      <trkpt lat="45.56962" lon="6.07006">
        <ele>1606.544287849</ele>
        <time>2015-12-11T12:51:17Z</time>
      </trkpt>
      <trkpt lat="45.56969" lon="6.07005">
        <ele>1604.509030195</ele>
        <time>2015-12-11T12:51:27Z</time>
      </trkpt>
      <trkpt lat="45.5697" lon="6.07006">
        <ele>1604.509030195</ele>
        <time>2015-12-11T12:51:31Z</time>
      </trkpt>
      <trkpt lat="45.56978" lon="6.07011">
        <ele>1601.88938679</ele>
        <time>2015-12-11T12:51:42Z</time>
      </trkpt>
      <trkpt lat="45.56982" lon="6.07012">
        <ele>1601.88938679</ele>
        <time>2015-12-11T12:51:47Z</time>
      </trkpt>
      <trkpt lat="45.56989" lon="6.07013">
        <ele>1598.874842689</ele>
        <time>2015-12-11T12:51:57Z</time>
      </trkpt>
      <trkpt lat="45.56991" lon="6.07014">
        <ele>1598.874842689</ele>
        <time>2015-12-11T12:52:02Z</time>
      </trkpt>
      <trkpt lat="45.56996" lon="6.07019">
        <ele>1598.874842689</ele>
        <time>2015-12-11T12:52:11Z</time>
      </trkpt>
      <trkpt lat="45.57" lon="6.07021">
        <ele>1594.921481629</ele>
        <time>2015-12-11T12:52:17Z</time>
      </trkpt>
      <trkpt lat="45.57008" lon="6.07025">
        <ele>1594.921481629</ele>
        <time>2015-12-11T12:52:27Z</time>
      </trkpt>
      <trkpt lat="45.57012" lon="6.07027">
        <ele>1590.824934346</ele>
        <time>2015-12-11T12:52:31Z</time>
      </trkpt>
      <trkpt lat="45.57017" lon="6.07032">
        <ele>1590.824934346</ele>
        <time>2015-12-11T12:52:42Z</time>
      </trkpt>
      <trkpt lat="45.5702" lon="6.07035">
        <ele>1586.313952898</ele>
        <time>2015-12-11T12:52:46Z</time>
      </trkpt>
      <trkpt lat="45.57022" lon="6.07037">
        <ele>1586.313952898</ele>
        <time>2015-12-11T12:52:51Z</time>
      </trkpt>
      <trkpt lat="45.57024" lon="6.07038">
        <ele>1586.313952898</ele>
        <time>2015-12-11T12:52:57Z</time>
      </trkpt>
      <trkpt lat="45.57028" lon="6.0704">
        <ele>1586.313952898</ele>
        <time>2015-12-11T12:53:01Z</time>
      </trkpt>
      <trkpt lat="45.57038" lon="6.07047">
        <ele>1581.714751738</ele>
        <time>2015-12-11T12:53:17Z</time>
      </trkpt>
      <trkpt lat="45.57042" lon="6.07048">
        <ele>1581.714751738</ele>
        <time>2015-12-11T12:53:21Z</time>
      </trkpt>
      <trkpt lat="45.57046" lon="6.07047">
        <ele>1581.714751738</ele>
        <time>2015-12-11T12:53:31Z</time>
      </trkpt>
      <trkpt lat="45.57049" lon="6.07048">
        <ele>1577.041520077</ele>
        <time>2015-12-11T12:53:36Z</time>
      </trkpt>
      <trkpt lat="45.57055" lon="6.07049">
        <ele>1577.041520077</ele>
        <time>2015-12-11T12:53:47Z</time>
      </trkpt>
      <trkpt lat="45.57058" lon="6.07053">
        <ele>1572.163398007</ele>
        <time>2015-12-11T12:53:51Z</time>
      </trkpt>
      <trkpt lat="45.57067" lon="6.07055">
        <ele>1567.10370481</ele>
        <time>2015-12-11T12:54:02Z</time>
      </trkpt>
      <trkpt lat="45.57071" lon="6.07057">
        <ele>1567.10370481</ele>
        <time>2015-12-11T12:54:06Z</time>
      </trkpt>
      <trkpt lat="45.57083" lon="6.07063">
        <ele>1561.7403091</ele>
        <time>2015-12-11T12:54:17Z</time>
      </trkpt>
      <trkpt lat="45.57087" lon="6.07066">
        <ele>1561.7403091</ele>
        <time>2015-12-11T12:54:21Z</time>
      </trkpt>
      <trkpt lat="45.57097" lon="6.0707">
        <ele>1555.960750757</ele>
        <time>2015-12-11T12:54:31Z</time>
      </trkpt>
      <trkpt lat="45.57102" lon="6.07072">
        <ele>1555.960750757</ele>
        <time>2015-12-11T12:54:37Z</time>
      </trkpt>
      <trkpt lat="45.57108" lon="6.07075">
        <ele>1550.094162653</ele>
        <time>2015-12-11T12:54:47Z</time>
      </trkpt>
      <trkpt lat="45.57111" lon="6.07074">
        <ele>1550.094162653</ele>
        <time>2015-12-11T12:54:51Z</time>
      </trkpt>
      <trkpt lat="45.57111" lon="6.07065">
        <ele>1544.157335371</ele>
        <time>2015-12-11T12:55:02Z</time>
      </trkpt>
      <trkpt lat="45.57112" lon="6.07062">
        <ele>1544.157335371</ele>
        <time>2015-12-11T12:55:06Z</time>
      </trkpt>
      <trkpt lat="45.5712" lon="6.07051">
        <ele>1538.742265866</ele>
        <time>2015-12-11T12:55:17Z</time>
      </trkpt>
      <trkpt lat="45.57123" lon="6.07048">
        <ele>1538.742265866</ele>
        <time>2015-12-11T12:55:21Z</time>
      </trkpt>
      <trkpt lat="45.57131" lon="6.0704">
        <ele>1533.387005596</ele>
        <time>2015-12-11T12:55:37Z</time>
      </trkpt>
      <trkpt lat="45.57132" lon="6.07045">
        <ele>1533.387005596</ele>
        <time>2015-12-11T12:55:42Z</time>
      </trkpt>
      <trkpt lat="45.57134" lon="6.0705">
        <ele>1533.387005596</ele>
        <time>2015-12-11T12:55:52Z</time>
      </trkpt>
      <trkpt lat="45.57134" lon="6.0705">
        <ele>1533.387005596</ele>
        <time>2015-12-11T12:55:57Z</time>
      </trkpt>
      <trkpt lat="45.57134" lon="6.0705">
        <ele>1533.387005596</ele>
        <time>2015-12-11T12:56:07Z</time>
      </trkpt>
      <trkpt lat="45.57134" lon="6.0705">
        <ele>1533.387005596</ele>
        <time>2015-12-11T12:56:11Z</time>
      </trkpt>
      <trkpt lat="45.57134" lon="6.0705">
        <ele>1533.387005596</ele>
        <time>2015-12-11T12:56:21Z</time>
      </trkpt>
      <trkpt lat="45.57134" lon="6.0705">
        <ele>1533.387005596</ele>
        <time>2015-12-11T12:56:27Z</time>
      </trkpt>
      <trkpt lat="45.57134" lon="6.0705">
        <ele>1533.387005596</ele>
        <time>2015-12-11T12:56:36Z</time>
      </trkpt>
      <trkpt lat="45.57134" lon="6.0705">
        <ele>1533.387005596</ele>
        <time>2015-12-11T12:56:42Z</time>
      </trkpt>
      <trkpt lat="45.57134" lon="6.0705">
        <ele>1533.387005596</ele>
        <time>2015-12-11T12:56:52Z</time>
      </trkpt>
      <trkpt lat="45.57134" lon="6.07053">
        <ele>1527.663144793</ele>
        <time>2015-12-11T12:56:57Z</time>
      </trkpt>
      <trkpt lat="45.57144" lon="6.07066">
        <ele>1522.32743071</ele>
        <time>2015-12-11T12:57:12Z</time>
      </trkpt>
      <trkpt lat="45.57147" lon="6.0707">
        <ele>1522.32743071</ele>
        <time>2015-12-11T12:57:16Z</time>
      </trkpt>
      <trkpt lat="45.5715" lon="6.07075">
        <ele>1522.32743071</ele>
        <time>2015-12-11T12:57:27Z</time>
      </trkpt>
      <trkpt lat="45.57151" lon="6.07076">
        <ele>1517.503243523</ele>
        <time>2015-12-11T12:57:32Z</time>
      </trkpt>
      <trkpt lat="45.57152" lon="6.07084">
        <ele>1517.503243523</ele>
        <time>2015-12-11T12:57:42Z</time>
      </trkpt>
      <trkpt lat="45.57153" lon="6.07089">
        <ele>1512.438550016</ele>
        <time>2015-12-11T12:57:47Z</time>
      </trkpt>
      <trkpt lat="45.57154" lon="6.07096">
        <ele>1512.438550016</ele>
        <time>2015-12-11T12:57:57Z</time>
      </trkpt>
      <trkpt lat="45.57156" lon="6.071">
        <ele>1512.438550016</ele>
        <time>2015-12-11T12:58:02Z</time>
      </trkpt>
      <trkpt lat="45.57163" lon="6.07111">
        <ele>1506.581094863</ele>
        <time>2015-12-11T12:58:11Z</time>
      </trkpt>
      <trkpt lat="45.57166" lon="6.07119">
        <ele>1506.581094863</ele>
        <time>2015-12-11T12:58:17Z</time>
      </trkpt>
      <trkpt lat="45.57175" lon="6.07135">
        <ele>1501.150495019</ele>
        <time>2015-12-11T12:58:27Z</time>
      </trkpt>
      <trkpt lat="45.57178" lon="6.07142">
        <ele>1501.150495019</ele>
        <time>2015-12-11T12:58:32Z</time>
      </trkpt>
      <trkpt lat="45.57185" lon="6.07142">
        <ele>1496.698878641</ele>
        <time>2015-12-11T12:58:42Z</time>
      </trkpt>
      <trkpt lat="45.57191" lon="6.07146">
        <ele>1496.698878641</ele>
        <time>2015-12-11T12:58:46Z</time>
      </trkpt>
      <trkpt lat="45.57193" lon="6.07149">
        <ele>1493.302483298</ele>
        <time>2015-12-11T12:58:51Z</time>
      </trkpt>
      <trkpt lat="45.57196" lon="6.07152">
        <ele>1493.302483298</ele>
        <time>2015-12-11T12:58:57Z</time>
      </trkpt>
      <trkpt lat="45.57198" lon="6.07159">
        <ele>1489.587628373</ele>
        <time>2015-12-11T12:59:02Z</time>
      </trkpt>
      <trkpt lat="45.57203" lon="6.07163">
        <ele>1489.587628373</ele>
        <time>2015-12-11T12:59:06Z</time>
      </trkpt>
      <trkpt lat="45.57207" lon="6.07165">
        <ele>1485.867423651</ele>
        <time>2015-12-11T12:59:17Z</time>
      </trkpt>
      <trkpt lat="45.57212" lon="6.07166">
        <ele>1485.867423651</ele>
        <time>2015-12-11T12:59:22Z</time>
      </trkpt>
      <trkpt lat="45.57229" lon="6.07176">
        <ele>1481.855325374</ele>
        <time>2015-12-11T12:59:31Z</time>
      </trkpt>
      <trkpt lat="45.57235" lon="6.07176">
        <ele>1481.855325374</ele>
        <time>2015-12-11T12:59:37Z</time>
      </trkpt>
      <trkpt lat="45.57252" lon="6.07184">
        <ele>1477.862892313</ele>
        <time>2015-12-11T12:59:47Z</time>
      </trkpt>
      <trkpt lat="45.57259" lon="6.07188">
        <ele>1477.862892313</ele>
        <time>2015-12-11T12:59:52Z</time>
      </trkpt>
      <trkpt lat="45.57265" lon="6.07199">
        <ele>1473.746208464</ele>
        <time>2015-12-11T13:00:02Z</time>
      </trkpt>
      <trkpt lat="45.57269" lon="6.07204">
        <ele>1473.746208464</ele>
        <time>2015-12-11T13:00:06Z</time>
      </trkpt>
      <trkpt lat="45.57278" lon="6.07215">
        <ele>1469.516200327</ele>
        <time>2015-12-11T13:00:17Z</time>
      </trkpt>
      <trkpt lat="45.57288" lon="6.07215">
        <ele>1465.759574959</ele>
        <time>2015-12-11T13:00:22Z</time>
      </trkpt>
      <trkpt lat="45.573" lon="6.07211">
        <ele>1462.297887426</ele>
        <time>2015-12-11T13:00:32Z</time>
      </trkpt>
      <trkpt lat="45.57303" lon="6.07209">
        <ele>1462.297887426</ele>
        <time>2015-12-11T13:00:36Z</time>
      </trkpt>
      <trkpt lat="45.57312" lon="6.07208">
        <ele>1459.108927508</ele>
        <time>2015-12-11T13:00:41Z</time>
      </trkpt>
      <trkpt lat="45.57323" lon="6.07211">
        <ele>1455.882984402</ele>
        <time>2015-12-11T13:00:52Z</time>
      </trkpt>
      <trkpt lat="45.5733" lon="6.0721">
        <ele>1455.882984402</ele>
        <time>2015-12-11T13:01:02Z</time>
      </trkpt>
      <trkpt lat="45.5733" lon="6.0721">
        <ele>1455.882984402</ele>
        <time>2015-12-11T13:01:07Z</time>
      </trkpt>
      <trkpt lat="45.57332" lon="6.0721">
        <ele>1452.765405201</ele>
        <time>2015-12-11T13:01:11Z</time>
      </trkpt>
      <trkpt lat="45.57336" lon="6.07215">
        <ele>1452.765405201</ele>
        <time>2015-12-11T13:01:22Z</time>
      </trkpt>
      <trkpt lat="45.57337" lon="6.07216">
        <ele>1452.765405201</ele>
        <time>2015-12-11T13:01:26Z</time>
      </trkpt>
      <trkpt lat="45.57342" lon="6.07217">
        <ele>1449.025771812</ele>
        <time>2015-12-11T13:01:37Z</time>
      </trkpt>
      <trkpt lat="45.57344" lon="6.07215">
        <ele>1449.025771812</ele>
        <time>2015-12-11T13:01:42Z</time>
      </trkpt>
      <trkpt lat="45.57348" lon="6.07214">
        <ele>1449.025771812</ele>
        <time>2015-12-11T13:01:52Z</time>
      </trkpt>
      <trkpt lat="45.57353" lon="6.07215">
        <ele>1445.430074555</ele>
        <time>2015-12-11T13:01:56Z</time>
      </trkpt>
      <trkpt lat="45.57367" lon="6.07224">
        <ele>1442.111093336</ele>
        <time>2015-12-11T13:02:07Z</time>
      </trkpt>
      <trkpt lat="45.57373" lon="6.07229">
        <ele>1442.111093336</ele>
        <time>2015-12-11T13:02:11Z</time>
      </trkpt>
      <trkpt lat="45.57388" lon="6.07238">
        <ele>1439.4792192</ele>
        <time>2015-12-11T13:02:21Z</time>
      </trkpt>
      <trkpt lat="45.57393" lon="6.07241">
        <ele>1439.4792192</ele>
        <time>2015-12-11T13:02:27Z</time>
      </trkpt>
      <trkpt lat="45.57403" lon="6.07245">
        <ele>1436.615698732</ele>
        <time>2015-12-11T13:02:37Z</time>
      </trkpt>
      <trkpt lat="45.57406" lon="6.07246">
        <ele>1436.615698732</ele>
        <time>2015-12-11T13:02:41Z</time>
      </trkpt>
      <trkpt lat="45.57415" lon="6.07249">
        <ele>1434.255086635</ele>
        <time>2015-12-11T13:02:52Z</time>
      </trkpt>
      <trkpt lat="45.57415" lon="6.07249">
        <ele>1434.255086635</ele>
        <time>2015-12-11T13:02:56Z</time>
      </trkpt>
      <trkpt lat="45.57416" lon="6.07249">
        <ele>1434.255086635</ele>
        <time>2015-12-11T13:03:01Z</time>
      </trkpt>
      <trkpt lat="45.57416" lon="6.07249">
        <ele>1434.255086635</ele>
        <time>2015-12-11T13:03:11Z</time>
      </trkpt>
      <trkpt lat="45.57416" lon="6.07249">
        <ele>1434.255086635</ele>
        <time>2015-12-11T13:03:16Z</time>
      </trkpt>
      <trkpt lat="45.57416" lon="6.07249">
        <ele>1434.255086635</ele>
        <time>2015-12-11T13:03:26Z</time>
      </trkpt>
      <trkpt lat="45.57416" lon="6.07249">
        <ele>1434.255086635</ele>
        <time>2015-12-11T13:03:31Z</time>
      </trkpt>
      <trkpt lat="45.57416" lon="6.07249">
        <ele>1434.255086635</ele>
        <time>2015-12-11T13:03:41Z</time>
      </trkpt>
      <trkpt lat="45.57416" lon="6.07249">
        <ele>1434.255086635</ele>
        <time>2015-12-11T13:03:46Z</time>
      </trkpt>
      <trkpt lat="45.57416" lon="6.07249">
        <ele>1434.255086635</ele>
        <time>2015-12-11T13:03:56Z</time>
      </trkpt>
      <trkpt lat="45.57416" lon="6.07249">
        <ele>1434.255086635</ele>
        <time>2015-12-11T13:04:01Z</time>
      </trkpt>
      <trkpt lat="45.57416" lon="6.07249">
        <ele>1434.255086635</ele>
        <time>2015-12-11T13:04:11Z</time>
      </trkpt>
      <trkpt lat="45.57416" lon="6.07249">
        <ele>1434.255086635</ele>
        <time>2015-12-11T13:04:16Z</time>
      </trkpt>
      <trkpt lat="45.57416" lon="6.07249">
        <ele>1434.255086635</ele>
        <time>2015-12-11T13:04:26Z</time>
      </trkpt>
      <trkpt lat="45.57416" lon="6.07249">
        <ele>1434.255086635</ele>
        <time>2015-12-11T13:04:31Z</time>
      </trkpt>
      <trkpt lat="45.57434" lon="6.07259">
        <ele>1432.067748115</ele>
        <time>2015-12-11T13:04:46Z</time>
      </trkpt>
      <trkpt lat="45.5744" lon="6.0726">
        <ele>1432.067748115</ele>
        <time>2015-12-11T13:04:51Z</time>
      </trkpt>
      <trkpt lat="45.57451" lon="6.07263">
        <ele>1430.612420554</ele>
        <time>2015-12-11T13:05:01Z</time>
      </trkpt>
      <trkpt lat="45.57456" lon="6.07266">
        <ele>1430.612420554</ele>
        <time>2015-12-11T13:05:06Z</time>
      </trkpt>
      <trkpt lat="45.57463" lon="6.07271">
        <ele>1430.116516981</ele>
        <time>2015-12-11T13:05:16Z</time>
      </trkpt>
      <trkpt lat="45.57468" lon="6.07275">
        <ele>1430.116516981</ele>
        <time>2015-12-11T13:05:21Z</time>
      </trkpt>
      <trkpt lat="45.57479" lon="6.07283">
        <ele>1429.779293304</ele>
        <time>2015-12-11T13:05:31Z</time>
      </trkpt>
      <trkpt lat="45.57481" lon="6.07289">
        <ele>1429.779293304</ele>
        <time>2015-12-11T13:05:36Z</time>
      </trkpt>
      <trkpt lat="45.5748" lon="6.07301">
        <ele>1429.867203807</ele>
        <time>2015-12-11T13:05:46Z</time>
      </trkpt>
      <trkpt lat="45.5748" lon="6.07307">
        <ele>1429.867203807</ele>
        <time>2015-12-11T13:05:51Z</time>
      </trkpt>
      <trkpt lat="45.57481" lon="6.07312">
        <ele>1429.867203807</ele>
        <time>2015-12-11T13:05:56Z</time>
      </trkpt>
      <trkpt lat="45.57482" lon="6.07317">
        <ele>1430.481896263</ele>
        <time>2015-12-11T13:06:01Z</time>
      </trkpt>
      <trkpt lat="45.57482" lon="6.07319">
        <ele>1430.481896263</ele>
        <time>2015-12-11T13:06:06Z</time>
      </trkpt>
      <trkpt lat="45.57483" lon="6.07319">
        <ele>1430.481896263</ele>
        <time>2015-12-11T13:06:11Z</time>
      </trkpt>
      <trkpt lat="45.57486" lon="6.07328">
        <ele>1430.481896263</ele>
        <time>2015-12-11T13:06:21Z</time>
      </trkpt>
      <trkpt lat="45.5749" lon="6.07335">
        <ele>1431.283839936</ele>
        <time>2015-12-11T13:06:26Z</time>
      </trkpt>
      <trkpt lat="45.57496" lon="6.07339">
        <ele>1431.283839936</ele>
        <time>2015-12-11T13:06:36Z</time>
      </trkpt>
      <trkpt lat="45.57501" lon="6.07341">
        <ele>1431.813937437</ele>
        <time>2015-12-11T13:06:41Z</time>
      </trkpt>
      <trkpt lat="45.57506" lon="6.07346">
        <ele>1431.813937437</ele>
        <time>2015-12-11T13:06:51Z</time>
      </trkpt>
      <trkpt lat="45.57512" lon="6.07355">
        <ele>1432.800624627</ele>
        <time>2015-12-11T13:06:56Z</time>
      </trkpt>
      <trkpt lat="45.57521" lon="6.07364">
        <ele>1433.764839678</ele>
        <time>2015-12-11T13:07:06Z</time>
      </trkpt>
      <trkpt lat="45.57526" lon="6.07366">
        <ele>1433.764839678</ele>
        <time>2015-12-11T13:07:11Z</time>
      </trkpt>
      <trkpt lat="45.57535" lon="6.07376">
        <ele>1434.69531655</ele>
        <time>2015-12-11T13:07:21Z</time>
      </trkpt>
      <trkpt lat="45.5754" lon="6.07381">
        <ele>1434.69531655</ele>
        <time>2015-12-11T13:07:26Z</time>
      </trkpt>
      <trkpt lat="45.57549" lon="6.07384">
        <ele>1435.870164456</ele>
        <time>2015-12-11T13:07:36Z</time>
      </trkpt>
      <trkpt lat="45.57554" lon="6.0739">
        <ele>1435.870164456</ele>
        <time>2015-12-11T13:07:41Z</time>
      </trkpt>
      <trkpt lat="45.57564" lon="6.07399">
        <ele>1437.258407464</ele>
        <time>2015-12-11T13:07:51Z</time>
      </trkpt>
      <trkpt lat="45.57568" lon="6.07403">
        <ele>1437.258407464</ele>
        <time>2015-12-11T13:07:56Z</time>
      </trkpt>
      <trkpt lat="45.57579" lon="6.07406">
        <ele>1438.686907887</ele>
        <time>2015-12-11T13:08:06Z</time>
      </trkpt>
      <trkpt lat="45.57584" lon="6.07407">
        <ele>1438.686907887</ele>
        <time>2015-12-11T13:08:11Z</time>
      </trkpt>
      <trkpt lat="45.57595" lon="6.07411">
        <ele>1439.995424761</ele>
        <time>2015-12-11T13:08:21Z</time>
      </trkpt>
      <trkpt lat="45.57599" lon="6.07413">
        <ele>1439.995424761</ele>
        <time>2015-12-11T13:08:26Z</time>
      </trkpt>
      <trkpt lat="45.57615" lon="6.07417">
        <ele>1441.46846664</ele>
        <time>2015-12-11T13:08:41Z</time>
      </trkpt>
      <trkpt lat="45.5762" lon="6.0742">
        <ele>1441.46846664</ele>
        <time>2015-12-11T13:08:46Z</time>
      </trkpt>
      <trkpt lat="45.5763" lon="6.07427">
        <ele>1443.225393515</ele>
        <time>2015-12-11T13:08:56Z</time>
      </trkpt>
      <trkpt lat="45.57636" lon="6.07427">
        <ele>1443.225393515</ele>
        <time>2015-12-11T13:09:01Z</time>
      </trkpt>
      <trkpt lat="45.57644" lon="6.07431">
        <ele>1444.51167115</ele>
        <time>2015-12-11T13:09:11Z</time>
      </trkpt>
      <trkpt lat="45.57651" lon="6.07433">
        <ele>1444.51167115</ele>
        <time>2015-12-11T13:09:16Z</time>
      </trkpt>
      <trkpt lat="45.57662" lon="6.07441">
        <ele>1445.926862626</ele>
        <time>2015-12-11T13:09:26Z</time>
      </trkpt>
      <trkpt lat="45.5767" lon="6.07444">
        <ele>1445.926862626</ele>
        <time>2015-12-11T13:09:31Z</time>
      </trkpt>
      <trkpt lat="45.57681" lon="6.07454">
        <ele>1447.450039872</ele>
        <time>2015-12-11T13:09:41Z</time>
      </trkpt>
      <trkpt lat="45.57683" lon="6.07458">
        <ele>1447.450039872</ele>
        <time>2015-12-11T13:09:46Z</time>
      </trkpt>
      <trkpt lat="45.57686" lon="6.07461">
        <ele>1447.450039872</ele>
        <time>2015-12-11T13:09:56Z</time>
      </trkpt>
      <trkpt lat="45.57689" lon="6.07465">
        <ele>1448.773653135</ele>
        <time>2015-12-11T13:10:01Z</time>
      </trkpt>
      <trkpt lat="45.57698" lon="6.07472">
        <ele>1450.046009959</ele>
        <time>2015-12-11T13:10:11Z</time>
      </trkpt>
      <trkpt lat="45.57704" lon="6.07477">
        <ele>1450.046009959</ele>
        <time>2015-12-11T13:10:16Z</time>
      </trkpt>
      <trkpt lat="45.57713" lon="6.07488">
        <ele>1450.972708228</ele>
        <time>2015-12-11T13:10:26Z</time>
      </trkpt>
      <trkpt lat="45.57716" lon="6.07497">
        <ele>1450.972708228</ele>
        <time>2015-12-11T13:10:31Z</time>
      </trkpt>
      <trkpt lat="45.57725" lon="6.07517">
        <ele>1451.858762242</ele>
        <time>2015-12-11T13:10:46Z</time>
      </trkpt>
      <trkpt lat="45.5773" lon="6.07523">
        <ele>1451.858762242</ele>
        <time>2015-12-11T13:10:51Z</time>
      </trkpt>
      <trkpt lat="45.57741" lon="6.07529">
        <ele>1452.699045701</ele>
        <time>2015-12-11T13:11:01Z</time>
      </trkpt>
      <trkpt lat="45.57745" lon="6.07528">
        <ele>1452.699045701</ele>
        <time>2015-12-11T13:11:06Z</time>
      </trkpt>
      <trkpt lat="45.57755" lon="6.07529">
        <ele>1453.345196169</ele>
        <time>2015-12-11T13:11:16Z</time>
      </trkpt>
      <trkpt lat="45.57761" lon="6.07527">
        <ele>1453.345196169</ele>
        <time>2015-12-11T13:11:21Z</time>
      </trkpt>
      <trkpt lat="45.57767" lon="6.07521">
        <ele>1454.381215421</ele>
        <time>2015-12-11T13:11:31Z</time>
      </trkpt>
      <trkpt lat="45.57766" lon="6.07521">
        <ele>1454.381215421</ele>
        <time>2015-12-11T13:11:36Z</time>
      </trkpt>
      <trkpt lat="45.57765" lon="6.0752">
        <ele>1454.381215421</ele>
        <time>2015-12-11T13:11:41Z</time>
      </trkpt>
      <trkpt lat="45.57765" lon="6.0752">
        <ele>1454.381215421</ele>
        <time>2015-12-11T13:11:46Z</time>
      </trkpt>
      <trkpt lat="45.57765" lon="6.0752">
        <ele>1454.381215421</ele>
        <time>2015-12-11T13:11:51Z</time>
      </trkpt>
      <trkpt lat="45.57765" lon="6.0752">
        <ele>1454.381215421</ele>
        <time>2015-12-11T13:11:56Z</time>
      </trkpt>
      <trkpt lat="45.57765" lon="6.0752">
        <ele>1454.381215421</ele>
        <time>2015-12-11T13:12:01Z</time>
      </trkpt>
      <trkpt lat="45.57765" lon="6.0752">
        <ele>1454.381215421</ele>
        <time>2015-12-11T13:12:06Z</time>
      </trkpt>
      <trkpt lat="45.57765" lon="6.0752">
        <ele>1454.381215421</ele>
        <time>2015-12-11T13:12:11Z</time>
      </trkpt>
      <trkpt lat="45.57765" lon="6.0752">
        <ele>1454.381215421</ele>
        <time>2015-12-11T13:12:16Z</time>
      </trkpt>
      <trkpt lat="45.5777" lon="6.07507">
        <ele>1455.194580909</ele>
        <time>2015-12-11T13:12:31Z</time>
      </trkpt>
      <trkpt lat="45.57774" lon="6.07502">
        <ele>1455.194580909</ele>
        <time>2015-12-11T13:12:36Z</time>
      </trkpt>
      <trkpt lat="45.57782" lon="6.07492">
        <ele>1455.939298479</ele>
        <time>2015-12-11T13:12:46Z</time>
      </trkpt>
      <trkpt lat="45.57788" lon="6.07487">
        <ele>1455.939298479</ele>
        <time>2015-12-11T13:12:51Z</time>
      </trkpt>
      <trkpt lat="45.57798" lon="6.07481">
        <ele>1456.758598603</ele>
        <time>2015-12-11T13:13:01Z</time>
      </trkpt>
      <trkpt lat="45.57804" lon="6.07477">
        <ele>1456.758598603</ele>
        <time>2015-12-11T13:13:06Z</time>
      </trkpt>
      <trkpt lat="45.57818" lon="6.07473">
        <ele>1457.641207429</ele>
        <time>2015-12-11T13:13:16Z</time>
      </trkpt>
      <trkpt lat="45.57825" lon="6.07468">
        <ele>1457.641207429</ele>
        <time>2015-12-11T13:13:21Z</time>
      </trkpt>
      <trkpt lat="45.57831" lon="6.07464">
        <ele>1458.432719874</ele>
        <time>2015-12-11T13:13:26Z</time>
      </trkpt>
      <trkpt lat="45.57838" lon="6.07463">
        <ele>1458.432719874</ele>
        <time>2015-12-11T13:13:31Z</time>
      </trkpt>
      <trkpt lat="45.57844" lon="6.07461">
        <ele>1458.702426404</ele>
        <time>2015-12-11T13:13:36Z</time>
      </trkpt>
      <trkpt lat="45.5785" lon="6.07457">
        <ele>1458.702426404</ele>
        <time>2015-12-11T13:13:41Z</time>
      </trkpt>
      <trkpt lat="45.57858" lon="6.07455">
        <ele>1458.917697264</ele>
        <time>2015-12-11T13:13:46Z</time>
      </trkpt>
      <trkpt lat="45.57865" lon="6.07454">
        <ele>1458.917697264</ele>
        <time>2015-12-11T13:13:51Z</time>
      </trkpt>
      <trkpt lat="45.5787" lon="6.0745">
        <ele>1459.079686454</ele>
        <time>2015-12-11T13:13:56Z</time>
      </trkpt>
      <trkpt lat="45.57876" lon="6.07446">
        <ele>1459.079686454</ele>
        <time>2015-12-11T13:14:01Z</time>
      </trkpt>
      <trkpt lat="45.57882" lon="6.07442">
        <ele>1458.901673704</ele>
        <time>2015-12-11T13:14:06Z</time>
      </trkpt>
      <trkpt lat="45.57887" lon="6.0744">
        <ele>1458.901673704</ele>
        <time>2015-12-11T13:14:11Z</time>
      </trkpt>
      <trkpt lat="45.57894" lon="6.07438">
        <ele>1458.551556313</ele>
        <time>2015-12-11T13:14:16Z</time>
      </trkpt>
      <trkpt lat="45.579" lon="6.07438">
        <ele>1458.551556313</ele>
        <time>2015-12-11T13:14:21Z</time>
      </trkpt>
      <trkpt lat="45.57904" lon="6.07437">
        <ele>1458.185632533</ele>
        <time>2015-12-11T13:14:26Z</time>
      </trkpt>
      <trkpt lat="45.57909" lon="6.07441">
        <ele>1458.185632533</ele>
        <time>2015-12-11T13:14:31Z</time>
      </trkpt>
      <trkpt lat="45.57916" lon="6.07438">
        <ele>1458.38133281</ele>
        <time>2015-12-11T13:14:36Z</time>
      </trkpt>
      <trkpt lat="45.57923" lon="6.07439">
        <ele>1458.38133281</ele>
        <time>2015-12-11T13:14:41Z</time>
      </trkpt>
      <trkpt lat="45.57928" lon="6.07433">
        <ele>1458.663536843</ele>
        <time>2015-12-11T13:14:46Z</time>
      </trkpt>
      <trkpt lat="45.57934" lon="6.07431">
        <ele>1458.663536843</ele>
        <time>2015-12-11T13:14:51Z</time>
      </trkpt>
      <trkpt lat="45.57939" lon="6.07429">
        <ele>1458.59198995</ele>
        <time>2015-12-11T13:14:56Z</time>
      </trkpt>
      <trkpt lat="45.57944" lon="6.07424">
        <ele>1458.59198995</ele>
        <time>2015-12-11T13:15:01Z</time>
      </trkpt>
      <trkpt lat="45.57952" lon="6.07423">
        <ele>1458.336408134</ele>
        <time>2015-12-11T13:15:06Z</time>
      </trkpt>
      <trkpt lat="45.57959" lon="6.07424">
        <ele>1458.336408134</ele>
        <time>2015-12-11T13:15:11Z</time>
      </trkpt>
      <trkpt lat="45.57965" lon="6.07427">
        <ele>1458.342958959</ele>
        <time>2015-12-11T13:15:16Z</time>
      </trkpt>
      <trkpt lat="45.57972" lon="6.07428">
        <ele>1458.342958959</ele>
        <time>2015-12-11T13:15:21Z</time>
      </trkpt>
      <trkpt lat="45.57981" lon="6.07428">
        <ele>1458.015688087</ele>
        <time>2015-12-11T13:15:26Z</time>
      </trkpt>
      <trkpt lat="45.57983" lon="6.07424">
        <ele>1458.015688087</ele>
        <time>2015-12-11T13:15:31Z</time>
      </trkpt>
      <trkpt lat="45.57989" lon="6.07427">
        <ele>1457.379953452</ele>
        <time>2015-12-11T13:15:36Z</time>
      </trkpt>
      <trkpt lat="45.57991" lon="6.07429">
        <ele>1457.379953452</ele>
        <time>2015-12-11T13:15:41Z</time>
      </trkpt>
      <trkpt lat="45.57999" lon="6.07428">
        <ele>1456.892587621</ele>
        <time>2015-12-11T13:15:46Z</time>
      </trkpt>
      <trkpt lat="45.58004" lon="6.07429">
        <ele>1456.892587621</ele>
        <time>2015-12-11T13:15:51Z</time>
      </trkpt>
      <trkpt lat="45.5801" lon="6.07428">
        <ele>1456.976573674</ele>
        <time>2015-12-11T13:15:56Z</time>
      </trkpt>
      <trkpt lat="45.58017" lon="6.07431">
        <ele>1456.976573674</ele>
        <time>2015-12-11T13:16:01Z</time>
      </trkpt>
      <trkpt lat="45.58019" lon="6.07433">
        <ele>1457.013554365</ele>
        <time>2015-12-11T13:16:06Z</time>
      </trkpt>
      <trkpt lat="45.5802" lon="6.07434">
        <ele>1457.013554365</ele>
        <time>2015-12-11T13:16:11Z</time>
      </trkpt>
      <trkpt lat="45.58024" lon="6.07434">
        <ele>1457.013554365</ele>
        <time>2015-12-11T13:16:16Z</time>
      </trkpt>
      <trkpt lat="45.58031" lon="6.07437">
        <ele>1457.007274764</ele>
        <time>2015-12-11T13:16:21Z</time>
      </trkpt>
      <trkpt lat="45.58038" lon="6.0744">
        <ele>1457.007274764</ele>
        <time>2015-12-11T13:16:26Z</time>
      </trkpt>
      <trkpt lat="45.58046" lon="6.0744">
        <ele>1456.673195526</ele>
        <time>2015-12-11T13:16:31Z</time>
      </trkpt>
      <trkpt lat="45.58052" lon="6.0744">
        <ele>1456.673195526</ele>
        <time>2015-12-11T13:16:36Z</time>
      </trkpt>
      <trkpt lat="45.58057" lon="6.07443">
        <ele>1456.325125968</ele>
        <time>2015-12-11T13:16:41Z</time>
      </trkpt>
      <trkpt lat="45.58064" lon="6.07444">
        <ele>1456.325125968</ele>
        <time>2015-12-11T13:16:46Z</time>
      </trkpt>
      <trkpt lat="45.58071" lon="6.07442">
        <ele>1455.677489821</ele>
        <time>2015-12-11T13:16:51Z</time>
      </trkpt>
      <trkpt lat="45.58075" lon="6.07443">
        <ele>1455.677489821</ele>
        <time>2015-12-11T13:16:56Z</time>
      </trkpt>
      <trkpt lat="45.58079" lon="6.07444">
        <ele>1455.677489821</ele>
        <time>2015-12-11T13:17:01Z</time>
      </trkpt>
      <trkpt lat="45.58082" lon="6.07444">
        <ele>1454.610701151</ele>
        <time>2015-12-11T13:17:06Z</time>
      </trkpt>
      <trkpt lat="45.58086" lon="6.07447">
        <ele>1454.610701151</ele>
        <time>2015-12-11T13:17:11Z</time>
      </trkpt>
      <trkpt lat="45.58094" lon="6.07447">
        <ele>1454.168073021</ele>
        <time>2015-12-11T13:17:16Z</time>
      </trkpt>
      <trkpt lat="45.58101" lon="6.07449">
        <ele>1454.168073021</ele>
        <time>2015-12-11T13:17:21Z</time>
      </trkpt>
      <trkpt lat="45.58106" lon="6.07449">
        <ele>1454.449898403</ele>
        <time>2015-12-11T13:17:26Z</time>
      </trkpt>
      <trkpt lat="45.58109" lon="6.07451">
        <ele>1454.449898403</ele>
        <time>2015-12-11T13:17:31Z</time>
      </trkpt>
      <trkpt lat="45.5811" lon="6.07452">
        <ele>1454.449898403</ele>
        <time>2015-12-11T13:17:36Z</time>
      </trkpt>
      <trkpt lat="45.58113" lon="6.07452">
        <ele>1454.449898403</ele>
        <time>2015-12-11T13:17:41Z</time>
      </trkpt>
      <trkpt lat="45.58119" lon="6.07454">
        <ele>1455.979436777</ele>
        <time>2015-12-11T13:17:46Z</time>
      </trkpt>
      <trkpt lat="45.58124" lon="6.07453">
        <ele>1455.979436777</ele>
        <time>2015-12-11T13:17:51Z</time>
      </trkpt>
      <trkpt lat="45.5813" lon="6.07452">
        <ele>1457.508705837</ele>
        <time>2015-12-11T13:17:56Z</time>
      </trkpt>
      <trkpt lat="45.58134" lon="6.07451">
        <ele>1457.508705837</ele>
        <time>2015-12-11T13:18:01Z</time>
      </trkpt>
      <trkpt lat="45.58138" lon="6.07448">
        <ele>1457.508705837</ele>
        <time>2015-12-11T13:18:06Z</time>
      </trkpt>
      <trkpt lat="45.58146" lon="6.07449">
        <ele>1459.322545873</ele>
        <time>2015-12-11T13:18:11Z</time>
      </trkpt>
      <trkpt lat="45.5815" lon="6.07448">
        <ele>1459.322545873</ele>
        <time>2015-12-11T13:18:16Z</time>
      </trkpt>
      <trkpt lat="45.58157" lon="6.07444">
        <ele>1461.828228041</ele>
        <time>2015-12-11T13:18:21Z</time>
      </trkpt>
      <trkpt lat="45.58163" lon="6.07439">
        <ele>1461.828228041</ele>
        <time>2015-12-11T13:18:27Z</time>
      </trkpt>
      <trkpt lat="45.58173" lon="6.07433">
        <ele>1464.680662298</ele>
        <time>2015-12-11T13:18:37Z</time>
      </trkpt>
      <trkpt lat="45.58177" lon="6.07437">
        <ele>1464.680662298</ele>
        <time>2015-12-11T13:18:42Z</time>
      </trkpt>
      <trkpt lat="45.58186" lon="6.07441">
        <ele>1466.838644872</ele>
        <time>2015-12-11T13:18:52Z</time>
      </trkpt>
      <trkpt lat="45.58191" lon="6.07446">
        <ele>1466.838644872</ele>
        <time>2015-12-11T13:18:56Z</time>
      </trkpt>
      <trkpt lat="45.582" lon="6.07451">
        <ele>1469.068817071</ele>
        <time>2015-12-11T13:19:07Z</time>
      </trkpt>
      <trkpt lat="45.58202" lon="6.07452">
        <ele>1469.068817071</ele>
        <time>2015-12-11T13:19:12Z</time>
      </trkpt>
      <trkpt lat="45.58213" lon="6.07453">
        <ele>1470.063830058</ele>
        <time>2015-12-11T13:19:22Z</time>
      </trkpt>
      <trkpt lat="45.58218" lon="6.0745">
        <ele>1470.063830058</ele>
        <time>2015-12-11T13:19:26Z</time>
      </trkpt>
      <trkpt lat="45.58235" lon="6.07443">
        <ele>1471.498152503</ele>
        <time>2015-12-11T13:19:42Z</time>
      </trkpt>
      <trkpt lat="45.58238" lon="6.07444">
        <ele>1471.498152503</ele>
        <time>2015-12-11T13:19:46Z</time>
      </trkpt>
      <trkpt lat="45.58247" lon="6.07443">
        <ele>1472.904553804</ele>
        <time>2015-12-11T13:19:57Z</time>
      </trkpt>
      <trkpt lat="45.58247" lon="6.07439">
        <ele>1472.904553804</ele>
        <time>2015-12-11T13:20:01Z</time>
      </trkpt>
      <trkpt lat="45.58259" lon="6.07436">
        <ele>1473.129742051</ele>
        <time>2015-12-11T13:20:12Z</time>
      </trkpt>
      <trkpt lat="45.58265" lon="6.07432">
        <ele>1473.129742051</ele>
        <time>2015-12-11T13:20:17Z</time>
      </trkpt>
      <trkpt lat="45.5827" lon="6.07426">
        <ele>1473.558439162</ele>
        <time>2015-12-11T13:20:27Z</time>
      </trkpt>
      <trkpt lat="45.5827" lon="6.07427">
        <ele>1473.558439162</ele>
        <time>2015-12-11T13:20:31Z</time>
      </trkpt>
      <trkpt lat="45.58273" lon="6.07425">
        <ele>1473.558439162</ele>
        <time>2015-12-11T13:20:42Z</time>
      </trkpt>
      <trkpt lat="45.58273" lon="6.07425">
        <ele>1473.558439162</ele>
        <time>2015-12-11T13:20:46Z</time>
      </trkpt>
      <trkpt lat="45.58273" lon="6.07425">
        <ele>1473.558439162</ele>
        <time>2015-12-11T13:20:51Z</time>
      </trkpt>
      <trkpt lat="45.58273" lon="6.07425">
        <ele>1473.558439162</ele>
        <time>2015-12-11T13:20:56Z</time>
      </trkpt>
      <trkpt lat="45.58273" lon="6.07425">
        <ele>1473.558439162</ele>
        <time>2015-12-11T13:21:01Z</time>
      </trkpt>
      <trkpt lat="45.58273" lon="6.07425">
        <ele>1473.558439162</ele>
        <time>2015-12-11T13:21:06Z</time>
      </trkpt>
      <trkpt lat="45.58273" lon="6.07425">
        <ele>1473.558439162</ele>
        <time>2015-12-11T13:21:11Z</time>
      </trkpt>
      <trkpt lat="45.58273" lon="6.07425">
        <ele>1473.558439162</ele>
        <time>2015-12-11T13:21:16Z</time>
      </trkpt>
      <trkpt lat="45.58273" lon="6.07425">
        <ele>1473.558439162</ele>
        <time>2015-12-11T13:21:21Z</time>
      </trkpt>
      <trkpt lat="45.58273" lon="6.07425">
        <ele>1473.558439162</ele>
        <time>2015-12-11T13:21:26Z</time>
      </trkpt>
      <trkpt lat="45.58273" lon="6.07425">
        <ele>1473.558439162</ele>
        <time>2015-12-11T13:21:31Z</time>
      </trkpt>
      <trkpt lat="45.58273" lon="6.07425">
        <ele>1473.558439162</ele>
        <time>2015-12-11T13:21:36Z</time>
      </trkpt>
      <trkpt lat="45.58273" lon="6.07425">
        <ele>1473.558439162</ele>
        <time>2015-12-11T13:21:41Z</time>
      </trkpt>
      <trkpt lat="45.58273" lon="6.07425">
        <ele>1473.558439162</ele>
        <time>2015-12-11T13:21:46Z</time>
      </trkpt>
      <trkpt lat="45.58273" lon="6.07425">
        <ele>1473.558439162</ele>
        <time>2015-12-11T13:21:51Z</time>
      </trkpt>
      <trkpt lat="45.58273" lon="6.07425">
        <ele>1473.558439162</ele>
        <time>2015-12-11T13:21:56Z</time>
      </trkpt>
      <trkpt lat="45.58273" lon="6.07425">
        <ele>1473.558439162</ele>
        <time>2015-12-11T13:22:01Z</time>
      </trkpt>
      <trkpt lat="45.58273" lon="6.07425">
        <ele>1473.558439162</ele>
        <time>2015-12-11T13:22:06Z</time>
      </trkpt>
      <trkpt lat="45.58273" lon="6.07425">
        <ele>1473.558439162</ele>
        <time>2015-12-11T13:22:12Z</time>
      </trkpt>
      <trkpt lat="45.58273" lon="6.07425">
        <ele>1473.558439162</ele>
        <time>2015-12-11T13:22:22Z</time>
      </trkpt>
      <trkpt lat="45.58273" lon="6.07425">
        <ele>1473.558439162</ele>
        <time>2015-12-11T13:22:26Z</time>
      </trkpt>
      <trkpt lat="45.58273" lon="6.07425">
        <ele>1473.558439162</ele>
        <time>2015-12-11T13:22:42Z</time>
      </trkpt>
      <trkpt lat="45.58273" lon="6.07425">
        <ele>1473.558439162</ele>
        <time>2015-12-11T13:22:46Z</time>
      </trkpt>
      <trkpt lat="45.58277" lon="6.07423">
        <ele>1473.558439162</ele>
        <time>2015-12-11T13:22:52Z</time>
      </trkpt>
      <trkpt lat="45.58282" lon="6.07421">
        <ele>1473.599714528</ele>
        <time>2015-12-11T13:22:57Z</time>
      </trkpt>
      <trkpt lat="45.58284" lon="6.07419">
        <ele>1473.599714528</ele>
        <time>2015-12-11T13:23:01Z</time>
      </trkpt>
      <trkpt lat="45.58298" lon="6.0742">
        <ele>1474.004211207</ele>
        <time>2015-12-11T13:23:12Z</time>
      </trkpt>
      <trkpt lat="45.58302" lon="6.07415">
        <ele>1474.004211207</ele>
        <time>2015-12-11T13:23:16Z</time>
      </trkpt>
      <trkpt lat="45.58308" lon="6.07412">
        <ele>1474.601813125</ele>
        <time>2015-12-11T13:23:27Z</time>
      </trkpt>
      <trkpt lat="45.5831" lon="6.07412">
        <ele>1474.601813125</ele>
        <time>2015-12-11T13:23:32Z</time>
      </trkpt>
      <trkpt lat="45.58315" lon="6.07411">
        <ele>1474.601813125</ele>
        <time>2015-12-11T13:23:42Z</time>
      </trkpt>
      <trkpt lat="45.58315" lon="6.0741">
        <ele>1474.601813125</ele>
        <time>2015-12-11T13:23:46Z</time>
      </trkpt>
      <trkpt lat="45.58315" lon="6.0741">
        <ele>1474.601813125</ele>
        <time>2015-12-11T13:23:56Z</time>
      </trkpt>
      <trkpt lat="45.58315" lon="6.0741">
        <ele>1474.601813125</ele>
        <time>2015-12-11T13:24:01Z</time>
      </trkpt>
      <trkpt lat="45.58331" lon="6.07411">
        <ele>1474.081529069</ele>
        <time>2015-12-11T13:24:12Z</time>
      </trkpt>
      <trkpt lat="45.58338" lon="6.07412">
        <ele>1474.081529069</ele>
        <time>2015-12-11T13:24:16Z</time>
      </trkpt>
      <trkpt lat="45.58358" lon="6.07408">
        <ele>1472.096522515</ele>
        <time>2015-12-11T13:24:27Z</time>
      </trkpt>
      <trkpt lat="45.58364" lon="6.07407">
        <ele>1472.096522515</ele>
        <time>2015-12-11T13:24:31Z</time>
      </trkpt>
      <trkpt lat="45.58371" lon="6.07401">
        <ele>1469.482464772</ele>
        <time>2015-12-11T13:24:47Z</time>
      </trkpt>
      <trkpt lat="45.58371" lon="6.07399">
        <ele>1469.482464772</ele>
        <time>2015-12-11T13:24:52Z</time>
      </trkpt>
      <trkpt lat="45.58381" lon="6.0739">
        <ele>1466.727191805</ele>
        <time>2015-12-11T13:25:02Z</time>
      </trkpt>
      <trkpt lat="45.58387" lon="6.07383">
        <ele>1466.727191805</ele>
        <time>2015-12-11T13:25:07Z</time>
      </trkpt>
      <trkpt lat="45.58385" lon="6.07373">
        <ele>1462.841970952</ele>
        <time>2015-12-11T13:25:17Z</time>
      </trkpt>
      <trkpt lat="45.58385" lon="6.0737">
        <ele>1462.841970952</ele>
        <time>2015-12-11T13:25:22Z</time>
      </trkpt>
      <trkpt lat="45.58377" lon="6.07363">
        <ele>1458.787268887</ele>
        <time>2015-12-11T13:25:31Z</time>
      </trkpt>
      <trkpt lat="45.5837" lon="6.07353">
        <ele>1455.309283209</ele>
        <time>2015-12-11T13:25:37Z</time>
      </trkpt>
      <trkpt lat="45.58361" lon="6.07344">
        <ele>1451.656558326</ele>
        <time>2015-12-11T13:25:47Z</time>
      </trkpt>
      <trkpt lat="45.58356" lon="6.07339">
        <ele>1451.656558326</ele>
        <time>2015-12-11T13:25:52Z</time>
      </trkpt>
      <trkpt lat="45.58347" lon="6.07331">
        <ele>1447.853748802</ele>
        <time>2015-12-11T13:26:02Z</time>
      </trkpt>
      <trkpt lat="45.58342" lon="6.0733">
        <ele>1447.853748802</ele>
        <time>2015-12-11T13:26:07Z</time>
      </trkpt>
      <trkpt lat="45.58335" lon="6.07322">
        <ele>1443.203398505</ele>
        <time>2015-12-11T13:26:17Z</time>
      </trkpt>
      <trkpt lat="45.58331" lon="6.07328">
        <ele>1443.203398505</ele>
        <time>2015-12-11T13:26:22Z</time>
      </trkpt>
      <trkpt lat="45.58315" lon="6.07311">
        <ele>1438.070250324</ele>
        <time>2015-12-11T13:26:37Z</time>
      </trkpt>
      <trkpt lat="45.58314" lon="6.07307">
        <ele>1438.070250324</ele>
        <time>2015-12-11T13:26:41Z</time>
      </trkpt>
      <trkpt lat="45.58301" lon="6.073">
        <ele>1432.36105477</ele>
        <time>2015-12-11T13:26:52Z</time>
      </trkpt>
      <trkpt lat="45.58296" lon="6.07296">
        <ele>1432.36105477</ele>
        <time>2015-12-11T13:26:56Z</time>
      </trkpt>
      <trkpt lat="45.58284" lon="6.07288">
        <ele>1426.711336</ele>
        <time>2015-12-11T13:27:06Z</time>
      </trkpt>
      <trkpt lat="45.58282" lon="6.07285">
        <ele>1426.711336</ele>
        <time>2015-12-11T13:27:13Z</time>
      </trkpt>
      <trkpt lat="45.58274" lon="6.07277">
        <ele>1420.124264375</ele>
        <time>2015-12-11T13:27:22Z</time>
      </trkpt>
      <trkpt lat="45.58271" lon="6.07276">
        <ele>1420.124264375</ele>
        <time>2015-12-11T13:27:27Z</time>
      </trkpt>
      <trkpt lat="45.58262" lon="6.07266">
        <ele>1413.119667961</ele>
        <time>2015-12-11T13:27:37Z</time>
      </trkpt>
      <trkpt lat="45.5826" lon="6.07262">
        <ele>1413.119667961</ele>
        <time>2015-12-11T13:27:41Z</time>
      </trkpt>
      <trkpt lat="45.58252" lon="6.07244">
        <ele>1406.180018943</ele>
        <time>2015-12-11T13:27:57Z</time>
      </trkpt>
      <trkpt lat="45.58255" lon="6.07241">
        <ele>1406.180018943</ele>
        <time>2015-12-11T13:28:01Z</time>
      </trkpt>
      <trkpt lat="45.58263" lon="6.07232">
        <ele>1400.184129379</ele>
        <time>2015-12-11T13:28:12Z</time>
      </trkpt>
      <trkpt lat="45.58264" lon="6.0723">
        <ele>1400.184129379</ele>
        <time>2015-12-11T13:28:16Z</time>
      </trkpt>
      <trkpt lat="45.58269" lon="6.07224">
        <ele>1400.184129379</ele>
        <time>2015-12-11T13:28:27Z</time>
      </trkpt>
      <trkpt lat="45.5827" lon="6.0722">
        <ele>1394.213877705</ele>
        <time>2015-12-11T13:28:31Z</time>
      </trkpt>
      <trkpt lat="45.58271" lon="6.0721">
        <ele>1394.213877705</ele>
        <time>2015-12-11T13:28:42Z</time>
      </trkpt>
      <trkpt lat="45.58271" lon="6.07206">
        <ele>1389.723880176</ele>
        <time>2015-12-11T13:28:47Z</time>
      </trkpt>
      <trkpt lat="45.58274" lon="6.07192">
        <ele>1386.039764882</ele>
        <time>2015-12-11T13:28:57Z</time>
      </trkpt>
      <trkpt lat="45.58279" lon="6.07188">
        <ele>1386.039764882</ele>
        <time>2015-12-11T13:29:01Z</time>
      </trkpt>
      <trkpt lat="45.58281" lon="6.07186">
        <ele>1386.039764882</ele>
        <time>2015-12-11T13:29:12Z</time>
      </trkpt>
      <trkpt lat="45.58282" lon="6.0718">
        <ele>1382.822234358</ele>
        <time>2015-12-11T13:29:16Z</time>
      </trkpt>
      <trkpt lat="45.58283" lon="6.07179">
        <ele>1382.822234358</ele>
        <time>2015-12-11T13:29:27Z</time>
      </trkpt>
      <trkpt lat="45.58286" lon="6.07176">
        <ele>1382.822234358</ele>
        <time>2015-12-11T13:29:32Z</time>
      </trkpt>
      <trkpt lat="45.58285" lon="6.07171">
        <ele>1377.881737178</ele>
        <time>2015-12-11T13:29:42Z</time>
      </trkpt>
      <trkpt lat="45.58285" lon="6.07171">
        <ele>1377.881737178</ele>
        <time>2015-12-11T13:29:47Z</time>
      </trkpt>
      <trkpt lat="45.58288" lon="6.07166">
        <ele>1377.881737178</ele>
        <time>2015-12-11T13:29:56Z</time>
      </trkpt>
      <trkpt lat="45.5829" lon="6.07166">
        <ele>1377.881737178</ele>
        <time>2015-12-11T13:30:01Z</time>
      </trkpt>
      <trkpt lat="45.58291" lon="6.07164">
        <ele>1377.881737178</ele>
        <time>2015-12-11T13:30:06Z</time>
      </trkpt>
      <trkpt lat="45.58286" lon="6.07164">
        <ele>1371.499755249</ele>
        <time>2015-12-11T13:30:12Z</time>
      </trkpt>
      <trkpt lat="45.58283" lon="6.07158">
        <ele>1371.499755249</ele>
        <time>2015-12-11T13:30:16Z</time>
      </trkpt>
      <trkpt lat="45.5828" lon="6.0715">
        <ele>1365.381827155</ele>
        <time>2015-12-11T13:30:21Z</time>
      </trkpt>
      <trkpt lat="45.58275" lon="6.07145">
        <ele>1365.381827155</ele>
        <time>2015-12-11T13:30:32Z</time>
      </trkpt>
      <trkpt lat="45.58275" lon="6.07144">
        <ele>1365.381827155</ele>
        <time>2015-12-11T13:30:36Z</time>
      </trkpt>
      <trkpt lat="45.58274" lon="6.07142">
        <ele>1365.381827155</ele>
        <time>2015-12-11T13:30:47Z</time>
      </trkpt>
      <trkpt lat="45.58274" lon="6.07142">
        <ele>1365.381827155</ele>
        <time>2015-12-11T13:30:51Z</time>
      </trkpt>
      <trkpt lat="45.58267" lon="6.07132">
        <ele>1358.080701492</ele>
        <time>2015-12-11T13:31:02Z</time>
      </trkpt>
      <trkpt lat="45.58266" lon="6.0713">
        <ele>1358.080701492</ele>
        <time>2015-12-11T13:31:07Z</time>
      </trkpt>
      <trkpt lat="45.58259" lon="6.07119">
        <ele>1351.140547246</ele>
        <time>2015-12-11T13:31:17Z</time>
      </trkpt>
      <trkpt lat="45.58258" lon="6.07113">
        <ele>1351.140547246</ele>
        <time>2015-12-11T13:31:22Z</time>
      </trkpt>
      <trkpt lat="45.58254" lon="6.07108">
        <ele>1344.837751561</ele>
        <time>2015-12-11T13:31:32Z</time>
      </trkpt>
      <trkpt lat="45.58254" lon="6.07108">
        <ele>1344.837751561</ele>
        <time>2015-12-11T13:31:36Z</time>
      </trkpt>
      <trkpt lat="45.58257" lon="6.07106">
        <ele>1344.837751561</ele>
        <time>2015-12-11T13:31:47Z</time>
      </trkpt>
      <trkpt lat="45.58258" lon="6.07101">
        <ele>1344.837751561</ele>
        <time>2015-12-11T13:31:53Z</time>
      </trkpt>
      <trkpt lat="45.58266" lon="6.07099">
        <ele>1337.120375058</ele>
        <time>2015-12-11T13:32:02Z</time>
      </trkpt>
      <trkpt lat="45.58269" lon="6.071">
        <ele>1337.120375058</ele>
        <time>2015-12-11T13:32:06Z</time>
      </trkpt>
      <trkpt lat="45.5828" lon="6.07093">
        <ele>1329.549382744</ele>
        <time>2015-12-11T13:32:17Z</time>
      </trkpt>
      <trkpt lat="45.58284" lon="6.07087">
        <ele>1329.549382744</ele>
        <time>2015-12-11T13:32:21Z</time>
      </trkpt>
      <trkpt lat="45.58287" lon="6.07081">
        <ele>1323.281966788</ele>
        <time>2015-12-11T13:32:27Z</time>
      </trkpt>
      <trkpt lat="45.58294" lon="6.07079">
        <ele>1323.281966788</ele>
        <time>2015-12-11T13:32:37Z</time>
      </trkpt>
      <trkpt lat="45.58299" lon="6.07075">
        <ele>1316.35984377</ele>
        <time>2015-12-11T13:32:41Z</time>
      </trkpt>
      <trkpt lat="45.58313" lon="6.07079">
        <ele>1308.987496066</ele>
        <time>2015-12-11T13:32:52Z</time>
      </trkpt>
      <trkpt lat="45.58319" lon="6.07071">
        <ele>1308.987496066</ele>
        <time>2015-12-11T13:32:56Z</time>
      </trkpt>
      <trkpt lat="45.5833" lon="6.07065">
        <ele>1302.50805587</ele>
        <time>2015-12-11T13:33:07Z</time>
      </trkpt>
      <trkpt lat="45.58327" lon="6.07061">
        <ele>1302.50805587</ele>
        <time>2015-12-11T13:33:12Z</time>
      </trkpt>
      <trkpt lat="45.58319" lon="6.07049">
        <ele>1296.145449643</ele>
        <time>2015-12-11T13:33:22Z</time>
      </trkpt>
      <trkpt lat="45.58318" lon="6.07047">
        <ele>1296.145449643</ele>
        <time>2015-12-11T13:33:27Z</time>
      </trkpt>
      <trkpt lat="45.58315" lon="6.07041">
        <ele>1296.145449643</ele>
        <time>2015-12-11T13:33:31Z</time>
      </trkpt>
      <trkpt lat="45.58313" lon="6.07037">
        <ele>1288.891587289</ele>
        <time>2015-12-11T13:33:37Z</time>
      </trkpt>
      <trkpt lat="45.5831" lon="6.07033">
        <ele>1288.891587289</ele>
        <time>2015-12-11T13:33:42Z</time>
      </trkpt>
      <trkpt lat="45.58309" lon="6.07032">
        <ele>1288.891587289</ele>
        <time>2015-12-11T13:33:47Z</time>
      </trkpt>
      <trkpt lat="45.5831" lon="6.07034">
        <ele>1288.891587289</ele>
        <time>2015-12-11T13:33:52Z</time>
      </trkpt>
      <trkpt lat="45.58311" lon="6.07035">
        <ele>1288.891587289</ele>
        <time>2015-12-11T13:33:56Z</time>
      </trkpt>
      <trkpt lat="45.58311" lon="6.07036">
        <ele>1288.891587289</ele>
        <time>2015-12-11T13:34:01Z</time>
      </trkpt>
      <trkpt lat="45.5831" lon="6.07025">
        <ele>1281.255571195</ele>
        <time>2015-12-11T13:34:11Z</time>
      </trkpt>
      <trkpt lat="45.58311" lon="6.07025">
        <ele>1281.255571195</ele>
        <time>2015-12-11T13:34:17Z</time>
      </trkpt>
      <trkpt lat="45.58307" lon="6.07024">
        <ele>1281.255571195</ele>
        <time>2015-12-11T13:34:27Z</time>
      </trkpt>
      <trkpt lat="45.58304" lon="6.0702">
        <ele>1272.700928099</ele>
        <time>2015-12-11T13:34:32Z</time>
      </trkpt>
      <trkpt lat="45.58293" lon="6.0702">
        <ele>1264.606145136</ele>
        <time>2015-12-11T13:34:42Z</time>
      </trkpt>
      <trkpt lat="45.58291" lon="6.07018">
        <ele>1264.606145136</ele>
        <time>2015-12-11T13:34:46Z</time>
      </trkpt>
      <trkpt lat="45.58287" lon="6.07008">
        <ele>1257.093795963</ele>
        <time>2015-12-11T13:34:57Z</time>
      </trkpt>
      <trkpt lat="45.58289" lon="6.0701">
        <ele>1257.093795963</ele>
        <time>2015-12-11T13:35:01Z</time>
      </trkpt>
      <trkpt lat="45.58295" lon="6.0701">
        <ele>1257.093795963</ele>
        <time>2015-12-11T13:35:12Z</time>
      </trkpt>
      <trkpt lat="45.58296" lon="6.07008">
        <ele>1249.843012237</ele>
        <time>2015-12-11T13:35:16Z</time>
      </trkpt>
      <trkpt lat="45.58288" lon="6.07001">
        <ele>1242.987629843</ele>
        <time>2015-12-11T13:35:27Z</time>
      </trkpt>
      <trkpt lat="45.58283" lon="6.07">
        <ele>1242.987629843</ele>
        <time>2015-12-11T13:35:31Z</time>
      </trkpt>
      <trkpt lat="45.58273" lon="6.06997">
        <ele>1236.073640919</ele>
        <time>2015-12-11T13:35:42Z</time>
      </trkpt>
      <trkpt lat="45.58273" lon="6.06992">
        <ele>1236.073640919</ele>
        <time>2015-12-11T13:35:47Z</time>
      </trkpt>
      <trkpt lat="45.58265" lon="6.06986">
        <ele>1229.112439013</ele>
        <time>2015-12-11T13:35:57Z</time>
      </trkpt>
      <trkpt lat="45.58261" lon="6.06982">
        <ele>1229.112439013</ele>
        <time>2015-12-11T13:36:01Z</time>
      </trkpt>
      <trkpt lat="45.58254" lon="6.06976">
        <ele>1222.690723305</ele>
        <time>2015-12-11T13:36:11Z</time>
      </trkpt>
      <trkpt lat="45.58255" lon="6.06975">
        <ele>1222.690723305</ele>
        <time>2015-12-11T13:36:17Z</time>
      </trkpt>
      <trkpt lat="45.58254" lon="6.06973">
        <ele>1222.690723305</ele>
        <time>2015-12-11T13:36:27Z</time>
      </trkpt>
      <trkpt lat="45.58258" lon="6.06971">
        <ele>1222.690723305</ele>
        <time>2015-12-11T13:36:31Z</time>
      </trkpt>
      <trkpt lat="45.58266" lon="6.06963">
        <ele>1216.917828586</ele>
        <time>2015-12-11T13:36:42Z</time>
      </trkpt>
      <trkpt lat="45.58267" lon="6.06956">
        <ele>1216.917828586</ele>
        <time>2015-12-11T13:36:46Z</time>
      </trkpt>
      <trkpt lat="45.58275" lon="6.06942">
        <ele>1212.325172014</ele>
        <time>2015-12-11T13:36:57Z</time>
      </trkpt>
      <trkpt lat="45.58278" lon="6.06944">
        <ele>1212.325172014</ele>
        <time>2015-12-11T13:37:02Z</time>
      </trkpt>
      <trkpt lat="45.58288" lon="6.06941">
        <ele>1207.528000592</ele>
        <time>2015-12-11T13:37:17Z</time>
      </trkpt>
      <trkpt lat="45.58289" lon="6.0694">
        <ele>1207.528000592</ele>
        <time>2015-12-11T13:37:21Z</time>
      </trkpt>
      <trkpt lat="45.58302" lon="6.06929">
        <ele>1203.837511053</ele>
        <time>2015-12-11T13:37:34Z</time>
      </trkpt>
      <trkpt lat="45.58306" lon="6.06935">
        <ele>1203.837511053</ele>
        <time>2015-12-11T13:37:37Z</time>
      </trkpt>
      <trkpt lat="45.58316" lon="6.06931">
        <ele>1199.727046339</ele>
        <time>2015-12-11T13:37:47Z</time>
      </trkpt>
      <trkpt lat="45.58317" lon="6.06928">
        <ele>1199.727046339</ele>
        <time>2015-12-11T13:37:52Z</time>
      </trkpt>
      <trkpt lat="45.58309" lon="6.06909">
        <ele>1194.21532095</ele>
        <time>2015-12-11T13:38:07Z</time>
      </trkpt>
      <trkpt lat="45.58301" lon="6.06899">
        <ele>1189.42314098</ele>
        <time>2015-12-11T13:38:17Z</time>
      </trkpt>
      <trkpt lat="45.58298" lon="6.06895">
        <ele>1189.42314098</ele>
        <time>2015-12-11T13:38:22Z</time>
      </trkpt>
      <trkpt lat="45.58302" lon="6.0689">
        <ele>1185.295713384</ele>
        <time>2015-12-11T13:38:36Z</time>
      </trkpt>
      <trkpt lat="45.58307" lon="6.06888">
        <ele>1185.295713384</ele>
        <time>2015-12-11T13:38:42Z</time>
      </trkpt>
      <trkpt lat="45.58314" lon="6.06889">
        <ele>1181.780200333</ele>
        <time>2015-12-11T13:38:52Z</time>
      </trkpt>
      <trkpt lat="45.58315" lon="6.06891">
        <ele>1181.780200333</ele>
        <time>2015-12-11T13:38:56Z</time>
      </trkpt>
      <trkpt lat="45.5832" lon="6.06887">
        <ele>1181.780200333</ele>
        <time>2015-12-11T13:39:07Z</time>
      </trkpt>
      <trkpt lat="45.58325" lon="6.06889">
        <ele>1177.816971303</ele>
        <time>2015-12-11T13:39:12Z</time>
      </trkpt>
      <trkpt lat="45.58335" lon="6.0688">
        <ele>1174.442896774</ele>
        <time>2015-12-11T13:39:22Z</time>
      </trkpt>
      <trkpt lat="45.58337" lon="6.06875">
        <ele>1174.442896774</ele>
        <time>2015-12-11T13:39:26Z</time>
      </trkpt>
      <trkpt lat="45.58339" lon="6.06864">
        <ele>1171.175792486</ele>
        <time>2015-12-11T13:39:36Z</time>
      </trkpt>
      <trkpt lat="45.58339" lon="6.06858">
        <ele>1171.175792486</ele>
        <time>2015-12-11T13:39:41Z</time>
      </trkpt>
      <trkpt lat="45.58338" lon="6.06845">
        <ele>1168.289057319</ele>
        <time>2015-12-11T13:39:52Z</time>
      </trkpt>
      <trkpt lat="45.58341" lon="6.06839">
        <ele>1168.289057319</ele>
        <time>2015-12-11T13:39:56Z</time>
      </trkpt>
      <trkpt lat="45.58347" lon="6.06831">
        <ele>1166.034875135</ele>
        <time>2015-12-11T13:40:07Z</time>
      </trkpt>
      <trkpt lat="45.58354" lon="6.06828">
        <ele>1166.034875135</ele>
        <time>2015-12-11T13:40:12Z</time>
      </trkpt>
      <trkpt lat="45.58365" lon="6.0682">
        <ele>1162.62753736</ele>
        <time>2015-12-11T13:40:22Z</time>
      </trkpt>
      <trkpt lat="45.58369" lon="6.0682">
        <ele>1162.62753736</ele>
        <time>2015-12-11T13:40:27Z</time>
      </trkpt>
      <trkpt lat="45.58386" lon="6.06814">
        <ele>1158.145069829</ele>
        <time>2015-12-11T13:40:37Z</time>
      </trkpt>
      <trkpt lat="45.58389" lon="6.06814">
        <ele>1158.145069829</ele>
        <time>2015-12-11T13:40:42Z</time>
      </trkpt>
      <trkpt lat="45.58404" lon="6.06791">
        <ele>1152.230455885</ele>
        <time>2015-12-11T13:40:57Z</time>
      </trkpt>
      <trkpt lat="45.58406" lon="6.06786">
        <ele>1152.230455885</ele>
        <time>2015-12-11T13:41:01Z</time>
      </trkpt>
      <trkpt lat="45.58415" lon="6.06772">
        <ele>1146.574497498</ele>
        <time>2015-12-11T13:41:12Z</time>
      </trkpt>
      <trkpt lat="45.5842" lon="6.06772">
        <ele>1146.574497498</ele>
        <time>2015-12-11T13:41:16Z</time>
      </trkpt>
      <trkpt lat="45.58434" lon="6.06771">
        <ele>1141.157866275</ele>
        <time>2015-12-11T13:41:27Z</time>
      </trkpt>
      <trkpt lat="45.58437" lon="6.06768">
        <ele>1141.157866275</ele>
        <time>2015-12-11T13:41:32Z</time>
      </trkpt>
      <trkpt lat="45.58447" lon="6.06759">
        <ele>1136.826675603</ele>
        <time>2015-12-11T13:41:42Z</time>
      </trkpt>
      <trkpt lat="45.58449" lon="6.0676">
        <ele>1136.826675603</ele>
        <time>2015-12-11T13:41:47Z</time>
      </trkpt>
      <trkpt lat="45.58455" lon="6.06748">
        <ele>1133.641314489</ele>
        <time>2015-12-11T13:41:57Z</time>
      </trkpt>
      <trkpt lat="45.58458" lon="6.06745">
        <ele>1133.641314489</ele>
        <time>2015-12-11T13:42:01Z</time>
      </trkpt>
      <trkpt lat="45.58469" lon="6.0674">
        <ele>1131.366341318</ele>
        <time>2015-12-11T13:42:11Z</time>
      </trkpt>
      <trkpt lat="45.5847" lon="6.06732">
        <ele>1131.366341318</ele>
        <time>2015-12-11T13:42:16Z</time>
      </trkpt>
      <trkpt lat="45.58468" lon="6.06717">
        <ele>1128.340001177</ele>
        <time>2015-12-11T13:42:27Z</time>
      </trkpt>
      <trkpt lat="45.58463" lon="6.06712">
        <ele>1128.340001177</ele>
        <time>2015-12-11T13:42:31Z</time>
      </trkpt>
      <trkpt lat="45.58455" lon="6.06697">
        <ele>1125.330572017</ele>
        <time>2015-12-11T13:42:42Z</time>
      </trkpt>
      <trkpt lat="45.58453" lon="6.06691">
        <ele>1125.330572017</ele>
        <time>2015-12-11T13:42:47Z</time>
      </trkpt>
      <trkpt lat="45.58454" lon="6.06688">
        <ele>1125.330572017</ele>
        <time>2015-12-11T13:42:51Z</time>
      </trkpt>
      <trkpt lat="45.5845" lon="6.06678">
        <ele>1122.329384386</ele>
        <time>2015-12-11T13:43:02Z</time>
      </trkpt>
      <trkpt lat="45.58445" lon="6.06667">
        <ele>1122.329384386</ele>
        <time>2015-12-11T13:43:06Z</time>
      </trkpt>
      <trkpt lat="45.58433" lon="6.06649">
        <ele>1120.049049124</ele>
        <time>2015-12-11T13:43:17Z</time>
      </trkpt>
      <trkpt lat="45.58428" lon="6.06644">
        <ele>1120.049049124</ele>
        <time>2015-12-11T13:43:22Z</time>
      </trkpt>
      <trkpt lat="45.58419" lon="6.06633">
        <ele>1117.418598958</ele>
        <time>2015-12-11T13:43:32Z</time>
      </trkpt>
      <trkpt lat="45.58413" lon="6.06625">
        <ele>1117.418598958</ele>
        <time>2015-12-11T13:43:36Z</time>
      </trkpt>
      <trkpt lat="45.5841" lon="6.06616">
        <ele>1114.59975131</ele>
        <time>2015-12-11T13:43:47Z</time>
      </trkpt>
      <trkpt lat="45.58409" lon="6.06614">
        <ele>1114.59975131</ele>
        <time>2015-12-11T13:43:51Z</time>
      </trkpt>
      <trkpt lat="45.58408" lon="6.06613">
        <ele>1114.59975131</ele>
        <time>2015-12-11T13:44:02Z</time>
      </trkpt>
      <trkpt lat="45.58408" lon="6.06613">
        <ele>1114.59975131</ele>
        <time>2015-12-11T13:44:06Z</time>
      </trkpt>
      <trkpt lat="45.58409" lon="6.06614">
        <ele>1114.59975131</ele>
        <time>2015-12-11T13:44:16Z</time>
      </trkpt>
      <trkpt lat="45.58407" lon="6.06612">
        <ele>1114.59975131</ele>
        <time>2015-12-11T13:44:22Z</time>
      </trkpt>
      <trkpt lat="45.58407" lon="6.06612">
        <ele>1114.59975131</ele>
        <time>2015-12-11T13:44:32Z</time>
      </trkpt>
      <trkpt lat="45.58407" lon="6.06613">
        <ele>1114.59975131</ele>
        <time>2015-12-11T13:44:37Z</time>
      </trkpt>
      <trkpt lat="45.58407" lon="6.06613">
        <ele>1114.59975131</ele>
        <time>2015-12-11T13:44:47Z</time>
      </trkpt>
      <trkpt lat="45.58406" lon="6.06612">
        <ele>1114.59975131</ele>
        <time>2015-12-11T13:44:52Z</time>
      </trkpt>
      <trkpt lat="45.58406" lon="6.06612">
        <ele>1114.59975131</ele>
        <time>2015-12-11T13:45:01Z</time>
      </trkpt>
      <trkpt lat="45.58407" lon="6.06613">
        <ele>1114.59975131</ele>
        <time>2015-12-11T13:45:06Z</time>
      </trkpt>
      <trkpt lat="45.58407" lon="6.06611">
        <ele>1111.022469304</ele>
        <time>2015-12-11T13:45:17Z</time>
      </trkpt>
      <trkpt lat="45.58407" lon="6.06611">
        <ele>1111.022469304</ele>
        <time>2015-12-11T13:45:21Z</time>
      </trkpt>
      <trkpt lat="45.58412" lon="6.06614">
        <ele>1111.022469304</ele>
        <time>2015-12-11T13:45:31Z</time>
      </trkpt>
      <trkpt lat="45.58412" lon="6.06615">
        <ele>1111.022469304</ele>
        <time>2015-12-11T13:45:36Z</time>
      </trkpt>
      <trkpt lat="45.58411" lon="6.06615">
        <ele>1111.022469304</ele>
        <time>2015-12-11T13:45:46Z</time>
      </trkpt>
      <trkpt lat="45.58411" lon="6.06616">
        <ele>1111.022469304</ele>
        <time>2015-12-11T13:45:52Z</time>
      </trkpt>
      <trkpt lat="45.58412" lon="6.06616">
        <ele>1107.457881101</ele>
        <time>2015-12-11T13:46:01Z</time>
      </trkpt>
      <trkpt lat="45.58412" lon="6.06616">
        <ele>1107.457881101</ele>
        <time>2015-12-11T13:46:06Z</time>
      </trkpt>
      <trkpt lat="45.58412" lon="6.06616">
        <ele>1107.457881101</ele>
        <time>2015-12-11T13:46:12Z</time>
      </trkpt>
      <trkpt lat="45.58412" lon="6.06616">
        <ele>1107.457881101</ele>
        <time>2015-12-11T13:46:22Z</time>
      </trkpt>
      <trkpt lat="45.5841" lon="6.06612">
        <ele>1107.457881101</ele>
        <time>2015-12-11T13:46:27Z</time>
      </trkpt>
      <trkpt lat="45.5841" lon="6.06611">
        <ele>1107.457881101</ele>
        <time>2015-12-11T13:46:36Z</time>
      </trkpt>
      <trkpt lat="45.5841" lon="6.06611">
        <ele>1107.457881101</ele>
        <time>2015-12-11T13:46:41Z</time>
      </trkpt>
      <trkpt lat="45.5841" lon="6.06611">
        <ele>1107.457881101</ele>
        <time>2015-12-11T13:46:51Z</time>
      </trkpt>
      <trkpt lat="45.5841" lon="6.06611">
        <ele>1107.457881101</ele>
        <time>2015-12-11T13:46:56Z</time>
      </trkpt>
      <trkpt lat="45.5841" lon="6.06612">
        <ele>1107.457881101</ele>
        <time>2015-12-11T13:47:06Z</time>
      </trkpt>
      <trkpt lat="45.58408" lon="6.06614">
        <ele>1107.457881101</ele>
        <time>2015-12-11T13:47:12Z</time>
      </trkpt>
      <trkpt lat="45.58398" lon="6.06621">
        <ele>1105.052936492</ele>
        <time>2015-12-11T13:47:22Z</time>
      </trkpt>
      <trkpt lat="45.58394" lon="6.06622">
        <ele>1105.052936492</ele>
        <time>2015-12-11T13:47:27Z</time>
      </trkpt>
      <trkpt lat="45.58376" lon="6.06629">
        <ele>1103.426144645</ele>
        <time>2015-12-11T13:47:37Z</time>
      </trkpt>
      <trkpt lat="45.58368" lon="6.06629">
        <ele>1103.426144645</ele>
        <time>2015-12-11T13:47:41Z</time>
      </trkpt>
      <trkpt lat="45.58356" lon="6.06629">
        <ele>1101.645598722</ele>
        <time>2015-12-11T13:47:52Z</time>
      </trkpt>
      <trkpt lat="45.5835" lon="6.06623">
        <ele>1101.645598722</ele>
        <time>2015-12-11T13:47:57Z</time>
      </trkpt>
      <trkpt lat="45.58333" lon="6.06613">
        <ele>1098.416143573</ele>
        <time>2015-12-11T13:48:12Z</time>
      </trkpt>
      <trkpt lat="45.58315" lon="6.06618">
        <ele>1095.856593138</ele>
        <time>2015-12-11T13:48:22Z</time>
      </trkpt>
      <trkpt lat="45.58314" lon="6.06616">
        <ele>1095.856593138</ele>
        <time>2015-12-11T13:48:26Z</time>
      </trkpt>
      <trkpt lat="45.5831" lon="6.0661">
        <ele>1095.856593138</ele>
        <time>2015-12-11T13:48:31Z</time>
      </trkpt>
      <trkpt lat="45.58297" lon="6.06601">
        <ele>1093.33444769</ele>
        <time>2015-12-11T13:48:42Z</time>
      </trkpt>
      <trkpt lat="45.58293" lon="6.066">
        <ele>1093.33444769</ele>
        <time>2015-12-11T13:48:47Z</time>
      </trkpt>
      <trkpt lat="45.58276" lon="6.06596">
        <ele>1091.704896556</ele>
        <time>2015-12-11T13:48:56Z</time>
      </trkpt>
      <trkpt lat="45.58263" lon="6.06593">
        <ele>1090.749251002</ele>
        <time>2015-12-11T13:49:02Z</time>
      </trkpt>
      <trkpt lat="45.5825" lon="6.06584">
        <ele>1089.830897969</ele>
        <time>2015-12-11T13:49:12Z</time>
      </trkpt>
      <trkpt lat="45.58245" lon="6.06582">
        <ele>1089.830897969</ele>
        <time>2015-12-11T13:49:17Z</time>
      </trkpt>
      <trkpt lat="45.58237" lon="6.0658">
        <ele>1087.92779573</ele>
        <time>2015-12-11T13:49:27Z</time>
      </trkpt>
      <trkpt lat="45.5823" lon="6.06583">
        <ele>1087.92779573</ele>
        <time>2015-12-11T13:49:33Z</time>
      </trkpt>
      <trkpt lat="45.58216" lon="6.0659">
        <ele>1086.25766493</ele>
        <time>2015-12-11T13:49:42Z</time>
      </trkpt>
      <trkpt lat="45.58209" lon="6.06593">
        <ele>1086.25766493</ele>
        <time>2015-12-11T13:49:46Z</time>
      </trkpt>
      <trkpt lat="45.58188" lon="6.066">
        <ele>1084.795491763</ele>
        <time>2015-12-11T13:50:02Z</time>
      </trkpt>
      <trkpt lat="45.58183" lon="6.06602">
        <ele>1084.795491763</ele>
        <time>2015-12-11T13:50:06Z</time>
      </trkpt>
      <trkpt lat="45.58169" lon="6.06589">
        <ele>1083.517783505</ele>
        <time>2015-12-11T13:50:17Z</time>
      </trkpt>
      <trkpt lat="45.58163" lon="6.0659">
        <ele>1083.517783505</ele>
        <time>2015-12-11T13:50:21Z</time>
      </trkpt>
      <trkpt lat="45.58149" lon="6.0659">
        <ele>1082.834861273</ele>
        <time>2015-12-11T13:50:31Z</time>
      </trkpt>
      <trkpt lat="45.58143" lon="6.06589">
        <ele>1082.834861273</ele>
        <time>2015-12-11T13:50:36Z</time>
      </trkpt>
      <trkpt lat="45.58127" lon="6.0659">
        <ele>1082.11673531</ele>
        <time>2015-12-11T13:50:47Z</time>
      </trkpt>
      <trkpt lat="45.58117" lon="6.0659">
        <ele>1081.356521958</ele>
        <time>2015-12-11T13:50:52Z</time>
      </trkpt>
      <trkpt lat="45.58101" lon="6.06591">
        <ele>1080.260028556</ele>
        <time>2015-12-11T13:51:02Z</time>
      </trkpt>
      <trkpt lat="45.58095" lon="6.06587">
        <ele>1080.260028556</ele>
        <time>2015-12-11T13:51:07Z</time>
      </trkpt>
      <trkpt lat="45.5808" lon="6.0657">
        <ele>1079.708801397</ele>
        <time>2015-12-11T13:51:17Z</time>
      </trkpt>
      <trkpt lat="45.58075" lon="6.06565">
        <ele>1079.708801397</ele>
        <time>2015-12-11T13:51:21Z</time>
      </trkpt>
      <trkpt lat="45.5806" lon="6.06557">
        <ele>1079.65373221</ele>
        <time>2015-12-11T13:51:31Z</time>
      </trkpt>
      <trkpt lat="45.58056" lon="6.06552">
        <ele>1079.65373221</ele>
        <time>2015-12-11T13:51:37Z</time>
      </trkpt>
      <trkpt lat="45.58047" lon="6.06552">
        <ele>1079.90412231</ele>
        <time>2015-12-11T13:51:47Z</time>
      </trkpt>
      <trkpt lat="45.58039" lon="6.06556">
        <ele>1079.90412231</ele>
        <time>2015-12-11T13:51:51Z</time>
      </trkpt>
      <trkpt lat="45.58039" lon="6.06557">
        <ele>1080.138624634</ele>
        <time>2015-12-11T13:52:01Z</time>
      </trkpt>
      <trkpt lat="45.58038" lon="6.06559">
        <ele>1080.138624634</ele>
        <time>2015-12-11T13:52:06Z</time>
      </trkpt>
      <trkpt lat="45.58038" lon="6.06556">
        <ele>1080.138624634</ele>
        <time>2015-12-11T13:52:11Z</time>
      </trkpt>
      <trkpt lat="45.58034" lon="6.06558">
        <ele>1080.138624634</ele>
        <time>2015-12-11T13:52:17Z</time>
      </trkpt>
      <trkpt lat="45.58022" lon="6.0657">
        <ele>1080.203971479</ele>
        <time>2015-12-11T13:52:27Z</time>
      </trkpt>
      <trkpt lat="45.58017" lon="6.06572">
        <ele>1080.203971479</ele>
        <time>2015-12-11T13:52:32Z</time>
      </trkpt>
      <trkpt lat="45.57998" lon="6.06558">
        <ele>1079.958951884</ele>
        <time>2015-12-11T13:52:47Z</time>
      </trkpt>
      <trkpt lat="45.57995" lon="6.06553">
        <ele>1079.958951884</ele>
        <time>2015-12-11T13:52:52Z</time>
      </trkpt>
      <trkpt lat="45.5799" lon="6.06539">
        <ele>1080.282705044</ele>
        <time>2015-12-11T13:53:02Z</time>
      </trkpt>
      <trkpt lat="45.57988" lon="6.06529">
        <ele>1080.282705044</ele>
        <time>2015-12-11T13:53:07Z</time>
      </trkpt>
      <trkpt lat="45.57985" lon="6.06512">
        <ele>1081.123858696</ele>
        <time>2015-12-11T13:53:17Z</time>
      </trkpt>
      <trkpt lat="45.57982" lon="6.06507">
        <ele>1081.123858696</ele>
        <time>2015-12-11T13:53:22Z</time>
      </trkpt>
      <trkpt lat="45.57974" lon="6.06503">
        <ele>1082.001365411</ele>
        <time>2015-12-11T13:53:32Z</time>
      </trkpt>
      <trkpt lat="45.57974" lon="6.06503">
        <ele>1082.001365411</ele>
        <time>2015-12-11T13:53:36Z</time>
      </trkpt>
      <trkpt lat="45.5797" lon="6.06508">
        <ele>1082.001365411</ele>
        <time>2015-12-11T13:53:47Z</time>
      </trkpt>
      <trkpt lat="45.57963" lon="6.06515">
        <ele>1083.766755693</ele>
        <time>2015-12-11T13:53:52Z</time>
      </trkpt>
      <trkpt lat="45.57953" lon="6.06527">
        <ele>1085.621643118</ele>
        <time>2015-12-11T13:54:02Z</time>
      </trkpt>
      <trkpt lat="45.5795" lon="6.0653">
        <ele>1085.621643118</ele>
        <time>2015-12-11T13:54:06Z</time>
      </trkpt>
      <trkpt lat="45.57936" lon="6.06538">
        <ele>1087.114619252</ele>
        <time>2015-12-11T13:54:17Z</time>
      </trkpt>
      <trkpt lat="45.5793" lon="6.06542">
        <ele>1087.114619252</ele>
        <time>2015-12-11T13:54:21Z</time>
      </trkpt>
      <trkpt lat="45.57921" lon="6.06553">
        <ele>1088.837595351</ele>
        <time>2015-12-11T13:54:32Z</time>
      </trkpt>
      <trkpt lat="45.57916" lon="6.06558">
        <ele>1088.837595351</ele>
        <time>2015-12-11T13:54:36Z</time>
      </trkpt>
      <trkpt lat="45.57915" lon="6.06561">
        <ele>1088.837595351</ele>
        <time>2015-12-11T13:54:41Z</time>
      </trkpt>
      <trkpt lat="45.5791" lon="6.06564">
        <ele>1090.618173855</ele>
        <time>2015-12-11T13:54:46Z</time>
      </trkpt>
      <trkpt lat="45.57898" lon="6.06567">
        <ele>1091.720393558</ele>
        <time>2015-12-11T13:54:52Z</time>
      </trkpt>
      <trkpt lat="45.57886" lon="6.06574">
        <ele>1092.761640671</ele>
        <time>2015-12-11T13:55:02Z</time>
      </trkpt>
      <trkpt lat="45.57883" lon="6.06574">
        <ele>1092.761640671</ele>
        <time>2015-12-11T13:55:06Z</time>
      </trkpt>
      <trkpt lat="45.5787" lon="6.06583">
        <ele>1094.746835294</ele>
        <time>2015-12-11T13:55:22Z</time>
      </trkpt>
      <trkpt lat="45.57866" lon="6.06583">
        <ele>1094.746835294</ele>
        <time>2015-12-11T13:55:26Z</time>
      </trkpt>
      <trkpt lat="45.5785" lon="6.06592">
        <ele>1096.875477182</ele>
        <time>2015-12-11T13:55:37Z</time>
      </trkpt>
      <trkpt lat="45.57847" lon="6.06591">
        <ele>1096.875477182</ele>
        <time>2015-12-11T13:55:41Z</time>
      </trkpt>
      <trkpt lat="45.57838" lon="6.06594">
        <ele>1098.982295401</ele>
        <time>2015-12-11T13:55:52Z</time>
      </trkpt>
      <trkpt lat="45.57832" lon="6.06599">
        <ele>1098.982295401</ele>
        <time>2015-12-11T13:55:56Z</time>
      </trkpt>
      <trkpt lat="45.57825" lon="6.06601">
        <ele>1101.346938798</ele>
        <time>2015-12-11T13:56:07Z</time>
      </trkpt>
      <trkpt lat="45.57815" lon="6.06601">
        <ele>1103.939954685</ele>
        <time>2015-12-11T13:56:12Z</time>
      </trkpt>
      <trkpt lat="45.57811" lon="6.06601">
        <ele>1103.939954685</ele>
        <time>2015-12-11T13:56:22Z</time>
      </trkpt>
      <trkpt lat="45.5781" lon="6.06602">
        <ele>1103.939954685</ele>
        <time>2015-12-11T13:56:26Z</time>
      </trkpt>
      <trkpt lat="45.57803" lon="6.06604">
        <ele>1107.742582661</ele>
        <time>2015-12-11T13:56:37Z</time>
      </trkpt>
      <trkpt lat="45.57799" lon="6.06605">
        <ele>1107.742582661</ele>
        <time>2015-12-11T13:56:41Z</time>
      </trkpt>
      <trkpt lat="45.57786" lon="6.06604">
        <ele>1111.499316685</ele>
        <time>2015-12-11T13:56:52Z</time>
      </trkpt>
      <trkpt lat="45.57783" lon="6.06603">
        <ele>1111.499316685</ele>
        <time>2015-12-11T13:56:57Z</time>
      </trkpt>
      <trkpt lat="45.5777" lon="6.06599">
        <ele>1114.767966552</ele>
        <time>2015-12-11T13:57:07Z</time>
      </trkpt>
      <trkpt lat="45.57769" lon="6.066">
        <ele>1114.767966552</ele>
        <time>2015-12-11T13:57:11Z</time>
      </trkpt>
      <trkpt lat="45.57754" lon="6.06597">
        <ele>1118.293492945</ele>
        <time>2015-12-11T13:57:26Z</time>
      </trkpt>
      <trkpt lat="45.57751" lon="6.06593">
        <ele>1118.293492945</ele>
        <time>2015-12-11T13:57:31Z</time>
      </trkpt>
      <trkpt lat="45.5774" lon="6.06586">
        <ele>1122.189382774</ele>
        <time>2015-12-11T13:57:42Z</time>
      </trkpt>
      <trkpt lat="45.57734" lon="6.06581">
        <ele>1122.189382774</ele>
        <time>2015-12-11T13:57:46Z</time>
      </trkpt>
      <trkpt lat="45.57723" lon="6.06577">
        <ele>1126.271945958</ele>
        <time>2015-12-11T13:57:57Z</time>
      </trkpt>
      <trkpt lat="45.57718" lon="6.06578">
        <ele>1126.271945958</ele>
        <time>2015-12-11T13:58:02Z</time>
      </trkpt>
      <trkpt lat="45.57698" lon="6.06579">
        <ele>1129.938553611</ele>
        <time>2015-12-11T13:58:12Z</time>
      </trkpt>
      <trkpt lat="45.57695" lon="6.06579">
        <ele>1129.938553611</ele>
        <time>2015-12-11T13:58:16Z</time>
      </trkpt>
      <trkpt lat="45.57676" lon="6.06583">
        <ele>1134.073552524</ele>
        <time>2015-12-11T13:58:27Z</time>
      </trkpt>
      <trkpt lat="45.57672" lon="6.06585">
        <ele>1134.073552524</ele>
        <time>2015-12-11T13:58:31Z</time>
      </trkpt>
      <trkpt lat="45.57661" lon="6.06587">
        <ele>1137.477885519</ele>
        <time>2015-12-11T13:58:41Z</time>
      </trkpt>
      <trkpt lat="45.57659" lon="6.06589">
        <ele>1137.477885519</ele>
        <time>2015-12-11T13:58:47Z</time>
      </trkpt>
      <trkpt lat="45.57652" lon="6.06591">
        <ele>1141.637058974</ele>
        <time>2015-12-11T13:58:57Z</time>
      </trkpt>
      <trkpt lat="45.57648" lon="6.06592">
        <ele>1141.637058974</ele>
        <time>2015-12-11T13:59:02Z</time>
      </trkpt>
      <trkpt lat="45.5762" lon="6.0659">
        <ele>1145.619988485</ele>
        <time>2015-12-11T13:59:12Z</time>
      </trkpt>
      <trkpt lat="45.57615" lon="6.06583">
        <ele>1145.619988485</ele>
        <time>2015-12-11T13:59:17Z</time>
      </trkpt>
      <trkpt lat="45.57603" lon="6.06569">
        <ele>1149.429575862</ele>
        <time>2015-12-11T13:59:27Z</time>
      </trkpt>
      <trkpt lat="45.57597" lon="6.06565">
        <ele>1149.429575862</ele>
        <time>2015-12-11T13:59:32Z</time>
      </trkpt>
      <trkpt lat="45.57585" lon="6.06553">
        <ele>1151.91652908</ele>
        <time>2015-12-11T13:59:47Z</time>
      </trkpt>
      <trkpt lat="45.57579" lon="6.06552">
        <ele>1151.91652908</ele>
        <time>2015-12-11T13:59:51Z</time>
      </trkpt>
      <trkpt lat="45.57571" lon="6.06544">
        <ele>1154.037663079</ele>
        <time>2015-12-11T14:00:01Z</time>
      </trkpt>
      <trkpt lat="45.57564" lon="6.06538">
        <ele>1154.037663079</ele>
        <time>2015-12-11T14:00:06Z</time>
      </trkpt>
      <trkpt lat="45.57548" lon="6.06529">
        <ele>1156.536822537</ele>
        <time>2015-12-11T14:00:16Z</time>
      </trkpt>
      <trkpt lat="45.57547" lon="6.06523">
        <ele>1156.536822537</ele>
        <time>2015-12-11T14:00:21Z</time>
      </trkpt>
      <trkpt lat="45.57542" lon="6.06521">
        <ele>1158.517311672</ele>
        <time>2015-12-11T14:00:31Z</time>
      </trkpt>
      <trkpt lat="45.57531" lon="6.06519">
        <ele>1160.158904431</ele>
        <time>2015-12-11T14:00:36Z</time>
      </trkpt>
      <trkpt lat="45.5752" lon="6.06509">
        <ele>1161.917687371</ele>
        <time>2015-12-11T14:00:47Z</time>
      </trkpt>
      <trkpt lat="45.57518" lon="6.06509">
        <ele>1161.917687371</ele>
        <time>2015-12-11T14:00:52Z</time>
      </trkpt>
      <trkpt lat="45.57512" lon="6.06506">
        <ele>1161.917687371</ele>
        <time>2015-12-11T14:01:01Z</time>
      </trkpt>
      <trkpt lat="45.57511" lon="6.06505">
        <ele>1163.351571845</ele>
        <time>2015-12-11T14:01:07Z</time>
      </trkpt>
      <trkpt lat="45.57497" lon="6.06497">
        <ele>1163.619822887</ele>
        <time>2015-12-11T14:01:17Z</time>
      </trkpt>
      <trkpt lat="45.57489" lon="6.06492">
        <ele>1163.619822887</ele>
        <time>2015-12-11T14:01:22Z</time>
      </trkpt>
      <trkpt lat="45.57482" lon="6.06487">
        <ele>1163.820454844</ele>
        <time>2015-12-11T14:01:32Z</time>
      </trkpt>
      <trkpt lat="45.57475" lon="6.06481">
        <ele>1163.820454844</ele>
        <time>2015-12-11T14:01:37Z</time>
      </trkpt>
      <trkpt lat="45.57459" lon="6.0647">
        <ele>1164.394814855</ele>
        <time>2015-12-11T14:01:47Z</time>
      </trkpt>
      <trkpt lat="45.57455" lon="6.06465">
        <ele>1164.394814855</ele>
        <time>2015-12-11T14:01:51Z</time>
      </trkpt>
      <trkpt lat="45.57445" lon="6.06464">
        <ele>1165.462778186</ele>
        <time>2015-12-11T14:02:07Z</time>
      </trkpt>
      <trkpt lat="45.57437" lon="6.0646">
        <ele>1165.462778186</ele>
        <time>2015-12-11T14:02:21Z</time>
      </trkpt>
      <trkpt lat="45.57432" lon="6.06458">
        <ele>1165.837221553</ele>
        <time>2015-12-11T14:02:26Z</time>
      </trkpt>
      <trkpt lat="45.57419" lon="6.06449">
        <ele>1167.01434247</ele>
        <time>2015-12-11T14:02:36Z</time>
      </trkpt>
      <trkpt lat="45.57416" lon="6.06444">
        <ele>1167.01434247</ele>
        <time>2015-12-11T14:02:41Z</time>
      </trkpt>
      <trkpt lat="45.57415" lon="6.0644">
        <ele>1167.01434247</ele>
        <time>2015-12-11T14:02:46Z</time>
      </trkpt>
      <trkpt lat="45.57412" lon="6.06435">
        <ele>1168.360768498</ele>
        <time>2015-12-11T14:02:51Z</time>
      </trkpt>
      <trkpt lat="45.57396" lon="6.06426">
        <ele>1170.153976426</ele>
        <time>2015-12-11T14:03:07Z</time>
      </trkpt>
      <trkpt lat="45.57385" lon="6.06413">
        <ele>1171.497030999</ele>
        <time>2015-12-11T14:03:21Z</time>
      </trkpt>
      <trkpt lat="45.57382" lon="6.06406">
        <ele>1171.497030999</ele>
        <time>2015-12-11T14:03:37Z</time>
      </trkpt>
      <trkpt lat="45.5738" lon="6.06398">
        <ele>1173.001360505</ele>
        <time>2015-12-11T14:03:41Z</time>
      </trkpt>
      <trkpt lat="45.57376" lon="6.06387">
        <ele>1173.001360505</ele>
        <time>2015-12-11T14:03:52Z</time>
      </trkpt>
      <trkpt lat="45.57372" lon="6.06382">
        <ele>1172.927332886</ele>
        <time>2015-12-11T14:03:56Z</time>
      </trkpt>
      <trkpt lat="45.57358" lon="6.06373">
        <ele>1172.549828872</ele>
        <time>2015-12-11T14:04:07Z</time>
      </trkpt>
      <trkpt lat="45.57353" lon="6.0637">
        <ele>1172.549828872</ele>
        <time>2015-12-11T14:04:11Z</time>
      </trkpt>
      <trkpt lat="45.57344" lon="6.06361">
        <ele>1173.483314222</ele>
        <time>2015-12-11T14:04:22Z</time>
      </trkpt>
      <trkpt lat="45.57341" lon="6.06354">
        <ele>1173.483314222</ele>
        <time>2015-12-11T14:04:26Z</time>
      </trkpt>
      <trkpt lat="45.57325" lon="6.06349">
        <ele>1174.77012443</ele>
        <time>2015-12-11T14:04:37Z</time>
      </trkpt>
      <trkpt lat="45.57326" lon="6.06346">
        <ele>1174.77012443</ele>
        <time>2015-12-11T14:04:41Z</time>
      </trkpt>
      <trkpt lat="45.5732" lon="6.06342">
        <ele>1174.77012443</ele>
        <time>2015-12-11T14:04:52Z</time>
      </trkpt>
      <trkpt lat="45.57317" lon="6.06343">
        <ele>1175.810194601</ele>
        <time>2015-12-11T14:04:56Z</time>
      </trkpt>
      <trkpt lat="45.57316" lon="6.06341">
        <ele>1175.810194601</ele>
        <time>2015-12-11T14:05:07Z</time>
      </trkpt>
      <trkpt lat="45.57312" lon="6.0634">
        <ele>1175.810194601</ele>
        <time>2015-12-11T14:05:12Z</time>
      </trkpt>
      <trkpt lat="45.57307" lon="6.06339">
        <ele>1176.912906288</ele>
        <time>2015-12-11T14:05:22Z</time>
      </trkpt>
      <trkpt lat="45.57302" lon="6.06335">
        <ele>1176.912906288</ele>
        <time>2015-12-11T14:05:26Z</time>
      </trkpt>
      <trkpt lat="45.57297" lon="6.06334">
        <ele>1178.941182297</ele>
        <time>2015-12-11T14:05:37Z</time>
      </trkpt>
      <trkpt lat="45.57289" lon="6.0633">
        <ele>1178.941182297</ele>
        <time>2015-12-11T14:05:41Z</time>
      </trkpt>
      <trkpt lat="45.57275" lon="6.06325">
        <ele>1180.530284572</ele>
        <time>2015-12-11T14:05:52Z</time>
      </trkpt>
      <trkpt lat="45.5727" lon="6.06321">
        <ele>1180.530284572</ele>
        <time>2015-12-11T14:05:57Z</time>
      </trkpt>
      <trkpt lat="45.57251" lon="6.06308">
        <ele>1183.155062044</ele>
        <time>2015-12-11T14:06:12Z</time>
      </trkpt>
      <trkpt lat="45.57247" lon="6.06305">
        <ele>1183.155062044</ele>
        <time>2015-12-11T14:06:16Z</time>
      </trkpt>
      <trkpt lat="45.57247" lon="6.06303">
        <ele>1183.155062044</ele>
        <time>2015-12-11T14:06:27Z</time>
      </trkpt>
      <trkpt lat="45.57246" lon="6.06302">
        <ele>1183.155062044</ele>
        <time>2015-12-11T14:06:31Z</time>
      </trkpt>
      <trkpt lat="45.57242" lon="6.06301">
        <ele>1186.305662138</ele>
        <time>2015-12-11T14:06:41Z</time>
      </trkpt>
      <trkpt lat="45.57234" lon="6.063">
        <ele>1186.305662138</ele>
        <time>2015-12-11T14:06:46Z</time>
      </trkpt>
      <trkpt lat="45.57217" lon="6.06293">
        <ele>1190.22876223</ele>
        <time>2015-12-11T14:06:57Z</time>
      </trkpt>
      <trkpt lat="45.57213" lon="6.06291">
        <ele>1190.22876223</ele>
        <time>2015-12-11T14:07:01Z</time>
      </trkpt>
      <trkpt lat="45.57205" lon="6.06288">
        <ele>1193.421420662</ele>
        <time>2015-12-11T14:07:11Z</time>
      </trkpt>
      <trkpt lat="45.57201" lon="6.06288">
        <ele>1193.421420662</ele>
        <time>2015-12-11T14:07:17Z</time>
      </trkpt>
      <trkpt lat="45.57199" lon="6.06288">
        <ele>1193.421420662</ele>
        <time>2015-12-11T14:07:26Z</time>
      </trkpt>
      <trkpt lat="45.57198" lon="6.06289">
        <ele>1193.421420662</ele>
        <time>2015-12-11T14:07:31Z</time>
      </trkpt>
      <trkpt lat="45.57185" lon="6.06286">
        <ele>1196.943052936</ele>
        <time>2015-12-11T14:07:42Z</time>
      </trkpt>
      <trkpt lat="45.57179" lon="6.06289">
        <ele>1196.943052936</ele>
        <time>2015-12-11T14:07:47Z</time>
      </trkpt>
      <trkpt lat="45.57172" lon="6.06282">
        <ele>1199.756793658</ele>
        <time>2015-12-11T14:07:57Z</time>
      </trkpt>
      <trkpt lat="45.57171" lon="6.06282">
        <ele>1199.756793658</ele>
        <time>2015-12-11T14:08:02Z</time>
      </trkpt>
      <trkpt lat="45.57171" lon="6.06281">
        <ele>1199.756793658</ele>
        <time>2015-12-11T14:08:06Z</time>
      </trkpt>
      <trkpt lat="45.57171" lon="6.06281">
        <ele>1199.756793658</ele>
        <time>2015-12-11T14:08:17Z</time>
      </trkpt>
      <trkpt lat="45.57171" lon="6.06281">
        <ele>1199.756793658</ele>
        <time>2015-12-11T14:08:21Z</time>
      </trkpt>
      <trkpt lat="45.57171" lon="6.06281">
        <ele>1199.756793658</ele>
        <time>2015-12-11T14:08:32Z</time>
      </trkpt>
      <trkpt lat="45.57168" lon="6.06278">
        <ele>1199.756793658</ele>
        <time>2015-12-11T14:08:36Z</time>
      </trkpt>
      <trkpt lat="45.57158" lon="6.06274">
        <ele>1203.20974079</ele>
        <time>2015-12-11T14:08:46Z</time>
      </trkpt>
      <trkpt lat="45.57156" lon="6.06273">
        <ele>1203.20974079</ele>
        <time>2015-12-11T14:08:52Z</time>
      </trkpt>
      <trkpt lat="45.57155" lon="6.06273">
        <ele>1203.20974079</ele>
        <time>2015-12-11T14:09:02Z</time>
      </trkpt>
      <trkpt lat="45.57153" lon="6.06273">
        <ele>1203.20974079</ele>
        <time>2015-12-11T14:09:06Z</time>
      </trkpt>
      <trkpt lat="45.57144" lon="6.06269">
        <ele>1207.539504062</ele>
        <time>2015-12-11T14:09:17Z</time>
      </trkpt>
      <trkpt lat="45.57142" lon="6.06267">
        <ele>1207.539504062</ele>
        <time>2015-12-11T14:09:21Z</time>
      </trkpt>
      <trkpt lat="45.57141" lon="6.06266">
        <ele>1207.539504062</ele>
        <time>2015-12-11T14:09:31Z</time>
      </trkpt>
      <trkpt lat="45.57136" lon="6.06269">
        <ele>1212.96383035</ele>
        <time>2015-12-11T14:09:37Z</time>
      </trkpt>
      <trkpt lat="45.57135" lon="6.06271">
        <ele>1212.96383035</ele>
        <time>2015-12-11T14:09:46Z</time>
      </trkpt>
      <trkpt lat="45.57135" lon="6.06271">
        <ele>1212.96383035</ele>
        <time>2015-12-11T14:09:52Z</time>
      </trkpt>
      <trkpt lat="45.57135" lon="6.06271">
        <ele>1212.96383035</ele>
        <time>2015-12-11T14:10:02Z</time>
      </trkpt>
      <trkpt lat="45.57135" lon="6.06271">
        <ele>1212.96383035</ele>
        <time>2015-12-11T14:10:07Z</time>
      </trkpt>
      <trkpt lat="45.57135" lon="6.06271">
        <ele>1212.96383035</ele>
        <time>2015-12-11T14:10:17Z</time>
      </trkpt>
      <trkpt lat="45.57123" lon="6.06271">
        <ele>1218.384465433</ele>
        <time>2015-12-11T14:10:21Z</time>
      </trkpt>
      <trkpt lat="45.57112" lon="6.06264">
        <ele>1223.072146722</ele>
        <time>2015-12-11T14:10:32Z</time>
      </trkpt>
      <trkpt lat="45.57112" lon="6.06262">
        <ele>1223.072146722</ele>
        <time>2015-12-11T14:10:37Z</time>
      </trkpt>
      <trkpt lat="45.57103" lon="6.06239">
        <ele>1227.073892651</ele>
        <time>2015-12-11T14:10:51Z</time>
      </trkpt>
      <trkpt lat="45.57101" lon="6.0623">
        <ele>1227.073892651</ele>
        <time>2015-12-11T14:10:56Z</time>
      </trkpt>
      <trkpt lat="45.5709" lon="6.06221">
        <ele>1230.579413641</ele>
        <time>2015-12-11T14:11:06Z</time>
      </trkpt>
      <trkpt lat="45.57075" lon="6.06207">
        <ele>1233.189548277</ele>
        <time>2015-12-11T14:11:22Z</time>
      </trkpt>
      <trkpt lat="45.57071" lon="6.06205">
        <ele>1233.189548277</ele>
        <time>2015-12-11T14:11:26Z</time>
      </trkpt>
      <trkpt lat="45.57065" lon="6.06194">
        <ele>1235.401753084</ele>
        <time>2015-12-11T14:11:37Z</time>
      </trkpt>
      <trkpt lat="45.57063" lon="6.06189">
        <ele>1235.401753084</ele>
        <time>2015-12-11T14:11:42Z</time>
      </trkpt>
      <trkpt lat="45.57058" lon="6.0618">
        <ele>1238.110504858</ele>
        <time>2015-12-11T14:11:52Z</time>
      </trkpt>
      <trkpt lat="45.57056" lon="6.06177">
        <ele>1238.110504858</ele>
        <time>2015-12-11T14:11:56Z</time>
      </trkpt>
      <trkpt lat="45.5705" lon="6.06171">
        <ele>1240.846286251</ele>
        <time>2015-12-11T14:12:07Z</time>
      </trkpt>
      <trkpt lat="45.57045" lon="6.06168">
        <ele>1240.846286251</ele>
        <time>2015-12-11T14:12:11Z</time>
      </trkpt>
      <trkpt lat="45.5703" lon="6.06156">
        <ele>1243.46231668</ele>
        <time>2015-12-11T14:12:28Z</time>
      </trkpt>
      <trkpt lat="45.57029" lon="6.06152">
        <ele>1243.46231668</ele>
        <time>2015-12-11T14:12:31Z</time>
      </trkpt>
      <trkpt lat="45.57021" lon="6.06142">
        <ele>1246.831806502</ele>
        <time>2015-12-11T14:12:42Z</time>
      </trkpt>
      <trkpt lat="45.57019" lon="6.06145">
        <ele>1246.831806502</ele>
        <time>2015-12-11T14:12:47Z</time>
      </trkpt>
      <trkpt lat="45.57013" lon="6.06137">
        <ele>1250.320686098</ele>
        <time>2015-12-11T14:12:57Z</time>
      </trkpt>
      <trkpt lat="45.57013" lon="6.06137">
        <ele>1250.320686098</ele>
        <time>2015-12-11T14:13:01Z</time>
      </trkpt>
      <trkpt lat="45.57001" lon="6.06134">
        <ele>1254.349997261</ele>
        <time>2015-12-11T14:13:11Z</time>
      </trkpt>
      <trkpt lat="45.56999" lon="6.0613">
        <ele>1254.349997261</ele>
        <time>2015-12-11T14:13:16Z</time>
      </trkpt>
      <trkpt lat="45.56984" lon="6.06121">
        <ele>1257.867314484</ele>
        <time>2015-12-11T14:13:27Z</time>
      </trkpt>
      <trkpt lat="45.56979" lon="6.06113">
        <ele>1257.867314484</ele>
        <time>2015-12-11T14:13:32Z</time>
      </trkpt>
      <trkpt lat="45.5697" lon="6.06108">
        <ele>1260.763716497</ele>
        <time>2015-12-11T14:13:42Z</time>
      </trkpt>
      <trkpt lat="45.56968" lon="6.06105">
        <ele>1260.763716497</ele>
        <time>2015-12-11T14:13:46Z</time>
      </trkpt>
      <trkpt lat="45.56959" lon="6.06096">
        <ele>1263.228336634</ele>
        <time>2015-12-11T14:13:56Z</time>
      </trkpt>
      <trkpt lat="45.56951" lon="6.06092">
        <ele>1263.228336634</ele>
        <time>2015-12-11T14:14:02Z</time>
      </trkpt>
      <trkpt lat="45.56946" lon="6.06083">
        <ele>1265.870045259</ele>
        <time>2015-12-11T14:14:16Z</time>
      </trkpt>
      <trkpt lat="45.56943" lon="6.06082">
        <ele>1265.870045259</ele>
        <time>2015-12-11T14:14:22Z</time>
      </trkpt>
      <trkpt lat="45.5694" lon="6.0608">
        <ele>1265.870045259</ele>
        <time>2015-12-11T14:14:31Z</time>
      </trkpt>
      <trkpt lat="45.56935" lon="6.06074">
        <ele>1268.243790085</ele>
        <time>2015-12-11T14:14:36Z</time>
      </trkpt>
      <trkpt lat="45.56929" lon="6.06059">
        <ele>1271.523260006</ele>
        <time>2015-12-11T14:14:47Z</time>
      </trkpt>
      <trkpt lat="45.56924" lon="6.06057">
        <ele>1271.523260006</ele>
        <time>2015-12-11T14:14:51Z</time>
      </trkpt>
      <trkpt lat="45.56916" lon="6.06041">
        <ele>1274.92000747</ele>
        <time>2015-12-11T14:15:01Z</time>
      </trkpt>
      <trkpt lat="45.56917" lon="6.06033">
        <ele>1274.92000747</ele>
        <time>2015-12-11T14:15:08Z</time>
      </trkpt>
      <trkpt lat="45.56913" lon="6.0603">
        <ele>1277.270904151</ele>
        <time>2015-12-11T14:15:17Z</time>
      </trkpt>
      <trkpt lat="45.56907" lon="6.06029">
        <ele>1277.270904151</ele>
        <time>2015-12-11T14:15:22Z</time>
      </trkpt>
      <trkpt lat="45.56899" lon="6.06017">
        <ele>1279.37470121</ele>
        <time>2015-12-11T14:15:31Z</time>
      </trkpt>
      <trkpt lat="45.56894" lon="6.06014">
        <ele>1279.37470121</ele>
        <time>2015-12-11T14:15:37Z</time>
      </trkpt>
      <trkpt lat="45.56886" lon="6.06008">
        <ele>1282.548665457</ele>
        <time>2015-12-11T14:15:47Z</time>
      </trkpt>
      <trkpt lat="45.56886" lon="6.06001">
        <ele>1282.548665457</ele>
        <time>2015-12-11T14:15:52Z</time>
      </trkpt>
      <trkpt lat="45.56882" lon="6.05993">
        <ele>1285.848677291</ele>
        <time>2015-12-11T14:16:06Z</time>
      </trkpt>
      <trkpt lat="45.5688" lon="6.05984">
        <ele>1285.848677291</ele>
        <time>2015-12-11T14:16:17Z</time>
      </trkpt>
      <trkpt lat="45.56879" lon="6.05978">
        <ele>1289.552552833</ele>
        <time>2015-12-11T14:16:22Z</time>
      </trkpt>
      <trkpt lat="45.5687" lon="6.05969">
        <ele>1292.475498897</ele>
        <time>2015-12-11T14:16:32Z</time>
      </trkpt>
      <trkpt lat="45.56866" lon="6.05966">
        <ele>1292.475498897</ele>
        <time>2015-12-11T14:16:37Z</time>
      </trkpt>
      <trkpt lat="45.56858" lon="6.05958">
        <ele>1295.107212619</ele>
        <time>2015-12-11T14:16:47Z</time>
      </trkpt>
      <trkpt lat="45.56851" lon="6.05955">
        <ele>1295.107212619</ele>
        <time>2015-12-11T14:16:52Z</time>
      </trkpt>
      <trkpt lat="45.56838" lon="6.05948">
        <ele>1296.893496103</ele>
        <time>2015-12-11T14:17:02Z</time>
      </trkpt>
      <trkpt lat="45.5684" lon="6.05943">
        <ele>1296.893496103</ele>
        <time>2015-12-11T14:17:07Z</time>
      </trkpt>
      <trkpt lat="45.56823" lon="6.05932">
        <ele>1297.467376128</ele>
        <time>2015-12-11T14:17:22Z</time>
      </trkpt>
      <trkpt lat="45.5682" lon="6.05932">
        <ele>1297.467376128</ele>
        <time>2015-12-11T14:17:26Z</time>
      </trkpt>
      <trkpt lat="45.56815" lon="6.05922">
        <ele>1298.653924893</ele>
        <time>2015-12-11T14:17:37Z</time>
      </trkpt>
      <trkpt lat="45.56814" lon="6.05915">
        <ele>1298.653924893</ele>
        <time>2015-12-11T14:17:41Z</time>
      </trkpt>
      <trkpt lat="45.5681" lon="6.05907">
        <ele>1300.124875888</ele>
        <time>2015-12-11T14:17:52Z</time>
      </trkpt>
      <trkpt lat="45.56807" lon="6.05903">
        <ele>1300.124875888</ele>
        <time>2015-12-11T14:17:56Z</time>
      </trkpt>
      <trkpt lat="45.56797" lon="6.05895">
        <ele>1302.295826221</ele>
        <time>2015-12-11T14:18:07Z</time>
      </trkpt>
      <trkpt lat="45.56794" lon="6.05889">
        <ele>1302.295826221</ele>
        <time>2015-12-11T14:18:12Z</time>
      </trkpt>
      <trkpt lat="45.56789" lon="6.05884">
        <ele>1304.9734158</ele>
        <time>2015-12-11T14:18:22Z</time>
      </trkpt>
      <trkpt lat="45.56785" lon="6.05883">
        <ele>1304.9734158</ele>
        <time>2015-12-11T14:18:27Z</time>
      </trkpt>
      <trkpt lat="45.56777" lon="6.05879">
        <ele>1307.688819523</ele>
        <time>2015-12-11T14:18:36Z</time>
      </trkpt>
      <trkpt lat="45.56779" lon="6.05878">
        <ele>1307.688819523</ele>
        <time>2015-12-11T14:18:42Z</time>
      </trkpt>
      <trkpt lat="45.56757" lon="6.05871">
        <ele>1310.007516834</ele>
        <time>2015-12-11T14:18:56Z</time>
      </trkpt>
      <trkpt lat="45.56752" lon="6.0587">
        <ele>1310.007516834</ele>
        <time>2015-12-11T14:19:01Z</time>
      </trkpt>
      <trkpt lat="45.56748" lon="6.05866">
        <ele>1311.816210518</ele>
        <time>2015-12-11T14:19:11Z</time>
      </trkpt>
      <trkpt lat="45.56748" lon="6.05865">
        <ele>1311.816210518</ele>
        <time>2015-12-11T14:19:16Z</time>
      </trkpt>
      <trkpt lat="45.56746" lon="6.05865">
        <ele>1311.816210518</ele>
        <time>2015-12-11T14:19:21Z</time>
      </trkpt>
      <trkpt lat="45.56743" lon="6.05864">
        <ele>1311.816210518</ele>
        <time>2015-12-11T14:19:26Z</time>
      </trkpt>
      <trkpt lat="45.56737" lon="6.0586">
        <ele>1313.011321307</ele>
        <time>2015-12-11T14:19:31Z</time>
      </trkpt>
      <trkpt lat="45.56715" lon="6.05865">
        <ele>1313.498557128</ele>
        <time>2015-12-11T14:19:47Z</time>
      </trkpt>
      <trkpt lat="45.5671" lon="6.05865">
        <ele>1313.498557128</ele>
        <time>2015-12-11T14:19:52Z</time>
      </trkpt>
      <trkpt lat="45.56699" lon="6.05868">
        <ele>1313.19248349</ele>
        <time>2015-12-11T14:20:01Z</time>
      </trkpt>
      <trkpt lat="45.56694" lon="6.05869">
        <ele>1313.19248349</ele>
        <time>2015-12-11T14:20:06Z</time>
      </trkpt>
      <trkpt lat="45.56685" lon="6.05871">
        <ele>1312.160207128</ele>
        <time>2015-12-11T14:20:17Z</time>
      </trkpt>
      <trkpt lat="45.56675" lon="6.05871">
        <ele>1311.042295613</ele>
        <time>2015-12-11T14:20:21Z</time>
      </trkpt>
      <trkpt lat="45.56659" lon="6.05862">
        <ele>1309.27949676</ele>
        <time>2015-12-11T14:20:32Z</time>
      </trkpt>
      <trkpt lat="45.56653" lon="6.05857">
        <ele>1309.27949676</ele>
        <time>2015-12-11T14:20:36Z</time>
      </trkpt>
      <trkpt lat="45.5664" lon="6.05854">
        <ele>1307.075865014</ele>
        <time>2015-12-11T14:20:47Z</time>
      </trkpt>
      <trkpt lat="45.56636" lon="6.05852">
        <ele>1307.075865014</ele>
        <time>2015-12-11T14:20:51Z</time>
      </trkpt>
      <trkpt lat="45.56622" lon="6.05854">
        <ele>1304.765645709</ele>
        <time>2015-12-11T14:21:02Z</time>
      </trkpt>
      <trkpt lat="45.56616" lon="6.05854">
        <ele>1304.765645709</ele>
        <time>2015-12-11T14:21:07Z</time>
      </trkpt>
      <trkpt lat="45.56615" lon="6.05852">
        <ele>1304.765645709</ele>
        <time>2015-12-11T14:21:11Z</time>
      </trkpt>
      <trkpt lat="45.56616" lon="6.05852">
        <ele>1304.765645709</ele>
        <time>2015-12-11T14:21:16Z</time>
      </trkpt>
      <trkpt lat="45.56617" lon="6.05852">
        <ele>1303.235082023</ele>
        <time>2015-12-11T14:21:22Z</time>
      </trkpt>
      <trkpt lat="45.56614" lon="6.05857">
        <ele>1303.235082023</ele>
        <time>2015-12-11T14:21:31Z</time>
      </trkpt>
      <trkpt lat="45.5661" lon="6.05862">
        <ele>1301.429465484</ele>
        <time>2015-12-11T14:21:37Z</time>
      </trkpt>
      <trkpt lat="45.56596" lon="6.05877">
        <ele>1299.524989094</ele>
        <time>2015-12-11T14:21:52Z</time>
      </trkpt>
      <trkpt lat="45.56571" lon="6.05888">
        <ele>1296.532032944</ele>
        <time>2015-12-11T14:22:07Z</time>
      </trkpt>
      <trkpt lat="45.56565" lon="6.05891">
        <ele>1296.532032944</ele>
        <time>2015-12-11T14:22:11Z</time>
      </trkpt>
      <trkpt lat="45.56547" lon="6.05899">
        <ele>1292.689338526</ele>
        <time>2015-12-11T14:22:22Z</time>
      </trkpt>
      <trkpt lat="45.56542" lon="6.05899">
        <ele>1292.689338526</ele>
        <time>2015-12-11T14:22:27Z</time>
      </trkpt>
      <trkpt lat="45.56526" lon="6.05901">
        <ele>1288.940748939</ele>
        <time>2015-12-11T14:22:36Z</time>
      </trkpt>
      <trkpt lat="45.56521" lon="6.05903">
        <ele>1288.940748939</ele>
        <time>2015-12-11T14:22:42Z</time>
      </trkpt>
      <trkpt lat="45.56513" lon="6.05904">
        <ele>1285.007296101</ele>
        <time>2015-12-11T14:22:51Z</time>
      </trkpt>
      <trkpt lat="45.56502" lon="6.05907">
        <ele>1281.207120583</ele>
        <time>2015-12-11T14:22:57Z</time>
      </trkpt>
      <trkpt lat="45.56496" lon="6.05905">
        <ele>1281.207120583</ele>
        <time>2015-12-11T14:23:07Z</time>
      </trkpt>
      <trkpt lat="45.5649" lon="6.0591">
        <ele>1277.690138493</ele>
        <time>2015-12-11T14:23:12Z</time>
      </trkpt>
      <trkpt lat="45.56482" lon="6.05923">
        <ele>1274.017626439</ele>
        <time>2015-12-11T14:23:22Z</time>
      </trkpt>
      <trkpt lat="45.56479" lon="6.05928">
        <ele>1274.017626439</ele>
        <time>2015-12-11T14:23:27Z</time>
      </trkpt>
      <trkpt lat="45.56471" lon="6.05937">
        <ele>1269.35078716</ele>
        <time>2015-12-11T14:23:37Z</time>
      </trkpt>
      <trkpt lat="45.56469" lon="6.05936">
        <ele>1269.35078716</ele>
        <time>2015-12-11T14:23:42Z</time>
      </trkpt>
      <trkpt lat="45.56451" lon="6.05937">
        <ele>1264.644143461</ele>
        <time>2015-12-11T14:23:52Z</time>
      </trkpt>
      <trkpt lat="45.56445" lon="6.05939">
        <ele>1264.644143461</ele>
        <time>2015-12-11T14:23:57Z</time>
      </trkpt>
      <trkpt lat="45.56437" lon="6.05947">
        <ele>1259.484773614</ele>
        <time>2015-12-11T14:24:06Z</time>
      </trkpt>
      <trkpt lat="45.56433" lon="6.0595">
        <ele>1259.484773614</ele>
        <time>2015-12-11T14:24:11Z</time>
      </trkpt>
      <trkpt lat="45.56428" lon="6.05951">
        <ele>1254.932018132</ele>
        <time>2015-12-11T14:24:21Z</time>
      </trkpt>
      <trkpt lat="45.56427" lon="6.05952">
        <ele>1254.932018132</ele>
        <time>2015-12-11T14:24:26Z</time>
      </trkpt>
      <trkpt lat="45.56427" lon="6.05952">
        <ele>1254.932018132</ele>
        <time>2015-12-11T14:24:31Z</time>
      </trkpt>
      <trkpt lat="45.56427" lon="6.05952">
        <ele>1254.932018132</ele>
        <time>2015-12-11T14:24:37Z</time>
      </trkpt>
      <trkpt lat="45.56427" lon="6.05952">
        <ele>1254.932018132</ele>
        <time>2015-12-11T14:24:47Z</time>
      </trkpt>
      <trkpt lat="45.56427" lon="6.05952">
        <ele>1254.932018132</ele>
        <time>2015-12-11T14:24:51Z</time>
      </trkpt>
      <trkpt lat="45.56406" lon="6.05961">
        <ele>1250.091784727</ele>
        <time>2015-12-11T14:25:08Z</time>
      </trkpt>
      <trkpt lat="45.56398" lon="6.05959">
        <ele>1250.091784727</ele>
        <time>2015-12-11T14:25:11Z</time>
      </trkpt>
      <trkpt lat="45.56385" lon="6.05969">
        <ele>1244.568319538</ele>
        <time>2015-12-11T14:25:22Z</time>
      </trkpt>
      <trkpt lat="45.5638" lon="6.05969">
        <ele>1244.568319538</ele>
        <time>2015-12-11T14:25:26Z</time>
      </trkpt>
      <trkpt lat="45.56366" lon="6.05965">
        <ele>1239.005142207</ele>
        <time>2015-12-11T14:25:37Z</time>
      </trkpt>
      <trkpt lat="45.56361" lon="6.05967">
        <ele>1239.005142207</ele>
        <time>2015-12-11T14:25:42Z</time>
      </trkpt>
      <trkpt lat="45.56347" lon="6.05962">
        <ele>1232.556993898</ele>
        <time>2015-12-11T14:25:52Z</time>
      </trkpt>
      <trkpt lat="45.56342" lon="6.05957">
        <ele>1232.556993898</ele>
        <time>2015-12-11T14:25:57Z</time>
      </trkpt>
      <trkpt lat="45.56333" lon="6.05946">
        <ele>1225.739671796</ele>
        <time>2015-12-11T14:26:07Z</time>
      </trkpt>
      <trkpt lat="45.5633" lon="6.05945">
        <ele>1225.739671796</ele>
        <time>2015-12-11T14:26:11Z</time>
      </trkpt>
      <trkpt lat="45.56327" lon="6.05944">
        <ele>1225.739671796</ele>
        <time>2015-12-11T14:26:22Z</time>
      </trkpt>
      <trkpt lat="45.56323" lon="6.05951">
        <ele>1219.608030765</ele>
        <time>2015-12-11T14:26:27Z</time>
      </trkpt>
      <trkpt lat="45.56307" lon="6.05954">
        <ele>1212.687077223</ele>
        <time>2015-12-11T14:26:36Z</time>
      </trkpt>
      <trkpt lat="45.563" lon="6.05949">
        <ele>1212.687077223</ele>
        <time>2015-12-11T14:26:41Z</time>
      </trkpt>
      <trkpt lat="45.56282" lon="6.05933">
        <ele>1206.782272895</ele>
        <time>2015-12-11T14:26:57Z</time>
      </trkpt>
      <trkpt lat="45.56277" lon="6.05931">
        <ele>1206.782272895</ele>
        <time>2015-12-11T14:27:01Z</time>
      </trkpt>
      <trkpt lat="45.56264" lon="6.05918">
        <ele>1201.113146943</ele>
        <time>2015-12-11T14:27:11Z</time>
      </trkpt>
      <trkpt lat="45.5626" lon="6.05912">
        <ele>1201.113146943</ele>
        <time>2015-12-11T14:27:17Z</time>
      </trkpt>
      <trkpt lat="45.56252" lon="6.05903">
        <ele>1195.820000806</ele>
        <time>2015-12-11T14:27:27Z</time>
      </trkpt>
      <trkpt lat="45.56247" lon="6.05899">
        <ele>1195.820000806</ele>
        <time>2015-12-11T14:27:31Z</time>
      </trkpt>
      <trkpt lat="45.56232" lon="6.05895">
        <ele>1191.031210427</ele>
        <time>2015-12-11T14:27:42Z</time>
      </trkpt>
      <trkpt lat="45.56226" lon="6.05888">
        <ele>1191.031210427</ele>
        <time>2015-12-11T14:27:46Z</time>
      </trkpt>
      <trkpt lat="45.56214" lon="6.05882">
        <ele>1185.854970357</ele>
        <time>2015-12-11T14:27:57Z</time>
      </trkpt>
      <trkpt lat="45.56211" lon="6.05884">
        <ele>1185.854970357</ele>
        <time>2015-12-11T14:28:02Z</time>
      </trkpt>
      <trkpt lat="45.56206" lon="6.05889">
        <ele>1180.762525428</ele>
        <time>2015-12-11T14:28:16Z</time>
      </trkpt>
      <trkpt lat="45.56202" lon="6.05895">
        <ele>1180.762525428</ele>
        <time>2015-12-11T14:28:21Z</time>
      </trkpt>
      <trkpt lat="45.56191" lon="6.05908">
        <ele>1176.477954223</ele>
        <time>2015-12-11T14:28:31Z</time>
      </trkpt>
      <trkpt lat="45.56187" lon="6.05915">
        <ele>1176.477954223</ele>
        <time>2015-12-11T14:28:36Z</time>
      </trkpt>
      <trkpt lat="45.56177" lon="6.05924">
        <ele>1172.516468025</ele>
        <time>2015-12-11T14:28:47Z</time>
      </trkpt>
      <trkpt lat="45.56173" lon="6.05929">
        <ele>1172.516468025</ele>
        <time>2015-12-11T14:28:52Z</time>
      </trkpt>
      <trkpt lat="45.56158" lon="6.0594">
        <ele>1167.706922573</ele>
        <time>2015-12-11T14:29:02Z</time>
      </trkpt>
      <trkpt lat="45.56154" lon="6.05947">
        <ele>1167.706922573</ele>
        <time>2015-12-11T14:29:07Z</time>
      </trkpt>
      <trkpt lat="45.56141" lon="6.05956">
        <ele>1163.560097907</ele>
        <time>2015-12-11T14:29:17Z</time>
      </trkpt>
      <trkpt lat="45.56129" lon="6.05967">
        <ele>1159.600021063</ele>
        <time>2015-12-11T14:29:21Z</time>
      </trkpt>
      <trkpt lat="45.56122" lon="6.05971">
        <ele>1159.600021063</ele>
        <time>2015-12-11T14:29:31Z</time>
      </trkpt>
      <trkpt lat="45.56118" lon="6.05975">
        <ele>1156.249380161</ele>
        <time>2015-12-11T14:29:36Z</time>
      </trkpt>
      <trkpt lat="45.56108" lon="6.05981">
        <ele>1153.32123468</ele>
        <time>2015-12-11T14:29:47Z</time>
      </trkpt>
      <trkpt lat="45.56102" lon="6.05984">
        <ele>1153.32123468</ele>
        <time>2015-12-11T14:29:52Z</time>
      </trkpt>
      <trkpt lat="45.56085" lon="6.05985">
        <ele>1150.640793401</ele>
        <time>2015-12-11T14:30:01Z</time>
      </trkpt>
      <trkpt lat="45.56073" lon="6.05986">
        <ele>1148.621485875</ele>
        <time>2015-12-11T14:30:06Z</time>
      </trkpt>
      <trkpt lat="45.56068" lon="6.05995">
        <ele>1148.621485875</ele>
        <time>2015-12-11T14:30:17Z</time>
      </trkpt>
      <trkpt lat="45.56063" lon="6.05996">
        <ele>1147.644180342</ele>
        <time>2015-12-11T14:30:22Z</time>
      </trkpt>
      <trkpt lat="45.56059" lon="6.05996">
        <ele>1147.644180342</ele>
        <time>2015-12-11T14:30:32Z</time>
      </trkpt>
      <trkpt lat="45.5606" lon="6.05989">
        <ele>1147.644180342</ele>
        <time>2015-12-11T14:30:37Z</time>
      </trkpt>
      <trkpt lat="45.56067" lon="6.05964">
        <ele>1145.752762041</ele>
        <time>2015-12-11T14:30:52Z</time>
      </trkpt>
      <trkpt lat="45.56072" lon="6.05953">
        <ele>1145.752762041</ele>
        <time>2015-12-11T14:30:56Z</time>
      </trkpt>
      <trkpt lat="45.56067" lon="6.05941">
        <ele>1144.019330776</ele>
        <time>2015-12-11T14:31:07Z</time>
      </trkpt>
      <trkpt lat="45.56062" lon="6.05932">
        <ele>1144.019330776</ele>
        <time>2015-12-11T14:31:12Z</time>
      </trkpt>
      <trkpt lat="45.5605" lon="6.05916">
        <ele>1140.410215584</ele>
        <time>2015-12-11T14:31:22Z</time>
      </trkpt>
      <trkpt lat="45.56044" lon="6.05909">
        <ele>1140.410215584</ele>
        <time>2015-12-11T14:31:27Z</time>
      </trkpt>
      <trkpt lat="45.56039" lon="6.05888">
        <ele>1136.793079354</ele>
        <time>2015-12-11T14:31:37Z</time>
      </trkpt>
      <trkpt lat="45.56037" lon="6.05874">
        <ele>1133.745331586</ele>
        <time>2015-12-11T14:31:42Z</time>
      </trkpt>
      <trkpt lat="45.56027" lon="6.05861">
        <ele>1130.503195954</ele>
        <time>2015-12-11T14:31:52Z</time>
      </trkpt>
      <trkpt lat="45.56024" lon="6.05855">
        <ele>1130.503195954</ele>
        <time>2015-12-11T14:31:57Z</time>
      </trkpt>
      <trkpt lat="45.56021" lon="6.05841">
        <ele>1128.376949243</ele>
        <time>2015-12-11T14:32:06Z</time>
      </trkpt>
      <trkpt lat="45.56021" lon="6.05834">
        <ele>1128.376949243</ele>
        <time>2015-12-11T14:32:11Z</time>
      </trkpt>
      <trkpt lat="45.56014" lon="6.05824">
        <ele>1126.127458712</ele>
        <time>2015-12-11T14:32:22Z</time>
      </trkpt>
      <trkpt lat="45.5601" lon="6.05813">
        <ele>1126.127458712</ele>
        <time>2015-12-11T14:32:27Z</time>
      </trkpt>
      <trkpt lat="45.56001" lon="6.05793">
        <ele>1124.912626175</ele>
        <time>2015-12-11T14:32:38Z</time>
      </trkpt>
      <trkpt lat="45.56006" lon="6.05786">
        <ele>1124.912626175</ele>
        <time>2015-12-11T14:32:42Z</time>
      </trkpt>
      <trkpt lat="45.56005" lon="6.05762">
        <ele>1124.217077545</ele>
        <time>2015-12-11T14:32:57Z</time>
      </trkpt>
      <trkpt lat="45.56007" lon="6.05736">
        <ele>1124.13822163</ele>
        <time>2015-12-11T14:33:07Z</time>
      </trkpt>
      <trkpt lat="45.56009" lon="6.05729">
        <ele>1124.13822163</ele>
        <time>2015-12-11T14:33:12Z</time>
      </trkpt>
      <trkpt lat="45.56008" lon="6.0569">
        <ele>1124.476325463</ele>
        <time>2015-12-11T14:33:27Z</time>
      </trkpt>
      <trkpt lat="45.56005" lon="6.05681">
        <ele>1124.476325463</ele>
        <time>2015-12-11T14:33:31Z</time>
      </trkpt>
      <trkpt lat="45.56" lon="6.05663">
        <ele>1123.459931938</ele>
        <time>2015-12-11T14:33:42Z</time>
      </trkpt>
      <trkpt lat="45.55996" lon="6.05654">
        <ele>1123.459931938</ele>
        <time>2015-12-11T14:33:46Z</time>
      </trkpt>
      <trkpt lat="45.56002" lon="6.0563">
        <ele>1121.901427592</ele>
        <time>2015-12-11T14:33:57Z</time>
      </trkpt>
      <trkpt lat="45.56004" lon="6.0562">
        <ele>1121.901427592</ele>
        <time>2015-12-11T14:34:02Z</time>
      </trkpt>
      <trkpt lat="45.56003" lon="6.05609">
        <ele>1119.113976052</ele>
        <time>2015-12-11T14:34:11Z</time>
      </trkpt>
      <trkpt lat="45.56002" lon="6.056">
        <ele>1119.113976052</ele>
        <time>2015-12-11T14:34:16Z</time>
      </trkpt>
      <trkpt lat="45.56004" lon="6.05579">
        <ele>1116.049925735</ele>
        <time>2015-12-11T14:34:27Z</time>
      </trkpt>
      <trkpt lat="45.56004" lon="6.05573">
        <ele>1116.049925735</ele>
        <time>2015-12-11T14:34:32Z</time>
      </trkpt>
      <trkpt lat="45.55997" lon="6.05557">
        <ele>1112.72784171</ele>
        <time>2015-12-11T14:34:42Z</time>
      </trkpt>
      <trkpt lat="45.55995" lon="6.05548">
        <ele>1112.72784171</ele>
        <time>2015-12-11T14:34:47Z</time>
      </trkpt>
      <trkpt lat="45.55991" lon="6.05529">
        <ele>1109.165717389</ele>
        <time>2015-12-11T14:34:57Z</time>
      </trkpt>
      <trkpt lat="45.5599" lon="6.05521">
        <ele>1109.165717389</ele>
        <time>2015-12-11T14:35:02Z</time>
      </trkpt>
      <trkpt lat="45.5599" lon="6.05514">
        <ele>1105.813298123</ele>
        <time>2015-12-11T14:35:06Z</time>
      </trkpt>
      <trkpt lat="45.55986" lon="6.05496">
        <ele>1102.654433998</ele>
        <time>2015-12-11T14:35:12Z</time>
      </trkpt>
      <trkpt lat="45.55985" lon="6.05489">
        <ele>1102.654433998</ele>
        <time>2015-12-11T14:35:16Z</time>
      </trkpt>
      <trkpt lat="45.5598" lon="6.05468">
        <ele>1098.953123808</ele>
        <time>2015-12-11T14:35:27Z</time>
      </trkpt>
      <trkpt lat="45.5598" lon="6.0546">
        <ele>1098.953123808</ele>
        <time>2015-12-11T14:35:31Z</time>
      </trkpt>
      <trkpt lat="45.5598" lon="6.0545">
        <ele>1095.758346765</ele>
        <time>2015-12-11T14:35:36Z</time>
      </trkpt>
      <trkpt lat="45.55979" lon="6.05446">
        <ele>1095.758346765</ele>
        <time>2015-12-11T14:35:42Z</time>
      </trkpt>
      <trkpt lat="45.55975" lon="6.0544">
        <ele>1095.758346765</ele>
        <time>2015-12-11T14:35:47Z</time>
      </trkpt>
      <trkpt lat="45.55965" lon="6.05402">
        <ele>1092.887771011</ele>
        <time>2015-12-11T14:36:02Z</time>
      </trkpt>
      <trkpt lat="45.55965" lon="6.05395">
        <ele>1092.887771011</ele>
        <time>2015-12-11T14:36:06Z</time>
      </trkpt>
      <trkpt lat="45.55964" lon="6.05373">
        <ele>1089.73927063</ele>
        <time>2015-12-11T14:36:17Z</time>
      </trkpt>
      <trkpt lat="45.55963" lon="6.05365">
        <ele>1089.73927063</ele>
        <time>2015-12-11T14:36:21Z</time>
      </trkpt>
      <trkpt lat="45.55961" lon="6.05347">
        <ele>1086.908674821</ele>
        <time>2015-12-11T14:36:32Z</time>
      </trkpt>
      <trkpt lat="45.5596" lon="6.05339">
        <ele>1086.908674821</ele>
        <time>2015-12-11T14:36:37Z</time>
      </trkpt>
      <trkpt lat="45.55959" lon="6.05329">
        <ele>1084.370762308</ele>
        <time>2015-12-11T14:36:42Z</time>
      </trkpt>
      <trkpt lat="45.55963" lon="6.05311">
        <ele>1081.52495521</ele>
        <time>2015-12-11T14:36:52Z</time>
      </trkpt>
      <trkpt lat="45.55964" lon="6.05304">
        <ele>1081.52495521</ele>
        <time>2015-12-11T14:36:57Z</time>
      </trkpt>
      <trkpt lat="45.55953" lon="6.05281">
        <ele>1076.518710918</ele>
        <time>2015-12-11T14:37:06Z</time>
      </trkpt>
      <trkpt lat="45.55947" lon="6.05275">
        <ele>1076.518710918</ele>
        <time>2015-12-11T14:37:11Z</time>
      </trkpt>
      <trkpt lat="45.55937" lon="6.05265">
        <ele>1070.812127616</ele>
        <time>2015-12-11T14:37:22Z</time>
      </trkpt>
      <trkpt lat="45.55931" lon="6.0526">
        <ele>1070.812127616</ele>
        <time>2015-12-11T14:37:26Z</time>
      </trkpt>
      <trkpt lat="45.55918" lon="6.05252">
        <ele>1064.607156331</ele>
        <time>2015-12-11T14:37:37Z</time>
      </trkpt>
      <trkpt lat="45.55914" lon="6.05244">
        <ele>1064.607156331</ele>
        <time>2015-12-11T14:37:42Z</time>
      </trkpt>
      <trkpt lat="45.55904" lon="6.05242">
        <ele>1058.668773313</ele>
        <time>2015-12-11T14:37:52Z</time>
      </trkpt>
      <trkpt lat="45.55899" lon="6.05237">
        <ele>1058.668773313</ele>
        <time>2015-12-11T14:37:57Z</time>
      </trkpt>
      <trkpt lat="45.55888" lon="6.05221">
        <ele>1054.137344287</ele>
        <time>2015-12-11T14:38:06Z</time>
      </trkpt>
      <trkpt lat="45.55879" lon="6.05212">
        <ele>1050.480277561</ele>
        <time>2015-12-11T14:38:12Z</time>
      </trkpt>
      <trkpt lat="45.55876" lon="6.05197">
        <ele>1048.210405526</ele>
        <time>2015-12-11T14:38:22Z</time>
      </trkpt>
      <trkpt lat="45.55873" lon="6.05191">
        <ele>1048.210405526</ele>
        <time>2015-12-11T14:38:27Z</time>
      </trkpt>
      <trkpt lat="45.55867" lon="6.05176">
        <ele>1045.637303055</ele>
        <time>2015-12-11T14:38:37Z</time>
      </trkpt>
      <trkpt lat="45.55871" lon="6.05164">
        <ele>1043.213108949</ele>
        <time>2015-12-11T14:38:42Z</time>
      </trkpt>
      <trkpt lat="45.55873" lon="6.05132">
        <ele>1040.491650856</ele>
        <time>2015-12-11T14:38:57Z</time>
      </trkpt>
      <trkpt lat="45.55873" lon="6.05121">
        <ele>1040.491650856</ele>
        <time>2015-12-11T14:39:02Z</time>
      </trkpt>
      <trkpt lat="45.55865" lon="6.05103">
        <ele>1037.636806496</ele>
        <time>2015-12-11T14:39:12Z</time>
      </trkpt>
      <trkpt lat="45.55863" lon="6.05099">
        <ele>1037.636806496</ele>
        <time>2015-12-11T14:39:16Z</time>
      </trkpt>
      <trkpt lat="45.5585" lon="6.0508">
        <ele>1035.089015174</ele>
        <time>2015-12-11T14:39:27Z</time>
      </trkpt>
      <trkpt lat="45.55849" lon="6.0507">
        <ele>1035.089015174</ele>
        <time>2015-12-11T14:39:32Z</time>
      </trkpt>
      <trkpt lat="45.5585" lon="6.05049">
        <ele>1033.399623148</ele>
        <time>2015-12-11T14:39:42Z</time>
      </trkpt>
      <trkpt lat="45.55845" lon="6.05042">
        <ele>1033.399623148</ele>
        <time>2015-12-11T14:39:47Z</time>
      </trkpt>
      <trkpt lat="45.55841" lon="6.05027">
        <ele>1031.059529761</ele>
        <time>2015-12-11T14:39:56Z</time>
      </trkpt>
      <trkpt lat="45.5584" lon="6.05016">
        <ele>1031.059529761</ele>
        <time>2015-12-11T14:40:02Z</time>
      </trkpt>
      <trkpt lat="45.55844" lon="6.04994">
        <ele>1029.410458002</ele>
        <time>2015-12-11T14:40:12Z</time>
      </trkpt>
      <trkpt lat="45.55843" lon="6.04987">
        <ele>1029.410458002</ele>
        <time>2015-12-11T14:40:17Z</time>
      </trkpt>
      <trkpt lat="45.55839" lon="6.04969">
        <ele>1026.667332473</ele>
        <time>2015-12-11T14:40:27Z</time>
      </trkpt>
      <trkpt lat="45.55836" lon="6.04963">
        <ele>1026.667332473</ele>
        <time>2015-12-11T14:40:31Z</time>
      </trkpt>
      <trkpt lat="45.5583" lon="6.04936">
        <ele>1021.755762676</ele>
        <time>2015-12-11T14:40:42Z</time>
      </trkpt>
      <trkpt lat="45.55825" lon="6.04927">
        <ele>1021.755762676</ele>
        <time>2015-12-11T14:40:47Z</time>
      </trkpt>
      <trkpt lat="45.55815" lon="6.04916">
        <ele>1015.992181635</ele>
        <time>2015-12-11T14:40:57Z</time>
      </trkpt>
      <trkpt lat="45.55811" lon="6.04913">
        <ele>1015.992181635</ele>
        <time>2015-12-11T14:41:01Z</time>
      </trkpt>
      <trkpt lat="45.55809" lon="6.04907">
        <ele>1015.992181635</ele>
        <time>2015-12-11T14:41:06Z</time>
      </trkpt>
      <trkpt lat="45.55803" lon="6.04903">
        <ele>1010.886959633</ele>
        <time>2015-12-11T14:41:12Z</time>
      </trkpt>
      <trkpt lat="45.55803" lon="6.04897">
        <ele>1010.886959633</ele>
        <time>2015-12-11T14:41:17Z</time>
      </trkpt>
      <trkpt lat="45.55792" lon="6.04889">
        <ele>1007.261241652</ele>
        <time>2015-12-11T14:41:27Z</time>
      </trkpt>
      <trkpt lat="45.55788" lon="6.04885">
        <ele>1007.261241652</ele>
        <time>2015-12-11T14:41:31Z</time>
      </trkpt>
      <trkpt lat="45.55772" lon="6.04866">
        <ele>1005.295264339</ele>
        <time>2015-12-11T14:41:47Z</time>
      </trkpt>
      <trkpt lat="45.5577" lon="6.04856">
        <ele>1005.295264339</ele>
        <time>2015-12-11T14:41:52Z</time>
      </trkpt>
      <trkpt lat="45.55763" lon="6.04842">
        <ele>1004.28670704</ele>
        <time>2015-12-11T14:42:02Z</time>
      </trkpt>
      <trkpt lat="45.55761" lon="6.04833">
        <ele>1004.28670704</ele>
        <time>2015-12-11T14:42:07Z</time>
      </trkpt>
      <trkpt lat="45.5576" lon="6.04811">
        <ele>1003.870391409</ele>
        <time>2015-12-11T14:42:17Z</time>
      </trkpt>
      <trkpt lat="45.5576" lon="6.04804">
        <ele>1003.870391409</ele>
        <time>2015-12-11T14:42:22Z</time>
      </trkpt>
      <trkpt lat="45.55749" lon="6.04789">
        <ele>1003.129887363</ele>
        <time>2015-12-11T14:42:32Z</time>
      </trkpt>
      <trkpt lat="45.55748" lon="6.04784">
        <ele>1003.129887363</ele>
        <time>2015-12-11T14:42:37Z</time>
      </trkpt>
      <trkpt lat="45.55747" lon="6.04781">
        <ele>1003.129887363</ele>
        <time>2015-12-11T14:42:46Z</time>
      </trkpt>
      <trkpt lat="45.55746" lon="6.0478">
        <ele>1003.129887363</ele>
        <time>2015-12-11T14:42:51Z</time>
      </trkpt>
      <trkpt lat="45.55746" lon="6.0478">
        <ele>1003.129887363</ele>
        <time>2015-12-11T14:42:56Z</time>
      </trkpt>
      <trkpt lat="45.55747" lon="6.04778">
        <ele>1003.129887363</ele>
        <time>2015-12-11T14:43:02Z</time>
      </trkpt>
      <trkpt lat="45.55752" lon="6.04772">
        <ele>1001.505262553</ele>
        <time>2015-12-11T14:43:17Z</time>
      </trkpt>
      <trkpt lat="45.55751" lon="6.04771">
        <ele>1001.505262553</ele>
        <time>2015-12-11T14:43:22Z</time>
      </trkpt>
      <trkpt lat="45.55751" lon="6.04771">
        <ele>1001.505262553</ele>
        <time>2015-12-11T14:43:32Z</time>
      </trkpt>
      <trkpt lat="45.5575" lon="6.04771">
        <ele>1001.505262553</ele>
        <time>2015-12-11T14:43:36Z</time>
      </trkpt>
      <trkpt lat="45.55742" lon="6.04766">
        <ele>1000.065482032</ele>
        <time>2015-12-11T14:43:47Z</time>
      </trkpt>
      <trkpt lat="45.55737" lon="6.04759">
        <ele>1000.065482032</ele>
        <time>2015-12-11T14:43:51Z</time>
      </trkpt>
      <trkpt lat="45.55731" lon="6.04751">
        <ele>998.647653168</ele>
        <time>2015-12-11T14:43:56Z</time>
      </trkpt>
      <trkpt lat="45.55725" lon="6.04738">
        <ele>997.677319541</ele>
        <time>2015-12-11T14:44:02Z</time>
      </trkpt>
      <trkpt lat="45.55705" lon="6.04728">
        <ele>995.530048026</ele>
        <time>2015-12-11T14:44:12Z</time>
      </trkpt>
      <trkpt lat="45.55704" lon="6.04723">
        <ele>995.530048026</ele>
        <time>2015-12-11T14:44:16Z</time>
      </trkpt>
      <trkpt lat="45.55692" lon="6.04722">
        <ele>992.433471332</ele>
        <time>2015-12-11T14:44:21Z</time>
      </trkpt>
      <trkpt lat="45.55675" lon="6.04707">
        <ele>989.177709806</ele>
        <time>2015-12-11T14:44:31Z</time>
      </trkpt>
      <trkpt lat="45.55667" lon="6.04701">
        <ele>989.177709806</ele>
        <time>2015-12-11T14:44:36Z</time>
      </trkpt>
      <trkpt lat="45.55659" lon="6.04687">
        <ele>986.639499696</ele>
        <time>2015-12-11T14:44:47Z</time>
      </trkpt>
      <trkpt lat="45.55657" lon="6.04682">
        <ele>986.639499696</ele>
        <time>2015-12-11T14:44:51Z</time>
      </trkpt>
      <trkpt lat="45.55648" lon="6.04671">
        <ele>985.196923417</ele>
        <time>2015-12-11T14:45:01Z</time>
      </trkpt>
      <trkpt lat="45.55643" lon="6.04666">
        <ele>985.196923417</ele>
        <time>2015-12-11T14:45:07Z</time>
      </trkpt>
      <trkpt lat="45.55628" lon="6.0466">
        <ele>983.900311423</ele>
        <time>2015-12-11T14:45:17Z</time>
      </trkpt>
      <trkpt lat="45.55623" lon="6.04655">
        <ele>983.900311423</ele>
        <time>2015-12-11T14:45:21Z</time>
      </trkpt>
      <trkpt lat="45.55611" lon="6.04649">
        <ele>982.734112086</ele>
        <time>2015-12-11T14:45:31Z</time>
      </trkpt>
      <trkpt lat="45.55606" lon="6.04646">
        <ele>982.734112086</ele>
        <time>2015-12-11T14:45:37Z</time>
      </trkpt>
      <trkpt lat="45.55595" lon="6.04642">
        <ele>982.115988567</ele>
        <time>2015-12-11T14:45:47Z</time>
      </trkpt>
      <trkpt lat="45.55594" lon="6.04641">
        <ele>982.115988567</ele>
        <time>2015-12-11T14:45:51Z</time>
      </trkpt>
      <trkpt lat="45.55577" lon="6.04638">
        <ele>980.990385873</ele>
        <time>2015-12-11T14:46:02Z</time>
      </trkpt>
      <trkpt lat="45.55568" lon="6.04636">
        <ele>980.254278817</ele>
        <time>2015-12-11T14:46:06Z</time>
      </trkpt>
      <trkpt lat="45.55549" lon="6.04632">
        <ele>980.881900431</ele>
        <time>2015-12-11T14:46:21Z</time>
      </trkpt>
      <trkpt lat="45.55544" lon="6.04632">
        <ele>980.881900431</ele>
        <time>2015-12-11T14:46:27Z</time>
      </trkpt>
      <trkpt lat="45.55535" lon="6.04631">
        <ele>981.754678092</ele>
        <time>2015-12-11T14:46:37Z</time>
      </trkpt>
      <trkpt lat="45.55524" lon="6.04633">
        <ele>982.412122201</ele>
        <time>2015-12-11T14:46:42Z</time>
      </trkpt>
      <trkpt lat="45.5551" lon="6.04629">
        <ele>983.293013765</ele>
        <time>2015-12-11T14:46:52Z</time>
      </trkpt>
      <trkpt lat="45.55504" lon="6.04629">
        <ele>983.293013765</ele>
        <time>2015-12-11T14:46:57Z</time>
      </trkpt>
      <trkpt lat="45.55493" lon="6.04628">
        <ele>984.37112974</ele>
        <time>2015-12-11T14:47:07Z</time>
      </trkpt>
      <trkpt lat="45.55489" lon="6.0463">
        <ele>984.37112974</ele>
        <time>2015-12-11T14:47:11Z</time>
      </trkpt>
      <trkpt lat="45.55486" lon="6.04633">
        <ele>984.37112974</ele>
        <time>2015-12-11T14:47:22Z</time>
      </trkpt>
      <trkpt lat="45.55484" lon="6.04634">
        <ele>985.765936167</ele>
        <time>2015-12-11T14:47:26Z</time>
      </trkpt>
      <trkpt lat="45.55471" lon="6.04639">
        <ele>987.155121254</ele>
        <time>2015-12-11T14:47:36Z</time>
      </trkpt>
      <trkpt lat="45.55468" lon="6.0464">
        <ele>987.155121254</ele>
        <time>2015-12-11T14:47:42Z</time>
      </trkpt>
      <trkpt lat="45.55456" lon="6.04643">
        <ele>989.104968405</ele>
        <time>2015-12-11T14:47:52Z</time>
      </trkpt>
      <trkpt lat="45.55453" lon="6.04644">
        <ele>989.104968405</ele>
        <time>2015-12-11T14:47:56Z</time>
      </trkpt>
      <trkpt lat="45.55444" lon="6.04643">
        <ele>990.697728012</ele>
        <time>2015-12-11T14:48:02Z</time>
      </trkpt>
      <trkpt lat="45.55429" lon="6.04645">
        <ele>992.237223057</ele>
        <time>2015-12-11T14:48:11Z</time>
      </trkpt>
      <trkpt lat="45.55425" lon="6.04647">
        <ele>992.237223057</ele>
        <time>2015-12-11T14:48:17Z</time>
      </trkpt>
      <trkpt lat="45.55415" lon="6.04651">
        <ele>993.5730499</ele>
        <time>2015-12-11T14:48:26Z</time>
      </trkpt>
      <trkpt lat="45.55404" lon="6.04651">
        <ele>994.854933037</ele>
        <time>2015-12-11T14:48:32Z</time>
      </trkpt>
      <trkpt lat="45.55397" lon="6.04652">
        <ele>994.854933037</ele>
        <time>2015-12-11T14:48:42Z</time>
      </trkpt>
      <trkpt lat="45.55394" lon="6.04651">
        <ele>996.510265561</ele>
        <time>2015-12-11T14:48:47Z</time>
      </trkpt>
      <trkpt lat="45.55377" lon="6.04653">
        <ele>997.92551808</ele>
        <time>2015-12-11T14:48:56Z</time>
      </trkpt>
      <trkpt lat="45.55366" lon="6.04652">
        <ele>999.109652287</ele>
        <time>2015-12-11T14:49:01Z</time>
      </trkpt>
      <trkpt lat="45.55354" lon="6.04647">
        <ele>1000.216037057</ele>
        <time>2015-12-11T14:49:12Z</time>
      </trkpt>
      <trkpt lat="45.55348" lon="6.04648">
        <ele>1000.216037057</ele>
        <time>2015-12-11T14:49:17Z</time>
      </trkpt>
      <trkpt lat="45.55331" lon="6.04645">
        <ele>1001.099077138</ele>
        <time>2015-12-11T14:49:27Z</time>
      </trkpt>
      <trkpt lat="45.55331" lon="6.04645">
        <ele>1001.099077138</ele>
        <time>2015-12-11T14:49:32Z</time>
      </trkpt>
      <trkpt lat="45.55321" lon="6.04645">
        <ele>1002.057137577</ele>
        <time>2015-12-11T14:49:42Z</time>
      </trkpt>
      <trkpt lat="45.55318" lon="6.04645">
        <ele>1002.057137577</ele>
        <time>2015-12-11T14:49:46Z</time>
      </trkpt>
      <trkpt lat="45.55306" lon="6.04644">
        <ele>1002.646200464</ele>
        <time>2015-12-11T14:49:56Z</time>
      </trkpt>
      <trkpt lat="45.55302" lon="6.04637">
        <ele>1002.646200464</ele>
        <time>2015-12-11T14:50:01Z</time>
      </trkpt>
      <trkpt lat="45.55287" lon="6.04618">
        <ele>1002.456194676</ele>
        <time>2015-12-11T14:50:16Z</time>
      </trkpt>
      <trkpt lat="45.55285" lon="6.04615">
        <ele>1002.456194676</ele>
        <time>2015-12-11T14:50:21Z</time>
      </trkpt>
      <trkpt lat="45.55274" lon="6.04605">
        <ele>1001.253752887</ele>
        <time>2015-12-11T14:50:31Z</time>
      </trkpt>
      <trkpt lat="45.55273" lon="6.04601">
        <ele>1001.253752887</ele>
        <time>2015-12-11T14:50:36Z</time>
      </trkpt>
      <trkpt lat="45.55274" lon="6.04598">
        <ele>1001.253752887</ele>
        <time>2015-12-11T14:50:41Z</time>
      </trkpt>
      <trkpt lat="45.55273" lon="6.04592">
        <ele>999.690426442</ele>
        <time>2015-12-11T14:50:47Z</time>
      </trkpt>
      <trkpt lat="45.55278" lon="6.04579">
        <ele>997.506497529</ele>
        <time>2015-12-11T14:50:57Z</time>
      </trkpt>
      <trkpt lat="45.55277" lon="6.04577">
        <ele>997.506497529</ele>
        <time>2015-12-11T14:51:01Z</time>
      </trkpt>
      <trkpt lat="45.55266" lon="6.04559">
        <ele>993.310398955</ele>
        <time>2015-12-11T14:51:16Z</time>
      </trkpt>
      <trkpt lat="45.55259" lon="6.04557">
        <ele>993.310398955</ele>
        <time>2015-12-11T14:51:22Z</time>
      </trkpt>
      <trkpt lat="45.55248" lon="6.04551">
        <ele>988.700842443</ele>
        <time>2015-12-11T14:51:31Z</time>
      </trkpt>
      <trkpt lat="45.55242" lon="6.04549">
        <ele>988.700842443</ele>
        <time>2015-12-11T14:51:37Z</time>
      </trkpt>
      <trkpt lat="45.5523" lon="6.0455">
        <ele>983.863407842</ele>
        <time>2015-12-11T14:51:46Z</time>
      </trkpt>
      <trkpt lat="45.55223" lon="6.04554">
        <ele>983.863407842</ele>
        <time>2015-12-11T14:51:52Z</time>
      </trkpt>
      <trkpt lat="45.55207" lon="6.04545">
        <ele>978.970789222</ele>
        <time>2015-12-11T14:52:02Z</time>
      </trkpt>
      <trkpt lat="45.55205" lon="6.04547">
        <ele>978.970789222</ele>
        <time>2015-12-11T14:52:07Z</time>
      </trkpt>
      <trkpt lat="45.55195" lon="6.04551">
        <ele>974.327325714</ele>
        <time>2015-12-11T14:52:17Z</time>
      </trkpt>
      <trkpt lat="45.5519" lon="6.0455">
        <ele>974.327325714</ele>
        <time>2015-12-11T14:52:22Z</time>
      </trkpt>
      <trkpt lat="45.55181" lon="6.04545">
        <ele>968.196766891</ele>
        <time>2015-12-11T14:52:32Z</time>
      </trkpt>
      <trkpt lat="45.5518" lon="6.0454">
        <ele>968.196766891</ele>
        <time>2015-12-11T14:52:36Z</time>
      </trkpt>
      <trkpt lat="45.55181" lon="6.04522">
        <ele>960.848001851</ele>
        <time>2015-12-11T14:52:47Z</time>
      </trkpt>
      <trkpt lat="45.55182" lon="6.04511">
        <ele>960.848001851</ele>
        <time>2015-12-11T14:52:52Z</time>
      </trkpt>
      <trkpt lat="45.55188" lon="6.04501">
        <ele>953.686408527</ele>
        <time>2015-12-11T14:53:02Z</time>
      </trkpt>
      <trkpt lat="45.55191" lon="6.04492">
        <ele>953.686408527</ele>
        <time>2015-12-11T14:53:07Z</time>
      </trkpt>
      <trkpt lat="45.55196" lon="6.04486">
        <ele>946.7164904</ele>
        <time>2015-12-11T14:53:11Z</time>
      </trkpt>
      <trkpt lat="45.55202" lon="6.04477">
        <ele>946.7164904</ele>
        <time>2015-12-11T14:53:21Z</time>
      </trkpt>
      <trkpt lat="45.55214" lon="6.04458">
        <ele>939.365281269</ele>
        <time>2015-12-11T14:53:37Z</time>
      </trkpt>
      <trkpt lat="45.55227" lon="6.04439">
        <ele>932.1115529</ele>
        <time>2015-12-11T14:53:52Z</time>
      </trkpt>
      <trkpt lat="45.55232" lon="6.04433">
        <ele>932.1115529</ele>
        <time>2015-12-11T14:53:57Z</time>
      </trkpt>
      <trkpt lat="45.55243" lon="6.04414">
        <ele>924.966061166</ele>
        <time>2015-12-11T14:54:07Z</time>
      </trkpt>
      <trkpt lat="45.55243" lon="6.04416">
        <ele>924.966061166</ele>
        <time>2015-12-11T14:54:12Z</time>
      </trkpt>
      <trkpt lat="45.55236" lon="6.04413">
        <ele>924.966061166</ele>
        <time>2015-12-11T14:54:21Z</time>
      </trkpt>
      <trkpt lat="45.5523" lon="6.04415">
        <ele>917.794082837</ele>
        <time>2015-12-11T14:54:27Z</time>
      </trkpt>
      <trkpt lat="45.55224" lon="6.04415">
        <ele>917.794082837</ele>
        <time>2015-12-11T14:54:31Z</time>
      </trkpt>
      <trkpt lat="45.5522" lon="6.04416">
        <ele>911.191116178</ele>
        <time>2015-12-11T14:54:37Z</time>
      </trkpt>
      <trkpt lat="45.55219" lon="6.04416">
        <ele>911.191116178</ele>
        <time>2015-12-11T14:54:41Z</time>
      </trkpt>
      <trkpt lat="45.55215" lon="6.04416">
        <ele>911.191116178</ele>
        <time>2015-12-11T14:54:47Z</time>
      </trkpt>
      <trkpt lat="45.55208" lon="6.04413">
        <ele>904.554096735</ele>
        <time>2015-12-11T14:54:52Z</time>
      </trkpt>
      <trkpt lat="45.55201" lon="6.0441">
        <ele>904.554096735</ele>
        <time>2015-12-11T14:54:56Z</time>
      </trkpt>
      <trkpt lat="45.55182" lon="6.04408">
        <ele>897.324000547</ele>
        <time>2015-12-11T14:55:11Z</time>
      </trkpt>
      <trkpt lat="45.55178" lon="6.04407">
        <ele>897.324000547</ele>
        <time>2015-12-11T14:55:17Z</time>
      </trkpt>
      <trkpt lat="45.55163" lon="6.04402">
        <ele>890.425268917</ele>
        <time>2015-12-11T14:55:27Z</time>
      </trkpt>
      <trkpt lat="45.55156" lon="6.04401">
        <ele>890.425268917</ele>
        <time>2015-12-11T14:55:32Z</time>
      </trkpt>
      <trkpt lat="45.55141" lon="6.04403">
        <ele>883.704333739</ele>
        <time>2015-12-11T14:55:42Z</time>
      </trkpt>
      <trkpt lat="45.55134" lon="6.044">
        <ele>883.704333739</ele>
        <time>2015-12-11T14:55:46Z</time>
      </trkpt>
      <trkpt lat="45.55115" lon="6.04402">
        <ele>877.018001605</ele>
        <time>2015-12-11T14:55:57Z</time>
      </trkpt>
      <trkpt lat="45.55106" lon="6.04405">
        <ele>877.018001605</ele>
        <time>2015-12-11T14:56:02Z</time>
      </trkpt>
      <trkpt lat="45.55096" lon="6.04413">
        <ele>870.521303891</ele>
        <time>2015-12-11T14:56:12Z</time>
      </trkpt>
      <trkpt lat="45.5509" lon="6.04415">
        <ele>870.521303891</ele>
        <time>2015-12-11T14:56:16Z</time>
      </trkpt>
      <trkpt lat="45.55074" lon="6.04413">
        <ele>864.068701304</ele>
        <time>2015-12-11T14:56:27Z</time>
      </trkpt>
      <trkpt lat="45.55069" lon="6.04416">
        <ele>864.068701304</ele>
        <time>2015-12-11T14:56:31Z</time>
      </trkpt>
      <trkpt lat="45.55064" lon="6.04419">
        <ele>857.813011162</ele>
        <time>2015-12-11T14:56:36Z</time>
      </trkpt>
      <trkpt lat="45.55053" lon="6.04423">
        <ele>851.894836937</ele>
        <time>2015-12-11T14:56:47Z</time>
      </trkpt>
      <trkpt lat="45.55047" lon="6.04425">
        <ele>851.894836937</ele>
        <time>2015-12-11T14:56:51Z</time>
      </trkpt>
      <trkpt lat="45.55042" lon="6.0441">
        <ele>846.154849395</ele>
        <time>2015-12-11T14:57:02Z</time>
      </trkpt>
      <trkpt lat="45.55041" lon="6.04404">
        <ele>846.154849395</ele>
        <time>2015-12-11T14:57:07Z</time>
      </trkpt>
      <trkpt lat="45.5504" lon="6.04398">
        <ele>846.154849395</ele>
        <time>2015-12-11T14:57:16Z</time>
      </trkpt>
      <trkpt lat="45.5504" lon="6.04396">
        <ele>841.453272081</ele>
        <time>2015-12-11T14:57:21Z</time>
      </trkpt>
      <trkpt lat="45.5504" lon="6.04393">
        <ele>841.453272081</ele>
        <time>2015-12-11T14:57:27Z</time>
      </trkpt>
      <trkpt lat="45.55037" lon="6.04393">
        <ele>841.453272081</ele>
        <time>2015-12-11T14:57:36Z</time>
      </trkpt>
      <trkpt lat="45.55037" lon="6.04393">
        <ele>841.453272081</ele>
        <time>2015-12-11T14:57:42Z</time>
      </trkpt>
      <trkpt lat="45.55038" lon="6.04395">
        <ele>841.453272081</ele>
        <time>2015-12-11T14:57:56Z</time>
      </trkpt>
      <trkpt lat="45.55039" lon="6.04396">
        <ele>841.453272081</ele>
        <time>2015-12-11T14:58:01Z</time>
      </trkpt>
      <trkpt lat="45.55041" lon="6.04397">
        <ele>836.133912067</ele>
        <time>2015-12-11T14:58:06Z</time>
      </trkpt>
      <trkpt lat="45.55037" lon="6.04395">
        <ele>836.133912067</ele>
        <time>2015-12-11T14:58:11Z</time>
      </trkpt>
      <trkpt lat="45.55029" lon="6.04398">
        <ele>832.122231126</ele>
        <time>2015-12-11T14:58:17Z</time>
      </trkpt>
      <trkpt lat="45.55028" lon="6.04392">
        <ele>832.122231126</ele>
        <time>2015-12-11T14:58:27Z</time>
      </trkpt>
      <trkpt lat="45.55024" lon="6.04387">
        <ele>829.468854185</ele>
        <time>2015-12-11T14:58:32Z</time>
      </trkpt>
      <trkpt lat="45.55017" lon="6.04384">
        <ele>829.468854185</ele>
        <time>2015-12-11T14:58:42Z</time>
      </trkpt>
      <trkpt lat="45.55008" lon="6.0438">
        <ele>827.495953741</ele>
        <time>2015-12-11T14:58:46Z</time>
      </trkpt>
      <trkpt lat="45.54996" lon="6.04378">
        <ele>826.293804682</ele>
        <time>2015-12-11T14:58:57Z</time>
      </trkpt>
      <trkpt lat="45.54993" lon="6.04377">
        <ele>826.293804682</ele>
        <time>2015-12-11T14:59:01Z</time>
      </trkpt>
      <trkpt lat="45.54993" lon="6.04379">
        <ele>826.293804682</ele>
        <time>2015-12-11T14:59:11Z</time>
      </trkpt>
      <trkpt lat="45.54989" lon="6.0437">
        <ele>825.799476538</ele>
        <time>2015-12-11T14:59:18Z</time>
      </trkpt>
      <trkpt lat="45.54973" lon="6.04352">
        <ele>824.511303199</ele>
        <time>2015-12-11T14:59:27Z</time>
      </trkpt>
      <trkpt lat="45.54969" lon="6.04349">
        <ele>824.511303199</ele>
        <time>2015-12-11T14:59:31Z</time>
      </trkpt>
      <trkpt lat="45.54955" lon="6.04342">
        <ele>824.210383204</ele>
        <time>2015-12-11T14:59:42Z</time>
      </trkpt>
      <trkpt lat="45.54946" lon="6.0434">
        <ele>824.210383204</ele>
        <time>2015-12-11T14:59:46Z</time>
      </trkpt>
      <trkpt lat="45.54936" lon="6.04334">
        <ele>824.670585064</ele>
        <time>2015-12-11T14:59:57Z</time>
      </trkpt>
      <trkpt lat="45.54931" lon="6.04331">
        <ele>824.670585064</ele>
        <time>2015-12-11T15:00:02Z</time>
      </trkpt>
      <trkpt lat="45.54927" lon="6.04325">
        <ele>825.103674365</ele>
        <time>2015-12-11T15:00:07Z</time>
      </trkpt>
      <trkpt lat="45.54916" lon="6.04311">
        <ele>825.643970489</ele>
        <time>2015-12-11T15:00:17Z</time>
      </trkpt>
      <trkpt lat="45.54911" lon="6.04307">
        <ele>825.643970489</ele>
        <time>2015-12-11T15:00:21Z</time>
      </trkpt>
      <trkpt lat="45.54901" lon="6.04301">
        <ele>826.70379789</ele>
        <time>2015-12-11T15:00:31Z</time>
      </trkpt>
      <trkpt lat="45.54898" lon="6.04297">
        <ele>826.70379789</ele>
        <time>2015-12-11T15:00:36Z</time>
      </trkpt>
      <trkpt lat="45.54894" lon="6.0429">
        <ele>828.087282646</ele>
        <time>2015-12-11T15:00:42Z</time>
      </trkpt>
      <trkpt lat="45.54879" lon="6.04277">
        <ele>829.323842722</ele>
        <time>2015-12-11T15:00:57Z</time>
      </trkpt>
      <trkpt lat="45.54874" lon="6.04274">
        <ele>829.323842722</ele>
        <time>2015-12-11T15:01:01Z</time>
      </trkpt>
      <trkpt lat="45.54869" lon="6.0427">
        <ele>830.698505403</ele>
        <time>2015-12-11T15:01:07Z</time>
      </trkpt>
      <trkpt lat="45.54862" lon="6.04266">
        <ele>830.698505403</ele>
        <time>2015-12-11T15:01:12Z</time>
      </trkpt>
      <trkpt lat="45.54853" lon="6.04259">
        <ele>832.186860393</ele>
        <time>2015-12-11T15:01:22Z</time>
      </trkpt>
      <trkpt lat="45.54848" lon="6.04256">
        <ele>832.186860393</ele>
        <time>2015-12-11T15:01:27Z</time>
      </trkpt>
      <trkpt lat="45.54839" lon="6.04247">
        <ele>835.0631195</ele>
        <time>2015-12-11T15:01:36Z</time>
      </trkpt>
      <trkpt lat="45.54836" lon="6.0424">
        <ele>835.0631195</ele>
        <time>2015-12-11T15:01:42Z</time>
      </trkpt>
      <trkpt lat="45.54832" lon="6.04234">
        <ele>838.342514943</ele>
        <time>2015-12-11T15:01:46Z</time>
      </trkpt>
      <trkpt lat="45.5483" lon="6.0423">
        <ele>838.342514943</ele>
        <time>2015-12-11T15:01:51Z</time>
      </trkpt>
      <trkpt lat="45.54821" lon="6.04224">
        <ele>841.832266225</ele>
        <time>2015-12-11T15:01:57Z</time>
      </trkpt>
      <trkpt lat="45.5481" lon="6.0422">
        <ele>844.632867309</ele>
        <time>2015-12-11T15:02:07Z</time>
      </trkpt>
      <trkpt lat="45.54806" lon="6.0422">
        <ele>844.632867309</ele>
        <time>2015-12-11T15:02:11Z</time>
      </trkpt>
      <trkpt lat="45.548" lon="6.04221">
        <ele>847.49833997</ele>
        <time>2015-12-11T15:02:16Z</time>
      </trkpt>
      <trkpt lat="45.54795" lon="6.0422">
        <ele>847.49833997</ele>
        <time>2015-12-11T15:02:21Z</time>
      </trkpt>
      <trkpt lat="45.54784" lon="6.04212">
        <ele>850.839238713</ele>
        <time>2015-12-11T15:02:32Z</time>
      </trkpt>
      <trkpt lat="45.54779" lon="6.04205">
        <ele>850.839238713</ele>
        <time>2015-12-11T15:02:37Z</time>
      </trkpt>
      <trkpt lat="45.5477" lon="6.04198">
        <ele>853.017422662</ele>
        <time>2015-12-11T15:02:51Z</time>
      </trkpt>
      <trkpt lat="45.54744" lon="6.04198">
        <ele>855.689172053</ele>
        <time>2015-12-11T15:03:07Z</time>
      </trkpt>
      <trkpt lat="45.54738" lon="6.04198">
        <ele>855.689172053</ele>
        <time>2015-12-11T15:03:11Z</time>
      </trkpt>
      <trkpt lat="45.54723" lon="6.04201">
        <ele>858.514664557</ele>
        <time>2015-12-11T15:03:22Z</time>
      </trkpt>
      <trkpt lat="45.54717" lon="6.04205">
        <ele>858.514664557</ele>
        <time>2015-12-11T15:03:27Z</time>
      </trkpt>
      <trkpt lat="45.54703" lon="6.04208">
        <ele>861.17902258</ele>
        <time>2015-12-11T15:03:36Z</time>
      </trkpt>
      <trkpt lat="45.54697" lon="6.04209">
        <ele>861.17902258</ele>
        <time>2015-12-11T15:03:41Z</time>
      </trkpt>
      <trkpt lat="45.54683" lon="6.04215">
        <ele>863.535488112</ele>
        <time>2015-12-11T15:03:52Z</time>
      </trkpt>
      <trkpt lat="45.54673" lon="6.04219">
        <ele>865.73760611</ele>
        <time>2015-12-11T15:03:57Z</time>
      </trkpt>
      <trkpt lat="45.54659" lon="6.04217">
        <ele>868.072630165</ele>
        <time>2015-12-11T15:04:07Z</time>
      </trkpt>
      <trkpt lat="45.54653" lon="6.04217">
        <ele>868.072630165</ele>
        <time>2015-12-11T15:04:11Z</time>
      </trkpt>
      <trkpt lat="45.54641" lon="6.04209">
        <ele>870.230343117</ele>
        <time>2015-12-11T15:04:22Z</time>
      </trkpt>
      <trkpt lat="45.54635" lon="6.04211">
        <ele>870.230343117</ele>
        <time>2015-12-11T15:04:26Z</time>
      </trkpt>
      <trkpt lat="45.5462" lon="6.04213">
        <ele>872.500708732</ele>
        <time>2015-12-11T15:04:36Z</time>
      </trkpt>
      <trkpt lat="45.54614" lon="6.04209">
        <ele>872.500708732</ele>
        <time>2015-12-11T15:04:41Z</time>
      </trkpt>
      <trkpt lat="45.546" lon="6.0421">
        <ele>874.576080225</ele>
        <time>2015-12-11T15:04:52Z</time>
      </trkpt>
      <trkpt lat="45.54594" lon="6.0421">
        <ele>874.576080225</ele>
        <time>2015-12-11T15:04:56Z</time>
      </trkpt>
      <trkpt lat="45.54576" lon="6.04207">
        <ele>876.748851548</ele>
        <time>2015-12-11T15:05:12Z</time>
      </trkpt>
      <trkpt lat="45.54566" lon="6.04206">
        <ele>879.146000305</ele>
        <time>2015-12-11T15:05:16Z</time>
      </trkpt>
      <trkpt lat="45.54552" lon="6.04206">
        <ele>881.308545757</ele>
        <time>2015-12-11T15:05:27Z</time>
      </trkpt>
      <trkpt lat="45.54547" lon="6.04207">
        <ele>881.308545757</ele>
        <time>2015-12-11T15:05:32Z</time>
      </trkpt>
      <trkpt lat="45.5453" lon="6.04212">
        <ele>883.388765075</ele>
        <time>2015-12-11T15:05:42Z</time>
      </trkpt>
      <trkpt lat="45.54526" lon="6.04213">
        <ele>883.388765075</ele>
        <time>2015-12-11T15:05:46Z</time>
      </trkpt>
      <trkpt lat="45.54514" lon="6.04216">
        <ele>885.09607892</ele>
        <time>2015-12-11T15:05:57Z</time>
      </trkpt>
      <trkpt lat="45.54507" lon="6.04217">
        <ele>885.09607892</ele>
        <time>2015-12-11T15:06:01Z</time>
      </trkpt>
      <trkpt lat="45.54496" lon="6.04221">
        <ele>886.450945721</ele>
        <time>2015-12-11T15:06:11Z</time>
      </trkpt>
      <trkpt lat="45.54493" lon="6.04222">
        <ele>886.450945721</ele>
        <time>2015-12-11T15:06:16Z</time>
      </trkpt>
      <trkpt lat="45.54479" lon="6.04227">
        <ele>887.761944522</ele>
        <time>2015-12-11T15:06:27Z</time>
      </trkpt>
      <trkpt lat="45.54473" lon="6.0423">
        <ele>887.761944522</ele>
        <time>2015-12-11T15:06:31Z</time>
      </trkpt>
      <trkpt lat="45.54458" lon="6.04236">
        <ele>889.171397679</ele>
        <time>2015-12-11T15:06:42Z</time>
      </trkpt>
      <trkpt lat="45.54453" lon="6.04237">
        <ele>889.171397679</ele>
        <time>2015-12-11T15:06:47Z</time>
      </trkpt>
      <trkpt lat="45.5444" lon="6.04244">
        <ele>890.234836252</ele>
        <time>2015-12-11T15:06:56Z</time>
      </trkpt>
      <trkpt lat="45.54432" lon="6.04246">
        <ele>890.234836252</ele>
        <time>2015-12-11T15:07:02Z</time>
      </trkpt>
      <trkpt lat="45.54421" lon="6.04255">
        <ele>891.262336839</ele>
        <time>2015-12-11T15:07:11Z</time>
      </trkpt>
      <trkpt lat="45.54417" lon="6.04259">
        <ele>891.262336839</ele>
        <time>2015-12-11T15:07:17Z</time>
      </trkpt>
      <trkpt lat="45.54405" lon="6.0427">
        <ele>892.253428609</ele>
        <time>2015-12-11T15:07:27Z</time>
      </trkpt>
      <trkpt lat="45.544" lon="6.04276">
        <ele>892.253428609</ele>
        <time>2015-12-11T15:07:31Z</time>
      </trkpt>
      <trkpt lat="45.54395" lon="6.04279">
        <ele>893.496335399</ele>
        <time>2015-12-11T15:07:37Z</time>
      </trkpt>
      <trkpt lat="45.54383" lon="6.04288">
        <ele>894.53716475</ele>
        <time>2015-12-11T15:07:46Z</time>
      </trkpt>
      <trkpt lat="45.54376" lon="6.04295">
        <ele>895.38856918</ele>
        <time>2015-12-11T15:07:52Z</time>
      </trkpt>
      <trkpt lat="45.54364" lon="6.04302">
        <ele>896.20719954</ele>
        <time>2015-12-11T15:08:02Z</time>
      </trkpt>
      <trkpt lat="45.54354" lon="6.04305">
        <ele>896.850336955</ele>
        <time>2015-12-11T15:08:07Z</time>
      </trkpt>
      <trkpt lat="45.54343" lon="6.04315">
        <ele>896.898266122</ele>
        <time>2015-12-11T15:08:17Z</time>
      </trkpt>
      <trkpt lat="45.54338" lon="6.04318">
        <ele>896.898266122</ele>
        <time>2015-12-11T15:08:22Z</time>
      </trkpt>
      <trkpt lat="45.54328" lon="6.04323">
        <ele>896.684559048</ele>
        <time>2015-12-11T15:08:32Z</time>
      </trkpt>
      <trkpt lat="45.54319" lon="6.04329">
        <ele>896.663337894</ele>
        <time>2015-12-11T15:08:36Z</time>
      </trkpt>
      <trkpt lat="45.54306" lon="6.04341">
        <ele>896.966791115</ele>
        <time>2015-12-11T15:08:47Z</time>
      </trkpt>
      <trkpt lat="45.54302" lon="6.04346">
        <ele>896.966791115</ele>
        <time>2015-12-11T15:08:51Z</time>
      </trkpt>
      <trkpt lat="45.54291" lon="6.04356">
        <ele>897.428431624</ele>
        <time>2015-12-11T15:09:02Z</time>
      </trkpt>
      <trkpt lat="45.54287" lon="6.0436">
        <ele>897.428431624</ele>
        <time>2015-12-11T15:09:07Z</time>
      </trkpt>
      <trkpt lat="45.54283" lon="6.04364">
        <ele>897.317262895</ele>
        <time>2015-12-11T15:09:17Z</time>
      </trkpt>
      <trkpt lat="45.54282" lon="6.04364">
        <ele>897.317262895</ele>
        <time>2015-12-11T15:09:21Z</time>
      </trkpt>
      <trkpt lat="45.54282" lon="6.04364">
        <ele>897.317262895</ele>
        <time>2015-12-11T15:09:36Z</time>
      </trkpt>
      <trkpt lat="45.54281" lon="6.04365">
        <ele>897.317262895</ele>
        <time>2015-12-11T15:09:42Z</time>
      </trkpt>
      <trkpt lat="45.54281" lon="6.04365">
        <ele>897.317262895</ele>
        <time>2015-12-11T15:09:51Z</time>
      </trkpt>
      <trkpt lat="45.5428" lon="6.04364">
        <ele>897.317262895</ele>
        <time>2015-12-11T15:09:56Z</time>
      </trkpt>
    </trkseg>
  </trk>
</gpx>